<?xml version="1.0" encoding="UTF-8" standalone="no" ?>
<gpx xmlns="http://www.topografix.com/GPX/1/1" xmlns:xsi="http://www.w3.org/2001/XMLSchema-instance" xsi:schemaLocation="http://www.topografix.com/GPX/1/1 http://www.topografix.com/GPX/1/1/gpx.xsd" version="1.1" creator="VisuGPX - https://www.visugpx.com">
  <metadata>
    <name>04/09/2022</name>
    <desc><![CDATA[boucle au départ de aucun puis couraduque col du soulor et retour]]></desc>
  </metadata>
  <trk>
    <name><![CDATA[04/09/2022_1]]></name>
    <trkseg>
      <trkpt lat="42.97296" lon="-0.19486">
        <ele>871.4</ele>
        <time>2022-09-04T06:59:16Z</time>
      </trkpt>
      <trkpt lat="42.97296" lon="-0.19486">
        <ele>875</ele>
        <time>2022-09-04T06:59:17Z</time>
      </trkpt>
      <trkpt lat="42.97297" lon="-0.19486">
        <ele>876.8</ele>
        <time>2022-09-04T06:59:18Z</time>
      </trkpt>
      <trkpt lat="42.97296" lon="-0.19484">
        <ele>877.4</ele>
        <time>2022-09-04T06:59:26Z</time>
      </trkpt>
      <trkpt lat="42.97297" lon="-0.19482">
        <ele>877.4</ele>
        <time>2022-09-04T06:59:28Z</time>
      </trkpt>
      <trkpt lat="42.973" lon="-0.19482">
        <ele>877.6</ele>
        <time>2022-09-04T06:59:30Z</time>
      </trkpt>
      <trkpt lat="42.97301" lon="-0.19483">
        <ele>877.6</ele>
        <time>2022-09-04T06:59:31Z</time>
      </trkpt>
      <trkpt lat="42.97304" lon="-0.19489">
        <ele>877.8</ele>
        <time>2022-09-04T06:59:34Z</time>
      </trkpt>
      <trkpt lat="42.97301" lon="-0.19493">
        <ele>878</ele>
        <time>2022-09-04T06:59:36Z</time>
      </trkpt>
      <trkpt lat="42.97294" lon="-0.19507">
        <ele>878.2</ele>
        <time>2022-09-04T06:59:42Z</time>
      </trkpt>
      <trkpt lat="42.97295" lon="-0.1951">
        <ele>878.2</ele>
        <time>2022-09-04T06:59:43Z</time>
      </trkpt>
      <trkpt lat="42.97296" lon="-0.19513">
        <ele>878.2</ele>
        <time>2022-09-04T06:59:44Z</time>
      </trkpt>
      <trkpt lat="42.97304" lon="-0.19516">
        <ele>878.4</ele>
        <time>2022-09-04T06:59:48Z</time>
      </trkpt>
      <trkpt lat="42.97312" lon="-0.19507">
        <ele>878.6</ele>
        <time>2022-09-04T06:59:53Z</time>
      </trkpt>
      <trkpt lat="42.97316" lon="-0.19503">
        <ele>879.2</ele>
        <time>2022-09-04T06:59:55Z</time>
      </trkpt>
      <trkpt lat="42.97328" lon="-0.19487">
        <ele>880.4</ele>
        <time>2022-09-04T07:00:02Z</time>
      </trkpt>
      <trkpt lat="42.97338" lon="-0.19477">
        <ele>881.4</ele>
        <time>2022-09-04T07:00:08Z</time>
      </trkpt>
      <trkpt lat="42.97344" lon="-0.19472">
        <ele>881.8</ele>
        <time>2022-09-04T07:00:11Z</time>
      </trkpt>
      <trkpt lat="42.97351" lon="-0.19466">
        <ele>882.6</ele>
        <time>2022-09-04T07:00:15Z</time>
      </trkpt>
      <trkpt lat="42.97362" lon="-0.19458">
        <ele>883.4</ele>
        <time>2022-09-04T07:00:20Z</time>
      </trkpt>
      <trkpt lat="42.97366" lon="-0.19456">
        <ele>883.8</ele>
        <time>2022-09-04T07:00:22Z</time>
      </trkpt>
      <trkpt lat="42.97378" lon="-0.19451">
        <ele>885.4</ele>
        <time>2022-09-04T07:00:27Z</time>
      </trkpt>
      <trkpt lat="42.97383" lon="-0.19449">
        <ele>885.8</ele>
        <time>2022-09-04T07:00:29Z</time>
      </trkpt>
      <trkpt lat="42.97388" lon="-0.19447">
        <ele>886.4</ele>
        <time>2022-09-04T07:00:31Z</time>
      </trkpt>
      <trkpt lat="42.97396" lon="-0.19442">
        <ele>887.4</ele>
        <time>2022-09-04T07:00:35Z</time>
      </trkpt>
      <trkpt lat="42.97402" lon="-0.19438">
        <ele>888.2</ele>
        <time>2022-09-04T07:00:38Z</time>
      </trkpt>
      <trkpt lat="42.97407" lon="-0.19435">
        <ele>888.6</ele>
        <time>2022-09-04T07:00:40Z</time>
      </trkpt>
      <trkpt lat="42.97412" lon="-0.19431">
        <ele>889.8</ele>
        <time>2022-09-04T07:00:43Z</time>
      </trkpt>
      <trkpt lat="42.97418" lon="-0.19429">
        <ele>890.4</ele>
        <time>2022-09-04T07:00:46Z</time>
      </trkpt>
      <trkpt lat="42.97419" lon="-0.19428">
        <ele>891</ele>
        <time>2022-09-04T07:00:47Z</time>
      </trkpt>
      <trkpt lat="42.97423" lon="-0.19428">
        <ele>891.6</ele>
        <time>2022-09-04T07:00:49Z</time>
      </trkpt>
      <trkpt lat="42.97427" lon="-0.19428">
        <ele>892.2</ele>
        <time>2022-09-04T07:00:51Z</time>
      </trkpt>
      <trkpt lat="42.97436" lon="-0.19426">
        <ele>893.6</ele>
        <time>2022-09-04T07:00:55Z</time>
      </trkpt>
      <trkpt lat="42.97442" lon="-0.19422">
        <ele>894.8</ele>
        <time>2022-09-04T07:00:58Z</time>
      </trkpt>
      <trkpt lat="42.97444" lon="-0.1942">
        <ele>895</ele>
        <time>2022-09-04T07:00:59Z</time>
      </trkpt>
      <trkpt lat="42.9745" lon="-0.19414">
        <ele>896.2</ele>
        <time>2022-09-04T07:01:02Z</time>
      </trkpt>
      <trkpt lat="42.97458" lon="-0.19405">
        <ele>896.8</ele>
        <time>2022-09-04T07:01:06Z</time>
      </trkpt>
      <trkpt lat="42.97461" lon="-0.19402">
        <ele>897</ele>
        <time>2022-09-04T07:01:07Z</time>
      </trkpt>
      <trkpt lat="42.97463" lon="-0.194">
        <ele>897.2</ele>
        <time>2022-09-04T07:01:08Z</time>
      </trkpt>
      <trkpt lat="42.97471" lon="-0.19391">
        <ele>898.2</ele>
        <time>2022-09-04T07:01:12Z</time>
      </trkpt>
      <trkpt lat="42.97473" lon="-0.19389">
        <ele>898.4</ele>
        <time>2022-09-04T07:01:13Z</time>
      </trkpt>
      <trkpt lat="42.9748" lon="-0.1938">
        <ele>899.4</ele>
        <time>2022-09-04T07:01:17Z</time>
      </trkpt>
      <trkpt lat="42.97487" lon="-0.19371">
        <ele>900</ele>
        <time>2022-09-04T07:01:21Z</time>
      </trkpt>
      <trkpt lat="42.97493" lon="-0.19362">
        <ele>900.6</ele>
        <time>2022-09-04T07:01:25Z</time>
      </trkpt>
      <trkpt lat="42.97497" lon="-0.19351">
        <ele>901.4</ele>
        <time>2022-09-04T07:01:29Z</time>
      </trkpt>
      <trkpt lat="42.97498" lon="-0.19349">
        <ele>901.8</ele>
        <time>2022-09-04T07:01:30Z</time>
      </trkpt>
      <trkpt lat="42.97502" lon="-0.19334">
        <ele>902.8</ele>
        <time>2022-09-04T07:01:35Z</time>
      </trkpt>
      <trkpt lat="42.97504" lon="-0.19328">
        <ele>903.4</ele>
        <time>2022-09-04T07:01:37Z</time>
      </trkpt>
      <trkpt lat="42.97505" lon="-0.19323">
        <ele>904</ele>
        <time>2022-09-04T07:01:39Z</time>
      </trkpt>
      <trkpt lat="42.97507" lon="-0.19318">
        <ele>904.8</ele>
        <time>2022-09-04T07:01:41Z</time>
      </trkpt>
      <trkpt lat="42.97509" lon="-0.19312">
        <ele>905.2</ele>
        <time>2022-09-04T07:01:43Z</time>
      </trkpt>
      <trkpt lat="42.97511" lon="-0.19307">
        <ele>905.8</ele>
        <time>2022-09-04T07:01:45Z</time>
      </trkpt>
      <trkpt lat="42.97516" lon="-0.19295">
        <ele>906.4</ele>
        <time>2022-09-04T07:01:49Z</time>
      </trkpt>
      <trkpt lat="42.97522" lon="-0.19284">
        <ele>907.2</ele>
        <time>2022-09-04T07:01:53Z</time>
      </trkpt>
      <trkpt lat="42.97523" lon="-0.19281">
        <ele>907.6</ele>
        <time>2022-09-04T07:01:54Z</time>
      </trkpt>
      <trkpt lat="42.9753" lon="-0.19264">
        <ele>908.6</ele>
        <time>2022-09-04T07:02:00Z</time>
      </trkpt>
      <trkpt lat="42.97533" lon="-0.19258">
        <ele>909</ele>
        <time>2022-09-04T07:02:02Z</time>
      </trkpt>
      <trkpt lat="42.97537" lon="-0.1925">
        <ele>909.6</ele>
        <time>2022-09-04T07:02:05Z</time>
      </trkpt>
      <trkpt lat="42.97545" lon="-0.19237">
        <ele>910.6</ele>
        <time>2022-09-04T07:02:10Z</time>
      </trkpt>
      <trkpt lat="42.97549" lon="-0.19229">
        <ele>911.6</ele>
        <time>2022-09-04T07:02:13Z</time>
      </trkpt>
      <trkpt lat="42.97552" lon="-0.19223">
        <ele>912</ele>
        <time>2022-09-04T07:02:15Z</time>
      </trkpt>
      <trkpt lat="42.97559" lon="-0.1921">
        <ele>913</ele>
        <time>2022-09-04T07:02:20Z</time>
      </trkpt>
      <trkpt lat="42.97563" lon="-0.19203">
        <ele>913.2</ele>
        <time>2022-09-04T07:02:23Z</time>
      </trkpt>
      <trkpt lat="42.97564" lon="-0.192">
        <ele>913.6</ele>
        <time>2022-09-04T07:02:24Z</time>
      </trkpt>
      <trkpt lat="42.97566" lon="-0.19195">
        <ele>914</ele>
        <time>2022-09-04T07:02:26Z</time>
      </trkpt>
      <trkpt lat="42.97573" lon="-0.19183">
        <ele>915.2</ele>
        <time>2022-09-04T07:02:31Z</time>
      </trkpt>
      <trkpt lat="42.97575" lon="-0.19178">
        <ele>915.8</ele>
        <time>2022-09-04T07:02:33Z</time>
      </trkpt>
      <trkpt lat="42.9758" lon="-0.19167">
        <ele>916.4</ele>
        <time>2022-09-04T07:02:37Z</time>
      </trkpt>
      <trkpt lat="42.97582" lon="-0.19157">
        <ele>917.4</ele>
        <time>2022-09-04T07:02:41Z</time>
      </trkpt>
      <trkpt lat="42.97584" lon="-0.19149">
        <ele>917.6</ele>
        <time>2022-09-04T07:02:44Z</time>
      </trkpt>
      <trkpt lat="42.97586" lon="-0.19141">
        <ele>918.8</ele>
        <time>2022-09-04T07:02:47Z</time>
      </trkpt>
      <trkpt lat="42.97588" lon="-0.19133">
        <ele>919.8</ele>
        <time>2022-09-04T07:02:50Z</time>
      </trkpt>
      <trkpt lat="42.97589" lon="-0.19131">
        <ele>919.8</ele>
        <time>2022-09-04T07:02:51Z</time>
      </trkpt>
      <trkpt lat="42.97594" lon="-0.19117">
        <ele>921</ele>
        <time>2022-09-04T07:02:56Z</time>
      </trkpt>
      <trkpt lat="42.97597" lon="-0.19111">
        <ele>921.8</ele>
        <time>2022-09-04T07:02:59Z</time>
      </trkpt>
      <trkpt lat="42.97599" lon="-0.19105">
        <ele>922.4</ele>
        <time>2022-09-04T07:03:01Z</time>
      </trkpt>
      <trkpt lat="42.97605" lon="-0.19092">
        <ele>923.2</ele>
        <time>2022-09-04T07:03:06Z</time>
      </trkpt>
      <trkpt lat="42.97606" lon="-0.19089">
        <ele>923.4</ele>
        <time>2022-09-04T07:03:07Z</time>
      </trkpt>
      <trkpt lat="42.97612" lon="-0.19076">
        <ele>924.6</ele>
        <time>2022-09-04T07:03:12Z</time>
      </trkpt>
      <trkpt lat="42.97614" lon="-0.19071">
        <ele>925</ele>
        <time>2022-09-04T07:03:14Z</time>
      </trkpt>
      <trkpt lat="42.97619" lon="-0.1906">
        <ele>925.8</ele>
        <time>2022-09-04T07:03:18Z</time>
      </trkpt>
      <trkpt lat="42.97626" lon="-0.19044">
        <ele>927</ele>
        <time>2022-09-04T07:03:24Z</time>
      </trkpt>
      <trkpt lat="42.9763" lon="-0.19033">
        <ele>927.8</ele>
        <time>2022-09-04T07:03:28Z</time>
      </trkpt>
      <trkpt lat="42.97633" lon="-0.19027">
        <ele>928.2</ele>
        <time>2022-09-04T07:03:30Z</time>
      </trkpt>
      <trkpt lat="42.97643" lon="-0.1901">
        <ele>929.4</ele>
        <time>2022-09-04T07:03:37Z</time>
      </trkpt>
      <trkpt lat="42.97646" lon="-0.19006">
        <ele>929.6</ele>
        <time>2022-09-04T07:03:39Z</time>
      </trkpt>
      <trkpt lat="42.97654" lon="-0.18994">
        <ele>930.6</ele>
        <time>2022-09-04T07:03:44Z</time>
      </trkpt>
      <trkpt lat="42.97661" lon="-0.18985">
        <ele>931.6</ele>
        <time>2022-09-04T07:03:48Z</time>
      </trkpt>
      <trkpt lat="42.97662" lon="-0.18983">
        <ele>931.6</ele>
        <time>2022-09-04T07:03:49Z</time>
      </trkpt>
      <trkpt lat="42.9767" lon="-0.18973">
        <ele>933</ele>
        <time>2022-09-04T07:03:54Z</time>
      </trkpt>
      <trkpt lat="42.97674" lon="-0.1897">
        <ele>933.4</ele>
        <time>2022-09-04T07:03:56Z</time>
      </trkpt>
      <trkpt lat="42.97677" lon="-0.18966">
        <ele>934</ele>
        <time>2022-09-04T07:03:59Z</time>
      </trkpt>
      <trkpt lat="42.97688" lon="-0.18955">
        <ele>935.2</ele>
        <time>2022-09-04T07:04:04Z</time>
      </trkpt>
      <trkpt lat="42.97693" lon="-0.18949">
        <ele>936.2</ele>
        <time>2022-09-04T07:04:07Z</time>
      </trkpt>
      <trkpt lat="42.97695" lon="-0.18947">
        <ele>936.4</ele>
        <time>2022-09-04T07:04:08Z</time>
      </trkpt>
      <trkpt lat="42.97703" lon="-0.18937">
        <ele>937.6</ele>
        <time>2022-09-04T07:04:13Z</time>
      </trkpt>
      <trkpt lat="42.97707" lon="-0.1893">
        <ele>938.4</ele>
        <time>2022-09-04T07:04:16Z</time>
      </trkpt>
      <trkpt lat="42.97709" lon="-0.18925">
        <ele>938.8</ele>
        <time>2022-09-04T07:04:18Z</time>
      </trkpt>
      <trkpt lat="42.97715" lon="-0.18913">
        <ele>940.2</ele>
        <time>2022-09-04T07:04:23Z</time>
      </trkpt>
      <trkpt lat="42.97717" lon="-0.18911">
        <ele>940.4</ele>
        <time>2022-09-04T07:04:24Z</time>
      </trkpt>
      <trkpt lat="42.97722" lon="-0.18901">
        <ele>941.2</ele>
        <time>2022-09-04T07:04:28Z</time>
      </trkpt>
      <trkpt lat="42.9773" lon="-0.18891">
        <ele>942.2</ele>
        <time>2022-09-04T07:04:33Z</time>
      </trkpt>
      <trkpt lat="42.97731" lon="-0.18889">
        <ele>942.4</ele>
        <time>2022-09-04T07:04:34Z</time>
      </trkpt>
      <trkpt lat="42.9774" lon="-0.18877">
        <ele>943.6</ele>
        <time>2022-09-04T07:04:40Z</time>
      </trkpt>
      <trkpt lat="42.97745" lon="-0.18871">
        <ele>944.2</ele>
        <time>2022-09-04T07:04:43Z</time>
      </trkpt>
      <trkpt lat="42.97747" lon="-0.18867">
        <ele>944.8</ele>
        <time>2022-09-04T07:04:45Z</time>
      </trkpt>
      <trkpt lat="42.97753" lon="-0.18859">
        <ele>945.8</ele>
        <time>2022-09-04T07:04:49Z</time>
      </trkpt>
      <trkpt lat="42.97758" lon="-0.18853">
        <ele>946.4</ele>
        <time>2022-09-04T07:04:52Z</time>
      </trkpt>
      <trkpt lat="42.97762" lon="-0.18846">
        <ele>947</ele>
        <time>2022-09-04T07:04:55Z</time>
      </trkpt>
      <trkpt lat="42.97772" lon="-0.1883">
        <ele>948</ele>
        <time>2022-09-04T07:05:02Z</time>
      </trkpt>
      <trkpt lat="42.97773" lon="-0.18828">
        <ele>948.4</ele>
        <time>2022-09-04T07:05:03Z</time>
      </trkpt>
      <trkpt lat="42.97775" lon="-0.18824">
        <ele>949.2</ele>
        <time>2022-09-04T07:05:06Z</time>
      </trkpt>
      <trkpt lat="42.9778" lon="-0.18817">
        <ele>949.4</ele>
        <time>2022-09-04T07:05:09Z</time>
      </trkpt>
      <trkpt lat="42.97784" lon="-0.1881">
        <ele>950.4</ele>
        <time>2022-09-04T07:05:12Z</time>
      </trkpt>
      <trkpt lat="42.97791" lon="-0.18799">
        <ele>951.6</ele>
        <time>2022-09-04T07:05:17Z</time>
      </trkpt>
      <trkpt lat="42.97792" lon="-0.18797">
        <ele>951.6</ele>
        <time>2022-09-04T07:05:18Z</time>
      </trkpt>
      <trkpt lat="42.97802" lon="-0.18784">
        <ele>952.6</ele>
        <time>2022-09-04T07:05:24Z</time>
      </trkpt>
      <trkpt lat="42.9781" lon="-0.18775">
        <ele>953.6</ele>
        <time>2022-09-04T07:05:29Z</time>
      </trkpt>
      <trkpt lat="42.97819" lon="-0.1876">
        <ele>954.4</ele>
        <time>2022-09-04T07:05:35Z</time>
      </trkpt>
      <trkpt lat="42.97821" lon="-0.18758">
        <ele>954.8</ele>
        <time>2022-09-04T07:05:36Z</time>
      </trkpt>
      <trkpt lat="42.97828" lon="-0.18745">
        <ele>956</ele>
        <time>2022-09-04T07:05:41Z</time>
      </trkpt>
      <trkpt lat="42.97833" lon="-0.18737">
        <ele>956.6</ele>
        <time>2022-09-04T07:05:44Z</time>
      </trkpt>
      <trkpt lat="42.97836" lon="-0.18732">
        <ele>957</ele>
        <time>2022-09-04T07:05:46Z</time>
      </trkpt>
      <trkpt lat="42.97838" lon="-0.18729">
        <ele>957.2</ele>
        <time>2022-09-04T07:05:47Z</time>
      </trkpt>
      <trkpt lat="42.97851" lon="-0.18714">
        <ele>958</ele>
        <time>2022-09-04T07:05:53Z</time>
      </trkpt>
      <trkpt lat="42.97856" lon="-0.18709">
        <ele>958.2</ele>
        <time>2022-09-04T07:05:55Z</time>
      </trkpt>
      <trkpt lat="42.97872" lon="-0.18695">
        <ele>958.8</ele>
        <time>2022-09-04T07:06:01Z</time>
      </trkpt>
      <trkpt lat="42.97893" lon="-0.18676">
        <ele>959.4</ele>
        <time>2022-09-04T07:06:10Z</time>
      </trkpt>
      <trkpt lat="42.97899" lon="-0.18671">
        <ele>959.6</ele>
        <time>2022-09-04T07:06:13Z</time>
      </trkpt>
      <trkpt lat="42.9791" lon="-0.18666">
        <ele>960.6</ele>
        <time>2022-09-04T07:06:17Z</time>
      </trkpt>
      <trkpt lat="42.97916" lon="-0.18664">
        <ele>961</ele>
        <time>2022-09-04T07:06:20Z</time>
      </trkpt>
      <trkpt lat="42.97928" lon="-0.18659">
        <ele>961.6</ele>
        <time>2022-09-04T07:06:25Z</time>
      </trkpt>
      <trkpt lat="42.97935" lon="-0.18655">
        <ele>962.8</ele>
        <time>2022-09-04T07:06:29Z</time>
      </trkpt>
      <trkpt lat="42.97937" lon="-0.18653">
        <ele>963.2</ele>
        <time>2022-09-04T07:06:30Z</time>
      </trkpt>
      <trkpt lat="42.97941" lon="-0.18651">
        <ele>963.8</ele>
        <time>2022-09-04T07:06:32Z</time>
      </trkpt>
      <trkpt lat="42.97952" lon="-0.18641">
        <ele>965</ele>
        <time>2022-09-04T07:06:38Z</time>
      </trkpt>
      <trkpt lat="42.97954" lon="-0.1864">
        <ele>965</ele>
        <time>2022-09-04T07:06:39Z</time>
      </trkpt>
      <trkpt lat="42.97963" lon="-0.18633">
        <ele>966.2</ele>
        <time>2022-09-04T07:06:43Z</time>
      </trkpt>
      <trkpt lat="42.97973" lon="-0.18624">
        <ele>967.2</ele>
        <time>2022-09-04T07:06:48Z</time>
      </trkpt>
      <trkpt lat="42.97977" lon="-0.1862">
        <ele>967.4</ele>
        <time>2022-09-04T07:06:50Z</time>
      </trkpt>
      <trkpt lat="42.97986" lon="-0.18614">
        <ele>968.2</ele>
        <time>2022-09-04T07:06:54Z</time>
      </trkpt>
      <trkpt lat="42.97988" lon="-0.18615">
        <ele>968.4</ele>
        <time>2022-09-04T07:06:55Z</time>
      </trkpt>
      <trkpt lat="42.97994" lon="-0.18621">
        <ele>968.8</ele>
        <time>2022-09-04T07:06:58Z</time>
      </trkpt>
      <trkpt lat="42.97995" lon="-0.18627">
        <ele>969.4</ele>
        <time>2022-09-04T07:07:00Z</time>
      </trkpt>
      <trkpt lat="42.97994" lon="-0.18637">
        <ele>969.8</ele>
        <time>2022-09-04T07:07:03Z</time>
      </trkpt>
      <trkpt lat="42.9799" lon="-0.18642">
        <ele>970.4</ele>
        <time>2022-09-04T07:07:05Z</time>
      </trkpt>
      <trkpt lat="42.97984" lon="-0.18649">
        <ele>970.8</ele>
        <time>2022-09-04T07:07:08Z</time>
      </trkpt>
      <trkpt lat="42.97979" lon="-0.18652">
        <ele>971</ele>
        <time>2022-09-04T07:07:10Z</time>
      </trkpt>
      <trkpt lat="42.97973" lon="-0.18657">
        <ele>971.4</ele>
        <time>2022-09-04T07:07:13Z</time>
      </trkpt>
      <trkpt lat="42.97966" lon="-0.18663">
        <ele>971.8</ele>
        <time>2022-09-04T07:07:16Z</time>
      </trkpt>
      <trkpt lat="42.97958" lon="-0.18674">
        <ele>972.8</ele>
        <time>2022-09-04T07:07:21Z</time>
      </trkpt>
      <trkpt lat="42.97955" lon="-0.18676">
        <ele>972.8</ele>
        <time>2022-09-04T07:07:22Z</time>
      </trkpt>
      <trkpt lat="42.97947" lon="-0.18687">
        <ele>973.8</ele>
        <time>2022-09-04T07:07:27Z</time>
      </trkpt>
      <trkpt lat="42.97946" lon="-0.1869">
        <ele>974</ele>
        <time>2022-09-04T07:07:28Z</time>
      </trkpt>
      <trkpt lat="42.97939" lon="-0.18701">
        <ele>974.8</ele>
        <time>2022-09-04T07:07:33Z</time>
      </trkpt>
      <trkpt lat="42.97933" lon="-0.18714">
        <ele>976</ele>
        <time>2022-09-04T07:07:38Z</time>
      </trkpt>
      <trkpt lat="42.97932" lon="-0.18717">
        <ele>976.2</ele>
        <time>2022-09-04T07:07:39Z</time>
      </trkpt>
      <trkpt lat="42.97929" lon="-0.18725">
        <ele>977</ele>
        <time>2022-09-04T07:07:42Z</time>
      </trkpt>
      <trkpt lat="42.97927" lon="-0.18734">
        <ele>978</ele>
        <time>2022-09-04T07:07:46Z</time>
      </trkpt>
      <trkpt lat="42.97926" lon="-0.18737">
        <ele>978.2</ele>
        <time>2022-09-04T07:07:47Z</time>
      </trkpt>
      <trkpt lat="42.9792" lon="-0.18749">
        <ele>979.2</ele>
        <time>2022-09-04T07:07:52Z</time>
      </trkpt>
      <trkpt lat="42.97916" lon="-0.18759">
        <ele>980.6</ele>
        <time>2022-09-04T07:07:56Z</time>
      </trkpt>
      <trkpt lat="42.97913" lon="-0.18764">
        <ele>980.8</ele>
        <time>2022-09-04T07:07:58Z</time>
      </trkpt>
      <trkpt lat="42.97909" lon="-0.18771">
        <ele>981.8</ele>
        <time>2022-09-04T07:08:01Z</time>
      </trkpt>
      <trkpt lat="42.97903" lon="-0.18784">
        <ele>983</ele>
        <time>2022-09-04T07:08:06Z</time>
      </trkpt>
      <trkpt lat="42.97898" lon="-0.18796">
        <ele>984.2</ele>
        <time>2022-09-04T07:08:11Z</time>
      </trkpt>
      <trkpt lat="42.97896" lon="-0.18801">
        <ele>984.4</ele>
        <time>2022-09-04T07:08:13Z</time>
      </trkpt>
      <trkpt lat="42.97893" lon="-0.1881">
        <ele>985.4</ele>
        <time>2022-09-04T07:08:17Z</time>
      </trkpt>
      <trkpt lat="42.97892" lon="-0.18821">
        <ele>986</ele>
        <time>2022-09-04T07:08:21Z</time>
      </trkpt>
      <trkpt lat="42.97891" lon="-0.18825">
        <ele>986.6</ele>
        <time>2022-09-04T07:08:23Z</time>
      </trkpt>
      <trkpt lat="42.97888" lon="-0.18835">
        <ele>987.6</ele>
        <time>2022-09-04T07:08:27Z</time>
      </trkpt>
      <trkpt lat="42.97888" lon="-0.18838">
        <ele>988.2</ele>
        <time>2022-09-04T07:08:29Z</time>
      </trkpt>
      <trkpt lat="42.97887" lon="-0.18846">
        <ele>988.8</ele>
        <time>2022-09-04T07:08:32Z</time>
      </trkpt>
      <trkpt lat="42.97885" lon="-0.18856">
        <ele>990</ele>
        <time>2022-09-04T07:08:36Z</time>
      </trkpt>
      <trkpt lat="42.97884" lon="-0.18866">
        <ele>991</ele>
        <time>2022-09-04T07:08:40Z</time>
      </trkpt>
      <trkpt lat="42.97882" lon="-0.18873">
        <ele>992</ele>
        <time>2022-09-04T07:08:43Z</time>
      </trkpt>
      <trkpt lat="42.9788" lon="-0.18876">
        <ele>992</ele>
        <time>2022-09-04T07:08:44Z</time>
      </trkpt>
      <trkpt lat="42.97879" lon="-0.18878">
        <ele>992.4</ele>
        <time>2022-09-04T07:08:45Z</time>
      </trkpt>
      <trkpt lat="42.97876" lon="-0.18886">
        <ele>992.8</ele>
        <time>2022-09-04T07:08:48Z</time>
      </trkpt>
      <trkpt lat="42.97875" lon="-0.18888">
        <ele>993.2</ele>
        <time>2022-09-04T07:08:49Z</time>
      </trkpt>
      <trkpt lat="42.97871" lon="-0.18894">
        <ele>994.4</ele>
        <time>2022-09-04T07:08:52Z</time>
      </trkpt>
      <trkpt lat="42.97868" lon="-0.18899">
        <ele>994.8</ele>
        <time>2022-09-04T07:08:54Z</time>
      </trkpt>
      <trkpt lat="42.97866" lon="-0.18902">
        <ele>995</ele>
        <time>2022-09-04T07:08:55Z</time>
      </trkpt>
      <trkpt lat="42.97865" lon="-0.18905">
        <ele>995.2</ele>
        <time>2022-09-04T07:08:56Z</time>
      </trkpt>
      <trkpt lat="42.97864" lon="-0.18909">
        <ele>995.6</ele>
        <time>2022-09-04T07:08:58Z</time>
      </trkpt>
      <trkpt lat="42.97861" lon="-0.18916">
        <ele>996</ele>
        <time>2022-09-04T07:09:00Z</time>
      </trkpt>
      <trkpt lat="42.97857" lon="-0.18926">
        <ele>996.6</ele>
        <time>2022-09-04T07:09:04Z</time>
      </trkpt>
      <trkpt lat="42.97854" lon="-0.18934">
        <ele>997.4</ele>
        <time>2022-09-04T07:09:07Z</time>
      </trkpt>
      <trkpt lat="42.97853" lon="-0.18935">
        <ele>997.6</ele>
        <time>2022-09-04T07:09:08Z</time>
      </trkpt>
      <trkpt lat="42.97849" lon="-0.18948">
        <ele>998.8</ele>
        <time>2022-09-04T07:09:13Z</time>
      </trkpt>
      <trkpt lat="42.97848" lon="-0.18951">
        <ele>999</ele>
        <time>2022-09-04T07:09:14Z</time>
      </trkpt>
      <trkpt lat="42.97844" lon="-0.18959">
        <ele>999.8</ele>
        <time>2022-09-04T07:09:17Z</time>
      </trkpt>
      <trkpt lat="42.97842" lon="-0.1897">
        <ele>1000.6</ele>
        <time>2022-09-04T07:09:22Z</time>
      </trkpt>
      <trkpt lat="42.9784" lon="-0.18972">
        <ele>1000.8</ele>
        <time>2022-09-04T07:09:23Z</time>
      </trkpt>
      <trkpt lat="42.97835" lon="-0.18983">
        <ele>1002</ele>
        <time>2022-09-04T07:09:28Z</time>
      </trkpt>
      <trkpt lat="42.97834" lon="-0.18985">
        <ele>1002</ele>
        <time>2022-09-04T07:09:29Z</time>
      </trkpt>
      <trkpt lat="42.97829" lon="-0.18994">
        <ele>1003.2</ele>
        <time>2022-09-04T07:09:33Z</time>
      </trkpt>
      <trkpt lat="42.97826" lon="-0.19002">
        <ele>1004</ele>
        <time>2022-09-04T07:09:36Z</time>
      </trkpt>
      <trkpt lat="42.97825" lon="-0.19004">
        <ele>1004.4</ele>
        <time>2022-09-04T07:09:37Z</time>
      </trkpt>
      <trkpt lat="42.97818" lon="-0.19014">
        <ele>1005.4</ele>
        <time>2022-09-04T07:09:42Z</time>
      </trkpt>
      <trkpt lat="42.97816" lon="-0.19016">
        <ele>1005.6</ele>
        <time>2022-09-04T07:09:43Z</time>
      </trkpt>
      <trkpt lat="42.97809" lon="-0.19023">
        <ele>1006.6</ele>
        <time>2022-09-04T07:09:47Z</time>
      </trkpt>
      <trkpt lat="42.97805" lon="-0.19027">
        <ele>1007.4</ele>
        <time>2022-09-04T07:09:50Z</time>
      </trkpt>
      <trkpt lat="42.97802" lon="-0.19029">
        <ele>1007.6</ele>
        <time>2022-09-04T07:09:51Z</time>
      </trkpt>
      <trkpt lat="42.97792" lon="-0.19038">
        <ele>1008.6</ele>
        <time>2022-09-04T07:09:57Z</time>
      </trkpt>
      <trkpt lat="42.97788" lon="-0.19041">
        <ele>1009</ele>
        <time>2022-09-04T07:09:59Z</time>
      </trkpt>
      <trkpt lat="42.97783" lon="-0.19044">
        <ele>1009.8</ele>
        <time>2022-09-04T07:10:02Z</time>
      </trkpt>
      <trkpt lat="42.97775" lon="-0.19049">
        <ele>1011.2</ele>
        <time>2022-09-04T07:10:07Z</time>
      </trkpt>
      <trkpt lat="42.97766" lon="-0.19057">
        <ele>1012.2</ele>
        <time>2022-09-04T07:10:12Z</time>
      </trkpt>
      <trkpt lat="42.97763" lon="-0.19061">
        <ele>1012.6</ele>
        <time>2022-09-04T07:10:14Z</time>
      </trkpt>
      <trkpt lat="42.9776" lon="-0.19065">
        <ele>1013.4</ele>
        <time>2022-09-04T07:10:16Z</time>
      </trkpt>
      <trkpt lat="42.97756" lon="-0.19074">
        <ele>1014</ele>
        <time>2022-09-04T07:10:20Z</time>
      </trkpt>
      <trkpt lat="42.97749" lon="-0.19083">
        <ele>1014.6</ele>
        <time>2022-09-04T07:10:24Z</time>
      </trkpt>
      <trkpt lat="42.97744" lon="-0.19093">
        <ele>1015.4</ele>
        <time>2022-09-04T07:10:28Z</time>
      </trkpt>
      <trkpt lat="42.97744" lon="-0.19095">
        <ele>1015.8</ele>
        <time>2022-09-04T07:10:29Z</time>
      </trkpt>
      <trkpt lat="42.9774" lon="-0.1911">
        <ele>1017</ele>
        <time>2022-09-04T07:10:35Z</time>
      </trkpt>
      <trkpt lat="42.9774" lon="-0.19114">
        <ele>1017.6</ele>
        <time>2022-09-04T07:10:37Z</time>
      </trkpt>
      <trkpt lat="42.97741" lon="-0.19119">
        <ele>1018</ele>
        <time>2022-09-04T07:10:39Z</time>
      </trkpt>
      <trkpt lat="42.97742" lon="-0.19135">
        <ele>1019.2</ele>
        <time>2022-09-04T07:10:45Z</time>
      </trkpt>
      <trkpt lat="42.97743" lon="-0.1914">
        <ele>1019.8</ele>
        <time>2022-09-04T07:10:47Z</time>
      </trkpt>
      <trkpt lat="42.97743" lon="-0.19145">
        <ele>1020.2</ele>
        <time>2022-09-04T07:10:49Z</time>
      </trkpt>
      <trkpt lat="42.97743" lon="-0.19157">
        <ele>1021.8</ele>
        <time>2022-09-04T07:10:54Z</time>
      </trkpt>
      <trkpt lat="42.97743" lon="-0.19161">
        <ele>1021.8</ele>
        <time>2022-09-04T07:10:55Z</time>
      </trkpt>
      <trkpt lat="42.97744" lon="-0.19171">
        <ele>1022.8</ele>
        <time>2022-09-04T07:10:59Z</time>
      </trkpt>
      <trkpt lat="42.97746" lon="-0.19182">
        <ele>1024</ele>
        <time>2022-09-04T07:11:03Z</time>
      </trkpt>
      <trkpt lat="42.97746" lon="-0.19185">
        <ele>1024</ele>
        <time>2022-09-04T07:11:04Z</time>
      </trkpt>
      <trkpt lat="42.97747" lon="-0.19199">
        <ele>1025.2</ele>
        <time>2022-09-04T07:11:09Z</time>
      </trkpt>
      <trkpt lat="42.97748" lon="-0.1921">
        <ele>1026</ele>
        <time>2022-09-04T07:11:13Z</time>
      </trkpt>
      <trkpt lat="42.97748" lon="-0.19213">
        <ele>1026.4</ele>
        <time>2022-09-04T07:11:14Z</time>
      </trkpt>
      <trkpt lat="42.9775" lon="-0.19231">
        <ele>1027.6</ele>
        <time>2022-09-04T07:11:20Z</time>
      </trkpt>
      <trkpt lat="42.97751" lon="-0.19239">
        <ele>1028</ele>
        <time>2022-09-04T07:11:23Z</time>
      </trkpt>
      <trkpt lat="42.97752" lon="-0.19251">
        <ele>1028.8</ele>
        <time>2022-09-04T07:11:27Z</time>
      </trkpt>
      <trkpt lat="42.97754" lon="-0.19261">
        <ele>1029.8</ele>
        <time>2022-09-04T07:11:31Z</time>
      </trkpt>
      <trkpt lat="42.97754" lon="-0.19264">
        <ele>1030</ele>
        <time>2022-09-04T07:11:32Z</time>
      </trkpt>
      <trkpt lat="42.97757" lon="-0.19277">
        <ele>1031</ele>
        <time>2022-09-04T07:11:37Z</time>
      </trkpt>
      <trkpt lat="42.97761" lon="-0.19291">
        <ele>1032</ele>
        <time>2022-09-04T07:11:42Z</time>
      </trkpt>
      <trkpt lat="42.97763" lon="-0.19296">
        <ele>1032.2</ele>
        <time>2022-09-04T07:11:44Z</time>
      </trkpt>
      <trkpt lat="42.97768" lon="-0.19313">
        <ele>1033.6</ele>
        <time>2022-09-04T07:11:50Z</time>
      </trkpt>
      <trkpt lat="42.97772" lon="-0.19321">
        <ele>1034.2</ele>
        <time>2022-09-04T07:11:53Z</time>
      </trkpt>
      <trkpt lat="42.97775" lon="-0.1933">
        <ele>1034.6</ele>
        <time>2022-09-04T07:11:56Z</time>
      </trkpt>
      <trkpt lat="42.97783" lon="-0.19347">
        <ele>1035.8</ele>
        <time>2022-09-04T07:12:03Z</time>
      </trkpt>
      <trkpt lat="42.97787" lon="-0.19354">
        <ele>1036.2</ele>
        <time>2022-09-04T07:12:06Z</time>
      </trkpt>
      <trkpt lat="42.97791" lon="-0.19365">
        <ele>1037.2</ele>
        <time>2022-09-04T07:12:10Z</time>
      </trkpt>
      <trkpt lat="42.97798" lon="-0.19382">
        <ele>1038.2</ele>
        <time>2022-09-04T07:12:17Z</time>
      </trkpt>
      <trkpt lat="42.97799" lon="-0.19387">
        <ele>1038.4</ele>
        <time>2022-09-04T07:12:19Z</time>
      </trkpt>
      <trkpt lat="42.97803" lon="-0.19398">
        <ele>1039.2</ele>
        <time>2022-09-04T07:12:23Z</time>
      </trkpt>
      <trkpt lat="42.97809" lon="-0.19417">
        <ele>1040.4</ele>
        <time>2022-09-04T07:12:30Z</time>
      </trkpt>
      <trkpt lat="42.97815" lon="-0.19439">
        <ele>1041.6</ele>
        <time>2022-09-04T07:12:37Z</time>
      </trkpt>
      <trkpt lat="42.97818" lon="-0.19445">
        <ele>1042.2</ele>
        <time>2022-09-04T07:12:39Z</time>
      </trkpt>
      <trkpt lat="42.97821" lon="-0.19455">
        <ele>1042.6</ele>
        <time>2022-09-04T07:12:42Z</time>
      </trkpt>
      <trkpt lat="42.97828" lon="-0.19469">
        <ele>1043.4</ele>
        <time>2022-09-04T07:12:47Z</time>
      </trkpt>
      <trkpt lat="42.9783" lon="-0.19471">
        <ele>1043.6</ele>
        <time>2022-09-04T07:12:48Z</time>
      </trkpt>
      <trkpt lat="42.97839" lon="-0.19484">
        <ele>1044.8</ele>
        <time>2022-09-04T07:12:53Z</time>
      </trkpt>
      <trkpt lat="42.97846" lon="-0.19493">
        <ele>1045.6</ele>
        <time>2022-09-04T07:12:57Z</time>
      </trkpt>
      <trkpt lat="42.9785" lon="-0.19498">
        <ele>1046.4</ele>
        <time>2022-09-04T07:12:59Z</time>
      </trkpt>
      <trkpt lat="42.97857" lon="-0.19511">
        <ele>1047.4</ele>
        <time>2022-09-04T07:13:04Z</time>
      </trkpt>
      <trkpt lat="42.9786" lon="-0.19517">
        <ele>1047.6</ele>
        <time>2022-09-04T07:13:06Z</time>
      </trkpt>
      <trkpt lat="42.97866" lon="-0.19527">
        <ele>1048.4</ele>
        <time>2022-09-04T07:13:10Z</time>
      </trkpt>
      <trkpt lat="42.97876" lon="-0.19542">
        <ele>1049.4</ele>
        <time>2022-09-04T07:13:16Z</time>
      </trkpt>
      <trkpt lat="42.97876" lon="-0.19542">
        <ele>1049.8</ele>
        <time>2022-09-04T07:13:17Z</time>
      </trkpt>
      <trkpt lat="42.97884" lon="-0.19553">
        <ele>1050.6</ele>
        <time>2022-09-04T07:13:21Z</time>
      </trkpt>
      <trkpt lat="42.9789" lon="-0.19563">
        <ele>1051.2</ele>
        <time>2022-09-04T07:13:25Z</time>
      </trkpt>
      <trkpt lat="42.97892" lon="-0.19568">
        <ele>1051.8</ele>
        <time>2022-09-04T07:13:27Z</time>
      </trkpt>
      <trkpt lat="42.97903" lon="-0.19586">
        <ele>1053.2</ele>
        <time>2022-09-04T07:13:34Z</time>
      </trkpt>
      <trkpt lat="42.97907" lon="-0.19593">
        <ele>1053.6</ele>
        <time>2022-09-04T07:13:37Z</time>
      </trkpt>
      <trkpt lat="42.97912" lon="-0.19601">
        <ele>1054.4</ele>
        <time>2022-09-04T07:13:40Z</time>
      </trkpt>
      <trkpt lat="42.97923" lon="-0.19616">
        <ele>1055.8</ele>
        <time>2022-09-04T07:13:47Z</time>
      </trkpt>
      <trkpt lat="42.97934" lon="-0.19628">
        <ele>1057</ele>
        <time>2022-09-04T07:13:53Z</time>
      </trkpt>
      <trkpt lat="42.97939" lon="-0.19634">
        <ele>1057.6</ele>
        <time>2022-09-04T07:13:56Z</time>
      </trkpt>
      <trkpt lat="42.97943" lon="-0.19639">
        <ele>1058.2</ele>
        <time>2022-09-04T07:13:58Z</time>
      </trkpt>
      <trkpt lat="42.97952" lon="-0.19651">
        <ele>1059.2</ele>
        <time>2022-09-04T07:14:04Z</time>
      </trkpt>
      <trkpt lat="42.97954" lon="-0.19653">
        <ele>1059.2</ele>
        <time>2022-09-04T07:14:05Z</time>
      </trkpt>
      <trkpt lat="42.97963" lon="-0.19671">
        <ele>1060.6</ele>
        <time>2022-09-04T07:14:12Z</time>
      </trkpt>
      <trkpt lat="42.97971" lon="-0.19688">
        <ele>1061.8</ele>
        <time>2022-09-04T07:14:19Z</time>
      </trkpt>
      <trkpt lat="42.97974" lon="-0.19693">
        <ele>1062.2</ele>
        <time>2022-09-04T07:14:21Z</time>
      </trkpt>
      <trkpt lat="42.97983" lon="-0.19702">
        <ele>1063</ele>
        <time>2022-09-04T07:14:25Z</time>
      </trkpt>
      <trkpt lat="42.97989" lon="-0.19707">
        <ele>1063.6</ele>
        <time>2022-09-04T07:14:28Z</time>
      </trkpt>
      <trkpt lat="42.97993" lon="-0.1971">
        <ele>1064</ele>
        <time>2022-09-04T07:14:30Z</time>
      </trkpt>
      <trkpt lat="42.98005" lon="-0.19718">
        <ele>1065.2</ele>
        <time>2022-09-04T07:14:36Z</time>
      </trkpt>
      <trkpt lat="42.98009" lon="-0.19721">
        <ele>1065.6</ele>
        <time>2022-09-04T07:14:38Z</time>
      </trkpt>
      <trkpt lat="42.98015" lon="-0.19726">
        <ele>1066.2</ele>
        <time>2022-09-04T07:14:41Z</time>
      </trkpt>
      <trkpt lat="42.98023" lon="-0.19736">
        <ele>1067.2</ele>
        <time>2022-09-04T07:14:46Z</time>
      </trkpt>
      <trkpt lat="42.98024" lon="-0.19738">
        <ele>1067.4</ele>
        <time>2022-09-04T07:14:47Z</time>
      </trkpt>
      <trkpt lat="42.98031" lon="-0.19752">
        <ele>1068.6</ele>
        <time>2022-09-04T07:14:53Z</time>
      </trkpt>
      <trkpt lat="42.98033" lon="-0.19757">
        <ele>1068.8</ele>
        <time>2022-09-04T07:14:55Z</time>
      </trkpt>
      <trkpt lat="42.9804" lon="-0.19769">
        <ele>1069.6</ele>
        <time>2022-09-04T07:15:01Z</time>
      </trkpt>
      <trkpt lat="42.98045" lon="-0.19778">
        <ele>1070.4</ele>
        <time>2022-09-04T07:15:05Z</time>
      </trkpt>
      <trkpt lat="42.98048" lon="-0.19784">
        <ele>1071</ele>
        <time>2022-09-04T07:15:08Z</time>
      </trkpt>
      <trkpt lat="42.98055" lon="-0.19796">
        <ele>1072</ele>
        <time>2022-09-04T07:15:13Z</time>
      </trkpt>
      <trkpt lat="42.98056" lon="-0.19798">
        <ele>1072.2</ele>
        <time>2022-09-04T07:15:14Z</time>
      </trkpt>
      <trkpt lat="42.98061" lon="-0.19815">
        <ele>1073</ele>
        <time>2022-09-04T07:15:20Z</time>
      </trkpt>
      <trkpt lat="42.98062" lon="-0.1982">
        <ele>1073.2</ele>
        <time>2022-09-04T07:15:22Z</time>
      </trkpt>
      <trkpt lat="42.98066" lon="-0.19833">
        <ele>1074.2</ele>
        <time>2022-09-04T07:15:27Z</time>
      </trkpt>
      <trkpt lat="42.98068" lon="-0.19841">
        <ele>1074.8</ele>
        <time>2022-09-04T07:15:30Z</time>
      </trkpt>
      <trkpt lat="42.98071" lon="-0.19852">
        <ele>1075.4</ele>
        <time>2022-09-04T07:15:34Z</time>
      </trkpt>
      <trkpt lat="42.98076" lon="-0.19867">
        <ele>1076.4</ele>
        <time>2022-09-04T07:15:40Z</time>
      </trkpt>
      <trkpt lat="42.98077" lon="-0.1987">
        <ele>1076.6</ele>
        <time>2022-09-04T07:15:41Z</time>
      </trkpt>
      <trkpt lat="42.98081" lon="-0.19885">
        <ele>1077.6</ele>
        <time>2022-09-04T07:15:47Z</time>
      </trkpt>
      <trkpt lat="42.98086" lon="-0.19901">
        <ele>1078.6</ele>
        <time>2022-09-04T07:15:53Z</time>
      </trkpt>
      <trkpt lat="42.98087" lon="-0.19903">
        <ele>1078.8</ele>
        <time>2022-09-04T07:15:54Z</time>
      </trkpt>
      <trkpt lat="42.98093" lon="-0.19922">
        <ele>1079.8</ele>
        <time>2022-09-04T07:16:01Z</time>
      </trkpt>
      <trkpt lat="42.98095" lon="-0.19929">
        <ele>1080.4</ele>
        <time>2022-09-04T07:16:04Z</time>
      </trkpt>
      <trkpt lat="42.98098" lon="-0.19936">
        <ele>1081</ele>
        <time>2022-09-04T07:16:07Z</time>
      </trkpt>
      <trkpt lat="42.98104" lon="-0.19951">
        <ele>1082.4</ele>
        <time>2022-09-04T07:16:13Z</time>
      </trkpt>
      <trkpt lat="42.9811" lon="-0.19967">
        <ele>1083.6</ele>
        <time>2022-09-04T07:16:19Z</time>
      </trkpt>
      <trkpt lat="42.98113" lon="-0.19981">
        <ele>1084.6</ele>
        <time>2022-09-04T07:16:24Z</time>
      </trkpt>
      <trkpt lat="42.98113" lon="-0.19984">
        <ele>1084.6</ele>
        <time>2022-09-04T07:16:25Z</time>
      </trkpt>
      <trkpt lat="42.98115" lon="-0.20002">
        <ele>1085.8</ele>
        <time>2022-09-04T07:16:31Z</time>
      </trkpt>
      <trkpt lat="42.98112" lon="-0.20013">
        <ele>1087</ele>
        <time>2022-09-04T07:16:35Z</time>
      </trkpt>
      <trkpt lat="42.9811" lon="-0.20015">
        <ele>1087.2</ele>
        <time>2022-09-04T07:16:36Z</time>
      </trkpt>
      <trkpt lat="42.98108" lon="-0.20017">
        <ele>1087.4</ele>
        <time>2022-09-04T07:16:37Z</time>
      </trkpt>
      <trkpt lat="42.98095" lon="-0.2002">
        <ele>1088</ele>
        <time>2022-09-04T07:16:42Z</time>
      </trkpt>
      <trkpt lat="42.98092" lon="-0.20019">
        <ele>1088.2</ele>
        <time>2022-09-04T07:16:43Z</time>
      </trkpt>
      <trkpt lat="42.98075" lon="-0.20017">
        <ele>1088.8</ele>
        <time>2022-09-04T07:16:50Z</time>
      </trkpt>
      <trkpt lat="42.98063" lon="-0.2002">
        <ele>1089</ele>
        <time>2022-09-04T07:16:54Z</time>
      </trkpt>
      <trkpt lat="42.98054" lon="-0.20025">
        <ele>1089.4</ele>
        <time>2022-09-04T07:16:57Z</time>
      </trkpt>
      <trkpt lat="42.98034" lon="-0.20037">
        <ele>1090</ele>
        <time>2022-09-04T07:17:04Z</time>
      </trkpt>
      <trkpt lat="42.98028" lon="-0.20037">
        <ele>1090</ele>
        <time>2022-09-04T07:17:06Z</time>
      </trkpt>
      <trkpt lat="42.9802" lon="-0.20034">
        <ele>1090.2</ele>
        <time>2022-09-04T07:17:09Z</time>
      </trkpt>
      <trkpt lat="42.97996" lon="-0.20018">
        <ele>1090.6</ele>
        <time>2022-09-04T07:17:16Z</time>
      </trkpt>
      <trkpt lat="42.97972" lon="-0.20004">
        <ele>1090.8</ele>
        <time>2022-09-04T07:17:22Z</time>
      </trkpt>
      <trkpt lat="42.97943" lon="-0.19997">
        <ele>1090.8</ele>
        <time>2022-09-04T07:17:29Z</time>
      </trkpt>
      <trkpt lat="42.97937" lon="-0.2001">
        <ele>1091.2</ele>
        <time>2022-09-04T07:17:33Z</time>
      </trkpt>
      <trkpt lat="42.97935" lon="-0.20031">
        <ele>1091.8</ele>
        <time>2022-09-04T07:17:39Z</time>
      </trkpt>
      <trkpt lat="42.97935" lon="-0.20037">
        <ele>1092.2</ele>
        <time>2022-09-04T07:17:41Z</time>
      </trkpt>
      <trkpt lat="42.97933" lon="-0.20054">
        <ele>1093.4</ele>
        <time>2022-09-04T07:17:46Z</time>
      </trkpt>
      <trkpt lat="42.97932" lon="-0.20061">
        <ele>1093.8</ele>
        <time>2022-09-04T07:17:48Z</time>
      </trkpt>
      <trkpt lat="42.97928" lon="-0.20074">
        <ele>1094.4</ele>
        <time>2022-09-04T07:17:52Z</time>
      </trkpt>
      <trkpt lat="42.97925" lon="-0.20083">
        <ele>1094.6</ele>
        <time>2022-09-04T07:17:55Z</time>
      </trkpt>
      <trkpt lat="42.97922" lon="-0.20095">
        <ele>1095.4</ele>
        <time>2022-09-04T07:17:59Z</time>
      </trkpt>
      <trkpt lat="42.9792" lon="-0.20116">
        <ele>1096.6</ele>
        <time>2022-09-04T07:18:05Z</time>
      </trkpt>
      <trkpt lat="42.97919" lon="-0.20139">
        <ele>1097.2</ele>
        <time>2022-09-04T07:18:11Z</time>
      </trkpt>
      <trkpt lat="42.9792" lon="-0.20143">
        <ele>1097.2</ele>
        <time>2022-09-04T07:18:12Z</time>
      </trkpt>
      <trkpt lat="42.97921" lon="-0.20159">
        <ele>1097.6</ele>
        <time>2022-09-04T07:18:16Z</time>
      </trkpt>
      <trkpt lat="42.97919" lon="-0.20167">
        <ele>1097.8</ele>
        <time>2022-09-04T07:18:18Z</time>
      </trkpt>
      <trkpt lat="42.97907" lon="-0.20184">
        <ele>1097.8</ele>
        <time>2022-09-04T07:18:22Z</time>
      </trkpt>
      <trkpt lat="42.97901" lon="-0.20191">
        <ele>1097.8</ele>
        <time>2022-09-04T07:18:24Z</time>
      </trkpt>
      <trkpt lat="42.97894" lon="-0.20204">
        <ele>1097.8</ele>
        <time>2022-09-04T07:18:27Z</time>
      </trkpt>
      <trkpt lat="42.9789" lon="-0.20215">
        <ele>1097.6</ele>
        <time>2022-09-04T07:18:29Z</time>
      </trkpt>
      <trkpt lat="42.97877" lon="-0.20231">
        <ele>1097.6</ele>
        <time>2022-09-04T07:18:33Z</time>
      </trkpt>
      <trkpt lat="42.97875" lon="-0.20234">
        <ele>1097.6</ele>
        <time>2022-09-04T07:18:34Z</time>
      </trkpt>
      <trkpt lat="42.97867" lon="-0.20251">
        <ele>1098</ele>
        <time>2022-09-04T07:18:38Z</time>
      </trkpt>
      <trkpt lat="42.9786" lon="-0.20275">
        <ele>1098.8</ele>
        <time>2022-09-04T07:18:44Z</time>
      </trkpt>
      <trkpt lat="42.97859" lon="-0.20278">
        <ele>1098.8</ele>
        <time>2022-09-04T07:18:45Z</time>
      </trkpt>
      <trkpt lat="42.9785" lon="-0.20303">
        <ele>1099.8</ele>
        <time>2022-09-04T07:18:52Z</time>
      </trkpt>
      <trkpt lat="42.97849" lon="-0.20306">
        <ele>1100</ele>
        <time>2022-09-04T07:18:53Z</time>
      </trkpt>
      <trkpt lat="42.97842" lon="-0.20319">
        <ele>1101</ele>
        <time>2022-09-04T07:18:57Z</time>
      </trkpt>
      <trkpt lat="42.97834" lon="-0.20328">
        <ele>1101.6</ele>
        <time>2022-09-04T07:19:00Z</time>
      </trkpt>
      <trkpt lat="42.97829" lon="-0.20332">
        <ele>1102</ele>
        <time>2022-09-04T07:19:02Z</time>
      </trkpt>
      <trkpt lat="42.97818" lon="-0.20341">
        <ele>1102.8</ele>
        <time>2022-09-04T07:19:07Z</time>
      </trkpt>
      <trkpt lat="42.97812" lon="-0.20341">
        <ele>1103.2</ele>
        <time>2022-09-04T07:19:09Z</time>
      </trkpt>
      <trkpt lat="42.97803" lon="-0.20339">
        <ele>1103.6</ele>
        <time>2022-09-04T07:19:12Z</time>
      </trkpt>
      <trkpt lat="42.97794" lon="-0.20332">
        <ele>1104.2</ele>
        <time>2022-09-04T07:19:16Z</time>
      </trkpt>
      <trkpt lat="42.9779" lon="-0.20328">
        <ele>1104.4</ele>
        <time>2022-09-04T07:19:18Z</time>
      </trkpt>
      <trkpt lat="42.97781" lon="-0.20317">
        <ele>1105.4</ele>
        <time>2022-09-04T07:19:23Z</time>
      </trkpt>
      <trkpt lat="42.97778" lon="-0.20313">
        <ele>1105.6</ele>
        <time>2022-09-04T07:19:25Z</time>
      </trkpt>
      <trkpt lat="42.97771" lon="-0.20306">
        <ele>1106.6</ele>
        <time>2022-09-04T07:19:29Z</time>
      </trkpt>
      <trkpt lat="42.9776" lon="-0.20295">
        <ele>1107.6</ele>
        <time>2022-09-04T07:19:35Z</time>
      </trkpt>
      <trkpt lat="42.97758" lon="-0.20293">
        <ele>1108</ele>
        <time>2022-09-04T07:19:36Z</time>
      </trkpt>
      <trkpt lat="42.97752" lon="-0.20286">
        <ele>1108.8</ele>
        <time>2022-09-04T07:19:40Z</time>
      </trkpt>
      <trkpt lat="42.97746" lon="-0.20281">
        <ele>1109.4</ele>
        <time>2022-09-04T07:19:43Z</time>
      </trkpt>
      <trkpt lat="42.97739" lon="-0.2028">
        <ele>1110</ele>
        <time>2022-09-04T07:19:46Z</time>
      </trkpt>
      <trkpt lat="42.97731" lon="-0.20282">
        <ele>1110.4</ele>
        <time>2022-09-04T07:19:49Z</time>
      </trkpt>
      <trkpt lat="42.97719" lon="-0.20286">
        <ele>1110.8</ele>
        <time>2022-09-04T07:19:53Z</time>
      </trkpt>
      <trkpt lat="42.9771" lon="-0.20284">
        <ele>1111</ele>
        <time>2022-09-04T07:19:56Z</time>
      </trkpt>
      <trkpt lat="42.97695" lon="-0.2027">
        <ele>1111.8</ele>
        <time>2022-09-04T07:20:02Z</time>
      </trkpt>
      <trkpt lat="42.97692" lon="-0.20267">
        <ele>1112</ele>
        <time>2022-09-04T07:20:03Z</time>
      </trkpt>
      <trkpt lat="42.97681" lon="-0.20259">
        <ele>1112.4</ele>
        <time>2022-09-04T07:20:07Z</time>
      </trkpt>
      <trkpt lat="42.97678" lon="-0.2026">
        <ele>1112.6</ele>
        <time>2022-09-04T07:20:08Z</time>
      </trkpt>
      <trkpt lat="42.97676" lon="-0.20262">
        <ele>1112.6</ele>
        <time>2022-09-04T07:20:09Z</time>
      </trkpt>
      <trkpt lat="42.97677" lon="-0.20269">
        <ele>1112.8</ele>
        <time>2022-09-04T07:20:11Z</time>
      </trkpt>
      <trkpt lat="42.9768" lon="-0.20274">
        <ele>1113</ele>
        <time>2022-09-04T07:20:13Z</time>
      </trkpt>
      <trkpt lat="42.97687" lon="-0.20283">
        <ele>1114</ele>
        <time>2022-09-04T07:20:17Z</time>
      </trkpt>
      <trkpt lat="42.9769" lon="-0.20286">
        <ele>1114.2</ele>
        <time>2022-09-04T07:20:18Z</time>
      </trkpt>
      <trkpt lat="42.97698" lon="-0.20294">
        <ele>1115.2</ele>
        <time>2022-09-04T07:20:22Z</time>
      </trkpt>
      <trkpt lat="42.97705" lon="-0.20303">
        <ele>1115.8</ele>
        <time>2022-09-04T07:20:26Z</time>
      </trkpt>
      <trkpt lat="42.97711" lon="-0.2031">
        <ele>1116.2</ele>
        <time>2022-09-04T07:20:29Z</time>
      </trkpt>
      <trkpt lat="42.97713" lon="-0.20316">
        <ele>1116.6</ele>
        <time>2022-09-04T07:20:31Z</time>
      </trkpt>
      <trkpt lat="42.97718" lon="-0.20322">
        <ele>1117.2</ele>
        <time>2022-09-04T07:20:34Z</time>
      </trkpt>
      <trkpt lat="42.97724" lon="-0.20332">
        <ele>1118</ele>
        <time>2022-09-04T07:20:38Z</time>
      </trkpt>
      <trkpt lat="42.97728" lon="-0.20336">
        <ele>1118.4</ele>
        <time>2022-09-04T07:20:40Z</time>
      </trkpt>
      <trkpt lat="42.97733" lon="-0.20342">
        <ele>1119.2</ele>
        <time>2022-09-04T07:20:45Z</time>
      </trkpt>
      <trkpt lat="42.97735" lon="-0.20343">
        <ele>1119.4</ele>
        <time>2022-09-04T07:20:46Z</time>
      </trkpt>
      <trkpt lat="42.97741" lon="-0.20347">
        <ele>1120.4</ele>
        <time>2022-09-04T07:20:50Z</time>
      </trkpt>
      <trkpt lat="42.97745" lon="-0.2035">
        <ele>1121.2</ele>
        <time>2022-09-04T07:20:53Z</time>
      </trkpt>
      <trkpt lat="42.97748" lon="-0.20352">
        <ele>1121.8</ele>
        <time>2022-09-04T07:20:55Z</time>
      </trkpt>
      <trkpt lat="42.97754" lon="-0.20356">
        <ele>1122.6</ele>
        <time>2022-09-04T07:20:59Z</time>
      </trkpt>
      <trkpt lat="42.97756" lon="-0.20357">
        <ele>1123</ele>
        <time>2022-09-04T07:21:00Z</time>
      </trkpt>
      <trkpt lat="42.97757" lon="-0.20359">
        <ele>1123.2</ele>
        <time>2022-09-04T07:21:01Z</time>
      </trkpt>
      <trkpt lat="42.97761" lon="-0.20362">
        <ele>1124</ele>
        <time>2022-09-04T07:21:04Z</time>
      </trkpt>
      <trkpt lat="42.97767" lon="-0.20368">
        <ele>1125.4</ele>
        <time>2022-09-04T07:21:08Z</time>
      </trkpt>
      <trkpt lat="42.9777" lon="-0.20371">
        <ele>1125.8</ele>
        <time>2022-09-04T07:21:10Z</time>
      </trkpt>
      <trkpt lat="42.97773" lon="-0.20375">
        <ele>1126.4</ele>
        <time>2022-09-04T07:21:12Z</time>
      </trkpt>
      <trkpt lat="42.97778" lon="-0.20385">
        <ele>1127.8</ele>
        <time>2022-09-04T07:21:17Z</time>
      </trkpt>
      <trkpt lat="42.97782" lon="-0.20401">
        <ele>1128.8</ele>
        <time>2022-09-04T07:21:23Z</time>
      </trkpt>
      <trkpt lat="42.97783" lon="-0.20404">
        <ele>1129</ele>
        <time>2022-09-04T07:21:24Z</time>
      </trkpt>
      <trkpt lat="42.97787" lon="-0.20414">
        <ele>1129.8</ele>
        <time>2022-09-04T07:21:28Z</time>
      </trkpt>
      <trkpt lat="42.97788" lon="-0.20422">
        <ele>1130.2</ele>
        <time>2022-09-04T07:21:31Z</time>
      </trkpt>
      <trkpt lat="42.97791" lon="-0.20433">
        <ele>1131</ele>
        <time>2022-09-04T07:21:35Z</time>
      </trkpt>
      <trkpt lat="42.97791" lon="-0.20436">
        <ele>1131.2</ele>
        <time>2022-09-04T07:21:36Z</time>
      </trkpt>
      <trkpt lat="42.97795" lon="-0.20448">
        <ele>1132</ele>
        <time>2022-09-04T07:21:40Z</time>
      </trkpt>
      <trkpt lat="42.97797" lon="-0.20457">
        <ele>1132.4</ele>
        <time>2022-09-04T07:21:43Z</time>
      </trkpt>
      <trkpt lat="42.978" lon="-0.20468">
        <ele>1133.2</ele>
        <time>2022-09-04T07:21:47Z</time>
      </trkpt>
      <trkpt lat="42.97804" lon="-0.20474">
        <ele>1133.4</ele>
        <time>2022-09-04T07:21:49Z</time>
      </trkpt>
      <trkpt lat="42.97808" lon="-0.2049">
        <ele>1134.2</ele>
        <time>2022-09-04T07:21:54Z</time>
      </trkpt>
      <trkpt lat="42.9781" lon="-0.20493">
        <ele>1134.8</ele>
        <time>2022-09-04T07:21:55Z</time>
      </trkpt>
      <trkpt lat="42.97816" lon="-0.20504">
        <ele>1135.6</ele>
        <time>2022-09-04T07:21:58Z</time>
      </trkpt>
      <trkpt lat="42.97822" lon="-0.20517">
        <ele>1136</ele>
        <time>2022-09-04T07:22:02Z</time>
      </trkpt>
      <trkpt lat="42.97826" lon="-0.20525">
        <ele>1136.6</ele>
        <time>2022-09-04T07:22:05Z</time>
      </trkpt>
      <trkpt lat="42.97833" lon="-0.20536">
        <ele>1137.6</ele>
        <time>2022-09-04T07:22:10Z</time>
      </trkpt>
      <trkpt lat="42.9784" lon="-0.20547">
        <ele>1138.6</ele>
        <time>2022-09-04T07:22:15Z</time>
      </trkpt>
      <trkpt lat="42.97842" lon="-0.20549">
        <ele>1138.8</ele>
        <time>2022-09-04T07:22:17Z</time>
      </trkpt>
      <trkpt lat="42.97845" lon="-0.2055">
        <ele>1139.2</ele>
        <time>2022-09-04T07:22:19Z</time>
      </trkpt>
      <trkpt lat="42.97849" lon="-0.20549">
        <ele>1139.8</ele>
        <time>2022-09-04T07:22:21Z</time>
      </trkpt>
      <trkpt lat="42.97851" lon="-0.20548">
        <ele>1139.8</ele>
        <time>2022-09-04T07:22:22Z</time>
      </trkpt>
      <trkpt lat="42.97859" lon="-0.20541">
        <ele>1140.8</ele>
        <time>2022-09-04T07:22:27Z</time>
      </trkpt>
      <trkpt lat="42.97863" lon="-0.20535">
        <ele>1141.4</ele>
        <time>2022-09-04T07:22:30Z</time>
      </trkpt>
      <trkpt lat="42.97865" lon="-0.20531">
        <ele>1141.8</ele>
        <time>2022-09-04T07:22:32Z</time>
      </trkpt>
      <trkpt lat="42.97871" lon="-0.20519">
        <ele>1142.8</ele>
        <time>2022-09-04T07:22:37Z</time>
      </trkpt>
      <trkpt lat="42.97872" lon="-0.20517">
        <ele>1143</ele>
        <time>2022-09-04T07:22:38Z</time>
      </trkpt>
      <trkpt lat="42.97879" lon="-0.20503">
        <ele>1143.8</ele>
        <time>2022-09-04T07:22:44Z</time>
      </trkpt>
      <trkpt lat="42.97884" lon="-0.20492">
        <ele>1144.8</ele>
        <time>2022-09-04T07:22:49Z</time>
      </trkpt>
      <trkpt lat="42.97887" lon="-0.20489">
        <ele>1145.2</ele>
        <time>2022-09-04T07:22:51Z</time>
      </trkpt>
      <trkpt lat="42.97896" lon="-0.20484">
        <ele>1146</ele>
        <time>2022-09-04T07:22:56Z</time>
      </trkpt>
      <trkpt lat="42.97901" lon="-0.2048">
        <ele>1146.6</ele>
        <time>2022-09-04T07:22:59Z</time>
      </trkpt>
      <trkpt lat="42.97906" lon="-0.20478">
        <ele>1147.2</ele>
        <time>2022-09-04T07:23:02Z</time>
      </trkpt>
      <trkpt lat="42.97915" lon="-0.20473">
        <ele>1148</ele>
        <time>2022-09-04T07:23:07Z</time>
      </trkpt>
      <trkpt lat="42.97917" lon="-0.20472">
        <ele>1148.4</ele>
        <time>2022-09-04T07:23:08Z</time>
      </trkpt>
      <trkpt lat="42.97923" lon="-0.20466">
        <ele>1149.4</ele>
        <time>2022-09-04T07:23:12Z</time>
      </trkpt>
      <trkpt lat="42.97929" lon="-0.20458">
        <ele>1150.2</ele>
        <time>2022-09-04T07:23:16Z</time>
      </trkpt>
      <trkpt lat="42.97931" lon="-0.20454">
        <ele>1150.6</ele>
        <time>2022-09-04T07:23:18Z</time>
      </trkpt>
      <trkpt lat="42.97937" lon="-0.20444">
        <ele>1151.6</ele>
        <time>2022-09-04T07:23:23Z</time>
      </trkpt>
      <trkpt lat="42.97941" lon="-0.20437">
        <ele>1152.4</ele>
        <time>2022-09-04T07:23:26Z</time>
      </trkpt>
      <trkpt lat="42.97942" lon="-0.20435">
        <ele>1152.8</ele>
        <time>2022-09-04T07:23:27Z</time>
      </trkpt>
      <trkpt lat="42.97949" lon="-0.20423">
        <ele>1153.8</ele>
        <time>2022-09-04T07:23:32Z</time>
      </trkpt>
      <trkpt lat="42.97952" lon="-0.20416">
        <ele>1154.4</ele>
        <time>2022-09-04T07:23:35Z</time>
      </trkpt>
      <trkpt lat="42.97955" lon="-0.2041">
        <ele>1154.8</ele>
        <time>2022-09-04T07:23:38Z</time>
      </trkpt>
      <trkpt lat="42.97962" lon="-0.20396">
        <ele>1155.4</ele>
        <time>2022-09-04T07:23:44Z</time>
      </trkpt>
      <trkpt lat="42.97963" lon="-0.20394">
        <ele>1155.6</ele>
        <time>2022-09-04T07:23:45Z</time>
      </trkpt>
      <trkpt lat="42.97969" lon="-0.20382">
        <ele>1156.8</ele>
        <time>2022-09-04T07:23:51Z</time>
      </trkpt>
      <trkpt lat="42.9797" lon="-0.20379">
        <ele>1157</ele>
        <time>2022-09-04T07:23:52Z</time>
      </trkpt>
      <trkpt lat="42.97974" lon="-0.20374">
        <ele>1158</ele>
        <time>2022-09-04T07:23:55Z</time>
      </trkpt>
      <trkpt lat="42.97978" lon="-0.20363">
        <ele>1159.2</ele>
        <time>2022-09-04T07:24:00Z</time>
      </trkpt>
      <trkpt lat="42.9798" lon="-0.20358">
        <ele>1159.6</ele>
        <time>2022-09-04T07:24:02Z</time>
      </trkpt>
      <trkpt lat="42.97984" lon="-0.2035">
        <ele>1160.2</ele>
        <time>2022-09-04T07:24:06Z</time>
      </trkpt>
      <trkpt lat="42.97988" lon="-0.20342">
        <ele>1161.2</ele>
        <time>2022-09-04T07:24:10Z</time>
      </trkpt>
      <trkpt lat="42.97989" lon="-0.2034">
        <ele>1161.4</ele>
        <time>2022-09-04T07:24:11Z</time>
      </trkpt>
      <trkpt lat="42.97994" lon="-0.20331">
        <ele>1162.6</ele>
        <time>2022-09-04T07:24:15Z</time>
      </trkpt>
      <trkpt lat="42.98" lon="-0.20318">
        <ele>1163.6</ele>
        <time>2022-09-04T07:24:21Z</time>
      </trkpt>
      <trkpt lat="42.98002" lon="-0.20316">
        <ele>1163.8</ele>
        <time>2022-09-04T07:24:22Z</time>
      </trkpt>
      <trkpt lat="42.98008" lon="-0.20305">
        <ele>1164.8</ele>
        <time>2022-09-04T07:24:27Z</time>
      </trkpt>
      <trkpt lat="42.98015" lon="-0.20299">
        <ele>1166.2</ele>
        <time>2022-09-04T07:24:31Z</time>
      </trkpt>
      <trkpt lat="42.98021" lon="-0.20298">
        <ele>1167</ele>
        <time>2022-09-04T07:24:34Z</time>
      </trkpt>
      <trkpt lat="42.98023" lon="-0.20299">
        <ele>1167.2</ele>
        <time>2022-09-04T07:24:35Z</time>
      </trkpt>
      <trkpt lat="42.98029" lon="-0.20301">
        <ele>1168.6</ele>
        <time>2022-09-04T07:24:38Z</time>
      </trkpt>
      <trkpt lat="42.98037" lon="-0.20308">
        <ele>1169.2</ele>
        <time>2022-09-04T07:24:42Z</time>
      </trkpt>
      <trkpt lat="42.9804" lon="-0.20312">
        <ele>1169.6</ele>
        <time>2022-09-04T07:24:44Z</time>
      </trkpt>
      <trkpt lat="42.98047" lon="-0.2032">
        <ele>1170.8</ele>
        <time>2022-09-04T07:24:48Z</time>
      </trkpt>
      <trkpt lat="42.98055" lon="-0.2033">
        <ele>1172</ele>
        <time>2022-09-04T07:24:53Z</time>
      </trkpt>
      <trkpt lat="42.98061" lon="-0.20338">
        <ele>1173</ele>
        <time>2022-09-04T07:24:57Z</time>
      </trkpt>
      <trkpt lat="42.98066" lon="-0.20345">
        <ele>1173.8</ele>
        <time>2022-09-04T07:25:00Z</time>
      </trkpt>
      <trkpt lat="42.98068" lon="-0.20349">
        <ele>1174.2</ele>
        <time>2022-09-04T07:25:02Z</time>
      </trkpt>
      <trkpt lat="42.98081" lon="-0.2036">
        <ele>1175.6</ele>
        <time>2022-09-04T07:25:08Z</time>
      </trkpt>
      <trkpt lat="42.9809" lon="-0.20371">
        <ele>1176.4</ele>
        <time>2022-09-04T07:25:13Z</time>
      </trkpt>
      <trkpt lat="42.98094" lon="-0.20379">
        <ele>1177.4</ele>
        <time>2022-09-04T07:25:17Z</time>
      </trkpt>
      <trkpt lat="42.98095" lon="-0.20381">
        <ele>1177.6</ele>
        <time>2022-09-04T07:25:18Z</time>
      </trkpt>
      <trkpt lat="42.98103" lon="-0.20394">
        <ele>1178.8</ele>
        <time>2022-09-04T07:25:24Z</time>
      </trkpt>
      <trkpt lat="42.98104" lon="-0.20397">
        <ele>1179</ele>
        <time>2022-09-04T07:25:25Z</time>
      </trkpt>
      <trkpt lat="42.98109" lon="-0.20406">
        <ele>1180</ele>
        <time>2022-09-04T07:25:29Z</time>
      </trkpt>
      <trkpt lat="42.98111" lon="-0.20411">
        <ele>1180.2</ele>
        <time>2022-09-04T07:25:31Z</time>
      </trkpt>
      <trkpt lat="42.98115" lon="-0.20418">
        <ele>1181</ele>
        <time>2022-09-04T07:25:34Z</time>
      </trkpt>
      <trkpt lat="42.9812" lon="-0.20427">
        <ele>1181.8</ele>
        <time>2022-09-04T07:25:38Z</time>
      </trkpt>
      <trkpt lat="42.98121" lon="-0.20432">
        <ele>1182.2</ele>
        <time>2022-09-04T07:25:40Z</time>
      </trkpt>
      <trkpt lat="42.98127" lon="-0.20444">
        <ele>1183.2</ele>
        <time>2022-09-04T07:25:46Z</time>
      </trkpt>
      <trkpt lat="42.98128" lon="-0.20447">
        <ele>1183.4</ele>
        <time>2022-09-04T07:25:47Z</time>
      </trkpt>
      <trkpt lat="42.98131" lon="-0.20456">
        <ele>1184.2</ele>
        <time>2022-09-04T07:25:51Z</time>
      </trkpt>
      <trkpt lat="42.98133" lon="-0.20462">
        <ele>1185</ele>
        <time>2022-09-04T07:25:54Z</time>
      </trkpt>
      <trkpt lat="42.98134" lon="-0.20465">
        <ele>1185.4</ele>
        <time>2022-09-04T07:25:55Z</time>
      </trkpt>
      <trkpt lat="42.98139" lon="-0.20477">
        <ele>1186.4</ele>
        <time>2022-09-04T07:26:00Z</time>
      </trkpt>
      <trkpt lat="42.98141" lon="-0.20482">
        <ele>1187</ele>
        <time>2022-09-04T07:26:02Z</time>
      </trkpt>
      <trkpt lat="42.98144" lon="-0.20489">
        <ele>1187.6</ele>
        <time>2022-09-04T07:26:05Z</time>
      </trkpt>
      <trkpt lat="42.98147" lon="-0.20498">
        <ele>1188.2</ele>
        <time>2022-09-04T07:26:09Z</time>
      </trkpt>
      <trkpt lat="42.98151" lon="-0.20503">
        <ele>1188.8</ele>
        <time>2022-09-04T07:26:11Z</time>
      </trkpt>
      <trkpt lat="42.98158" lon="-0.20514">
        <ele>1190</ele>
        <time>2022-09-04T07:26:16Z</time>
      </trkpt>
      <trkpt lat="42.98161" lon="-0.20518">
        <ele>1190.2</ele>
        <time>2022-09-04T07:26:18Z</time>
      </trkpt>
      <trkpt lat="42.98166" lon="-0.20524">
        <ele>1191</ele>
        <time>2022-09-04T07:26:21Z</time>
      </trkpt>
      <trkpt lat="42.98178" lon="-0.20535">
        <ele>1192.2</ele>
        <time>2022-09-04T07:26:27Z</time>
      </trkpt>
      <trkpt lat="42.98189" lon="-0.20546">
        <ele>1193.2</ele>
        <time>2022-09-04T07:26:33Z</time>
      </trkpt>
      <trkpt lat="42.98192" lon="-0.20551">
        <ele>1193.6</ele>
        <time>2022-09-04T07:26:35Z</time>
      </trkpt>
      <trkpt lat="42.982" lon="-0.2056">
        <ele>1194.4</ele>
        <time>2022-09-04T07:26:40Z</time>
      </trkpt>
      <trkpt lat="42.98203" lon="-0.20561">
        <ele>1194.6</ele>
        <time>2022-09-04T07:26:42Z</time>
      </trkpt>
      <trkpt lat="42.9822" lon="-0.20553">
        <ele>1195</ele>
        <time>2022-09-04T07:26:50Z</time>
      </trkpt>
      <trkpt lat="42.98226" lon="-0.20546">
        <ele>1195.2</ele>
        <time>2022-09-04T07:26:53Z</time>
      </trkpt>
      <trkpt lat="42.98234" lon="-0.20537">
        <ele>1195.8</ele>
        <time>2022-09-04T07:26:57Z</time>
      </trkpt>
      <trkpt lat="42.98246" lon="-0.20517">
        <ele>1196.4</ele>
        <time>2022-09-04T07:27:04Z</time>
      </trkpt>
      <trkpt lat="42.98248" lon="-0.20514">
        <ele>1196.4</ele>
        <time>2022-09-04T07:27:05Z</time>
      </trkpt>
      <trkpt lat="42.98256" lon="-0.20494">
        <ele>1197.4</ele>
        <time>2022-09-04T07:27:11Z</time>
      </trkpt>
      <trkpt lat="42.98271" lon="-0.20471">
        <ele>1198.4</ele>
        <time>2022-09-04T07:27:19Z</time>
      </trkpt>
      <trkpt lat="42.98274" lon="-0.2047">
        <ele>1198.4</ele>
        <time>2022-09-04T07:27:20Z</time>
      </trkpt>
      <trkpt lat="42.98287" lon="-0.2047">
        <ele>1198.8</ele>
        <time>2022-09-04T07:27:24Z</time>
      </trkpt>
      <trkpt lat="42.98309" lon="-0.20482">
        <ele>1199.2</ele>
        <time>2022-09-04T07:27:30Z</time>
      </trkpt>
      <trkpt lat="42.9833" lon="-0.2049">
        <ele>1199.4</ele>
        <time>2022-09-04T07:27:36Z</time>
      </trkpt>
      <trkpt lat="42.98334" lon="-0.20491">
        <ele>1199.4</ele>
        <time>2022-09-04T07:27:37Z</time>
      </trkpt>
      <trkpt lat="42.98363" lon="-0.20497">
        <ele>1199.8</ele>
        <time>2022-09-04T07:27:45Z</time>
      </trkpt>
      <trkpt lat="42.98377" lon="-0.20498">
        <ele>1199.8</ele>
        <time>2022-09-04T07:27:48Z</time>
      </trkpt>
      <trkpt lat="42.98388" lon="-0.20495">
        <ele>1199.8</ele>
        <time>2022-09-04T07:27:50Z</time>
      </trkpt>
      <trkpt lat="42.98399" lon="-0.20489">
        <ele>1199.8</ele>
        <time>2022-09-04T07:27:53Z</time>
      </trkpt>
      <trkpt lat="42.98404" lon="-0.20485">
        <ele>1199.8</ele>
        <time>2022-09-04T07:27:55Z</time>
      </trkpt>
      <trkpt lat="42.98414" lon="-0.20477">
        <ele>1200.2</ele>
        <time>2022-09-04T07:28:00Z</time>
      </trkpt>
      <trkpt lat="42.98416" lon="-0.20476">
        <ele>1200.4</ele>
        <time>2022-09-04T07:28:01Z</time>
      </trkpt>
      <trkpt lat="42.98422" lon="-0.2047">
        <ele>1201.4</ele>
        <time>2022-09-04T07:28:05Z</time>
      </trkpt>
      <trkpt lat="42.98425" lon="-0.20467">
        <ele>1202</ele>
        <time>2022-09-04T07:28:07Z</time>
      </trkpt>
      <trkpt lat="42.98427" lon="-0.20465">
        <ele>1202.6</ele>
        <time>2022-09-04T07:28:08Z</time>
      </trkpt>
      <trkpt lat="42.98439" lon="-0.20455">
        <ele>1203.6</ele>
        <time>2022-09-04T07:28:14Z</time>
      </trkpt>
      <trkpt lat="42.98442" lon="-0.20454">
        <ele>1203.6</ele>
        <time>2022-09-04T07:28:15Z</time>
      </trkpt>
      <trkpt lat="42.98461" lon="-0.20455">
        <ele>1204.2</ele>
        <time>2022-09-04T07:28:22Z</time>
      </trkpt>
      <trkpt lat="42.98477" lon="-0.20465">
        <ele>1204.6</ele>
        <time>2022-09-04T07:28:27Z</time>
      </trkpt>
      <trkpt lat="42.98487" lon="-0.20471">
        <ele>1204.8</ele>
        <time>2022-09-04T07:28:31Z</time>
      </trkpt>
      <trkpt lat="42.985" lon="-0.20476">
        <ele>1205.4</ele>
        <time>2022-09-04T07:28:36Z</time>
      </trkpt>
      <trkpt lat="42.98503" lon="-0.20477">
        <ele>1205.6</ele>
        <time>2022-09-04T07:28:37Z</time>
      </trkpt>
      <trkpt lat="42.98516" lon="-0.20478">
        <ele>1206.6</ele>
        <time>2022-09-04T07:28:43Z</time>
      </trkpt>
      <trkpt lat="42.98525" lon="-0.20478">
        <ele>1207.4</ele>
        <time>2022-09-04T07:28:47Z</time>
      </trkpt>
      <trkpt lat="42.98527" lon="-0.20478">
        <ele>1207.6</ele>
        <time>2022-09-04T07:28:48Z</time>
      </trkpt>
      <trkpt lat="42.98539" lon="-0.20479">
        <ele>1208.8</ele>
        <time>2022-09-04T07:28:53Z</time>
      </trkpt>
      <trkpt lat="42.98549" lon="-0.20479">
        <ele>1209.6</ele>
        <time>2022-09-04T07:28:57Z</time>
      </trkpt>
      <trkpt lat="42.98552" lon="-0.20479">
        <ele>1209.8</ele>
        <time>2022-09-04T07:28:59Z</time>
      </trkpt>
      <trkpt lat="42.98564" lon="-0.20477">
        <ele>1211</ele>
        <time>2022-09-04T07:29:04Z</time>
      </trkpt>
      <trkpt lat="42.98567" lon="-0.20475">
        <ele>1211.4</ele>
        <time>2022-09-04T07:29:06Z</time>
      </trkpt>
      <trkpt lat="42.98574" lon="-0.20469">
        <ele>1212.2</ele>
        <time>2022-09-04T07:29:10Z</time>
      </trkpt>
      <trkpt lat="42.98584" lon="-0.20461">
        <ele>1213</ele>
        <time>2022-09-04T07:29:15Z</time>
      </trkpt>
      <trkpt lat="42.98588" lon="-0.20459">
        <ele>1213</ele>
        <time>2022-09-04T07:29:17Z</time>
      </trkpt>
      <trkpt lat="42.98593" lon="-0.20458">
        <ele>1214.2</ele>
        <time>2022-09-04T07:29:19Z</time>
      </trkpt>
      <trkpt lat="42.98605" lon="-0.20459">
        <ele>1215</ele>
        <time>2022-09-04T07:29:24Z</time>
      </trkpt>
      <trkpt lat="42.98608" lon="-0.20459">
        <ele>1215.2</ele>
        <time>2022-09-04T07:29:25Z</time>
      </trkpt>
      <trkpt lat="42.98623" lon="-0.20459">
        <ele>1216.2</ele>
        <time>2022-09-04T07:29:31Z</time>
      </trkpt>
      <trkpt lat="42.98625" lon="-0.20457">
        <ele>1216.4</ele>
        <time>2022-09-04T07:29:32Z</time>
      </trkpt>
      <trkpt lat="42.98637" lon="-0.20447">
        <ele>1217.4</ele>
        <time>2022-09-04T07:29:38Z</time>
      </trkpt>
      <trkpt lat="42.98641" lon="-0.20443">
        <ele>1217.8</ele>
        <time>2022-09-04T07:29:40Z</time>
      </trkpt>
      <trkpt lat="42.98644" lon="-0.20436">
        <ele>1218.6</ele>
        <time>2022-09-04T07:29:43Z</time>
      </trkpt>
      <trkpt lat="42.98649" lon="-0.20427">
        <ele>1220</ele>
        <time>2022-09-04T07:29:47Z</time>
      </trkpt>
      <trkpt lat="42.98651" lon="-0.2041">
        <ele>1221.2</ele>
        <time>2022-09-04T07:29:53Z</time>
      </trkpt>
      <trkpt lat="42.98649" lon="-0.20404">
        <ele>1221.6</ele>
        <time>2022-09-04T07:29:55Z</time>
      </trkpt>
      <trkpt lat="42.98642" lon="-0.20387">
        <ele>1222</ele>
        <time>2022-09-04T07:30:00Z</time>
      </trkpt>
      <trkpt lat="42.9864" lon="-0.20377">
        <ele>1222.4</ele>
        <time>2022-09-04T07:30:03Z</time>
      </trkpt>
      <trkpt lat="42.98644" lon="-0.20363">
        <ele>1223</ele>
        <time>2022-09-04T07:30:08Z</time>
      </trkpt>
      <trkpt lat="42.98646" lon="-0.20362">
        <ele>1223.2</ele>
        <time>2022-09-04T07:30:09Z</time>
      </trkpt>
      <trkpt lat="42.98656" lon="-0.20359">
        <ele>1224</ele>
        <time>2022-09-04T07:30:14Z</time>
      </trkpt>
      <trkpt lat="42.98658" lon="-0.20361">
        <ele>1224.4</ele>
        <time>2022-09-04T07:30:15Z</time>
      </trkpt>
      <trkpt lat="42.98668" lon="-0.20372">
        <ele>1225.4</ele>
        <time>2022-09-04T07:30:20Z</time>
      </trkpt>
      <trkpt lat="42.98669" lon="-0.20376">
        <ele>1225.6</ele>
        <time>2022-09-04T07:30:21Z</time>
      </trkpt>
      <trkpt lat="42.98676" lon="-0.20396">
        <ele>1226.4</ele>
        <time>2022-09-04T07:30:27Z</time>
      </trkpt>
      <trkpt lat="42.98686" lon="-0.20412">
        <ele>1227.2</ele>
        <time>2022-09-04T07:30:33Z</time>
      </trkpt>
      <trkpt lat="42.98694" lon="-0.20421">
        <ele>1228.4</ele>
        <time>2022-09-04T07:30:38Z</time>
      </trkpt>
      <trkpt lat="42.98698" lon="-0.20426">
        <ele>1229.2</ele>
        <time>2022-09-04T07:30:41Z</time>
      </trkpt>
      <trkpt lat="42.987" lon="-0.20427">
        <ele>1229.6</ele>
        <time>2022-09-04T07:30:42Z</time>
      </trkpt>
      <trkpt lat="42.98708" lon="-0.20435">
        <ele>1230.8</ele>
        <time>2022-09-04T07:30:47Z</time>
      </trkpt>
      <trkpt lat="42.98709" lon="-0.20437">
        <ele>1231</ele>
        <time>2022-09-04T07:30:48Z</time>
      </trkpt>
      <trkpt lat="42.98714" lon="-0.20444">
        <ele>1232</ele>
        <time>2022-09-04T07:30:52Z</time>
      </trkpt>
      <trkpt lat="42.9872" lon="-0.20452">
        <ele>1233.2</ele>
        <time>2022-09-04T07:30:56Z</time>
      </trkpt>
      <trkpt lat="42.98724" lon="-0.20459">
        <ele>1234.4</ele>
        <time>2022-09-04T07:31:00Z</time>
      </trkpt>
      <trkpt lat="42.98728" lon="-0.20466">
        <ele>1235</ele>
        <time>2022-09-04T07:31:03Z</time>
      </trkpt>
      <trkpt lat="42.98731" lon="-0.2047">
        <ele>1235.4</ele>
        <time>2022-09-04T07:31:05Z</time>
      </trkpt>
      <trkpt lat="42.98735" lon="-0.20483">
        <ele>1236.6</ele>
        <time>2022-09-04T07:31:10Z</time>
      </trkpt>
      <trkpt lat="42.98736" lon="-0.20488">
        <ele>1237.2</ele>
        <time>2022-09-04T07:31:12Z</time>
      </trkpt>
      <trkpt lat="42.98736" lon="-0.20493">
        <ele>1237.6</ele>
        <time>2022-09-04T07:31:14Z</time>
      </trkpt>
      <trkpt lat="42.98737" lon="-0.20501">
        <ele>1238.4</ele>
        <time>2022-09-04T07:31:17Z</time>
      </trkpt>
      <trkpt lat="42.98737" lon="-0.20503">
        <ele>1238.4</ele>
        <time>2022-09-04T07:31:18Z</time>
      </trkpt>
      <trkpt lat="42.98737" lon="-0.20507">
        <ele>1239</ele>
        <time>2022-09-04T07:31:19Z</time>
      </trkpt>
      <trkpt lat="42.98736" lon="-0.20526">
        <ele>1240</ele>
        <time>2022-09-04T07:31:26Z</time>
      </trkpt>
      <trkpt lat="42.98735" lon="-0.20531">
        <ele>1240.4</ele>
        <time>2022-09-04T07:31:28Z</time>
      </trkpt>
      <trkpt lat="42.98733" lon="-0.20542">
        <ele>1241.2</ele>
        <time>2022-09-04T07:31:32Z</time>
      </trkpt>
      <trkpt lat="42.98734" lon="-0.20555">
        <ele>1242.2</ele>
        <time>2022-09-04T07:31:37Z</time>
      </trkpt>
      <trkpt lat="42.98734" lon="-0.20571">
        <ele>1243.2</ele>
        <time>2022-09-04T07:31:43Z</time>
      </trkpt>
      <trkpt lat="42.98733" lon="-0.20577">
        <ele>1243.6</ele>
        <time>2022-09-04T07:31:45Z</time>
      </trkpt>
      <trkpt lat="42.9873" lon="-0.20587">
        <ele>1244.2</ele>
        <time>2022-09-04T07:31:49Z</time>
      </trkpt>
      <trkpt lat="42.98726" lon="-0.20594">
        <ele>1244.4</ele>
        <time>2022-09-04T07:31:52Z</time>
      </trkpt>
      <trkpt lat="42.9872" lon="-0.20602">
        <ele>1245.2</ele>
        <time>2022-09-04T07:31:56Z</time>
      </trkpt>
      <trkpt lat="42.98714" lon="-0.20608">
        <ele>1246</ele>
        <time>2022-09-04T07:32:00Z</time>
      </trkpt>
      <trkpt lat="42.98713" lon="-0.20611">
        <ele>1246.2</ele>
        <time>2022-09-04T07:32:01Z</time>
      </trkpt>
      <trkpt lat="42.98705" lon="-0.20621">
        <ele>1247.2</ele>
        <time>2022-09-04T07:32:07Z</time>
      </trkpt>
      <trkpt lat="42.98704" lon="-0.20623">
        <ele>1247.6</ele>
        <time>2022-09-04T07:32:08Z</time>
      </trkpt>
      <trkpt lat="42.987" lon="-0.20629">
        <ele>1248.4</ele>
        <time>2022-09-04T07:32:11Z</time>
      </trkpt>
      <trkpt lat="42.98694" lon="-0.20638">
        <ele>1249.4</ele>
        <time>2022-09-04T07:32:16Z</time>
      </trkpt>
      <trkpt lat="42.98692" lon="-0.20639">
        <ele>1249.6</ele>
        <time>2022-09-04T07:32:17Z</time>
      </trkpt>
      <trkpt lat="42.98686" lon="-0.20646">
        <ele>1250.6</ele>
        <time>2022-09-04T07:32:21Z</time>
      </trkpt>
      <trkpt lat="42.98675" lon="-0.20654">
        <ele>1251.6</ele>
        <time>2022-09-04T07:32:27Z</time>
      </trkpt>
      <trkpt lat="42.98661" lon="-0.20664">
        <ele>1252.6</ele>
        <time>2022-09-04T07:32:34Z</time>
      </trkpt>
      <trkpt lat="42.98656" lon="-0.20669">
        <ele>1253</ele>
        <time>2022-09-04T07:32:37Z</time>
      </trkpt>
      <trkpt lat="42.9865" lon="-0.20679">
        <ele>1253.8</ele>
        <time>2022-09-04T07:32:42Z</time>
      </trkpt>
      <trkpt lat="42.98649" lon="-0.20681">
        <ele>1254</ele>
        <time>2022-09-04T07:32:43Z</time>
      </trkpt>
      <trkpt lat="42.98649" lon="-0.20691">
        <ele>1254.8</ele>
        <time>2022-09-04T07:32:47Z</time>
      </trkpt>
      <trkpt lat="42.9865" lon="-0.20693">
        <ele>1255.2</ele>
        <time>2022-09-04T07:32:48Z</time>
      </trkpt>
      <trkpt lat="42.98653" lon="-0.20701">
        <ele>1256</ele>
        <time>2022-09-04T07:32:51Z</time>
      </trkpt>
      <trkpt lat="42.98657" lon="-0.20711">
        <ele>1257.2</ele>
        <time>2022-09-04T07:32:55Z</time>
      </trkpt>
      <trkpt lat="42.98659" lon="-0.20719">
        <ele>1258</ele>
        <time>2022-09-04T07:32:58Z</time>
      </trkpt>
      <trkpt lat="42.98659" lon="-0.20722">
        <ele>1258.2</ele>
        <time>2022-09-04T07:32:59Z</time>
      </trkpt>
      <trkpt lat="42.98662" lon="-0.20735">
        <ele>1259.4</ele>
        <time>2022-09-04T07:33:04Z</time>
      </trkpt>
      <trkpt lat="42.98663" lon="-0.20745">
        <ele>1260.2</ele>
        <time>2022-09-04T07:33:08Z</time>
      </trkpt>
      <trkpt lat="42.98663" lon="-0.20751">
        <ele>1260.6</ele>
        <time>2022-09-04T07:33:10Z</time>
      </trkpt>
      <trkpt lat="42.98663" lon="-0.20765">
        <ele>1261.6</ele>
        <time>2022-09-04T07:33:16Z</time>
      </trkpt>
      <trkpt lat="42.98663" lon="-0.20767">
        <ele>1261.8</ele>
        <time>2022-09-04T07:33:17Z</time>
      </trkpt>
      <trkpt lat="42.98661" lon="-0.20777">
        <ele>1263</ele>
        <time>2022-09-04T07:33:21Z</time>
      </trkpt>
      <trkpt lat="42.9866" lon="-0.20782">
        <ele>1263.4</ele>
        <time>2022-09-04T07:33:23Z</time>
      </trkpt>
      <trkpt lat="42.98658" lon="-0.20792">
        <ele>1264</ele>
        <time>2022-09-04T07:33:27Z</time>
      </trkpt>
      <trkpt lat="42.98651" lon="-0.20809">
        <ele>1265</ele>
        <time>2022-09-04T07:33:34Z</time>
      </trkpt>
      <trkpt lat="42.98648" lon="-0.20818">
        <ele>1265.4</ele>
        <time>2022-09-04T07:33:37Z</time>
      </trkpt>
      <trkpt lat="42.98646" lon="-0.20826">
        <ele>1266</ele>
        <time>2022-09-04T07:33:40Z</time>
      </trkpt>
      <trkpt lat="42.98638" lon="-0.2084">
        <ele>1267</ele>
        <time>2022-09-04T07:33:46Z</time>
      </trkpt>
      <trkpt lat="42.98636" lon="-0.20843">
        <ele>1267.2</ele>
        <time>2022-09-04T07:33:47Z</time>
      </trkpt>
      <trkpt lat="42.98626" lon="-0.20857">
        <ele>1268.4</ele>
        <time>2022-09-04T07:33:53Z</time>
      </trkpt>
      <trkpt lat="42.98621" lon="-0.20862">
        <ele>1268.6</ele>
        <time>2022-09-04T07:33:56Z</time>
      </trkpt>
      <trkpt lat="42.98607" lon="-0.20875">
        <ele>1269.2</ele>
        <time>2022-09-04T07:34:04Z</time>
      </trkpt>
      <trkpt lat="42.98605" lon="-0.20877">
        <ele>1269.4</ele>
        <time>2022-09-04T07:34:05Z</time>
      </trkpt>
      <trkpt lat="42.98597" lon="-0.20888">
        <ele>1270.4</ele>
        <time>2022-09-04T07:34:11Z</time>
      </trkpt>
      <trkpt lat="42.98597" lon="-0.20891">
        <ele>1270.6</ele>
        <time>2022-09-04T07:34:12Z</time>
      </trkpt>
      <trkpt lat="42.98597" lon="-0.20893">
        <ele>1270.8</ele>
        <time>2022-09-04T07:34:13Z</time>
      </trkpt>
      <trkpt lat="42.98599" lon="-0.20897">
        <ele>1271</ele>
        <time>2022-09-04T07:34:15Z</time>
      </trkpt>
      <trkpt lat="42.98601" lon="-0.20898">
        <ele>1271.2</ele>
        <time>2022-09-04T07:34:16Z</time>
      </trkpt>
      <trkpt lat="42.98604" lon="-0.20898">
        <ele>1271.6</ele>
        <time>2022-09-04T07:34:18Z</time>
      </trkpt>
      <trkpt lat="42.98611" lon="-0.20895">
        <ele>1272.2</ele>
        <time>2022-09-04T07:34:21Z</time>
      </trkpt>
      <trkpt lat="42.98615" lon="-0.20892">
        <ele>1272.8</ele>
        <time>2022-09-04T07:34:23Z</time>
      </trkpt>
      <trkpt lat="42.98628" lon="-0.2088">
        <ele>1273.8</ele>
        <time>2022-09-04T07:34:29Z</time>
      </trkpt>
      <trkpt lat="42.98644" lon="-0.20862">
        <ele>1275.2</ele>
        <time>2022-09-04T07:34:38Z</time>
      </trkpt>
      <trkpt lat="42.98647" lon="-0.20859">
        <ele>1275.2</ele>
        <time>2022-09-04T07:34:40Z</time>
      </trkpt>
      <trkpt lat="42.98655" lon="-0.20848">
        <ele>1276</ele>
        <time>2022-09-04T07:34:46Z</time>
      </trkpt>
      <trkpt lat="42.98661" lon="-0.2084">
        <ele>1276.8</ele>
        <time>2022-09-04T07:34:50Z</time>
      </trkpt>
      <trkpt lat="42.98663" lon="-0.20838">
        <ele>1277.2</ele>
        <time>2022-09-04T07:34:51Z</time>
      </trkpt>
      <trkpt lat="42.9867" lon="-0.20829">
        <ele>1278.2</ele>
        <time>2022-09-04T07:34:56Z</time>
      </trkpt>
      <trkpt lat="42.98676" lon="-0.20821">
        <ele>1278.8</ele>
        <time>2022-09-04T07:35:00Z</time>
      </trkpt>
      <trkpt lat="42.98679" lon="-0.20817">
        <ele>1279.2</ele>
        <time>2022-09-04T07:35:02Z</time>
      </trkpt>
      <trkpt lat="42.98685" lon="-0.2081">
        <ele>1280.4</ele>
        <time>2022-09-04T07:35:06Z</time>
      </trkpt>
      <trkpt lat="42.98689" lon="-0.20807">
        <ele>1280.6</ele>
        <time>2022-09-04T07:35:08Z</time>
      </trkpt>
      <trkpt lat="42.98698" lon="-0.20797">
        <ele>1281.4</ele>
        <time>2022-09-04T07:35:14Z</time>
      </trkpt>
      <trkpt lat="42.98701" lon="-0.20794">
        <ele>1281.6</ele>
        <time>2022-09-04T07:35:16Z</time>
      </trkpt>
      <trkpt lat="42.98707" lon="-0.2079">
        <ele>1282.4</ele>
        <time>2022-09-04T07:35:19Z</time>
      </trkpt>
      <trkpt lat="42.98719" lon="-0.20781">
        <ele>1283.4</ele>
        <time>2022-09-04T07:35:25Z</time>
      </trkpt>
      <trkpt lat="42.98721" lon="-0.20779">
        <ele>1283.4</ele>
        <time>2022-09-04T07:35:26Z</time>
      </trkpt>
      <trkpt lat="42.98732" lon="-0.20767">
        <ele>1284.6</ele>
        <time>2022-09-04T07:35:33Z</time>
      </trkpt>
      <trkpt lat="42.98734" lon="-0.20764">
        <ele>1285.2</ele>
        <time>2022-09-04T07:35:35Z</time>
      </trkpt>
      <trkpt lat="42.98737" lon="-0.2076">
        <ele>1285.6</ele>
        <time>2022-09-04T07:35:37Z</time>
      </trkpt>
      <trkpt lat="42.98745" lon="-0.20751">
        <ele>1286.4</ele>
        <time>2022-09-04T07:35:42Z</time>
      </trkpt>
      <trkpt lat="42.98747" lon="-0.2075">
        <ele>1286.4</ele>
        <time>2022-09-04T07:35:43Z</time>
      </trkpt>
      <trkpt lat="42.98749" lon="-0.20748">
        <ele>1286.8</ele>
        <time>2022-09-04T07:35:44Z</time>
      </trkpt>
      <trkpt lat="42.98761" lon="-0.20742">
        <ele>1287.8</ele>
        <time>2022-09-04T07:35:50Z</time>
      </trkpt>
      <trkpt lat="42.98769" lon="-0.20737">
        <ele>1288.8</ele>
        <time>2022-09-04T07:35:54Z</time>
      </trkpt>
      <trkpt lat="42.98776" lon="-0.20735">
        <ele>1289.8</ele>
        <time>2022-09-04T07:35:58Z</time>
      </trkpt>
      <trkpt lat="42.98778" lon="-0.20735">
        <ele>1290.4</ele>
        <time>2022-09-04T07:35:59Z</time>
      </trkpt>
      <trkpt lat="42.98787" lon="-0.2074">
        <ele>1291</ele>
        <time>2022-09-04T07:36:03Z</time>
      </trkpt>
      <trkpt lat="42.98791" lon="-0.20744">
        <ele>1291.4</ele>
        <time>2022-09-04T07:36:05Z</time>
      </trkpt>
      <trkpt lat="42.98795" lon="-0.20747">
        <ele>1291.8</ele>
        <time>2022-09-04T07:36:07Z</time>
      </trkpt>
      <trkpt lat="42.98804" lon="-0.20752">
        <ele>1293</ele>
        <time>2022-09-04T07:36:12Z</time>
      </trkpt>
      <trkpt lat="42.98807" lon="-0.20753">
        <ele>1293.2</ele>
        <time>2022-09-04T07:36:13Z</time>
      </trkpt>
      <trkpt lat="42.98814" lon="-0.20756">
        <ele>1294.2</ele>
        <time>2022-09-04T07:36:17Z</time>
      </trkpt>
      <trkpt lat="42.98818" lon="-0.20755">
        <ele>1294.6</ele>
        <time>2022-09-04T07:36:19Z</time>
      </trkpt>
      <trkpt lat="42.98821" lon="-0.20753">
        <ele>1295.2</ele>
        <time>2022-09-04T07:36:21Z</time>
      </trkpt>
      <trkpt lat="42.98829" lon="-0.20746">
        <ele>1295.6</ele>
        <time>2022-09-04T07:36:25Z</time>
      </trkpt>
      <trkpt lat="42.98833" lon="-0.2074">
        <ele>1296</ele>
        <time>2022-09-04T07:36:28Z</time>
      </trkpt>
      <trkpt lat="42.9884" lon="-0.20729">
        <ele>1297.4</ele>
        <time>2022-09-04T07:36:33Z</time>
      </trkpt>
      <trkpt lat="42.98848" lon="-0.20718">
        <ele>1298.4</ele>
        <time>2022-09-04T07:36:38Z</time>
      </trkpt>
      <trkpt lat="42.9885" lon="-0.20714">
        <ele>1298.8</ele>
        <time>2022-09-04T07:36:40Z</time>
      </trkpt>
      <trkpt lat="42.98854" lon="-0.20705">
        <ele>1299.6</ele>
        <time>2022-09-04T07:36:44Z</time>
      </trkpt>
      <trkpt lat="42.98856" lon="-0.20692">
        <ele>1300.6</ele>
        <time>2022-09-04T07:36:49Z</time>
      </trkpt>
      <trkpt lat="42.98856" lon="-0.20681">
        <ele>1301.6</ele>
        <time>2022-09-04T07:36:53Z</time>
      </trkpt>
      <trkpt lat="42.98856" lon="-0.20675">
        <ele>1302.2</ele>
        <time>2022-09-04T07:36:56Z</time>
      </trkpt>
      <trkpt lat="42.98857" lon="-0.20667">
        <ele>1302.8</ele>
        <time>2022-09-04T07:36:59Z</time>
      </trkpt>
      <trkpt lat="42.98858" lon="-0.20657">
        <ele>1303.8</ele>
        <time>2022-09-04T07:37:03Z</time>
      </trkpt>
      <trkpt lat="42.98859" lon="-0.20654">
        <ele>1304</ele>
        <time>2022-09-04T07:37:04Z</time>
      </trkpt>
      <trkpt lat="42.98862" lon="-0.20643">
        <ele>1304.8</ele>
        <time>2022-09-04T07:37:09Z</time>
      </trkpt>
      <trkpt lat="42.98865" lon="-0.20631">
        <ele>1306</ele>
        <time>2022-09-04T07:37:14Z</time>
      </trkpt>
      <trkpt lat="42.98865" lon="-0.20629">
        <ele>1306.2</ele>
        <time>2022-09-04T07:37:15Z</time>
      </trkpt>
      <trkpt lat="42.98868" lon="-0.20617">
        <ele>1307.4</ele>
        <time>2022-09-04T07:37:20Z</time>
      </trkpt>
      <trkpt lat="42.98869" lon="-0.20608">
        <ele>1308.2</ele>
        <time>2022-09-04T07:37:24Z</time>
      </trkpt>
      <trkpt lat="42.98869" lon="-0.20606">
        <ele>1308.6</ele>
        <time>2022-09-04T07:37:25Z</time>
      </trkpt>
      <trkpt lat="42.9887" lon="-0.20589">
        <ele>1309.6</ele>
        <time>2022-09-04T07:37:31Z</time>
      </trkpt>
      <trkpt lat="42.9887" lon="-0.20578">
        <ele>1310.2</ele>
        <time>2022-09-04T07:37:35Z</time>
      </trkpt>
      <trkpt lat="42.98871" lon="-0.20573">
        <ele>1310.8</ele>
        <time>2022-09-04T07:37:37Z</time>
      </trkpt>
      <trkpt lat="42.98872" lon="-0.20561">
        <ele>1311.8</ele>
        <time>2022-09-04T07:37:42Z</time>
      </trkpt>
      <trkpt lat="42.98873" lon="-0.20555">
        <ele>1312.4</ele>
        <time>2022-09-04T07:37:45Z</time>
      </trkpt>
      <trkpt lat="42.98874" lon="-0.2055">
        <ele>1312.8</ele>
        <time>2022-09-04T07:37:47Z</time>
      </trkpt>
      <trkpt lat="42.98877" lon="-0.20537">
        <ele>1314.2</ele>
        <time>2022-09-04T07:37:53Z</time>
      </trkpt>
      <trkpt lat="42.98879" lon="-0.2053">
        <ele>1314.6</ele>
        <time>2022-09-04T07:37:56Z</time>
      </trkpt>
      <trkpt lat="42.98881" lon="-0.20527">
        <ele>1315</ele>
        <time>2022-09-04T07:37:58Z</time>
      </trkpt>
      <trkpt lat="42.98887" lon="-0.20517">
        <ele>1316.2</ele>
        <time>2022-09-04T07:38:03Z</time>
      </trkpt>
      <trkpt lat="42.98888" lon="-0.20515">
        <ele>1316.4</ele>
        <time>2022-09-04T07:38:04Z</time>
      </trkpt>
      <trkpt lat="42.98896" lon="-0.20507">
        <ele>1317.4</ele>
        <time>2022-09-04T07:38:09Z</time>
      </trkpt>
      <trkpt lat="42.989" lon="-0.20498">
        <ele>1318</ele>
        <time>2022-09-04T07:38:13Z</time>
      </trkpt>
      <trkpt lat="42.98903" lon="-0.20492">
        <ele>1318.4</ele>
        <time>2022-09-04T07:38:15Z</time>
      </trkpt>
      <trkpt lat="42.98909" lon="-0.20477">
        <ele>1319.4</ele>
        <time>2022-09-04T07:38:21Z</time>
      </trkpt>
      <trkpt lat="42.98916" lon="-0.20459">
        <ele>1320.2</ele>
        <time>2022-09-04T07:38:28Z</time>
      </trkpt>
      <trkpt lat="42.98917" lon="-0.20457">
        <ele>1320.4</ele>
        <time>2022-09-04T07:38:29Z</time>
      </trkpt>
      <trkpt lat="42.98924" lon="-0.20441">
        <ele>1321.4</ele>
        <time>2022-09-04T07:38:35Z</time>
      </trkpt>
      <trkpt lat="42.98927" lon="-0.20433">
        <ele>1321.6</ele>
        <time>2022-09-04T07:38:38Z</time>
      </trkpt>
      <trkpt lat="42.98934" lon="-0.20416">
        <ele>1322.4</ele>
        <time>2022-09-04T07:38:44Z</time>
      </trkpt>
      <trkpt lat="42.98937" lon="-0.20408">
        <ele>1322.8</ele>
        <time>2022-09-04T07:38:47Z</time>
      </trkpt>
      <trkpt lat="42.98944" lon="-0.20391">
        <ele>1323.6</ele>
        <time>2022-09-04T07:38:53Z</time>
      </trkpt>
      <trkpt lat="42.98947" lon="-0.20386">
        <ele>1323.8</ele>
        <time>2022-09-04T07:38:55Z</time>
      </trkpt>
      <trkpt lat="42.98951" lon="-0.20376">
        <ele>1324.4</ele>
        <time>2022-09-04T07:38:59Z</time>
      </trkpt>
      <trkpt lat="42.9896" lon="-0.20367">
        <ele>1325</ele>
        <time>2022-09-04T07:39:04Z</time>
      </trkpt>
      <trkpt lat="42.9897" lon="-0.20361">
        <ele>1325.8</ele>
        <time>2022-09-04T07:39:09Z</time>
      </trkpt>
      <trkpt lat="42.98977" lon="-0.2036">
        <ele>1326.2</ele>
        <time>2022-09-04T07:39:12Z</time>
      </trkpt>
      <trkpt lat="42.98987" lon="-0.20359">
        <ele>1327</ele>
        <time>2022-09-04T07:39:17Z</time>
      </trkpt>
      <trkpt lat="42.98991" lon="-0.20357">
        <ele>1327.2</ele>
        <time>2022-09-04T07:39:19Z</time>
      </trkpt>
      <trkpt lat="42.98999" lon="-0.20348">
        <ele>1328</ele>
        <time>2022-09-04T07:39:24Z</time>
      </trkpt>
      <trkpt lat="42.99" lon="-0.20329">
        <ele>1329.2</ele>
        <time>2022-09-04T07:39:31Z</time>
      </trkpt>
      <trkpt lat="42.98998" lon="-0.20313">
        <ele>1330.2</ele>
        <time>2022-09-04T07:39:37Z</time>
      </trkpt>
      <trkpt lat="42.98998" lon="-0.20313">
        <ele>1330.4</ele>
        <time>2022-09-04T07:39:38Z</time>
      </trkpt>
      <trkpt lat="42.98996" lon="-0.203">
        <ele>1331.4</ele>
        <time>2022-09-04T07:39:42Z</time>
      </trkpt>
      <trkpt lat="42.98993" lon="-0.20288">
        <ele>1332.2</ele>
        <time>2022-09-04T07:39:47Z</time>
      </trkpt>
      <trkpt lat="42.98993" lon="-0.20285">
        <ele>1332.4</ele>
        <time>2022-09-04T07:39:48Z</time>
      </trkpt>
      <trkpt lat="42.98989" lon="-0.20271">
        <ele>1333.4</ele>
        <time>2022-09-04T07:39:54Z</time>
      </trkpt>
      <trkpt lat="42.98986" lon="-0.20263">
        <ele>1334.2</ele>
        <time>2022-09-04T07:39:57Z</time>
      </trkpt>
      <trkpt lat="42.98985" lon="-0.20255">
        <ele>1334.4</ele>
        <time>2022-09-04T07:40:00Z</time>
      </trkpt>
      <trkpt lat="42.98981" lon="-0.20241">
        <ele>1335.6</ele>
        <time>2022-09-04T07:40:07Z</time>
      </trkpt>
      <trkpt lat="42.98978" lon="-0.20223">
        <ele>1336.8</ele>
        <time>2022-09-04T07:40:13Z</time>
      </trkpt>
      <trkpt lat="42.98977" lon="-0.20214">
        <ele>1337</ele>
        <time>2022-09-04T07:40:16Z</time>
      </trkpt>
      <trkpt lat="42.98975" lon="-0.20201">
        <ele>1337.8</ele>
        <time>2022-09-04T07:40:20Z</time>
      </trkpt>
      <trkpt lat="42.98973" lon="-0.20189">
        <ele>1338.6</ele>
        <time>2022-09-04T07:40:24Z</time>
      </trkpt>
      <trkpt lat="42.98971" lon="-0.2018">
        <ele>1339</ele>
        <time>2022-09-04T07:40:27Z</time>
      </trkpt>
      <trkpt lat="42.98966" lon="-0.20162">
        <ele>1339.6</ele>
        <time>2022-09-04T07:40:33Z</time>
      </trkpt>
      <trkpt lat="42.98966" lon="-0.20156">
        <ele>1340</ele>
        <time>2022-09-04T07:40:35Z</time>
      </trkpt>
      <trkpt lat="42.98967" lon="-0.20144">
        <ele>1340.6</ele>
        <time>2022-09-04T07:40:39Z</time>
      </trkpt>
      <trkpt lat="42.98968" lon="-0.20142">
        <ele>1340.8</ele>
        <time>2022-09-04T07:40:40Z</time>
      </trkpt>
      <trkpt lat="42.98972" lon="-0.2014">
        <ele>1341</ele>
        <time>2022-09-04T07:40:42Z</time>
      </trkpt>
      <trkpt lat="42.98976" lon="-0.2014">
        <ele>1341.2</ele>
        <time>2022-09-04T07:40:44Z</time>
      </trkpt>
      <trkpt lat="42.98977" lon="-0.20142">
        <ele>1341.4</ele>
        <time>2022-09-04T07:40:45Z</time>
      </trkpt>
      <trkpt lat="42.98982" lon="-0.20157">
        <ele>1341.8</ele>
        <time>2022-09-04T07:40:50Z</time>
      </trkpt>
      <trkpt lat="42.98988" lon="-0.20186">
        <ele>1343</ele>
        <time>2022-09-04T07:40:59Z</time>
      </trkpt>
      <trkpt lat="42.98989" lon="-0.20189">
        <ele>1343.2</ele>
        <time>2022-09-04T07:41:00Z</time>
      </trkpt>
      <trkpt lat="42.98999" lon="-0.2021">
        <ele>1344</ele>
        <time>2022-09-04T07:41:08Z</time>
      </trkpt>
      <trkpt lat="42.9901" lon="-0.20225">
        <ele>1345</ele>
        <time>2022-09-04T07:41:15Z</time>
      </trkpt>
      <trkpt lat="42.99012" lon="-0.20227">
        <ele>1345.2</ele>
        <time>2022-09-04T07:41:16Z</time>
      </trkpt>
      <trkpt lat="42.99021" lon="-0.20238">
        <ele>1346.2</ele>
        <time>2022-09-04T07:41:22Z</time>
      </trkpt>
      <trkpt lat="42.99024" lon="-0.20242">
        <ele>1346.6</ele>
        <time>2022-09-04T07:41:24Z</time>
      </trkpt>
      <trkpt lat="42.99029" lon="-0.20247">
        <ele>1347.4</ele>
        <time>2022-09-04T07:41:27Z</time>
      </trkpt>
      <trkpt lat="42.99037" lon="-0.20253">
        <ele>1348.2</ele>
        <time>2022-09-04T07:41:32Z</time>
      </trkpt>
      <trkpt lat="42.99038" lon="-0.20255">
        <ele>1348.4</ele>
        <time>2022-09-04T07:41:33Z</time>
      </trkpt>
      <trkpt lat="42.99046" lon="-0.20259">
        <ele>1349.4</ele>
        <time>2022-09-04T07:41:38Z</time>
      </trkpt>
      <trkpt lat="42.99057" lon="-0.20266">
        <ele>1350.6</ele>
        <time>2022-09-04T07:41:43Z</time>
      </trkpt>
      <trkpt lat="42.99059" lon="-0.20267">
        <ele>1350.8</ele>
        <time>2022-09-04T07:41:44Z</time>
      </trkpt>
      <trkpt lat="42.99071" lon="-0.20274">
        <ele>1351.6</ele>
        <time>2022-09-04T07:41:50Z</time>
      </trkpt>
      <trkpt lat="42.99076" lon="-0.20279">
        <ele>1352</ele>
        <time>2022-09-04T07:41:53Z</time>
      </trkpt>
      <trkpt lat="42.99079" lon="-0.20282">
        <ele>1352.6</ele>
        <time>2022-09-04T07:41:56Z</time>
      </trkpt>
      <trkpt lat="42.99089" lon="-0.20288">
        <ele>1353.6</ele>
        <time>2022-09-04T07:42:01Z</time>
      </trkpt>
      <trkpt lat="42.99093" lon="-0.20288">
        <ele>1354</ele>
        <time>2022-09-04T07:42:03Z</time>
      </trkpt>
      <trkpt lat="42.99105" lon="-0.20291">
        <ele>1354.8</ele>
        <time>2022-09-04T07:42:09Z</time>
      </trkpt>
      <trkpt lat="42.99107" lon="-0.20292">
        <ele>1355</ele>
        <time>2022-09-04T07:42:10Z</time>
      </trkpt>
      <trkpt lat="42.99115" lon="-0.20295">
        <ele>1355.2</ele>
        <time>2022-09-04T07:42:14Z</time>
      </trkpt>
      <trkpt lat="42.99117" lon="-0.20295">
        <ele>1355.4</ele>
        <time>2022-09-04T07:42:17Z</time>
      </trkpt>
      <trkpt lat="42.99116" lon="-0.20293">
        <ele>1355.8</ele>
        <time>2022-09-04T07:42:24Z</time>
      </trkpt>
      <trkpt lat="42.99116" lon="-0.20293">
        <ele>1355.8</ele>
        <time>2022-09-04T07:42:27Z</time>
      </trkpt>
      <trkpt lat="42.99116" lon="-0.20293">
        <ele>1355.6</ele>
        <time>2022-09-04T07:42:56Z</time>
      </trkpt>
      <trkpt lat="42.99118" lon="-0.20294">
        <ele>1355.6</ele>
        <time>2022-09-04T07:43:16Z</time>
      </trkpt>
      <trkpt lat="42.99119" lon="-0.20295">
        <ele>1355.4</ele>
        <time>2022-09-04T07:44:33Z</time>
      </trkpt>
      <trkpt lat="42.99121" lon="-0.20299">
        <ele>1355.4</ele>
        <time>2022-09-04T07:44:35Z</time>
      </trkpt>
      <trkpt lat="42.99122" lon="-0.20301">
        <ele>1355.4</ele>
        <time>2022-09-04T07:44:36Z</time>
      </trkpt>
      <trkpt lat="42.99127" lon="-0.20311">
        <ele>1355.4</ele>
        <time>2022-09-04T07:44:41Z</time>
      </trkpt>
      <trkpt lat="42.99127" lon="-0.20313">
        <ele>1355.4</ele>
        <time>2022-09-04T07:44:42Z</time>
      </trkpt>
      <trkpt lat="42.99127" lon="-0.20315">
        <ele>1355.4</ele>
        <time>2022-09-04T07:44:43Z</time>
      </trkpt>
      <trkpt lat="42.99125" lon="-0.2032">
        <ele>1355.4</ele>
        <time>2022-09-04T07:44:45Z</time>
      </trkpt>
      <trkpt lat="42.99126" lon="-0.20324">
        <ele>1355.6</ele>
        <time>2022-09-04T07:44:47Z</time>
      </trkpt>
      <trkpt lat="42.99126" lon="-0.2033">
        <ele>1355.8</ele>
        <time>2022-09-04T07:44:49Z</time>
      </trkpt>
      <trkpt lat="42.99129" lon="-0.2034">
        <ele>1356.8</ele>
        <time>2022-09-04T07:44:53Z</time>
      </trkpt>
      <trkpt lat="42.9913" lon="-0.20341">
        <ele>1357.6</ele>
        <time>2022-09-04T07:44:54Z</time>
      </trkpt>
      <trkpt lat="42.99133" lon="-0.20343">
        <ele>1358</ele>
        <time>2022-09-04T07:44:55Z</time>
      </trkpt>
      <trkpt lat="42.99139" lon="-0.20345">
        <ele>1359</ele>
        <time>2022-09-04T07:44:58Z</time>
      </trkpt>
      <trkpt lat="42.99151" lon="-0.20348">
        <ele>1360</ele>
        <time>2022-09-04T07:45:03Z</time>
      </trkpt>
      <trkpt lat="42.99154" lon="-0.20348">
        <ele>1360.2</ele>
        <time>2022-09-04T07:45:04Z</time>
      </trkpt>
      <trkpt lat="42.99165" lon="-0.20354">
        <ele>1361</ele>
        <time>2022-09-04T07:45:10Z</time>
      </trkpt>
      <trkpt lat="42.99166" lon="-0.20355">
        <ele>1361.2</ele>
        <time>2022-09-04T07:45:11Z</time>
      </trkpt>
      <trkpt lat="42.99171" lon="-0.20364">
        <ele>1362</ele>
        <time>2022-09-04T07:45:16Z</time>
      </trkpt>
      <trkpt lat="42.99173" lon="-0.20368">
        <ele>1362.2</ele>
        <time>2022-09-04T07:45:18Z</time>
      </trkpt>
      <trkpt lat="42.99174" lon="-0.20369">
        <ele>1362.2</ele>
        <time>2022-09-04T07:45:19Z</time>
      </trkpt>
      <trkpt lat="42.99176" lon="-0.20373">
        <ele>1363</ele>
        <time>2022-09-04T07:45:21Z</time>
      </trkpt>
      <trkpt lat="42.99178" lon="-0.20375">
        <ele>1363.4</ele>
        <time>2022-09-04T07:45:22Z</time>
      </trkpt>
      <trkpt lat="42.99185" lon="-0.20382">
        <ele>1364.6</ele>
        <time>2022-09-04T07:45:26Z</time>
      </trkpt>
      <trkpt lat="42.9919" lon="-0.20384">
        <ele>1365</ele>
        <time>2022-09-04T07:45:28Z</time>
      </trkpt>
      <trkpt lat="42.99196" lon="-0.20384">
        <ele>1365.6</ele>
        <time>2022-09-04T07:45:31Z</time>
      </trkpt>
      <trkpt lat="42.99202" lon="-0.20386">
        <ele>1366</ele>
        <time>2022-09-04T07:45:34Z</time>
      </trkpt>
      <trkpt lat="42.99205" lon="-0.20387">
        <ele>1366.2</ele>
        <time>2022-09-04T07:45:35Z</time>
      </trkpt>
      <trkpt lat="42.99212" lon="-0.2039">
        <ele>1366.6</ele>
        <time>2022-09-04T07:45:38Z</time>
      </trkpt>
      <trkpt lat="42.99213" lon="-0.20391">
        <ele>1366.8</ele>
        <time>2022-09-04T07:45:39Z</time>
      </trkpt>
      <trkpt lat="42.99219" lon="-0.20395">
        <ele>1367.2</ele>
        <time>2022-09-04T07:45:42Z</time>
      </trkpt>
      <trkpt lat="42.99223" lon="-0.20396">
        <ele>1367.6</ele>
        <time>2022-09-04T07:45:43Z</time>
      </trkpt>
      <trkpt lat="42.9923" lon="-0.20404">
        <ele>1368</ele>
        <time>2022-09-04T07:45:46Z</time>
      </trkpt>
      <trkpt lat="42.99237" lon="-0.20407">
        <ele>1368.6</ele>
        <time>2022-09-04T07:45:49Z</time>
      </trkpt>
      <trkpt lat="42.99239" lon="-0.20409">
        <ele>1369</ele>
        <time>2022-09-04T07:45:50Z</time>
      </trkpt>
      <trkpt lat="42.9924" lon="-0.20411">
        <ele>1369.4</ele>
        <time>2022-09-04T07:45:52Z</time>
      </trkpt>
      <trkpt lat="42.99244" lon="-0.20415">
        <ele>1370</ele>
        <time>2022-09-04T07:45:54Z</time>
      </trkpt>
      <trkpt lat="42.99252" lon="-0.20423">
        <ele>1371</ele>
        <time>2022-09-04T07:45:58Z</time>
      </trkpt>
      <trkpt lat="42.99253" lon="-0.20426">
        <ele>1371.2</ele>
        <time>2022-09-04T07:45:59Z</time>
      </trkpt>
      <trkpt lat="42.99255" lon="-0.20427">
        <ele>1371.4</ele>
        <time>2022-09-04T07:46:00Z</time>
      </trkpt>
      <trkpt lat="42.99259" lon="-0.20431">
        <ele>1371.8</ele>
        <time>2022-09-04T07:46:03Z</time>
      </trkpt>
      <trkpt lat="42.99261" lon="-0.20434">
        <ele>1372</ele>
        <time>2022-09-04T07:46:05Z</time>
      </trkpt>
      <trkpt lat="42.99262" lon="-0.2044">
        <ele>1372.6</ele>
        <time>2022-09-04T07:46:07Z</time>
      </trkpt>
      <trkpt lat="42.99264" lon="-0.20442">
        <ele>1373.4</ele>
        <time>2022-09-04T07:46:09Z</time>
      </trkpt>
      <trkpt lat="42.99265" lon="-0.20445">
        <ele>1373.6</ele>
        <time>2022-09-04T07:46:10Z</time>
      </trkpt>
      <trkpt lat="42.99268" lon="-0.20451">
        <ele>1374</ele>
        <time>2022-09-04T07:46:13Z</time>
      </trkpt>
      <trkpt lat="42.99271" lon="-0.20455">
        <ele>1374.2</ele>
        <time>2022-09-04T07:46:15Z</time>
      </trkpt>
      <trkpt lat="42.99274" lon="-0.20459">
        <ele>1374.4</ele>
        <time>2022-09-04T07:46:17Z</time>
      </trkpt>
      <trkpt lat="42.99278" lon="-0.20461">
        <ele>1374.6</ele>
        <time>2022-09-04T07:46:19Z</time>
      </trkpt>
      <trkpt lat="42.99284" lon="-0.20465">
        <ele>1375.6</ele>
        <time>2022-09-04T07:46:22Z</time>
      </trkpt>
      <trkpt lat="42.99292" lon="-0.20469">
        <ele>1375.8</ele>
        <time>2022-09-04T07:46:26Z</time>
      </trkpt>
      <trkpt lat="42.993" lon="-0.2047">
        <ele>1376.6</ele>
        <time>2022-09-04T07:46:31Z</time>
      </trkpt>
      <trkpt lat="42.99304" lon="-0.20469">
        <ele>1377</ele>
        <time>2022-09-04T07:46:33Z</time>
      </trkpt>
      <trkpt lat="42.99309" lon="-0.20468">
        <ele>1377.6</ele>
        <time>2022-09-04T07:46:36Z</time>
      </trkpt>
      <trkpt lat="42.99311" lon="-0.20467">
        <ele>1377.8</ele>
        <time>2022-09-04T07:46:37Z</time>
      </trkpt>
      <trkpt lat="42.99318" lon="-0.20467">
        <ele>1378.4</ele>
        <time>2022-09-04T07:46:40Z</time>
      </trkpt>
      <trkpt lat="42.9932" lon="-0.20466">
        <ele>1378.6</ele>
        <time>2022-09-04T07:46:41Z</time>
      </trkpt>
      <trkpt lat="42.99326" lon="-0.20467">
        <ele>1379.2</ele>
        <time>2022-09-04T07:46:44Z</time>
      </trkpt>
      <trkpt lat="42.99328" lon="-0.20466">
        <ele>1379.2</ele>
        <time>2022-09-04T07:46:45Z</time>
      </trkpt>
      <trkpt lat="42.99343" lon="-0.20466">
        <ele>1379.6</ele>
        <time>2022-09-04T07:46:50Z</time>
      </trkpt>
      <trkpt lat="42.99349" lon="-0.20468">
        <ele>1379.6</ele>
        <time>2022-09-04T07:46:52Z</time>
      </trkpt>
      <trkpt lat="42.99362" lon="-0.20476">
        <ele>1379.6</ele>
        <time>2022-09-04T07:46:56Z</time>
      </trkpt>
      <trkpt lat="42.99377" lon="-0.20497">
        <ele>1379.4</ele>
        <time>2022-09-04T07:47:01Z</time>
      </trkpt>
      <trkpt lat="42.99385" lon="-0.20524">
        <ele>1378.8</ele>
        <time>2022-09-04T07:47:06Z</time>
      </trkpt>
      <trkpt lat="42.99403" lon="-0.20559">
        <ele>1378.4</ele>
        <time>2022-09-04T07:47:14Z</time>
      </trkpt>
      <trkpt lat="42.99413" lon="-0.20568">
        <ele>1378.6</ele>
        <time>2022-09-04T07:47:17Z</time>
      </trkpt>
      <trkpt lat="42.99417" lon="-0.2057">
        <ele>1378.6</ele>
        <time>2022-09-04T07:47:18Z</time>
      </trkpt>
      <trkpt lat="42.99439" lon="-0.20587">
        <ele>1379</ele>
        <time>2022-09-04T07:47:24Z</time>
      </trkpt>
      <trkpt lat="42.99456" lon="-0.20596">
        <ele>1379.4</ele>
        <time>2022-09-04T07:47:29Z</time>
      </trkpt>
      <trkpt lat="42.99474" lon="-0.20599">
        <ele>1379.8</ele>
        <time>2022-09-04T07:47:34Z</time>
      </trkpt>
      <trkpt lat="42.9948" lon="-0.20601">
        <ele>1380</ele>
        <time>2022-09-04T07:47:36Z</time>
      </trkpt>
      <trkpt lat="42.99492" lon="-0.20598">
        <ele>1380.6</ele>
        <time>2022-09-04T07:47:41Z</time>
      </trkpt>
      <trkpt lat="42.99502" lon="-0.20598">
        <ele>1381</ele>
        <time>2022-09-04T07:47:45Z</time>
      </trkpt>
      <trkpt lat="42.99516" lon="-0.2059">
        <ele>1382</ele>
        <time>2022-09-04T07:47:51Z</time>
      </trkpt>
      <trkpt lat="42.99517" lon="-0.20589">
        <ele>1382.2</ele>
        <time>2022-09-04T07:47:52Z</time>
      </trkpt>
      <trkpt lat="42.99527" lon="-0.20594">
        <ele>1383</ele>
        <time>2022-09-04T07:47:56Z</time>
      </trkpt>
      <trkpt lat="42.99532" lon="-0.20591">
        <ele>1383.2</ele>
        <time>2022-09-04T07:47:58Z</time>
      </trkpt>
      <trkpt lat="42.99542" lon="-0.20583">
        <ele>1383.8</ele>
        <time>2022-09-04T07:48:02Z</time>
      </trkpt>
      <trkpt lat="42.99545" lon="-0.20579">
        <ele>1384.2</ele>
        <time>2022-09-04T07:48:04Z</time>
      </trkpt>
      <trkpt lat="42.99549" lon="-0.20573">
        <ele>1384.2</ele>
        <time>2022-09-04T07:48:07Z</time>
      </trkpt>
      <trkpt lat="42.99558" lon="-0.2056">
        <ele>1385</ele>
        <time>2022-09-04T07:48:12Z</time>
      </trkpt>
      <trkpt lat="42.99563" lon="-0.20551">
        <ele>1385.2</ele>
        <time>2022-09-04T07:48:15Z</time>
      </trkpt>
      <trkpt lat="42.99571" lon="-0.20526">
        <ele>1385.6</ele>
        <time>2022-09-04T07:48:21Z</time>
      </trkpt>
      <trkpt lat="42.99584" lon="-0.20508">
        <ele>1385.4</ele>
        <time>2022-09-04T07:48:26Z</time>
      </trkpt>
      <trkpt lat="42.99607" lon="-0.20489">
        <ele>1385.4</ele>
        <time>2022-09-04T07:48:30Z</time>
      </trkpt>
      <trkpt lat="42.99623" lon="-0.20476">
        <ele>1384.2</ele>
        <time>2022-09-04T07:48:33Z</time>
      </trkpt>
      <trkpt lat="42.99634" lon="-0.20465">
        <ele>1383.2</ele>
        <time>2022-09-04T07:48:35Z</time>
      </trkpt>
      <trkpt lat="42.99638" lon="-0.20459">
        <ele>1383</ele>
        <time>2022-09-04T07:48:36Z</time>
      </trkpt>
      <trkpt lat="42.99647" lon="-0.20444">
        <ele>1382.8</ele>
        <time>2022-09-04T07:48:38Z</time>
      </trkpt>
      <trkpt lat="42.99651" lon="-0.2044">
        <ele>1382.6</ele>
        <time>2022-09-04T07:48:39Z</time>
      </trkpt>
      <trkpt lat="42.99656" lon="-0.20435">
        <ele>1382.4</ele>
        <time>2022-09-04T07:48:40Z</time>
      </trkpt>
      <trkpt lat="42.99665" lon="-0.20436">
        <ele>1382.2</ele>
        <time>2022-09-04T07:48:42Z</time>
      </trkpt>
      <trkpt lat="42.99669" lon="-0.20439">
        <ele>1382</ele>
        <time>2022-09-04T07:48:43Z</time>
      </trkpt>
      <trkpt lat="42.99677" lon="-0.20444">
        <ele>1381.6</ele>
        <time>2022-09-04T07:48:46Z</time>
      </trkpt>
      <trkpt lat="42.99682" lon="-0.20449">
        <ele>1381</ele>
        <time>2022-09-04T07:48:48Z</time>
      </trkpt>
      <trkpt lat="42.99693" lon="-0.20456">
        <ele>1380.6</ele>
        <time>2022-09-04T07:48:51Z</time>
      </trkpt>
      <trkpt lat="42.99719" lon="-0.20474">
        <ele>1380</ele>
        <time>2022-09-04T07:48:56Z</time>
      </trkpt>
      <trkpt lat="42.9973" lon="-0.20479">
        <ele>1379.6</ele>
        <time>2022-09-04T07:48:58Z</time>
      </trkpt>
      <trkpt lat="42.99743" lon="-0.20486">
        <ele>1379</ele>
        <time>2022-09-04T07:49:01Z</time>
      </trkpt>
      <trkpt lat="42.99765" lon="-0.20494">
        <ele>1379</ele>
        <time>2022-09-04T07:49:06Z</time>
      </trkpt>
      <trkpt lat="42.99778" lon="-0.20495">
        <ele>1379</ele>
        <time>2022-09-04T07:49:09Z</time>
      </trkpt>
      <trkpt lat="42.99788" lon="-0.20498">
        <ele>1379</ele>
        <time>2022-09-04T07:49:11Z</time>
      </trkpt>
      <trkpt lat="42.99792" lon="-0.205">
        <ele>1379.2</ele>
        <time>2022-09-04T07:49:12Z</time>
      </trkpt>
      <trkpt lat="42.99813" lon="-0.20506">
        <ele>1379.2</ele>
        <time>2022-09-04T07:49:17Z</time>
      </trkpt>
      <trkpt lat="42.99838" lon="-0.2051">
        <ele>1379.8</ele>
        <time>2022-09-04T07:49:23Z</time>
      </trkpt>
      <trkpt lat="42.99848" lon="-0.2051">
        <ele>1379.8</ele>
        <time>2022-09-04T07:49:25Z</time>
      </trkpt>
      <trkpt lat="42.99856" lon="-0.20508">
        <ele>1380</ele>
        <time>2022-09-04T07:49:27Z</time>
      </trkpt>
      <trkpt lat="42.99871" lon="-0.20504">
        <ele>1380.2</ele>
        <time>2022-09-04T07:49:32Z</time>
      </trkpt>
      <trkpt lat="42.99877" lon="-0.20501">
        <ele>1380.4</ele>
        <time>2022-09-04T07:49:34Z</time>
      </trkpt>
      <trkpt lat="42.99886" lon="-0.20494">
        <ele>1381.4</ele>
        <time>2022-09-04T07:49:37Z</time>
      </trkpt>
      <trkpt lat="42.99889" lon="-0.20493">
        <ele>1381.2</ele>
        <time>2022-09-04T07:49:38Z</time>
      </trkpt>
      <trkpt lat="42.99892" lon="-0.20492">
        <ele>1381.4</ele>
        <time>2022-09-04T07:49:39Z</time>
      </trkpt>
      <trkpt lat="42.99898" lon="-0.20495">
        <ele>1381.4</ele>
        <time>2022-09-04T07:49:41Z</time>
      </trkpt>
      <trkpt lat="42.99903" lon="-0.20503">
        <ele>1381.6</ele>
        <time>2022-09-04T07:49:43Z</time>
      </trkpt>
      <trkpt lat="42.99903" lon="-0.20507">
        <ele>1381.6</ele>
        <time>2022-09-04T07:49:44Z</time>
      </trkpt>
      <trkpt lat="42.99903" lon="-0.20512">
        <ele>1381.8</ele>
        <time>2022-09-04T07:49:45Z</time>
      </trkpt>
      <trkpt lat="42.99899" lon="-0.20523">
        <ele>1382</ele>
        <time>2022-09-04T07:49:48Z</time>
      </trkpt>
      <trkpt lat="42.99895" lon="-0.20529">
        <ele>1382.4</ele>
        <time>2022-09-04T07:49:50Z</time>
      </trkpt>
      <trkpt lat="42.99892" lon="-0.20538">
        <ele>1382.8</ele>
        <time>2022-09-04T07:49:53Z</time>
      </trkpt>
      <trkpt lat="42.99887" lon="-0.20556">
        <ele>1383.8</ele>
        <time>2022-09-04T07:49:58Z</time>
      </trkpt>
      <trkpt lat="42.99884" lon="-0.20584">
        <ele>1384.6</ele>
        <time>2022-09-04T07:50:04Z</time>
      </trkpt>
      <trkpt lat="42.99875" lon="-0.20618">
        <ele>1384.2</ele>
        <time>2022-09-04T07:50:10Z</time>
      </trkpt>
      <trkpt lat="42.99874" lon="-0.20623">
        <ele>1384.2</ele>
        <time>2022-09-04T07:50:11Z</time>
      </trkpt>
      <trkpt lat="42.99865" lon="-0.20664">
        <ele>1383.6</ele>
        <time>2022-09-04T07:50:16Z</time>
      </trkpt>
      <trkpt lat="42.99863" lon="-0.20686">
        <ele>1383.2</ele>
        <time>2022-09-04T07:50:18Z</time>
      </trkpt>
      <trkpt lat="42.99862" lon="-0.20705">
        <ele>1382.6</ele>
        <time>2022-09-04T07:50:20Z</time>
      </trkpt>
      <trkpt lat="42.99866" lon="-0.20734">
        <ele>1382</ele>
        <time>2022-09-04T07:50:23Z</time>
      </trkpt>
      <trkpt lat="42.99865" lon="-0.20752">
        <ele>1381.2</ele>
        <time>2022-09-04T07:50:25Z</time>
      </trkpt>
      <trkpt lat="42.99864" lon="-0.20769">
        <ele>1380.4</ele>
        <time>2022-09-04T07:50:27Z</time>
      </trkpt>
      <trkpt lat="42.99865" lon="-0.20783">
        <ele>1380</ele>
        <time>2022-09-04T07:50:29Z</time>
      </trkpt>
      <trkpt lat="42.99866" lon="-0.20789">
        <ele>1379.8</ele>
        <time>2022-09-04T07:50:30Z</time>
      </trkpt>
      <trkpt lat="42.99868" lon="-0.20809">
        <ele>1379.4</ele>
        <time>2022-09-04T07:50:33Z</time>
      </trkpt>
      <trkpt lat="42.99869" lon="-0.20818">
        <ele>1379.6</ele>
        <time>2022-09-04T07:50:35Z</time>
      </trkpt>
      <trkpt lat="42.99869" lon="-0.20826">
        <ele>1379.6</ele>
        <time>2022-09-04T07:50:36Z</time>
      </trkpt>
      <trkpt lat="42.99869" lon="-0.20832">
        <ele>1379.8</ele>
        <time>2022-09-04T07:50:37Z</time>
      </trkpt>
      <trkpt lat="42.99873" lon="-0.20859">
        <ele>1380</ele>
        <time>2022-09-04T07:50:42Z</time>
      </trkpt>
      <trkpt lat="42.99876" lon="-0.20877">
        <ele>1380.6</ele>
        <time>2022-09-04T07:50:47Z</time>
      </trkpt>
      <trkpt lat="42.99878" lon="-0.20885">
        <ele>1381</ele>
        <time>2022-09-04T07:50:50Z</time>
      </trkpt>
      <trkpt lat="42.99881" lon="-0.20893">
        <ele>1381.6</ele>
        <time>2022-09-04T07:50:53Z</time>
      </trkpt>
      <trkpt lat="42.99884" lon="-0.20897">
        <ele>1382</ele>
        <time>2022-09-04T07:50:55Z</time>
      </trkpt>
      <trkpt lat="42.99888" lon="-0.20911">
        <ele>1383.2</ele>
        <time>2022-09-04T07:51:00Z</time>
      </trkpt>
      <trkpt lat="42.9989" lon="-0.20921">
        <ele>1384.2</ele>
        <time>2022-09-04T07:51:06Z</time>
      </trkpt>
      <trkpt lat="42.99891" lon="-0.20922">
        <ele>1384.4</ele>
        <time>2022-09-04T07:51:07Z</time>
      </trkpt>
      <trkpt lat="42.99892" lon="-0.20924">
        <ele>1384.6</ele>
        <time>2022-09-04T07:51:08Z</time>
      </trkpt>
      <trkpt lat="42.99894" lon="-0.20928">
        <ele>1384.8</ele>
        <time>2022-09-04T07:51:10Z</time>
      </trkpt>
      <trkpt lat="42.99895" lon="-0.2093">
        <ele>1385.2</ele>
        <time>2022-09-04T07:51:12Z</time>
      </trkpt>
      <trkpt lat="42.99897" lon="-0.20934">
        <ele>1385.6</ele>
        <time>2022-09-04T07:51:14Z</time>
      </trkpt>
      <trkpt lat="42.99898" lon="-0.20937">
        <ele>1386</ele>
        <time>2022-09-04T07:51:16Z</time>
      </trkpt>
      <trkpt lat="42.99897" lon="-0.2094">
        <ele>1386.4</ele>
        <time>2022-09-04T07:51:18Z</time>
      </trkpt>
      <trkpt lat="42.99897" lon="-0.20944">
        <ele>1386.6</ele>
        <time>2022-09-04T07:51:20Z</time>
      </trkpt>
      <trkpt lat="42.99897" lon="-0.20952">
        <ele>1387.4</ele>
        <time>2022-09-04T07:51:24Z</time>
      </trkpt>
      <trkpt lat="42.99895" lon="-0.20954">
        <ele>1387.6</ele>
        <time>2022-09-04T07:51:25Z</time>
      </trkpt>
      <trkpt lat="42.99894" lon="-0.20956">
        <ele>1387.8</ele>
        <time>2022-09-04T07:51:26Z</time>
      </trkpt>
      <trkpt lat="42.99891" lon="-0.20963">
        <ele>1388.2</ele>
        <time>2022-09-04T07:51:29Z</time>
      </trkpt>
      <trkpt lat="42.99885" lon="-0.20972">
        <ele>1388.8</ele>
        <time>2022-09-04T07:51:34Z</time>
      </trkpt>
      <trkpt lat="42.99884" lon="-0.20974">
        <ele>1389</ele>
        <time>2022-09-04T07:51:35Z</time>
      </trkpt>
      <trkpt lat="42.99872" lon="-0.20996">
        <ele>1389.2</ele>
        <time>2022-09-04T07:51:43Z</time>
      </trkpt>
      <trkpt lat="42.9986" lon="-0.21011">
        <ele>1389.4</ele>
        <time>2022-09-04T07:51:48Z</time>
      </trkpt>
      <trkpt lat="42.99848" lon="-0.21026">
        <ele>1389.4</ele>
        <time>2022-09-04T07:51:53Z</time>
      </trkpt>
      <trkpt lat="42.99845" lon="-0.21028">
        <ele>1389.4</ele>
        <time>2022-09-04T07:51:54Z</time>
      </trkpt>
      <trkpt lat="42.99815" lon="-0.21043">
        <ele>1389.6</ele>
        <time>2022-09-04T07:52:03Z</time>
      </trkpt>
      <trkpt lat="42.99804" lon="-0.21049">
        <ele>1389.6</ele>
        <time>2022-09-04T07:52:08Z</time>
      </trkpt>
      <trkpt lat="42.99789" lon="-0.21056">
        <ele>1390.2</ele>
        <time>2022-09-04T07:52:14Z</time>
      </trkpt>
      <trkpt lat="42.99784" lon="-0.21058">
        <ele>1390.4</ele>
        <time>2022-09-04T07:52:16Z</time>
      </trkpt>
      <trkpt lat="42.9978" lon="-0.2106">
        <ele>1390.8</ele>
        <time>2022-09-04T07:52:18Z</time>
      </trkpt>
      <trkpt lat="42.99777" lon="-0.21062">
        <ele>1391.2</ele>
        <time>2022-09-04T07:52:19Z</time>
      </trkpt>
      <trkpt lat="42.99771" lon="-0.21064">
        <ele>1391.6</ele>
        <time>2022-09-04T07:52:22Z</time>
      </trkpt>
      <trkpt lat="42.9977" lon="-0.21064">
        <ele>1391.8</ele>
        <time>2022-09-04T07:52:23Z</time>
      </trkpt>
      <trkpt lat="42.99767" lon="-0.21065">
        <ele>1392</ele>
        <time>2022-09-04T07:52:25Z</time>
      </trkpt>
      <trkpt lat="42.99754" lon="-0.21069">
        <ele>1392.8</ele>
        <time>2022-09-04T07:52:32Z</time>
      </trkpt>
      <trkpt lat="42.99737" lon="-0.21081">
        <ele>1393.8</ele>
        <time>2022-09-04T07:52:39Z</time>
      </trkpt>
      <trkpt lat="42.99735" lon="-0.21082">
        <ele>1393.8</ele>
        <time>2022-09-04T07:52:40Z</time>
      </trkpt>
      <trkpt lat="42.99727" lon="-0.21091">
        <ele>1394.8</ele>
        <time>2022-09-04T07:52:46Z</time>
      </trkpt>
      <trkpt lat="42.99725" lon="-0.21093">
        <ele>1394.8</ele>
        <time>2022-09-04T07:52:47Z</time>
      </trkpt>
      <trkpt lat="42.99718" lon="-0.211">
        <ele>1395</ele>
        <time>2022-09-04T07:52:50Z</time>
      </trkpt>
      <trkpt lat="42.99714" lon="-0.21103">
        <ele>1395.4</ele>
        <time>2022-09-04T07:52:52Z</time>
      </trkpt>
      <trkpt lat="42.99707" lon="-0.21108">
        <ele>1395.8</ele>
        <time>2022-09-04T07:52:55Z</time>
      </trkpt>
      <trkpt lat="42.99706" lon="-0.2111">
        <ele>1395.8</ele>
        <time>2022-09-04T07:52:56Z</time>
      </trkpt>
      <trkpt lat="42.99703" lon="-0.21113">
        <ele>1396</ele>
        <time>2022-09-04T07:52:57Z</time>
      </trkpt>
      <trkpt lat="42.99693" lon="-0.21129">
        <ele>1396.2</ele>
        <time>2022-09-04T07:53:03Z</time>
      </trkpt>
      <trkpt lat="42.99677" lon="-0.21157">
        <ele>1396.2</ele>
        <time>2022-09-04T07:53:10Z</time>
      </trkpt>
      <trkpt lat="42.99665" lon="-0.21168">
        <ele>1396.2</ele>
        <time>2022-09-04T07:53:15Z</time>
      </trkpt>
      <trkpt lat="42.9965" lon="-0.21175">
        <ele>1397.2</ele>
        <time>2022-09-04T07:53:21Z</time>
      </trkpt>
      <trkpt lat="42.99634" lon="-0.21177">
        <ele>1398</ele>
        <time>2022-09-04T07:53:28Z</time>
      </trkpt>
      <trkpt lat="42.99631" lon="-0.21178">
        <ele>1398.2</ele>
        <time>2022-09-04T07:53:29Z</time>
      </trkpt>
      <trkpt lat="42.99622" lon="-0.21177">
        <ele>1398.8</ele>
        <time>2022-09-04T07:53:33Z</time>
      </trkpt>
      <trkpt lat="42.9962" lon="-0.21178">
        <ele>1398.8</ele>
        <time>2022-09-04T07:53:34Z</time>
      </trkpt>
      <trkpt lat="42.99614" lon="-0.21178">
        <ele>1399.2</ele>
        <time>2022-09-04T07:53:37Z</time>
      </trkpt>
      <trkpt lat="42.99609" lon="-0.21177">
        <ele>1399.4</ele>
        <time>2022-09-04T07:53:39Z</time>
      </trkpt>
      <trkpt lat="42.99594" lon="-0.21177">
        <ele>1400.4</ele>
        <time>2022-09-04T07:53:46Z</time>
      </trkpt>
      <trkpt lat="42.99591" lon="-0.21177">
        <ele>1400.4</ele>
        <time>2022-09-04T07:53:47Z</time>
      </trkpt>
      <trkpt lat="42.99578" lon="-0.21176">
        <ele>1401.2</ele>
        <time>2022-09-04T07:53:52Z</time>
      </trkpt>
      <trkpt lat="42.99573" lon="-0.21176">
        <ele>1401.2</ele>
        <time>2022-09-04T07:53:53Z</time>
      </trkpt>
      <trkpt lat="42.99559" lon="-0.21174">
        <ele>1402</ele>
        <time>2022-09-04T07:53:59Z</time>
      </trkpt>
      <trkpt lat="42.99555" lon="-0.21173">
        <ele>1402.2</ele>
        <time>2022-09-04T07:54:01Z</time>
      </trkpt>
      <trkpt lat="42.99545" lon="-0.21169">
        <ele>1403.2</ele>
        <time>2022-09-04T07:54:06Z</time>
      </trkpt>
      <trkpt lat="42.99542" lon="-0.21168">
        <ele>1403.4</ele>
        <time>2022-09-04T07:54:08Z</time>
      </trkpt>
      <trkpt lat="42.99532" lon="-0.21165">
        <ele>1403.6</ele>
        <time>2022-09-04T07:54:13Z</time>
      </trkpt>
      <trkpt lat="42.99518" lon="-0.21162">
        <ele>1404.4</ele>
        <time>2022-09-04T07:54:19Z</time>
      </trkpt>
      <trkpt lat="42.99515" lon="-0.21161">
        <ele>1404.6</ele>
        <time>2022-09-04T07:54:20Z</time>
      </trkpt>
      <trkpt lat="42.99509" lon="-0.2116">
        <ele>1405</ele>
        <time>2022-09-04T07:54:23Z</time>
      </trkpt>
      <trkpt lat="42.99506" lon="-0.21159">
        <ele>1405.2</ele>
        <time>2022-09-04T07:54:24Z</time>
      </trkpt>
      <trkpt lat="42.99504" lon="-0.21158">
        <ele>1405.4</ele>
        <time>2022-09-04T07:54:25Z</time>
      </trkpt>
      <trkpt lat="42.99499" lon="-0.21158">
        <ele>1405.8</ele>
        <time>2022-09-04T07:54:28Z</time>
      </trkpt>
      <trkpt lat="42.99497" lon="-0.21157">
        <ele>1406</ele>
        <time>2022-09-04T07:54:29Z</time>
      </trkpt>
      <trkpt lat="42.99492" lon="-0.21153">
        <ele>1406.4</ele>
        <time>2022-09-04T07:54:32Z</time>
      </trkpt>
      <trkpt lat="42.99491" lon="-0.21152">
        <ele>1406.8</ele>
        <time>2022-09-04T07:54:33Z</time>
      </trkpt>
      <trkpt lat="42.99483" lon="-0.21146">
        <ele>1408</ele>
        <time>2022-09-04T07:54:38Z</time>
      </trkpt>
      <trkpt lat="42.99481" lon="-0.21145">
        <ele>1408.2</ele>
        <time>2022-09-04T07:54:39Z</time>
      </trkpt>
      <trkpt lat="42.99476" lon="-0.2114">
        <ele>1409.2</ele>
        <time>2022-09-04T07:54:43Z</time>
      </trkpt>
      <trkpt lat="42.99472" lon="-0.21137">
        <ele>1409.8</ele>
        <time>2022-09-04T07:54:45Z</time>
      </trkpt>
      <trkpt lat="42.99468" lon="-0.21136">
        <ele>1410.2</ele>
        <time>2022-09-04T07:54:47Z</time>
      </trkpt>
      <trkpt lat="42.99459" lon="-0.21134">
        <ele>1410.8</ele>
        <time>2022-09-04T07:54:51Z</time>
      </trkpt>
      <trkpt lat="42.99455" lon="-0.21135">
        <ele>1411.2</ele>
        <time>2022-09-04T07:54:53Z</time>
      </trkpt>
      <trkpt lat="42.99443" lon="-0.21133">
        <ele>1412</ele>
        <time>2022-09-04T07:54:59Z</time>
      </trkpt>
      <trkpt lat="42.99442" lon="-0.21133">
        <ele>1412.2</ele>
        <time>2022-09-04T07:55:00Z</time>
      </trkpt>
      <trkpt lat="42.99431" lon="-0.21133">
        <ele>1412.6</ele>
        <time>2022-09-04T07:55:07Z</time>
      </trkpt>
      <trkpt lat="42.99415" lon="-0.21132">
        <ele>1412.4</ele>
        <time>2022-09-04T07:55:13Z</time>
      </trkpt>
      <trkpt lat="42.99399" lon="-0.21131">
        <ele>1412</ele>
        <time>2022-09-04T07:55:16Z</time>
      </trkpt>
      <trkpt lat="42.99393" lon="-0.21131">
        <ele>1412</ele>
        <time>2022-09-04T07:55:17Z</time>
      </trkpt>
      <trkpt lat="42.9936" lon="-0.21129">
        <ele>1411</ele>
        <time>2022-09-04T07:55:22Z</time>
      </trkpt>
      <trkpt lat="42.99352" lon="-0.21128">
        <ele>1410.6</ele>
        <time>2022-09-04T07:55:23Z</time>
      </trkpt>
      <trkpt lat="42.99329" lon="-0.21124">
        <ele>1409.2</ele>
        <time>2022-09-04T07:55:26Z</time>
      </trkpt>
      <trkpt lat="42.99308" lon="-0.21123">
        <ele>1408</ele>
        <time>2022-09-04T07:55:29Z</time>
      </trkpt>
      <trkpt lat="42.99277" lon="-0.21126">
        <ele>1406.6</ele>
        <time>2022-09-04T07:55:33Z</time>
      </trkpt>
      <trkpt lat="42.99269" lon="-0.21126">
        <ele>1406.4</ele>
        <time>2022-09-04T07:55:34Z</time>
      </trkpt>
      <trkpt lat="42.9925" lon="-0.2113">
        <ele>1405.4</ele>
        <time>2022-09-04T07:55:37Z</time>
      </trkpt>
      <trkpt lat="42.99247" lon="-0.21135">
        <ele>1405.4</ele>
        <time>2022-09-04T07:55:38Z</time>
      </trkpt>
      <trkpt lat="42.99228" lon="-0.21151">
        <ele>1405</ele>
        <time>2022-09-04T07:55:43Z</time>
      </trkpt>
      <trkpt lat="42.99218" lon="-0.21167">
        <ele>1405</ele>
        <time>2022-09-04T07:55:48Z</time>
      </trkpt>
      <trkpt lat="42.99212" lon="-0.2118">
        <ele>1405.4</ele>
        <time>2022-09-04T07:55:53Z</time>
      </trkpt>
      <trkpt lat="42.99211" lon="-0.21182">
        <ele>1405.6</ele>
        <time>2022-09-04T07:55:54Z</time>
      </trkpt>
      <trkpt lat="42.99204" lon="-0.2119">
        <ele>1406.4</ele>
        <time>2022-09-04T07:55:58Z</time>
      </trkpt>
      <trkpt lat="42.992" lon="-0.21194">
        <ele>1406.4</ele>
        <time>2022-09-04T07:56:00Z</time>
      </trkpt>
      <trkpt lat="42.99198" lon="-0.21196">
        <ele>1406.6</ele>
        <time>2022-09-04T07:56:01Z</time>
      </trkpt>
      <trkpt lat="42.99195" lon="-0.21201">
        <ele>1407</ele>
        <time>2022-09-04T07:56:03Z</time>
      </trkpt>
      <trkpt lat="42.99189" lon="-0.21209">
        <ele>1407.4</ele>
        <time>2022-09-04T07:56:07Z</time>
      </trkpt>
      <trkpt lat="42.99186" lon="-0.21213">
        <ele>1407.6</ele>
        <time>2022-09-04T07:56:09Z</time>
      </trkpt>
      <trkpt lat="42.99173" lon="-0.21228">
        <ele>1408.2</ele>
        <time>2022-09-04T07:56:16Z</time>
      </trkpt>
      <trkpt lat="42.99173" lon="-0.2123">
        <ele>1408.4</ele>
        <time>2022-09-04T07:56:17Z</time>
      </trkpt>
      <trkpt lat="42.99163" lon="-0.21248">
        <ele>1409.6</ele>
        <time>2022-09-04T07:56:24Z</time>
      </trkpt>
      <trkpt lat="42.99162" lon="-0.21251">
        <ele>1409.6</ele>
        <time>2022-09-04T07:56:25Z</time>
      </trkpt>
      <trkpt lat="42.99158" lon="-0.21258">
        <ele>1410</ele>
        <time>2022-09-04T07:56:29Z</time>
      </trkpt>
      <trkpt lat="42.99149" lon="-0.21268">
        <ele>1410.6</ele>
        <time>2022-09-04T07:56:34Z</time>
      </trkpt>
      <trkpt lat="42.99147" lon="-0.21273">
        <ele>1410.8</ele>
        <time>2022-09-04T07:56:36Z</time>
      </trkpt>
      <trkpt lat="42.99137" lon="-0.21294">
        <ele>1411.6</ele>
        <time>2022-09-04T07:56:43Z</time>
      </trkpt>
      <trkpt lat="42.99128" lon="-0.21318">
        <ele>1411.2</ele>
        <time>2022-09-04T07:56:48Z</time>
      </trkpt>
      <trkpt lat="42.99126" lon="-0.21325">
        <ele>1411.2</ele>
        <time>2022-09-04T07:56:49Z</time>
      </trkpt>
      <trkpt lat="42.99124" lon="-0.21332">
        <ele>1410.8</ele>
        <time>2022-09-04T07:56:50Z</time>
      </trkpt>
      <trkpt lat="42.9912" lon="-0.21356">
        <ele>1410.4</ele>
        <time>2022-09-04T07:56:53Z</time>
      </trkpt>
      <trkpt lat="42.99113" lon="-0.21393">
        <ele>1409.2</ele>
        <time>2022-09-04T07:56:57Z</time>
      </trkpt>
      <trkpt lat="42.99111" lon="-0.21403">
        <ele>1408.8</ele>
        <time>2022-09-04T07:56:58Z</time>
      </trkpt>
      <trkpt lat="42.99109" lon="-0.21414">
        <ele>1408.4</ele>
        <time>2022-09-04T07:56:59Z</time>
      </trkpt>
      <trkpt lat="42.99107" lon="-0.21424">
        <ele>1408</ele>
        <time>2022-09-04T07:57:00Z</time>
      </trkpt>
      <trkpt lat="42.99104" lon="-0.21435">
        <ele>1407.6</ele>
        <time>2022-09-04T07:57:01Z</time>
      </trkpt>
      <trkpt lat="42.99099" lon="-0.21456">
        <ele>1407</ele>
        <time>2022-09-04T07:57:03Z</time>
      </trkpt>
      <trkpt lat="42.99096" lon="-0.21465">
        <ele>1406.2</ele>
        <time>2022-09-04T07:57:04Z</time>
      </trkpt>
      <trkpt lat="42.99094" lon="-0.21474">
        <ele>1405.2</ele>
        <time>2022-09-04T07:57:05Z</time>
      </trkpt>
      <trkpt lat="42.99092" lon="-0.21483">
        <ele>1405</ele>
        <time>2022-09-04T07:57:06Z</time>
      </trkpt>
      <trkpt lat="42.9909" lon="-0.215">
        <ele>1404.2</ele>
        <time>2022-09-04T07:57:08Z</time>
      </trkpt>
      <trkpt lat="42.99087" lon="-0.21529">
        <ele>1402.4</ele>
        <time>2022-09-04T07:57:11Z</time>
      </trkpt>
      <trkpt lat="42.99086" lon="-0.21561">
        <ele>1401</ele>
        <time>2022-09-04T07:57:14Z</time>
      </trkpt>
      <trkpt lat="42.99086" lon="-0.21583">
        <ele>1399.8</ele>
        <time>2022-09-04T07:57:16Z</time>
      </trkpt>
      <trkpt lat="42.99088" lon="-0.2163">
        <ele>1398.6</ele>
        <time>2022-09-04T07:57:20Z</time>
      </trkpt>
      <trkpt lat="42.99088" lon="-0.21663">
        <ele>1397.6</ele>
        <time>2022-09-04T07:57:23Z</time>
      </trkpt>
      <trkpt lat="42.99087" lon="-0.21681">
        <ele>1396.4</ele>
        <time>2022-09-04T07:57:25Z</time>
      </trkpt>
      <trkpt lat="42.99087" lon="-0.21687">
        <ele>1395.6</ele>
        <time>2022-09-04T07:57:26Z</time>
      </trkpt>
      <trkpt lat="42.99088" lon="-0.21691">
        <ele>1395.2</ele>
        <time>2022-09-04T07:57:27Z</time>
      </trkpt>
      <trkpt lat="42.99091" lon="-0.21693">
        <ele>1394.2</ele>
        <time>2022-09-04T07:57:28Z</time>
      </trkpt>
      <trkpt lat="42.99093" lon="-0.21693">
        <ele>1393.4</ele>
        <time>2022-09-04T07:57:29Z</time>
      </trkpt>
      <trkpt lat="42.99096" lon="-0.2169">
        <ele>1392.2</ele>
        <time>2022-09-04T07:57:30Z</time>
      </trkpt>
      <trkpt lat="42.99097" lon="-0.21685">
        <ele>1391.8</ele>
        <time>2022-09-04T07:57:31Z</time>
      </trkpt>
      <trkpt lat="42.99098" lon="-0.21679">
        <ele>1391</ele>
        <time>2022-09-04T07:57:32Z</time>
      </trkpt>
      <trkpt lat="42.99101" lon="-0.21655">
        <ele>1389.4</ele>
        <time>2022-09-04T07:57:35Z</time>
      </trkpt>
      <trkpt lat="42.99103" lon="-0.21646">
        <ele>1389.2</ele>
        <time>2022-09-04T07:57:36Z</time>
      </trkpt>
      <trkpt lat="42.99104" lon="-0.21637">
        <ele>1388.4</ele>
        <time>2022-09-04T07:57:37Z</time>
      </trkpt>
      <trkpt lat="42.99106" lon="-0.21618">
        <ele>1387.2</ele>
        <time>2022-09-04T07:57:39Z</time>
      </trkpt>
      <trkpt lat="42.99108" lon="-0.21604">
        <ele>1386.6</ele>
        <time>2022-09-04T07:57:41Z</time>
      </trkpt>
      <trkpt lat="42.99113" lon="-0.216">
        <ele>1386.2</ele>
        <time>2022-09-04T07:57:43Z</time>
      </trkpt>
      <trkpt lat="42.99115" lon="-0.21612">
        <ele>1384.6</ele>
        <time>2022-09-04T07:57:46Z</time>
      </trkpt>
      <trkpt lat="42.99114" lon="-0.21633">
        <ele>1383.2</ele>
        <time>2022-09-04T07:57:49Z</time>
      </trkpt>
      <trkpt lat="42.99114" lon="-0.21642">
        <ele>1382.8</ele>
        <time>2022-09-04T07:57:50Z</time>
      </trkpt>
      <trkpt lat="42.99114" lon="-0.21661">
        <ele>1382</ele>
        <time>2022-09-04T07:57:52Z</time>
      </trkpt>
      <trkpt lat="42.99113" lon="-0.21689">
        <ele>1380.8</ele>
        <time>2022-09-04T07:57:55Z</time>
      </trkpt>
      <trkpt lat="42.99113" lon="-0.21697">
        <ele>1380.4</ele>
        <time>2022-09-04T07:57:56Z</time>
      </trkpt>
      <trkpt lat="42.99112" lon="-0.21712">
        <ele>1379.4</ele>
        <time>2022-09-04T07:57:58Z</time>
      </trkpt>
      <trkpt lat="42.99108" lon="-0.2174">
        <ele>1379</ele>
        <time>2022-09-04T07:58:02Z</time>
      </trkpt>
      <trkpt lat="42.99107" lon="-0.21746">
        <ele>1378.8</ele>
        <time>2022-09-04T07:58:03Z</time>
      </trkpt>
      <trkpt lat="42.99107" lon="-0.21759">
        <ele>1378.6</ele>
        <time>2022-09-04T07:58:05Z</time>
      </trkpt>
      <trkpt lat="42.99108" lon="-0.21763">
        <ele>1378.6</ele>
        <time>2022-09-04T07:58:06Z</time>
      </trkpt>
      <trkpt lat="42.99111" lon="-0.21765">
        <ele>1378.2</ele>
        <time>2022-09-04T07:58:07Z</time>
      </trkpt>
      <trkpt lat="42.99115" lon="-0.21765">
        <ele>1377.8</ele>
        <time>2022-09-04T07:58:08Z</time>
      </trkpt>
      <trkpt lat="42.9913" lon="-0.21754">
        <ele>1377</ele>
        <time>2022-09-04T07:58:13Z</time>
      </trkpt>
      <trkpt lat="42.99149" lon="-0.21737">
        <ele>1377.2</ele>
        <time>2022-09-04T07:58:20Z</time>
      </trkpt>
      <trkpt lat="42.99165" lon="-0.21727">
        <ele>1377.8</ele>
        <time>2022-09-04T07:58:27Z</time>
      </trkpt>
      <trkpt lat="42.99168" lon="-0.21727">
        <ele>1377.8</ele>
        <time>2022-09-04T07:58:28Z</time>
      </trkpt>
      <trkpt lat="42.99175" lon="-0.21727">
        <ele>1378.2</ele>
        <time>2022-09-04T07:58:31Z</time>
      </trkpt>
      <trkpt lat="42.99189" lon="-0.21727">
        <ele>1379.2</ele>
        <time>2022-09-04T07:58:38Z</time>
      </trkpt>
      <trkpt lat="42.9919" lon="-0.21727">
        <ele>1379.6</ele>
        <time>2022-09-04T07:58:39Z</time>
      </trkpt>
      <trkpt lat="42.99196" lon="-0.21728">
        <ele>1380.4</ele>
        <time>2022-09-04T07:58:43Z</time>
      </trkpt>
      <trkpt lat="42.99199" lon="-0.21729">
        <ele>1381</ele>
        <time>2022-09-04T07:58:45Z</time>
      </trkpt>
      <trkpt lat="42.99202" lon="-0.21729">
        <ele>1381.8</ele>
        <time>2022-09-04T07:58:47Z</time>
      </trkpt>
      <trkpt lat="42.99208" lon="-0.21734">
        <ele>1382.6</ele>
        <time>2022-09-04T07:58:51Z</time>
      </trkpt>
      <trkpt lat="42.99209" lon="-0.21736">
        <ele>1382.8</ele>
        <time>2022-09-04T07:58:52Z</time>
      </trkpt>
      <trkpt lat="42.99215" lon="-0.21744">
        <ele>1383.8</ele>
        <time>2022-09-04T07:58:58Z</time>
      </trkpt>
      <trkpt lat="42.99216" lon="-0.21746">
        <ele>1384.2</ele>
        <time>2022-09-04T07:58:59Z</time>
      </trkpt>
      <trkpt lat="42.9922" lon="-0.21753">
        <ele>1384.8</ele>
        <time>2022-09-04T07:59:02Z</time>
      </trkpt>
      <trkpt lat="42.99228" lon="-0.2176">
        <ele>1385</ele>
        <time>2022-09-04T07:59:05Z</time>
      </trkpt>
      <trkpt lat="42.99243" lon="-0.21763">
        <ele>1385</ele>
        <time>2022-09-04T07:59:10Z</time>
      </trkpt>
      <trkpt lat="42.99256" lon="-0.21761">
        <ele>1385</ele>
        <time>2022-09-04T07:59:15Z</time>
      </trkpt>
      <trkpt lat="42.99271" lon="-0.21762">
        <ele>1385.2</ele>
        <time>2022-09-04T07:59:21Z</time>
      </trkpt>
      <trkpt lat="42.99285" lon="-0.21762">
        <ele>1385.6</ele>
        <time>2022-09-04T07:59:27Z</time>
      </trkpt>
      <trkpt lat="42.99291" lon="-0.21763">
        <ele>1386.2</ele>
        <time>2022-09-04T07:59:30Z</time>
      </trkpt>
      <trkpt lat="42.99295" lon="-0.21765">
        <ele>1386.2</ele>
        <time>2022-09-04T07:59:32Z</time>
      </trkpt>
      <trkpt lat="42.99299" lon="-0.21765">
        <ele>1386.8</ele>
        <time>2022-09-04T07:59:34Z</time>
      </trkpt>
      <trkpt lat="42.99305" lon="-0.21771">
        <ele>1387.8</ele>
        <time>2022-09-04T07:59:38Z</time>
      </trkpt>
      <trkpt lat="42.99313" lon="-0.21781">
        <ele>1388.8</ele>
        <time>2022-09-04T07:59:44Z</time>
      </trkpt>
      <trkpt lat="42.99314" lon="-0.21783">
        <ele>1388.8</ele>
        <time>2022-09-04T07:59:45Z</time>
      </trkpt>
      <trkpt lat="42.99317" lon="-0.21786">
        <ele>1389.2</ele>
        <time>2022-09-04T07:59:47Z</time>
      </trkpt>
      <trkpt lat="42.99325" lon="-0.21789">
        <ele>1389.6</ele>
        <time>2022-09-04T07:59:50Z</time>
      </trkpt>
      <trkpt lat="42.99328" lon="-0.21791">
        <ele>1389.8</ele>
        <time>2022-09-04T07:59:52Z</time>
      </trkpt>
      <trkpt lat="42.99335" lon="-0.21796">
        <ele>1390.8</ele>
        <time>2022-09-04T07:59:56Z</time>
      </trkpt>
      <trkpt lat="42.99337" lon="-0.21797">
        <ele>1391.2</ele>
        <time>2022-09-04T07:59:57Z</time>
      </trkpt>
      <trkpt lat="42.9935" lon="-0.21807">
        <ele>1392.2</ele>
        <time>2022-09-04T08:00:03Z</time>
      </trkpt>
      <trkpt lat="42.99351" lon="-0.21809">
        <ele>1392.2</ele>
        <time>2022-09-04T08:00:04Z</time>
      </trkpt>
      <trkpt lat="42.99352" lon="-0.21815">
        <ele>1392.4</ele>
        <time>2022-09-04T08:00:06Z</time>
      </trkpt>
      <trkpt lat="42.99352" lon="-0.21821">
        <ele>1392.8</ele>
        <time>2022-09-04T08:00:08Z</time>
      </trkpt>
      <trkpt lat="42.99351" lon="-0.21826">
        <ele>1393</ele>
        <time>2022-09-04T08:00:10Z</time>
      </trkpt>
      <trkpt lat="42.99348" lon="-0.21839">
        <ele>1393.8</ele>
        <time>2022-09-04T08:00:15Z</time>
      </trkpt>
      <trkpt lat="42.99347" lon="-0.21842">
        <ele>1394</ele>
        <time>2022-09-04T08:00:16Z</time>
      </trkpt>
      <trkpt lat="42.99346" lon="-0.21845">
        <ele>1394</ele>
        <time>2022-09-04T08:00:17Z</time>
      </trkpt>
      <trkpt lat="42.99344" lon="-0.21852">
        <ele>1395</ele>
        <time>2022-09-04T08:00:20Z</time>
      </trkpt>
      <trkpt lat="42.99343" lon="-0.21857">
        <ele>1395.2</ele>
        <time>2022-09-04T08:00:22Z</time>
      </trkpt>
      <trkpt lat="42.99342" lon="-0.21861">
        <ele>1395.4</ele>
        <time>2022-09-04T08:00:24Z</time>
      </trkpt>
      <trkpt lat="42.99338" lon="-0.21874">
        <ele>1396.2</ele>
        <time>2022-09-04T08:00:29Z</time>
      </trkpt>
      <trkpt lat="42.99337" lon="-0.21881">
        <ele>1397</ele>
        <time>2022-09-04T08:00:32Z</time>
      </trkpt>
      <trkpt lat="42.99335" lon="-0.21889">
        <ele>1397.6</ele>
        <time>2022-09-04T08:00:35Z</time>
      </trkpt>
      <trkpt lat="42.99332" lon="-0.21908">
        <ele>1398.2</ele>
        <time>2022-09-04T08:00:41Z</time>
      </trkpt>
      <trkpt lat="42.99331" lon="-0.21911">
        <ele>1398.6</ele>
        <time>2022-09-04T08:00:42Z</time>
      </trkpt>
      <trkpt lat="42.99326" lon="-0.21926">
        <ele>1399.2</ele>
        <time>2022-09-04T08:00:47Z</time>
      </trkpt>
      <trkpt lat="42.99326" lon="-0.21928">
        <ele>1399.6</ele>
        <time>2022-09-04T08:00:48Z</time>
      </trkpt>
      <trkpt lat="42.99321" lon="-0.21941">
        <ele>1400.6</ele>
        <time>2022-09-04T08:00:54Z</time>
      </trkpt>
      <trkpt lat="42.99314" lon="-0.21959">
        <ele>1401.6</ele>
        <time>2022-09-04T08:01:02Z</time>
      </trkpt>
      <trkpt lat="42.99309" lon="-0.2197">
        <ele>1402.6</ele>
        <time>2022-09-04T08:01:07Z</time>
      </trkpt>
      <trkpt lat="42.99308" lon="-0.21973">
        <ele>1402.8</ele>
        <time>2022-09-04T08:01:08Z</time>
      </trkpt>
      <trkpt lat="42.99305" lon="-0.21986">
        <ele>1403.8</ele>
        <time>2022-09-04T08:01:13Z</time>
      </trkpt>
      <trkpt lat="42.99304" lon="-0.21991">
        <ele>1404</ele>
        <time>2022-09-04T08:01:15Z</time>
      </trkpt>
      <trkpt lat="42.99302" lon="-0.22004">
        <ele>1405</ele>
        <time>2022-09-04T08:01:20Z</time>
      </trkpt>
      <trkpt lat="42.99301" lon="-0.22009">
        <ele>1405.2</ele>
        <time>2022-09-04T08:01:22Z</time>
      </trkpt>
      <trkpt lat="42.99298" lon="-0.22018">
        <ele>1406</ele>
        <time>2022-09-04T08:01:26Z</time>
      </trkpt>
      <trkpt lat="42.99296" lon="-0.22025">
        <ele>1406.4</ele>
        <time>2022-09-04T08:01:29Z</time>
      </trkpt>
      <trkpt lat="42.99294" lon="-0.22028">
        <ele>1406.8</ele>
        <time>2022-09-04T08:01:31Z</time>
      </trkpt>
      <trkpt lat="42.99289" lon="-0.22027">
        <ele>1407.2</ele>
        <time>2022-09-04T08:01:34Z</time>
      </trkpt>
      <trkpt lat="42.99289" lon="-0.22019">
        <ele>1408.4</ele>
        <time>2022-09-04T08:01:38Z</time>
      </trkpt>
      <trkpt lat="42.99292" lon="-0.22">
        <ele>1409.4</ele>
        <time>2022-09-04T08:01:45Z</time>
      </trkpt>
      <trkpt lat="42.99292" lon="-0.21995">
        <ele>1410</ele>
        <time>2022-09-04T08:01:47Z</time>
      </trkpt>
      <trkpt lat="42.99291" lon="-0.21983">
        <ele>1410.4</ele>
        <time>2022-09-04T08:01:51Z</time>
      </trkpt>
      <trkpt lat="42.9929" lon="-0.2198">
        <ele>1410.6</ele>
        <time>2022-09-04T08:01:52Z</time>
      </trkpt>
      <trkpt lat="42.99291" lon="-0.21962">
        <ele>1411</ele>
        <time>2022-09-04T08:01:58Z</time>
      </trkpt>
      <trkpt lat="42.99291" lon="-0.2195">
        <ele>1411.6</ele>
        <time>2022-09-04T08:02:02Z</time>
      </trkpt>
      <trkpt lat="42.9929" lon="-0.21947">
        <ele>1411.8</ele>
        <time>2022-09-04T08:02:03Z</time>
      </trkpt>
      <trkpt lat="42.99288" lon="-0.21924">
        <ele>1412.2</ele>
        <time>2022-09-04T08:02:11Z</time>
      </trkpt>
      <trkpt lat="42.99284" lon="-0.21908">
        <ele>1412.6</ele>
        <time>2022-09-04T08:02:17Z</time>
      </trkpt>
      <trkpt lat="42.99283" lon="-0.21905">
        <ele>1412.6</ele>
        <time>2022-09-04T08:02:18Z</time>
      </trkpt>
      <trkpt lat="42.99276" lon="-0.219">
        <ele>1413.2</ele>
        <time>2022-09-04T08:02:22Z</time>
      </trkpt>
      <trkpt lat="42.99275" lon="-0.21901">
        <ele>1413.6</ele>
        <time>2022-09-04T08:02:23Z</time>
      </trkpt>
      <trkpt lat="42.99273" lon="-0.21905">
        <ele>1413.8</ele>
        <time>2022-09-04T08:02:25Z</time>
      </trkpt>
      <trkpt lat="42.99272" lon="-0.21911">
        <ele>1414.2</ele>
        <time>2022-09-04T08:02:28Z</time>
      </trkpt>
      <trkpt lat="42.99271" lon="-0.21917">
        <ele>1414.8</ele>
        <time>2022-09-04T08:02:31Z</time>
      </trkpt>
      <trkpt lat="42.9927" lon="-0.21924">
        <ele>1415.4</ele>
        <time>2022-09-04T08:02:35Z</time>
      </trkpt>
      <trkpt lat="42.9927" lon="-0.21926">
        <ele>1415.6</ele>
        <time>2022-09-04T08:02:36Z</time>
      </trkpt>
      <trkpt lat="42.99269" lon="-0.2193">
        <ele>1416</ele>
        <time>2022-09-04T08:02:38Z</time>
      </trkpt>
      <trkpt lat="42.99268" lon="-0.21932">
        <ele>1416.2</ele>
        <time>2022-09-04T08:02:39Z</time>
      </trkpt>
      <trkpt lat="42.99267" lon="-0.21936">
        <ele>1416.4</ele>
        <time>2022-09-04T08:02:41Z</time>
      </trkpt>
      <trkpt lat="42.99265" lon="-0.21943">
        <ele>1416.8</ele>
        <time>2022-09-04T08:02:45Z</time>
      </trkpt>
      <trkpt lat="42.99264" lon="-0.21949">
        <ele>1417.4</ele>
        <time>2022-09-04T08:02:47Z</time>
      </trkpt>
      <trkpt lat="42.99263" lon="-0.21951">
        <ele>1417.6</ele>
        <time>2022-09-04T08:02:48Z</time>
      </trkpt>
      <trkpt lat="42.99261" lon="-0.21958">
        <ele>1418</ele>
        <time>2022-09-04T08:02:51Z</time>
      </trkpt>
      <trkpt lat="42.99259" lon="-0.21962">
        <ele>1418</ele>
        <time>2022-09-04T08:02:52Z</time>
      </trkpt>
      <trkpt lat="42.99259" lon="-0.21964">
        <ele>1418.4</ele>
        <time>2022-09-04T08:02:53Z</time>
      </trkpt>
      <trkpt lat="42.99254" lon="-0.21972">
        <ele>1419</ele>
        <time>2022-09-04T08:02:57Z</time>
      </trkpt>
      <trkpt lat="42.99252" lon="-0.21978">
        <ele>1419.4</ele>
        <time>2022-09-04T08:03:00Z</time>
      </trkpt>
      <trkpt lat="42.99245" lon="-0.21992">
        <ele>1420.2</ele>
        <time>2022-09-04T08:03:06Z</time>
      </trkpt>
      <trkpt lat="42.99244" lon="-0.21995">
        <ele>1420.2</ele>
        <time>2022-09-04T08:03:07Z</time>
      </trkpt>
      <trkpt lat="42.99239" lon="-0.22006">
        <ele>1420.8</ele>
        <time>2022-09-04T08:03:12Z</time>
      </trkpt>
      <trkpt lat="42.99233" lon="-0.22011">
        <ele>1421</ele>
        <time>2022-09-04T08:03:14Z</time>
      </trkpt>
      <trkpt lat="42.99231" lon="-0.22016">
        <ele>1421.4</ele>
        <time>2022-09-04T08:03:16Z</time>
      </trkpt>
      <trkpt lat="42.99226" lon="-0.22029">
        <ele>1422.2</ele>
        <time>2022-09-04T08:03:20Z</time>
      </trkpt>
      <trkpt lat="42.99225" lon="-0.22032">
        <ele>1422.2</ele>
        <time>2022-09-04T08:03:21Z</time>
      </trkpt>
      <trkpt lat="42.99221" lon="-0.22046">
        <ele>1423</ele>
        <time>2022-09-04T08:03:26Z</time>
      </trkpt>
      <trkpt lat="42.9922" lon="-0.22048">
        <ele>1423.4</ele>
        <time>2022-09-04T08:03:27Z</time>
      </trkpt>
      <trkpt lat="42.99215" lon="-0.22057">
        <ele>1424.2</ele>
        <time>2022-09-04T08:03:31Z</time>
      </trkpt>
      <trkpt lat="42.99214" lon="-0.2206">
        <ele>1424</ele>
        <time>2022-09-04T08:03:32Z</time>
      </trkpt>
      <trkpt lat="42.99213" lon="-0.22062">
        <ele>1424.4</ele>
        <time>2022-09-04T08:03:33Z</time>
      </trkpt>
      <trkpt lat="42.99213" lon="-0.22066">
        <ele>1424.6</ele>
        <time>2022-09-04T08:03:35Z</time>
      </trkpt>
      <trkpt lat="42.99213" lon="-0.2207">
        <ele>1425</ele>
        <time>2022-09-04T08:03:37Z</time>
      </trkpt>
      <trkpt lat="42.99212" lon="-0.22075">
        <ele>1425.4</ele>
        <time>2022-09-04T08:03:39Z</time>
      </trkpt>
      <trkpt lat="42.99212" lon="-0.22079">
        <ele>1425.8</ele>
        <time>2022-09-04T08:03:41Z</time>
      </trkpt>
      <trkpt lat="42.99214" lon="-0.22083">
        <ele>1426.4</ele>
        <time>2022-09-04T08:03:43Z</time>
      </trkpt>
      <trkpt lat="42.99217" lon="-0.22095">
        <ele>1427.4</ele>
        <time>2022-09-04T08:03:49Z</time>
      </trkpt>
      <trkpt lat="42.99218" lon="-0.22102">
        <ele>1427.8</ele>
        <time>2022-09-04T08:03:52Z</time>
      </trkpt>
      <trkpt lat="42.99219" lon="-0.2211">
        <ele>1428.4</ele>
        <time>2022-09-04T08:03:55Z</time>
      </trkpt>
      <trkpt lat="42.99221" lon="-0.22124">
        <ele>1429.4</ele>
        <time>2022-09-04T08:04:00Z</time>
      </trkpt>
      <trkpt lat="42.99221" lon="-0.22126">
        <ele>1429.6</ele>
        <time>2022-09-04T08:04:01Z</time>
      </trkpt>
      <trkpt lat="42.99222" lon="-0.22139">
        <ele>1430.2</ele>
        <time>2022-09-04T08:04:06Z</time>
      </trkpt>
      <trkpt lat="42.99222" lon="-0.22144">
        <ele>1430.4</ele>
        <time>2022-09-04T08:04:08Z</time>
      </trkpt>
      <trkpt lat="42.9922" lon="-0.22152">
        <ele>1430.8</ele>
        <time>2022-09-04T08:04:11Z</time>
      </trkpt>
      <trkpt lat="42.99217" lon="-0.22155">
        <ele>1431</ele>
        <time>2022-09-04T08:04:13Z</time>
      </trkpt>
      <trkpt lat="42.99214" lon="-0.22154">
        <ele>1431</ele>
        <time>2022-09-04T08:04:15Z</time>
      </trkpt>
      <trkpt lat="42.99211" lon="-0.22139">
        <ele>1431.6</ele>
        <time>2022-09-04T08:04:21Z</time>
      </trkpt>
      <trkpt lat="42.99205" lon="-0.22121">
        <ele>1432.4</ele>
        <time>2022-09-04T08:04:28Z</time>
      </trkpt>
      <trkpt lat="42.99201" lon="-0.22113">
        <ele>1432.8</ele>
        <time>2022-09-04T08:04:32Z</time>
      </trkpt>
      <trkpt lat="42.99197" lon="-0.22107">
        <ele>1433.2</ele>
        <time>2022-09-04T08:04:35Z</time>
      </trkpt>
      <trkpt lat="42.99187" lon="-0.22095">
        <ele>1433.8</ele>
        <time>2022-09-04T08:04:41Z</time>
      </trkpt>
      <trkpt lat="42.99181" lon="-0.2209">
        <ele>1434</ele>
        <time>2022-09-04T08:04:44Z</time>
      </trkpt>
      <trkpt lat="42.99169" lon="-0.22072">
        <ele>1434.4</ele>
        <time>2022-09-04T08:04:51Z</time>
      </trkpt>
      <trkpt lat="42.99156" lon="-0.22058">
        <ele>1434.2</ele>
        <time>2022-09-04T08:04:58Z</time>
      </trkpt>
      <trkpt lat="42.99149" lon="-0.22051">
        <ele>1434.4</ele>
        <time>2022-09-04T08:05:03Z</time>
      </trkpt>
      <trkpt lat="42.99143" lon="-0.22044">
        <ele>1434.6</ele>
        <time>2022-09-04T08:05:07Z</time>
      </trkpt>
      <trkpt lat="42.99134" lon="-0.2204">
        <ele>1435.2</ele>
        <time>2022-09-04T08:05:12Z</time>
      </trkpt>
      <trkpt lat="42.99124" lon="-0.22036">
        <ele>1435.6</ele>
        <time>2022-09-04T08:05:16Z</time>
      </trkpt>
      <trkpt lat="42.99115" lon="-0.22032">
        <ele>1435.8</ele>
        <time>2022-09-04T08:05:19Z</time>
      </trkpt>
      <trkpt lat="42.99099" lon="-0.22029">
        <ele>1435.8</ele>
        <time>2022-09-04T08:05:24Z</time>
      </trkpt>
      <trkpt lat="42.9909" lon="-0.22033">
        <ele>1436.2</ele>
        <time>2022-09-04T08:05:29Z</time>
      </trkpt>
      <trkpt lat="42.9909" lon="-0.22035">
        <ele>1436.2</ele>
        <time>2022-09-04T08:05:30Z</time>
      </trkpt>
      <trkpt lat="42.99091" lon="-0.22045">
        <ele>1436.6</ele>
        <time>2022-09-04T08:05:34Z</time>
      </trkpt>
      <trkpt lat="42.99091" lon="-0.22047">
        <ele>1437.2</ele>
        <time>2022-09-04T08:05:35Z</time>
      </trkpt>
      <trkpt lat="42.99094" lon="-0.22051">
        <ele>1437.8</ele>
        <time>2022-09-04T08:05:37Z</time>
      </trkpt>
      <trkpt lat="42.99097" lon="-0.22054">
        <ele>1438.6</ele>
        <time>2022-09-04T08:05:39Z</time>
      </trkpt>
      <trkpt lat="42.99098" lon="-0.22059">
        <ele>1439.2</ele>
        <time>2022-09-04T08:05:41Z</time>
      </trkpt>
      <trkpt lat="42.99102" lon="-0.22068">
        <ele>1440.6</ele>
        <time>2022-09-04T08:05:45Z</time>
      </trkpt>
      <trkpt lat="42.99105" lon="-0.22076">
        <ele>1441.6</ele>
        <time>2022-09-04T08:05:48Z</time>
      </trkpt>
      <trkpt lat="42.99106" lon="-0.22079">
        <ele>1441.6</ele>
        <time>2022-09-04T08:05:49Z</time>
      </trkpt>
      <trkpt lat="42.99108" lon="-0.22094">
        <ele>1442.6</ele>
        <time>2022-09-04T08:05:54Z</time>
      </trkpt>
      <trkpt lat="42.99109" lon="-0.22098">
        <ele>1442.8</ele>
        <time>2022-09-04T08:05:55Z</time>
      </trkpt>
      <trkpt lat="42.9911" lon="-0.22106">
        <ele>1443.8</ele>
        <time>2022-09-04T08:05:58Z</time>
      </trkpt>
      <trkpt lat="42.99111" lon="-0.22118">
        <ele>1444.8</ele>
        <time>2022-09-04T08:06:02Z</time>
      </trkpt>
      <trkpt lat="42.99112" lon="-0.22121">
        <ele>1445.2</ele>
        <time>2022-09-04T08:06:03Z</time>
      </trkpt>
      <trkpt lat="42.99114" lon="-0.22132">
        <ele>1446.4</ele>
        <time>2022-09-04T08:06:07Z</time>
      </trkpt>
      <trkpt lat="42.99116" lon="-0.22137">
        <ele>1446.4</ele>
        <time>2022-09-04T08:06:09Z</time>
      </trkpt>
      <trkpt lat="42.99118" lon="-0.22139">
        <ele>1446.8</ele>
        <time>2022-09-04T08:06:10Z</time>
      </trkpt>
      <trkpt lat="42.99122" lon="-0.22145">
        <ele>1447.4</ele>
        <time>2022-09-04T08:06:13Z</time>
      </trkpt>
      <trkpt lat="42.99126" lon="-0.22154">
        <ele>1448.4</ele>
        <time>2022-09-04T08:06:17Z</time>
      </trkpt>
      <trkpt lat="42.99127" lon="-0.22156">
        <ele>1448.4</ele>
        <time>2022-09-04T08:06:18Z</time>
      </trkpt>
      <trkpt lat="42.9913" lon="-0.22163">
        <ele>1449.4</ele>
        <time>2022-09-04T08:06:21Z</time>
      </trkpt>
      <trkpt lat="42.99134" lon="-0.22171">
        <ele>1450.6</ele>
        <time>2022-09-04T08:06:25Z</time>
      </trkpt>
      <trkpt lat="42.99137" lon="-0.22177">
        <ele>1451.6</ele>
        <time>2022-09-04T08:06:28Z</time>
      </trkpt>
      <trkpt lat="42.99139" lon="-0.22181">
        <ele>1452</ele>
        <time>2022-09-04T08:06:30Z</time>
      </trkpt>
      <trkpt lat="42.99141" lon="-0.2219">
        <ele>1453</ele>
        <time>2022-09-04T08:06:34Z</time>
      </trkpt>
      <trkpt lat="42.99142" lon="-0.22197">
        <ele>1454</ele>
        <time>2022-09-04T08:06:37Z</time>
      </trkpt>
      <trkpt lat="42.99142" lon="-0.22202">
        <ele>1454.8</ele>
        <time>2022-09-04T08:06:39Z</time>
      </trkpt>
      <trkpt lat="42.99142" lon="-0.22207">
        <ele>1455</ele>
        <time>2022-09-04T08:06:41Z</time>
      </trkpt>
      <trkpt lat="42.99144" lon="-0.22216">
        <ele>1456.2</ele>
        <time>2022-09-04T08:06:45Z</time>
      </trkpt>
      <trkpt lat="42.99144" lon="-0.22218">
        <ele>1456.2</ele>
        <time>2022-09-04T08:06:46Z</time>
      </trkpt>
      <trkpt lat="42.99141" lon="-0.22229">
        <ele>1457.2</ele>
        <time>2022-09-04T08:06:51Z</time>
      </trkpt>
      <trkpt lat="42.9914" lon="-0.2223">
        <ele>1457.4</ele>
        <time>2022-09-04T08:06:52Z</time>
      </trkpt>
      <trkpt lat="42.99136" lon="-0.22231">
        <ele>1457.6</ele>
        <time>2022-09-04T08:06:54Z</time>
      </trkpt>
      <trkpt lat="42.99134" lon="-0.22228">
        <ele>1458</ele>
        <time>2022-09-04T08:06:56Z</time>
      </trkpt>
      <trkpt lat="42.9913" lon="-0.22226">
        <ele>1458.6</ele>
        <time>2022-09-04T08:06:58Z</time>
      </trkpt>
      <trkpt lat="42.99125" lon="-0.22222">
        <ele>1459.2</ele>
        <time>2022-09-04T08:07:01Z</time>
      </trkpt>
      <trkpt lat="42.99123" lon="-0.22221">
        <ele>1459.4</ele>
        <time>2022-09-04T08:07:02Z</time>
      </trkpt>
      <trkpt lat="42.99116" lon="-0.22216">
        <ele>1460</ele>
        <time>2022-09-04T08:07:06Z</time>
      </trkpt>
      <trkpt lat="42.99111" lon="-0.22213">
        <ele>1460.4</ele>
        <time>2022-09-04T08:07:09Z</time>
      </trkpt>
      <trkpt lat="42.99109" lon="-0.22212">
        <ele>1460.4</ele>
        <time>2022-09-04T08:07:10Z</time>
      </trkpt>
      <trkpt lat="42.99104" lon="-0.22205">
        <ele>1460.8</ele>
        <time>2022-09-04T08:07:14Z</time>
      </trkpt>
      <trkpt lat="42.99097" lon="-0.22199">
        <ele>1461.2</ele>
        <time>2022-09-04T08:07:19Z</time>
      </trkpt>
      <trkpt lat="42.99096" lon="-0.22201">
        <ele>1461.4</ele>
        <time>2022-09-04T08:07:20Z</time>
      </trkpt>
      <trkpt lat="42.99096" lon="-0.22203">
        <ele>1461.8</ele>
        <time>2022-09-04T08:07:21Z</time>
      </trkpt>
      <trkpt lat="42.99096" lon="-0.22208">
        <ele>1462.2</ele>
        <time>2022-09-04T08:07:23Z</time>
      </trkpt>
      <trkpt lat="42.99097" lon="-0.22212">
        <ele>1462.4</ele>
        <time>2022-09-04T08:07:25Z</time>
      </trkpt>
      <trkpt lat="42.99098" lon="-0.22214">
        <ele>1463</ele>
        <time>2022-09-04T08:07:26Z</time>
      </trkpt>
      <trkpt lat="42.99101" lon="-0.22225">
        <ele>1464</ele>
        <time>2022-09-04T08:07:31Z</time>
      </trkpt>
      <trkpt lat="42.99104" lon="-0.22231">
        <ele>1464.4</ele>
        <time>2022-09-04T08:07:34Z</time>
      </trkpt>
      <trkpt lat="42.99106" lon="-0.22238">
        <ele>1465.2</ele>
        <time>2022-09-04T08:07:37Z</time>
      </trkpt>
      <trkpt lat="42.99108" lon="-0.22248">
        <ele>1466.4</ele>
        <time>2022-09-04T08:07:41Z</time>
      </trkpt>
      <trkpt lat="42.99108" lon="-0.22253">
        <ele>1466.8</ele>
        <time>2022-09-04T08:07:43Z</time>
      </trkpt>
      <trkpt lat="42.9911" lon="-0.22263">
        <ele>1467.6</ele>
        <time>2022-09-04T08:07:47Z</time>
      </trkpt>
      <trkpt lat="42.99112" lon="-0.22267">
        <ele>1468</ele>
        <time>2022-09-04T08:07:49Z</time>
      </trkpt>
      <trkpt lat="42.99112" lon="-0.22269">
        <ele>1468</ele>
        <time>2022-09-04T08:07:50Z</time>
      </trkpt>
      <trkpt lat="42.99113" lon="-0.22274">
        <ele>1468.6</ele>
        <time>2022-09-04T08:07:52Z</time>
      </trkpt>
      <trkpt lat="42.99117" lon="-0.22283">
        <ele>1469.8</ele>
        <time>2022-09-04T08:07:57Z</time>
      </trkpt>
      <trkpt lat="42.99118" lon="-0.22287">
        <ele>1470.6</ele>
        <time>2022-09-04T08:07:59Z</time>
      </trkpt>
      <trkpt lat="42.99119" lon="-0.22289">
        <ele>1471</ele>
        <time>2022-09-04T08:08:00Z</time>
      </trkpt>
      <trkpt lat="42.99122" lon="-0.223">
        <ele>1472</ele>
        <time>2022-09-04T08:08:05Z</time>
      </trkpt>
      <trkpt lat="42.99122" lon="-0.22304">
        <ele>1472.6</ele>
        <time>2022-09-04T08:08:07Z</time>
      </trkpt>
      <trkpt lat="42.99123" lon="-0.22308">
        <ele>1473.2</ele>
        <time>2022-09-04T08:08:09Z</time>
      </trkpt>
      <trkpt lat="42.99124" lon="-0.22318">
        <ele>1474</ele>
        <time>2022-09-04T08:08:14Z</time>
      </trkpt>
      <trkpt lat="42.99125" lon="-0.22323">
        <ele>1474.4</ele>
        <time>2022-09-04T08:08:16Z</time>
      </trkpt>
      <trkpt lat="42.99125" lon="-0.2233">
        <ele>1475.2</ele>
        <time>2022-09-04T08:08:19Z</time>
      </trkpt>
      <trkpt lat="42.99126" lon="-0.22338">
        <ele>1476.4</ele>
        <time>2022-09-04T08:08:23Z</time>
      </trkpt>
      <trkpt lat="42.99126" lon="-0.2234">
        <ele>1476.6</ele>
        <time>2022-09-04T08:08:24Z</time>
      </trkpt>
      <trkpt lat="42.99127" lon="-0.22351">
        <ele>1477.4</ele>
        <time>2022-09-04T08:08:30Z</time>
      </trkpt>
      <trkpt lat="42.99127" lon="-0.22356">
        <ele>1477.8</ele>
        <time>2022-09-04T08:08:32Z</time>
      </trkpt>
      <trkpt lat="42.9913" lon="-0.22369">
        <ele>1478.6</ele>
        <time>2022-09-04T08:08:38Z</time>
      </trkpt>
      <trkpt lat="42.9913" lon="-0.22374">
        <ele>1479</ele>
        <time>2022-09-04T08:08:40Z</time>
      </trkpt>
      <trkpt lat="42.9913" lon="-0.2238">
        <ele>1479.8</ele>
        <time>2022-09-04T08:08:43Z</time>
      </trkpt>
      <trkpt lat="42.9913" lon="-0.22388">
        <ele>1480.8</ele>
        <time>2022-09-04T08:08:47Z</time>
      </trkpt>
      <trkpt lat="42.9913" lon="-0.22389">
        <ele>1481</ele>
        <time>2022-09-04T08:08:48Z</time>
      </trkpt>
      <trkpt lat="42.9913" lon="-0.22399">
        <ele>1482.2</ele>
        <time>2022-09-04T08:08:53Z</time>
      </trkpt>
      <trkpt lat="42.9913" lon="-0.22403">
        <ele>1482.8</ele>
        <time>2022-09-04T08:08:55Z</time>
      </trkpt>
      <trkpt lat="42.99131" lon="-0.22405">
        <ele>1483.2</ele>
        <time>2022-09-04T08:08:56Z</time>
      </trkpt>
      <trkpt lat="42.99132" lon="-0.2242">
        <ele>1484.4</ele>
        <time>2022-09-04T08:09:02Z</time>
      </trkpt>
      <trkpt lat="42.99133" lon="-0.22425">
        <ele>1484.8</ele>
        <time>2022-09-04T08:09:04Z</time>
      </trkpt>
      <trkpt lat="42.99133" lon="-0.2243">
        <ele>1485.6</ele>
        <time>2022-09-04T08:09:06Z</time>
      </trkpt>
      <trkpt lat="42.99134" lon="-0.2244">
        <ele>1486.4</ele>
        <time>2022-09-04T08:09:10Z</time>
      </trkpt>
      <trkpt lat="42.99134" lon="-0.22443">
        <ele>1486.8</ele>
        <time>2022-09-04T08:09:11Z</time>
      </trkpt>
      <trkpt lat="42.99134" lon="-0.22446">
        <ele>1487</ele>
        <time>2022-09-04T08:09:12Z</time>
      </trkpt>
      <trkpt lat="42.99135" lon="-0.2245">
        <ele>1487.6</ele>
        <time>2022-09-04T08:09:14Z</time>
      </trkpt>
      <trkpt lat="42.99136" lon="-0.22457">
        <ele>1488.2</ele>
        <time>2022-09-04T08:09:17Z</time>
      </trkpt>
      <trkpt lat="42.99138" lon="-0.22462">
        <ele>1488.6</ele>
        <time>2022-09-04T08:09:19Z</time>
      </trkpt>
      <trkpt lat="42.99139" lon="-0.22474">
        <ele>1489.4</ele>
        <time>2022-09-04T08:09:24Z</time>
      </trkpt>
      <trkpt lat="42.9914" lon="-0.22477">
        <ele>1489.8</ele>
        <time>2022-09-04T08:09:25Z</time>
      </trkpt>
      <trkpt lat="42.9914" lon="-0.22484">
        <ele>1491</ele>
        <time>2022-09-04T08:09:28Z</time>
      </trkpt>
      <trkpt lat="42.99141" lon="-0.22497">
        <ele>1492</ele>
        <time>2022-09-04T08:09:33Z</time>
      </trkpt>
      <trkpt lat="42.99145" lon="-0.22511">
        <ele>1493.2</ele>
        <time>2022-09-04T08:09:39Z</time>
      </trkpt>
      <trkpt lat="42.99146" lon="-0.22514">
        <ele>1493.6</ele>
        <time>2022-09-04T08:09:40Z</time>
      </trkpt>
      <trkpt lat="42.99146" lon="-0.22521">
        <ele>1494.4</ele>
        <time>2022-09-04T08:09:43Z</time>
      </trkpt>
      <trkpt lat="42.99148" lon="-0.2253">
        <ele>1495</ele>
        <time>2022-09-04T08:09:47Z</time>
      </trkpt>
      <trkpt lat="42.99149" lon="-0.22534">
        <ele>1495.4</ele>
        <time>2022-09-04T08:09:49Z</time>
      </trkpt>
      <trkpt lat="42.99152" lon="-0.22545">
        <ele>1496.6</ele>
        <time>2022-09-04T08:09:54Z</time>
      </trkpt>
      <trkpt lat="42.99153" lon="-0.22547">
        <ele>1496.8</ele>
        <time>2022-09-04T08:09:55Z</time>
      </trkpt>
      <trkpt lat="42.99156" lon="-0.22553">
        <ele>1497.8</ele>
        <time>2022-09-04T08:09:58Z</time>
      </trkpt>
      <trkpt lat="42.99163" lon="-0.22562">
        <ele>1498.6</ele>
        <time>2022-09-04T08:10:03Z</time>
      </trkpt>
      <trkpt lat="42.99164" lon="-0.22564">
        <ele>1498.8</ele>
        <time>2022-09-04T08:10:04Z</time>
      </trkpt>
      <trkpt lat="42.99167" lon="-0.22571">
        <ele>1500</ele>
        <time>2022-09-04T08:10:08Z</time>
      </trkpt>
      <trkpt lat="42.99167" lon="-0.22573">
        <ele>1500.2</ele>
        <time>2022-09-04T08:10:09Z</time>
      </trkpt>
      <trkpt lat="42.9917" lon="-0.22578">
        <ele>1501.2</ele>
        <time>2022-09-04T08:10:12Z</time>
      </trkpt>
      <trkpt lat="42.99169" lon="-0.22585">
        <ele>1502</ele>
        <time>2022-09-04T08:10:15Z</time>
      </trkpt>
      <trkpt lat="42.99169" lon="-0.22589">
        <ele>1502.6</ele>
        <time>2022-09-04T08:10:17Z</time>
      </trkpt>
      <trkpt lat="42.99166" lon="-0.22602">
        <ele>1503.8</ele>
        <time>2022-09-04T08:10:22Z</time>
      </trkpt>
      <trkpt lat="42.99163" lon="-0.2261">
        <ele>1505</ele>
        <time>2022-09-04T08:10:25Z</time>
      </trkpt>
      <trkpt lat="42.99156" lon="-0.22622">
        <ele>1505.4</ele>
        <time>2022-09-04T08:10:31Z</time>
      </trkpt>
      <trkpt lat="42.99151" lon="-0.22629">
        <ele>1506</ele>
        <time>2022-09-04T08:10:36Z</time>
      </trkpt>
      <trkpt lat="42.99147" lon="-0.22635">
        <ele>1506.4</ele>
        <time>2022-09-04T08:10:40Z</time>
      </trkpt>
      <trkpt lat="42.99144" lon="-0.22639">
        <ele>1506.6</ele>
        <time>2022-09-04T08:10:46Z</time>
      </trkpt>
      <trkpt lat="42.99137" lon="-0.22646">
        <ele>1506</ele>
        <time>2022-09-04T08:11:19Z</time>
      </trkpt>
      <trkpt lat="42.99118" lon="-0.22665">
        <ele>1505.8</ele>
        <time>2022-09-04T08:11:25Z</time>
      </trkpt>
      <trkpt lat="42.99102" lon="-0.22682">
        <ele>1505.4</ele>
        <time>2022-09-04T08:11:30Z</time>
      </trkpt>
      <trkpt lat="42.99095" lon="-0.22688">
        <ele>1505.2</ele>
        <time>2022-09-04T08:11:32Z</time>
      </trkpt>
      <trkpt lat="42.99066" lon="-0.22708">
        <ele>1504.6</ele>
        <time>2022-09-04T08:11:40Z</time>
      </trkpt>
      <trkpt lat="42.9905" lon="-0.22714">
        <ele>1504.6</ele>
        <time>2022-09-04T08:11:44Z</time>
      </trkpt>
      <trkpt lat="42.99042" lon="-0.22715">
        <ele>1504.8</ele>
        <time>2022-09-04T08:11:46Z</time>
      </trkpt>
      <trkpt lat="42.99021" lon="-0.22708">
        <ele>1505.2</ele>
        <time>2022-09-04T08:11:52Z</time>
      </trkpt>
      <trkpt lat="42.99006" lon="-0.227">
        <ele>1506.4</ele>
        <time>2022-09-04T08:11:57Z</time>
      </trkpt>
      <trkpt lat="42.99002" lon="-0.22696">
        <ele>1506.6</ele>
        <time>2022-09-04T08:11:59Z</time>
      </trkpt>
      <trkpt lat="42.98993" lon="-0.22689">
        <ele>1507.4</ele>
        <time>2022-09-04T08:12:03Z</time>
      </trkpt>
      <trkpt lat="42.98985" lon="-0.22683">
        <ele>1507.6</ele>
        <time>2022-09-04T08:12:06Z</time>
      </trkpt>
      <trkpt lat="42.98972" lon="-0.22676">
        <ele>1508.6</ele>
        <time>2022-09-04T08:12:11Z</time>
      </trkpt>
      <trkpt lat="42.98964" lon="-0.22673">
        <ele>1509</ele>
        <time>2022-09-04T08:12:15Z</time>
      </trkpt>
      <trkpt lat="42.98954" lon="-0.22671">
        <ele>1509.6</ele>
        <time>2022-09-04T08:12:18Z</time>
      </trkpt>
      <trkpt lat="42.98939" lon="-0.22671">
        <ele>1510</ele>
        <time>2022-09-04T08:12:23Z</time>
      </trkpt>
      <trkpt lat="42.98919" lon="-0.22679">
        <ele>1510.6</ele>
        <time>2022-09-04T08:12:29Z</time>
      </trkpt>
      <trkpt lat="42.98917" lon="-0.22681">
        <ele>1510.8</ele>
        <time>2022-09-04T08:12:30Z</time>
      </trkpt>
      <trkpt lat="42.98894" lon="-0.22689">
        <ele>1511.4</ele>
        <time>2022-09-04T08:12:37Z</time>
      </trkpt>
      <trkpt lat="42.98888" lon="-0.22691">
        <ele>1511.6</ele>
        <time>2022-09-04T08:12:39Z</time>
      </trkpt>
      <trkpt lat="42.98871" lon="-0.22698">
        <ele>1512.2</ele>
        <time>2022-09-04T08:12:45Z</time>
      </trkpt>
      <trkpt lat="42.98863" lon="-0.227">
        <ele>1512.8</ele>
        <time>2022-09-04T08:12:48Z</time>
      </trkpt>
      <trkpt lat="42.98844" lon="-0.22707">
        <ele>1513.2</ele>
        <time>2022-09-04T08:12:54Z</time>
      </trkpt>
      <trkpt lat="42.98824" lon="-0.22718">
        <ele>1513.8</ele>
        <time>2022-09-04T08:13:00Z</time>
      </trkpt>
      <trkpt lat="42.98821" lon="-0.22719">
        <ele>1514</ele>
        <time>2022-09-04T08:13:01Z</time>
      </trkpt>
      <trkpt lat="42.98794" lon="-0.22735">
        <ele>1514.2</ele>
        <time>2022-09-04T08:13:09Z</time>
      </trkpt>
      <trkpt lat="42.9877" lon="-0.22747">
        <ele>1514.2</ele>
        <time>2022-09-04T08:13:16Z</time>
      </trkpt>
      <trkpt lat="42.98741" lon="-0.22755">
        <ele>1514.6</ele>
        <time>2022-09-04T08:13:24Z</time>
      </trkpt>
      <trkpt lat="42.9872" lon="-0.22765">
        <ele>1514.6</ele>
        <time>2022-09-04T08:13:30Z</time>
      </trkpt>
      <trkpt lat="42.98717" lon="-0.22768">
        <ele>1514.6</ele>
        <time>2022-09-04T08:13:31Z</time>
      </trkpt>
      <trkpt lat="42.98705" lon="-0.22785">
        <ele>1515</ele>
        <time>2022-09-04T08:13:36Z</time>
      </trkpt>
      <trkpt lat="42.9869" lon="-0.22814">
        <ele>1515</ele>
        <time>2022-09-04T08:13:43Z</time>
      </trkpt>
      <trkpt lat="42.98684" lon="-0.22819">
        <ele>1515</ele>
        <time>2022-09-04T08:13:45Z</time>
      </trkpt>
      <trkpt lat="42.98673" lon="-0.22823">
        <ele>1515.2</ele>
        <time>2022-09-04T08:13:48Z</time>
      </trkpt>
      <trkpt lat="42.98644" lon="-0.22824">
        <ele>1514.8</ele>
        <time>2022-09-04T08:13:55Z</time>
      </trkpt>
      <trkpt lat="42.98618" lon="-0.22826">
        <ele>1514.4</ele>
        <time>2022-09-04T08:14:00Z</time>
      </trkpt>
      <trkpt lat="42.98613" lon="-0.22828">
        <ele>1514.4</ele>
        <time>2022-09-04T08:14:01Z</time>
      </trkpt>
      <trkpt lat="42.98596" lon="-0.22833">
        <ele>1513.6</ele>
        <time>2022-09-04T08:14:04Z</time>
      </trkpt>
      <trkpt lat="42.98591" lon="-0.22836">
        <ele>1513.4</ele>
        <time>2022-09-04T08:14:05Z</time>
      </trkpt>
      <trkpt lat="42.98581" lon="-0.2284">
        <ele>1513.2</ele>
        <time>2022-09-04T08:14:07Z</time>
      </trkpt>
      <trkpt lat="42.98559" lon="-0.22853">
        <ele>1512</ele>
        <time>2022-09-04T08:14:11Z</time>
      </trkpt>
      <trkpt lat="42.98549" lon="-0.22861">
        <ele>1511.6</ele>
        <time>2022-09-04T08:14:13Z</time>
      </trkpt>
      <trkpt lat="42.98545" lon="-0.22865">
        <ele>1511.4</ele>
        <time>2022-09-04T08:14:14Z</time>
      </trkpt>
      <trkpt lat="42.98537" lon="-0.22874">
        <ele>1511.2</ele>
        <time>2022-09-04T08:14:16Z</time>
      </trkpt>
      <trkpt lat="42.9853" lon="-0.22885">
        <ele>1510.8</ele>
        <time>2022-09-04T08:14:18Z</time>
      </trkpt>
      <trkpt lat="42.98525" lon="-0.22898">
        <ele>1510.8</ele>
        <time>2022-09-04T08:14:20Z</time>
      </trkpt>
      <trkpt lat="42.98522" lon="-0.22914">
        <ele>1510.2</ele>
        <time>2022-09-04T08:14:22Z</time>
      </trkpt>
      <trkpt lat="42.98521" lon="-0.22931">
        <ele>1510</ele>
        <time>2022-09-04T08:14:24Z</time>
      </trkpt>
      <trkpt lat="42.98523" lon="-0.22949">
        <ele>1509.4</ele>
        <time>2022-09-04T08:14:26Z</time>
      </trkpt>
      <trkpt lat="42.98529" lon="-0.22982">
        <ele>1508.4</ele>
        <time>2022-09-04T08:14:30Z</time>
      </trkpt>
      <trkpt lat="42.98532" lon="-0.22989">
        <ele>1508.2</ele>
        <time>2022-09-04T08:14:31Z</time>
      </trkpt>
      <trkpt lat="42.9854" lon="-0.23005">
        <ele>1507.6</ele>
        <time>2022-09-04T08:14:33Z</time>
      </trkpt>
      <trkpt lat="42.98546" lon="-0.23013">
        <ele>1506.8</ele>
        <time>2022-09-04T08:14:34Z</time>
      </trkpt>
      <trkpt lat="42.98552" lon="-0.2302">
        <ele>1506.4</ele>
        <time>2022-09-04T08:14:35Z</time>
      </trkpt>
      <trkpt lat="42.98558" lon="-0.23029">
        <ele>1505.8</ele>
        <time>2022-09-04T08:14:36Z</time>
      </trkpt>
      <trkpt lat="42.98562" lon="-0.23038">
        <ele>1505.6</ele>
        <time>2022-09-04T08:14:37Z</time>
      </trkpt>
      <trkpt lat="42.98566" lon="-0.23048">
        <ele>1504.8</ele>
        <time>2022-09-04T08:14:38Z</time>
      </trkpt>
      <trkpt lat="42.98569" lon="-0.23059">
        <ele>1504.2</ele>
        <time>2022-09-04T08:14:39Z</time>
      </trkpt>
      <trkpt lat="42.98575" lon="-0.23081">
        <ele>1503.4</ele>
        <time>2022-09-04T08:14:41Z</time>
      </trkpt>
      <trkpt lat="42.98577" lon="-0.23092">
        <ele>1503</ele>
        <time>2022-09-04T08:14:42Z</time>
      </trkpt>
      <trkpt lat="42.98579" lon="-0.23103">
        <ele>1502.2</ele>
        <time>2022-09-04T08:14:43Z</time>
      </trkpt>
      <trkpt lat="42.98581" lon="-0.23114">
        <ele>1501.8</ele>
        <time>2022-09-04T08:14:44Z</time>
      </trkpt>
      <trkpt lat="42.98583" lon="-0.23136">
        <ele>1500.6</ele>
        <time>2022-09-04T08:14:46Z</time>
      </trkpt>
      <trkpt lat="42.98584" lon="-0.23161">
        <ele>1499.4</ele>
        <time>2022-09-04T08:14:48Z</time>
      </trkpt>
      <trkpt lat="42.98583" lon="-0.23186">
        <ele>1498.2</ele>
        <time>2022-09-04T08:14:50Z</time>
      </trkpt>
      <trkpt lat="42.98582" lon="-0.23196">
        <ele>1497.2</ele>
        <time>2022-09-04T08:14:51Z</time>
      </trkpt>
      <trkpt lat="42.98579" lon="-0.23225">
        <ele>1495.6</ele>
        <time>2022-09-04T08:14:53Z</time>
      </trkpt>
      <trkpt lat="42.98576" lon="-0.23248">
        <ele>1494.6</ele>
        <time>2022-09-04T08:14:55Z</time>
      </trkpt>
      <trkpt lat="42.98573" lon="-0.23269">
        <ele>1493.6</ele>
        <time>2022-09-04T08:14:57Z</time>
      </trkpt>
      <trkpt lat="42.98572" lon="-0.23278">
        <ele>1493</ele>
        <time>2022-09-04T08:14:58Z</time>
      </trkpt>
      <trkpt lat="42.9857" lon="-0.233">
        <ele>1492.4</ele>
        <time>2022-09-04T08:15:01Z</time>
      </trkpt>
      <trkpt lat="42.98571" lon="-0.23307">
        <ele>1492.2</ele>
        <time>2022-09-04T08:15:02Z</time>
      </trkpt>
      <trkpt lat="42.98572" lon="-0.23314">
        <ele>1492.2</ele>
        <time>2022-09-04T08:15:03Z</time>
      </trkpt>
      <trkpt lat="42.98579" lon="-0.23331">
        <ele>1491.8</ele>
        <time>2022-09-04T08:15:06Z</time>
      </trkpt>
      <trkpt lat="42.98585" lon="-0.23343">
        <ele>1491.8</ele>
        <time>2022-09-04T08:15:08Z</time>
      </trkpt>
      <trkpt lat="42.98589" lon="-0.23357">
        <ele>1491.6</ele>
        <time>2022-09-04T08:15:10Z</time>
      </trkpt>
      <trkpt lat="42.98589" lon="-0.23365">
        <ele>1491.4</ele>
        <time>2022-09-04T08:15:11Z</time>
      </trkpt>
      <trkpt lat="42.9859" lon="-0.23382">
        <ele>1491.4</ele>
        <time>2022-09-04T08:15:13Z</time>
      </trkpt>
      <trkpt lat="42.98589" lon="-0.23391">
        <ele>1491.4</ele>
        <time>2022-09-04T08:15:14Z</time>
      </trkpt>
      <trkpt lat="42.98588" lon="-0.23401">
        <ele>1491.2</ele>
        <time>2022-09-04T08:15:15Z</time>
      </trkpt>
      <trkpt lat="42.98587" lon="-0.23422">
        <ele>1490.8</ele>
        <time>2022-09-04T08:15:17Z</time>
      </trkpt>
      <trkpt lat="42.98586" lon="-0.23433">
        <ele>1490.6</ele>
        <time>2022-09-04T08:15:18Z</time>
      </trkpt>
      <trkpt lat="42.98583" lon="-0.23444">
        <ele>1490</ele>
        <time>2022-09-04T08:15:19Z</time>
      </trkpt>
      <trkpt lat="42.98577" lon="-0.23464">
        <ele>1488.8</ele>
        <time>2022-09-04T08:15:21Z</time>
      </trkpt>
      <trkpt lat="42.98574" lon="-0.23474">
        <ele>1488.6</ele>
        <time>2022-09-04T08:15:22Z</time>
      </trkpt>
      <trkpt lat="42.98568" lon="-0.23493">
        <ele>1487.6</ele>
        <time>2022-09-04T08:15:24Z</time>
      </trkpt>
      <trkpt lat="42.98559" lon="-0.23511">
        <ele>1486.4</ele>
        <time>2022-09-04T08:15:26Z</time>
      </trkpt>
      <trkpt lat="42.98555" lon="-0.2352">
        <ele>1485.8</ele>
        <time>2022-09-04T08:15:27Z</time>
      </trkpt>
      <trkpt lat="42.98552" lon="-0.23529">
        <ele>1485</ele>
        <time>2022-09-04T08:15:28Z</time>
      </trkpt>
      <trkpt lat="42.9855" lon="-0.23538">
        <ele>1484.8</ele>
        <time>2022-09-04T08:15:29Z</time>
      </trkpt>
      <trkpt lat="42.98549" lon="-0.23548">
        <ele>1484.2</ele>
        <time>2022-09-04T08:15:30Z</time>
      </trkpt>
      <trkpt lat="42.9855" lon="-0.23557">
        <ele>1483.8</ele>
        <time>2022-09-04T08:15:31Z</time>
      </trkpt>
      <trkpt lat="42.98549" lon="-0.23578">
        <ele>1482.8</ele>
        <time>2022-09-04T08:15:33Z</time>
      </trkpt>
      <trkpt lat="42.98549" lon="-0.23588">
        <ele>1482</ele>
        <time>2022-09-04T08:15:34Z</time>
      </trkpt>
      <trkpt lat="42.98549" lon="-0.23599">
        <ele>1481.6</ele>
        <time>2022-09-04T08:15:35Z</time>
      </trkpt>
      <trkpt lat="42.9855" lon="-0.2361">
        <ele>1481.2</ele>
        <time>2022-09-04T08:15:36Z</time>
      </trkpt>
      <trkpt lat="42.98553" lon="-0.23621">
        <ele>1481</ele>
        <time>2022-09-04T08:15:37Z</time>
      </trkpt>
      <trkpt lat="42.98558" lon="-0.23641">
        <ele>1479.8</ele>
        <time>2022-09-04T08:15:39Z</time>
      </trkpt>
      <trkpt lat="42.98559" lon="-0.2366">
        <ele>1478.4</ele>
        <time>2022-09-04T08:15:41Z</time>
      </trkpt>
      <trkpt lat="42.98558" lon="-0.2368">
        <ele>1476.8</ele>
        <time>2022-09-04T08:15:43Z</time>
      </trkpt>
      <trkpt lat="42.9856" lon="-0.23703">
        <ele>1475.6</ele>
        <time>2022-09-04T08:15:45Z</time>
      </trkpt>
      <trkpt lat="42.98564" lon="-0.23729">
        <ele>1474.2</ele>
        <time>2022-09-04T08:15:47Z</time>
      </trkpt>
      <trkpt lat="42.98571" lon="-0.23754">
        <ele>1472.2</ele>
        <time>2022-09-04T08:15:49Z</time>
      </trkpt>
      <trkpt lat="42.98574" lon="-0.23765">
        <ele>1471.8</ele>
        <time>2022-09-04T08:15:50Z</time>
      </trkpt>
      <trkpt lat="42.98577" lon="-0.23777">
        <ele>1471.2</ele>
        <time>2022-09-04T08:15:51Z</time>
      </trkpt>
      <trkpt lat="42.98579" lon="-0.23789">
        <ele>1470.8</ele>
        <time>2022-09-04T08:15:52Z</time>
      </trkpt>
      <trkpt lat="42.98586" lon="-0.23813">
        <ele>1469.6</ele>
        <time>2022-09-04T08:15:54Z</time>
      </trkpt>
      <trkpt lat="42.9859" lon="-0.23824">
        <ele>1468.8</ele>
        <time>2022-09-04T08:15:55Z</time>
      </trkpt>
      <trkpt lat="42.98594" lon="-0.23834">
        <ele>1468.6</ele>
        <time>2022-09-04T08:15:56Z</time>
      </trkpt>
      <trkpt lat="42.986" lon="-0.23844">
        <ele>1468.2</ele>
        <time>2022-09-04T08:15:57Z</time>
      </trkpt>
      <trkpt lat="42.98612" lon="-0.2386">
        <ele>1467.2</ele>
        <time>2022-09-04T08:15:59Z</time>
      </trkpt>
      <trkpt lat="42.98619" lon="-0.23866">
        <ele>1466.2</ele>
        <time>2022-09-04T08:16:00Z</time>
      </trkpt>
      <trkpt lat="42.98633" lon="-0.23877">
        <ele>1465</ele>
        <time>2022-09-04T08:16:02Z</time>
      </trkpt>
      <trkpt lat="42.98641" lon="-0.23884">
        <ele>1464.8</ele>
        <time>2022-09-04T08:16:03Z</time>
      </trkpt>
      <trkpt lat="42.98654" lon="-0.239">
        <ele>1464</ele>
        <time>2022-09-04T08:16:05Z</time>
      </trkpt>
      <trkpt lat="42.98658" lon="-0.23909">
        <ele>1463</ele>
        <time>2022-09-04T08:16:06Z</time>
      </trkpt>
      <trkpt lat="42.98662" lon="-0.23919">
        <ele>1462.8</ele>
        <time>2022-09-04T08:16:07Z</time>
      </trkpt>
      <trkpt lat="42.98665" lon="-0.23939">
        <ele>1462.2</ele>
        <time>2022-09-04T08:16:09Z</time>
      </trkpt>
      <trkpt lat="42.98666" lon="-0.23958">
        <ele>1462</ele>
        <time>2022-09-04T08:16:11Z</time>
      </trkpt>
      <trkpt lat="42.98664" lon="-0.23989">
        <ele>1460.4</ele>
        <time>2022-09-04T08:16:14Z</time>
      </trkpt>
      <trkpt lat="42.9866" lon="-0.24021">
        <ele>1459.4</ele>
        <time>2022-09-04T08:16:17Z</time>
      </trkpt>
      <trkpt lat="42.98653" lon="-0.24054">
        <ele>1458.6</ele>
        <time>2022-09-04T08:16:20Z</time>
      </trkpt>
      <trkpt lat="42.98651" lon="-0.24065">
        <ele>1458</ele>
        <time>2022-09-04T08:16:21Z</time>
      </trkpt>
      <trkpt lat="42.98643" lon="-0.24093">
        <ele>1456.8</ele>
        <time>2022-09-04T08:16:24Z</time>
      </trkpt>
      <trkpt lat="42.98641" lon="-0.24103">
        <ele>1456</ele>
        <time>2022-09-04T08:16:25Z</time>
      </trkpt>
      <trkpt lat="42.9864" lon="-0.24113">
        <ele>1455.6</ele>
        <time>2022-09-04T08:16:26Z</time>
      </trkpt>
      <trkpt lat="42.98639" lon="-0.24134">
        <ele>1454.4</ele>
        <time>2022-09-04T08:16:28Z</time>
      </trkpt>
      <trkpt lat="42.98637" lon="-0.24155">
        <ele>1453.4</ele>
        <time>2022-09-04T08:16:30Z</time>
      </trkpt>
      <trkpt lat="42.98635" lon="-0.24175">
        <ele>1451.8</ele>
        <time>2022-09-04T08:16:32Z</time>
      </trkpt>
      <trkpt lat="42.98631" lon="-0.24196">
        <ele>1450.8</ele>
        <time>2022-09-04T08:16:34Z</time>
      </trkpt>
      <trkpt lat="42.98628" lon="-0.24216">
        <ele>1449.2</ele>
        <time>2022-09-04T08:16:36Z</time>
      </trkpt>
      <trkpt lat="42.98627" lon="-0.24234">
        <ele>1447</ele>
        <time>2022-09-04T08:16:38Z</time>
      </trkpt>
      <trkpt lat="42.98627" lon="-0.24255">
        <ele>1445.6</ele>
        <time>2022-09-04T08:16:40Z</time>
      </trkpt>
      <trkpt lat="42.98627" lon="-0.24265">
        <ele>1445.4</ele>
        <time>2022-09-04T08:16:41Z</time>
      </trkpt>
      <trkpt lat="42.98626" lon="-0.24285">
        <ele>1444.6</ele>
        <time>2022-09-04T08:16:43Z</time>
      </trkpt>
      <trkpt lat="42.98624" lon="-0.24306">
        <ele>1443.6</ele>
        <time>2022-09-04T08:16:45Z</time>
      </trkpt>
      <trkpt lat="42.98622" lon="-0.24328">
        <ele>1442.2</ele>
        <time>2022-09-04T08:16:47Z</time>
      </trkpt>
      <trkpt lat="42.98619" lon="-0.24351">
        <ele>1440.8</ele>
        <time>2022-09-04T08:16:49Z</time>
      </trkpt>
      <trkpt lat="42.98618" lon="-0.24383">
        <ele>1439.4</ele>
        <time>2022-09-04T08:16:52Z</time>
      </trkpt>
      <trkpt lat="42.98618" lon="-0.24403">
        <ele>1438.4</ele>
        <time>2022-09-04T08:16:54Z</time>
      </trkpt>
      <trkpt lat="42.9862" lon="-0.24431">
        <ele>1437.4</ele>
        <time>2022-09-04T08:16:57Z</time>
      </trkpt>
      <trkpt lat="42.98621" lon="-0.24446">
        <ele>1436.4</ele>
        <time>2022-09-04T08:16:59Z</time>
      </trkpt>
      <trkpt lat="42.98622" lon="-0.24453">
        <ele>1436</ele>
        <time>2022-09-04T08:17:00Z</time>
      </trkpt>
      <trkpt lat="42.98625" lon="-0.24478">
        <ele>1435.6</ele>
        <time>2022-09-04T08:17:04Z</time>
      </trkpt>
      <trkpt lat="42.98626" lon="-0.24495">
        <ele>1435.6</ele>
        <time>2022-09-04T08:17:07Z</time>
      </trkpt>
      <trkpt lat="42.98627" lon="-0.24505">
        <ele>1435.8</ele>
        <time>2022-09-04T08:17:09Z</time>
      </trkpt>
      <trkpt lat="42.98629" lon="-0.24514">
        <ele>1435.8</ele>
        <time>2022-09-04T08:17:11Z</time>
      </trkpt>
      <trkpt lat="42.9863" lon="-0.24519">
        <ele>1435.8</ele>
        <time>2022-09-04T08:17:12Z</time>
      </trkpt>
      <trkpt lat="42.98634" lon="-0.24536">
        <ele>1436.6</ele>
        <time>2022-09-04T08:17:16Z</time>
      </trkpt>
      <trkpt lat="42.98633" lon="-0.24555">
        <ele>1437.2</ele>
        <time>2022-09-04T08:17:21Z</time>
      </trkpt>
      <trkpt lat="42.98632" lon="-0.24562">
        <ele>1437.4</ele>
        <time>2022-09-04T08:17:23Z</time>
      </trkpt>
      <trkpt lat="42.9863" lon="-0.24578">
        <ele>1438.2</ele>
        <time>2022-09-04T08:17:28Z</time>
      </trkpt>
      <trkpt lat="42.98629" lon="-0.2458">
        <ele>1438.4</ele>
        <time>2022-09-04T08:17:29Z</time>
      </trkpt>
      <trkpt lat="42.98617" lon="-0.24591">
        <ele>1438.4</ele>
        <time>2022-09-04T08:17:35Z</time>
      </trkpt>
      <trkpt lat="42.9861" lon="-0.24596">
        <ele>1439</ele>
        <time>2022-09-04T08:17:39Z</time>
      </trkpt>
      <trkpt lat="42.98604" lon="-0.24597">
        <ele>1439.6</ele>
        <time>2022-09-04T08:17:42Z</time>
      </trkpt>
      <trkpt lat="42.98594" lon="-0.24597">
        <ele>1440</ele>
        <time>2022-09-04T08:17:46Z</time>
      </trkpt>
      <trkpt lat="42.98583" lon="-0.24601">
        <ele>1440.8</ele>
        <time>2022-09-04T08:17:51Z</time>
      </trkpt>
      <trkpt lat="42.98576" lon="-0.24602">
        <ele>1441.2</ele>
        <time>2022-09-04T08:17:54Z</time>
      </trkpt>
      <trkpt lat="42.98559" lon="-0.24602">
        <ele>1442.4</ele>
        <time>2022-09-04T08:18:01Z</time>
      </trkpt>
      <trkpt lat="42.98538" lon="-0.24597">
        <ele>1443.2</ele>
        <time>2022-09-04T08:18:10Z</time>
      </trkpt>
      <trkpt lat="42.98536" lon="-0.24596">
        <ele>1443.4</ele>
        <time>2022-09-04T08:18:11Z</time>
      </trkpt>
      <trkpt lat="42.98526" lon="-0.24586">
        <ele>1444.2</ele>
        <time>2022-09-04T08:18:17Z</time>
      </trkpt>
      <trkpt lat="42.98517" lon="-0.24575">
        <ele>1445.4</ele>
        <time>2022-09-04T08:18:23Z</time>
      </trkpt>
      <trkpt lat="42.98515" lon="-0.24571">
        <ele>1445.6</ele>
        <time>2022-09-04T08:18:25Z</time>
      </trkpt>
      <trkpt lat="42.9851" lon="-0.24563">
        <ele>1446.4</ele>
        <time>2022-09-04T08:18:29Z</time>
      </trkpt>
      <trkpt lat="42.98506" lon="-0.24557">
        <ele>1447.4</ele>
        <time>2022-09-04T08:18:32Z</time>
      </trkpt>
      <trkpt lat="42.98503" lon="-0.24553">
        <ele>1447.8</ele>
        <time>2022-09-04T08:18:34Z</time>
      </trkpt>
      <trkpt lat="42.98499" lon="-0.24547">
        <ele>1448.4</ele>
        <time>2022-09-04T08:18:37Z</time>
      </trkpt>
      <trkpt lat="42.9849" lon="-0.24536">
        <ele>1449.6</ele>
        <time>2022-09-04T08:18:43Z</time>
      </trkpt>
      <trkpt lat="42.98482" lon="-0.24527">
        <ele>1450.6</ele>
        <time>2022-09-04T08:18:48Z</time>
      </trkpt>
      <trkpt lat="42.98475" lon="-0.2452">
        <ele>1451.4</ele>
        <time>2022-09-04T08:18:52Z</time>
      </trkpt>
      <trkpt lat="42.98471" lon="-0.24516">
        <ele>1451.8</ele>
        <time>2022-09-04T08:18:54Z</time>
      </trkpt>
      <trkpt lat="42.98461" lon="-0.24507">
        <ele>1452.4</ele>
        <time>2022-09-04T08:18:59Z</time>
      </trkpt>
      <trkpt lat="42.98454" lon="-0.24501">
        <ele>1452.8</ele>
        <time>2022-09-04T08:19:02Z</time>
      </trkpt>
      <trkpt lat="42.98444" lon="-0.24491">
        <ele>1453.4</ele>
        <time>2022-09-04T08:19:07Z</time>
      </trkpt>
      <trkpt lat="42.98434" lon="-0.2448">
        <ele>1453.8</ele>
        <time>2022-09-04T08:19:12Z</time>
      </trkpt>
      <trkpt lat="42.98429" lon="-0.24476">
        <ele>1453.8</ele>
        <time>2022-09-04T08:19:14Z</time>
      </trkpt>
      <trkpt lat="42.9841" lon="-0.24467">
        <ele>1454</ele>
        <time>2022-09-04T08:19:22Z</time>
      </trkpt>
      <trkpt lat="42.98399" lon="-0.24461">
        <ele>1454.8</ele>
        <time>2022-09-04T08:19:27Z</time>
      </trkpt>
      <trkpt lat="42.98386" lon="-0.24457">
        <ele>1455.4</ele>
        <time>2022-09-04T08:19:32Z</time>
      </trkpt>
      <trkpt lat="42.9837" lon="-0.24453">
        <ele>1456</ele>
        <time>2022-09-04T08:19:38Z</time>
      </trkpt>
      <trkpt lat="42.98365" lon="-0.2445">
        <ele>1456.2</ele>
        <time>2022-09-04T08:19:40Z</time>
      </trkpt>
      <trkpt lat="42.98348" lon="-0.24447">
        <ele>1456.4</ele>
        <time>2022-09-04T08:19:47Z</time>
      </trkpt>
      <trkpt lat="42.98339" lon="-0.24449">
        <ele>1457</ele>
        <time>2022-09-04T08:19:51Z</time>
      </trkpt>
      <trkpt lat="42.98329" lon="-0.2445">
        <ele>1457.4</ele>
        <time>2022-09-04T08:19:55Z</time>
      </trkpt>
      <trkpt lat="42.98313" lon="-0.24441">
        <ele>1457.8</ele>
        <time>2022-09-04T08:20:02Z</time>
      </trkpt>
      <trkpt lat="42.98305" lon="-0.24431">
        <ele>1458</ele>
        <time>2022-09-04T08:20:05Z</time>
      </trkpt>
      <trkpt lat="42.98302" lon="-0.24427">
        <ele>1458</ele>
        <time>2022-09-04T08:20:06Z</time>
      </trkpt>
      <trkpt lat="42.98299" lon="-0.24423">
        <ele>1458</ele>
        <time>2022-09-04T08:20:07Z</time>
      </trkpt>
      <trkpt lat="42.98295" lon="-0.24421">
        <ele>1457.8</ele>
        <time>2022-09-04T08:20:08Z</time>
      </trkpt>
      <trkpt lat="42.98287" lon="-0.2442">
        <ele>1458</ele>
        <time>2022-09-04T08:20:11Z</time>
      </trkpt>
      <trkpt lat="42.98282" lon="-0.24422">
        <ele>1457.8</ele>
        <time>2022-09-04T08:20:13Z</time>
      </trkpt>
      <trkpt lat="42.98281" lon="-0.24424">
        <ele>1457.8</ele>
        <time>2022-09-04T08:20:14Z</time>
      </trkpt>
      <trkpt lat="42.98279" lon="-0.24427">
        <ele>1457.8</ele>
        <time>2022-09-04T08:20:15Z</time>
      </trkpt>
      <trkpt lat="42.98272" lon="-0.24442">
        <ele>1458.6</ele>
        <time>2022-09-04T08:20:21Z</time>
      </trkpt>
      <trkpt lat="42.9827" lon="-0.24447">
        <ele>1459</ele>
        <time>2022-09-04T08:20:23Z</time>
      </trkpt>
      <trkpt lat="42.98258" lon="-0.24464">
        <ele>1459.4</ele>
        <time>2022-09-04T08:20:30Z</time>
      </trkpt>
      <trkpt lat="42.98251" lon="-0.24471">
        <ele>1460</ele>
        <time>2022-09-04T08:20:34Z</time>
      </trkpt>
      <trkpt lat="42.98246" lon="-0.24476">
        <ele>1460.2</ele>
        <time>2022-09-04T08:20:37Z</time>
      </trkpt>
      <trkpt lat="42.98229" lon="-0.24476">
        <ele>1461.2</ele>
        <time>2022-09-04T08:20:44Z</time>
      </trkpt>
      <trkpt lat="42.98224" lon="-0.24476">
        <ele>1461.4</ele>
        <time>2022-09-04T08:20:46Z</time>
      </trkpt>
      <trkpt lat="42.98213" lon="-0.24476">
        <ele>1462.2</ele>
        <time>2022-09-04T08:20:51Z</time>
      </trkpt>
      <trkpt lat="42.98209" lon="-0.24478">
        <ele>1462.4</ele>
        <time>2022-09-04T08:20:53Z</time>
      </trkpt>
      <trkpt lat="42.98195" lon="-0.24485">
        <ele>1463</ele>
        <time>2022-09-04T08:21:00Z</time>
      </trkpt>
      <trkpt lat="42.98191" lon="-0.24487">
        <ele>1463.6</ele>
        <time>2022-09-04T08:21:02Z</time>
      </trkpt>
      <trkpt lat="42.98184" lon="-0.2449">
        <ele>1464.2</ele>
        <time>2022-09-04T08:21:05Z</time>
      </trkpt>
      <trkpt lat="42.98176" lon="-0.24496">
        <ele>1464.8</ele>
        <time>2022-09-04T08:21:10Z</time>
      </trkpt>
      <trkpt lat="42.98168" lon="-0.24501">
        <ele>1465.2</ele>
        <time>2022-09-04T08:21:14Z</time>
      </trkpt>
      <trkpt lat="42.98163" lon="-0.24503">
        <ele>1465.4</ele>
        <time>2022-09-04T08:21:16Z</time>
      </trkpt>
      <trkpt lat="42.98148" lon="-0.2451">
        <ele>1466.2</ele>
        <time>2022-09-04T08:21:23Z</time>
      </trkpt>
      <trkpt lat="42.98147" lon="-0.24512">
        <ele>1466.4</ele>
        <time>2022-09-04T08:21:24Z</time>
      </trkpt>
      <trkpt lat="42.98135" lon="-0.24523">
        <ele>1466.8</ele>
        <time>2022-09-04T08:21:30Z</time>
      </trkpt>
      <trkpt lat="42.98131" lon="-0.24529">
        <ele>1467.4</ele>
        <time>2022-09-04T08:21:33Z</time>
      </trkpt>
      <trkpt lat="42.98123" lon="-0.2454">
        <ele>1468.2</ele>
        <time>2022-09-04T08:21:38Z</time>
      </trkpt>
      <trkpt lat="42.98122" lon="-0.24541">
        <ele>1468.4</ele>
        <time>2022-09-04T08:21:39Z</time>
      </trkpt>
      <trkpt lat="42.98113" lon="-0.24551">
        <ele>1469</ele>
        <time>2022-09-04T08:21:45Z</time>
      </trkpt>
      <trkpt lat="42.98111" lon="-0.24555">
        <ele>1469.4</ele>
        <time>2022-09-04T08:21:47Z</time>
      </trkpt>
      <trkpt lat="42.9811" lon="-0.24558">
        <ele>1469.6</ele>
        <time>2022-09-04T08:21:48Z</time>
      </trkpt>
      <trkpt lat="42.98103" lon="-0.2457">
        <ele>1470.4</ele>
        <time>2022-09-04T08:21:54Z</time>
      </trkpt>
      <trkpt lat="42.98093" lon="-0.24585">
        <ele>1471.6</ele>
        <time>2022-09-04T08:22:01Z</time>
      </trkpt>
      <trkpt lat="42.98091" lon="-0.24587">
        <ele>1471.8</ele>
        <time>2022-09-04T08:22:02Z</time>
      </trkpt>
      <trkpt lat="42.98082" lon="-0.24599">
        <ele>1472.6</ele>
        <time>2022-09-04T08:22:08Z</time>
      </trkpt>
      <trkpt lat="42.9808" lon="-0.24604">
        <ele>1473</ele>
        <time>2022-09-04T08:22:10Z</time>
      </trkpt>
      <trkpt lat="42.98075" lon="-0.24615">
        <ele>1473.6</ele>
        <time>2022-09-04T08:22:15Z</time>
      </trkpt>
      <trkpt lat="42.98072" lon="-0.24626">
        <ele>1474.2</ele>
        <time>2022-09-04T08:22:19Z</time>
      </trkpt>
      <trkpt lat="42.98069" lon="-0.24641">
        <ele>1474.6</ele>
        <time>2022-09-04T08:22:24Z</time>
      </trkpt>
      <trkpt lat="42.98069" lon="-0.2465">
        <ele>1475.2</ele>
        <time>2022-09-04T08:22:27Z</time>
      </trkpt>
      <trkpt lat="42.98069" lon="-0.24657">
        <ele>1475.6</ele>
        <time>2022-09-04T08:22:30Z</time>
      </trkpt>
      <trkpt lat="42.98068" lon="-0.24659">
        <ele>1475.8</ele>
        <time>2022-09-04T08:22:31Z</time>
      </trkpt>
      <trkpt lat="42.98068" lon="-0.24664">
        <ele>1476.2</ele>
        <time>2022-09-04T08:22:33Z</time>
      </trkpt>
      <trkpt lat="42.98067" lon="-0.24672">
        <ele>1476.8</ele>
        <time>2022-09-04T08:22:37Z</time>
      </trkpt>
      <trkpt lat="42.98067" lon="-0.24682">
        <ele>1477.4</ele>
        <time>2022-09-04T08:22:41Z</time>
      </trkpt>
      <trkpt lat="42.98066" lon="-0.24684">
        <ele>1477.8</ele>
        <time>2022-09-04T08:22:42Z</time>
      </trkpt>
      <trkpt lat="42.98067" lon="-0.24695">
        <ele>1479</ele>
        <time>2022-09-04T08:22:47Z</time>
      </trkpt>
      <trkpt lat="42.98067" lon="-0.24698">
        <ele>1479.2</ele>
        <time>2022-09-04T08:22:48Z</time>
      </trkpt>
      <trkpt lat="42.98067" lon="-0.247">
        <ele>1479.2</ele>
        <time>2022-09-04T08:22:49Z</time>
      </trkpt>
      <trkpt lat="42.98065" lon="-0.24703">
        <ele>1479.8</ele>
        <time>2022-09-04T08:22:51Z</time>
      </trkpt>
      <trkpt lat="42.98063" lon="-0.24703">
        <ele>1480</ele>
        <time>2022-09-04T08:22:52Z</time>
      </trkpt>
      <trkpt lat="42.9806" lon="-0.24702">
        <ele>1480.4</ele>
        <time>2022-09-04T08:22:54Z</time>
      </trkpt>
      <trkpt lat="42.98058" lon="-0.24698">
        <ele>1480.8</ele>
        <time>2022-09-04T08:22:56Z</time>
      </trkpt>
      <trkpt lat="42.98058" lon="-0.24696">
        <ele>1480.8</ele>
        <time>2022-09-04T08:22:57Z</time>
      </trkpt>
      <trkpt lat="42.98057" lon="-0.24691">
        <ele>1481.2</ele>
        <time>2022-09-04T08:22:59Z</time>
      </trkpt>
      <trkpt lat="42.98056" lon="-0.24676">
        <ele>1482.2</ele>
        <time>2022-09-04T08:23:06Z</time>
      </trkpt>
      <trkpt lat="42.98053" lon="-0.24659">
        <ele>1483.4</ele>
        <time>2022-09-04T08:23:13Z</time>
      </trkpt>
      <trkpt lat="42.9805" lon="-0.24642">
        <ele>1484.6</ele>
        <time>2022-09-04T08:23:20Z</time>
      </trkpt>
      <trkpt lat="42.9805" lon="-0.24635">
        <ele>1485.2</ele>
        <time>2022-09-04T08:23:23Z</time>
      </trkpt>
      <trkpt lat="42.98049" lon="-0.24628">
        <ele>1485.8</ele>
        <time>2022-09-04T08:23:26Z</time>
      </trkpt>
      <trkpt lat="42.98049" lon="-0.24615">
        <ele>1486.6</ele>
        <time>2022-09-04T08:23:31Z</time>
      </trkpt>
      <trkpt lat="42.98049" lon="-0.24612">
        <ele>1486.8</ele>
        <time>2022-09-04T08:23:32Z</time>
      </trkpt>
      <trkpt lat="42.9805" lon="-0.24594">
        <ele>1487.8</ele>
        <time>2022-09-04T08:23:38Z</time>
      </trkpt>
      <trkpt lat="42.98051" lon="-0.24591">
        <ele>1487.8</ele>
        <time>2022-09-04T08:23:39Z</time>
      </trkpt>
      <trkpt lat="42.9806" lon="-0.24568">
        <ele>1488.4</ele>
        <time>2022-09-04T08:23:47Z</time>
      </trkpt>
      <trkpt lat="42.98066" lon="-0.24559">
        <ele>1489</ele>
        <time>2022-09-04T08:23:51Z</time>
      </trkpt>
      <trkpt lat="42.98068" lon="-0.24552">
        <ele>1489.4</ele>
        <time>2022-09-04T08:23:54Z</time>
      </trkpt>
      <trkpt lat="42.9807" lon="-0.24542">
        <ele>1490</ele>
        <time>2022-09-04T08:23:58Z</time>
      </trkpt>
      <trkpt lat="42.9807" lon="-0.24535">
        <ele>1490.4</ele>
        <time>2022-09-04T08:24:01Z</time>
      </trkpt>
      <trkpt lat="42.98069" lon="-0.24524">
        <ele>1491.2</ele>
        <time>2022-09-04T08:24:05Z</time>
      </trkpt>
      <trkpt lat="42.98065" lon="-0.24513">
        <ele>1491.6</ele>
        <time>2022-09-04T08:24:09Z</time>
      </trkpt>
      <trkpt lat="42.9806" lon="-0.24501">
        <ele>1492.2</ele>
        <time>2022-09-04T08:24:14Z</time>
      </trkpt>
      <trkpt lat="42.98059" lon="-0.24498">
        <ele>1492.4</ele>
        <time>2022-09-04T08:24:15Z</time>
      </trkpt>
      <trkpt lat="42.9806" lon="-0.24484">
        <ele>1493.2</ele>
        <time>2022-09-04T08:24:20Z</time>
      </trkpt>
      <trkpt lat="42.98062" lon="-0.24479">
        <ele>1493.4</ele>
        <time>2022-09-04T08:24:22Z</time>
      </trkpt>
      <trkpt lat="42.98071" lon="-0.24467">
        <ele>1494.2</ele>
        <time>2022-09-04T08:24:28Z</time>
      </trkpt>
      <trkpt lat="42.98074" lon="-0.24465">
        <ele>1494.4</ele>
        <time>2022-09-04T08:24:30Z</time>
      </trkpt>
      <trkpt lat="42.98084" lon="-0.24457">
        <ele>1495.2</ele>
        <time>2022-09-04T08:24:36Z</time>
      </trkpt>
      <trkpt lat="42.9809" lon="-0.24454">
        <ele>1495.6</ele>
        <time>2022-09-04T08:24:39Z</time>
      </trkpt>
      <trkpt lat="42.98099" lon="-0.24449">
        <ele>1496.2</ele>
        <time>2022-09-04T08:24:44Z</time>
      </trkpt>
      <trkpt lat="42.98104" lon="-0.24446">
        <ele>1496.6</ele>
        <time>2022-09-04T08:24:47Z</time>
      </trkpt>
      <trkpt lat="42.98112" lon="-0.24441">
        <ele>1497.2</ele>
        <time>2022-09-04T08:24:52Z</time>
      </trkpt>
      <trkpt lat="42.98121" lon="-0.24437">
        <ele>1498</ele>
        <time>2022-09-04T08:24:57Z</time>
      </trkpt>
      <trkpt lat="42.98125" lon="-0.24435">
        <ele>1498.2</ele>
        <time>2022-09-04T08:24:59Z</time>
      </trkpt>
      <trkpt lat="42.98135" lon="-0.24428">
        <ele>1499.4</ele>
        <time>2022-09-04T08:25:05Z</time>
      </trkpt>
      <trkpt lat="42.98136" lon="-0.24427">
        <ele>1499.6</ele>
        <time>2022-09-04T08:25:06Z</time>
      </trkpt>
      <trkpt lat="42.98143" lon="-0.24418">
        <ele>1500.8</ele>
        <time>2022-09-04T08:25:11Z</time>
      </trkpt>
      <trkpt lat="42.98145" lon="-0.24413">
        <ele>1501.2</ele>
        <time>2022-09-04T08:25:13Z</time>
      </trkpt>
      <trkpt lat="42.98146" lon="-0.24396">
        <ele>1501.8</ele>
        <time>2022-09-04T08:25:19Z</time>
      </trkpt>
      <trkpt lat="42.98148" lon="-0.24375">
        <ele>1502.8</ele>
        <time>2022-09-04T08:25:27Z</time>
      </trkpt>
      <trkpt lat="42.98151" lon="-0.24371">
        <ele>1503</ele>
        <time>2022-09-04T08:25:29Z</time>
      </trkpt>
      <trkpt lat="42.98157" lon="-0.24361">
        <ele>1503.6</ele>
        <time>2022-09-04T08:25:34Z</time>
      </trkpt>
      <trkpt lat="42.98161" lon="-0.24355">
        <ele>1504</ele>
        <time>2022-09-04T08:25:37Z</time>
      </trkpt>
      <trkpt lat="42.98167" lon="-0.24347">
        <ele>1504.6</ele>
        <time>2022-09-04T08:25:41Z</time>
      </trkpt>
      <trkpt lat="42.9817" lon="-0.24343">
        <ele>1505</ele>
        <time>2022-09-04T08:25:43Z</time>
      </trkpt>
      <trkpt lat="42.98178" lon="-0.24333">
        <ele>1506.2</ele>
        <time>2022-09-04T08:25:49Z</time>
      </trkpt>
      <trkpt lat="42.98181" lon="-0.24331">
        <ele>1506.6</ele>
        <time>2022-09-04T08:25:51Z</time>
      </trkpt>
      <trkpt lat="42.9819" lon="-0.24323">
        <ele>1507.4</ele>
        <time>2022-09-04T08:25:57Z</time>
      </trkpt>
      <trkpt lat="42.98195" lon="-0.24319">
        <ele>1507.8</ele>
        <time>2022-09-04T08:26:00Z</time>
      </trkpt>
      <trkpt lat="42.98201" lon="-0.24312">
        <ele>1508.4</ele>
        <time>2022-09-04T08:26:04Z</time>
      </trkpt>
      <trkpt lat="42.98207" lon="-0.24307">
        <ele>1509</ele>
        <time>2022-09-04T08:26:07Z</time>
      </trkpt>
      <trkpt lat="42.98214" lon="-0.243">
        <ele>1509.6</ele>
        <time>2022-09-04T08:26:11Z</time>
      </trkpt>
      <trkpt lat="42.98222" lon="-0.24288">
        <ele>1509.8</ele>
        <time>2022-09-04T08:26:17Z</time>
      </trkpt>
      <trkpt lat="42.98231" lon="-0.24266">
        <ele>1510.6</ele>
        <time>2022-09-04T08:26:26Z</time>
      </trkpt>
      <trkpt lat="42.98235" lon="-0.24246">
        <ele>1511.6</ele>
        <time>2022-09-04T08:26:34Z</time>
      </trkpt>
      <trkpt lat="42.98236" lon="-0.24238">
        <ele>1511.8</ele>
        <time>2022-09-04T08:26:37Z</time>
      </trkpt>
      <trkpt lat="42.9824" lon="-0.24217">
        <ele>1513</ele>
        <time>2022-09-04T08:26:45Z</time>
      </trkpt>
      <trkpt lat="42.98247" lon="-0.24199">
        <ele>1514.2</ele>
        <time>2022-09-04T08:26:52Z</time>
      </trkpt>
      <trkpt lat="42.98249" lon="-0.24195">
        <ele>1514.2</ele>
        <time>2022-09-04T08:26:54Z</time>
      </trkpt>
      <trkpt lat="42.98256" lon="-0.24177">
        <ele>1515</ele>
        <time>2022-09-04T08:27:02Z</time>
      </trkpt>
      <trkpt lat="42.98258" lon="-0.24174">
        <ele>1515.2</ele>
        <time>2022-09-04T08:27:04Z</time>
      </trkpt>
      <trkpt lat="42.98261" lon="-0.24166">
        <ele>1516</ele>
        <time>2022-09-04T08:27:08Z</time>
      </trkpt>
      <trkpt lat="42.98265" lon="-0.2416">
        <ele>1516.8</ele>
        <time>2022-09-04T08:27:11Z</time>
      </trkpt>
      <trkpt lat="42.98266" lon="-0.24156">
        <ele>1517.2</ele>
        <time>2022-09-04T08:27:13Z</time>
      </trkpt>
      <trkpt lat="42.98271" lon="-0.24143">
        <ele>1518</ele>
        <time>2022-09-04T08:27:19Z</time>
      </trkpt>
      <trkpt lat="42.98272" lon="-0.24141">
        <ele>1518.2</ele>
        <time>2022-09-04T08:27:20Z</time>
      </trkpt>
      <trkpt lat="42.98278" lon="-0.24129">
        <ele>1519.2</ele>
        <time>2022-09-04T08:27:26Z</time>
      </trkpt>
      <trkpt lat="42.98277" lon="-0.24122">
        <ele>1520</ele>
        <time>2022-09-04T08:27:30Z</time>
      </trkpt>
      <trkpt lat="42.98276" lon="-0.24121">
        <ele>1520</ele>
        <time>2022-09-04T08:27:31Z</time>
      </trkpt>
      <trkpt lat="42.98274" lon="-0.24121">
        <ele>1520.2</ele>
        <time>2022-09-04T08:27:32Z</time>
      </trkpt>
      <trkpt lat="42.98269" lon="-0.24127">
        <ele>1520.8</ele>
        <time>2022-09-04T08:27:35Z</time>
      </trkpt>
      <trkpt lat="42.98258" lon="-0.24147">
        <ele>1521.2</ele>
        <time>2022-09-04T08:27:42Z</time>
      </trkpt>
      <trkpt lat="42.9825" lon="-0.24162">
        <ele>1521.2</ele>
        <time>2022-09-04T08:27:48Z</time>
      </trkpt>
      <trkpt lat="42.98238" lon="-0.24189">
        <ele>1521</ele>
        <time>2022-09-04T08:27:55Z</time>
      </trkpt>
      <trkpt lat="42.98226" lon="-0.24224">
        <ele>1520.2</ele>
        <time>2022-09-04T08:28:02Z</time>
      </trkpt>
      <trkpt lat="42.98215" lon="-0.24259">
        <ele>1519.8</ele>
        <time>2022-09-04T08:28:07Z</time>
      </trkpt>
      <trkpt lat="42.98203" lon="-0.2428">
        <ele>1519.4</ele>
        <time>2022-09-04T08:28:10Z</time>
      </trkpt>
      <trkpt lat="42.98193" lon="-0.24292">
        <ele>1519</ele>
        <time>2022-09-04T08:28:12Z</time>
      </trkpt>
      <trkpt lat="42.98188" lon="-0.24297">
        <ele>1518.6</ele>
        <time>2022-09-04T08:28:13Z</time>
      </trkpt>
      <trkpt lat="42.98169" lon="-0.24315">
        <ele>1517.4</ele>
        <time>2022-09-04T08:28:17Z</time>
      </trkpt>
      <trkpt lat="42.98159" lon="-0.24325">
        <ele>1516.8</ele>
        <time>2022-09-04T08:28:19Z</time>
      </trkpt>
      <trkpt lat="42.98149" lon="-0.24335">
        <ele>1516.4</ele>
        <time>2022-09-04T08:28:21Z</time>
      </trkpt>
      <trkpt lat="42.98132" lon="-0.24355">
        <ele>1515.8</ele>
        <time>2022-09-04T08:28:25Z</time>
      </trkpt>
      <trkpt lat="42.98099" lon="-0.24391">
        <ele>1515.4</ele>
        <time>2022-09-04T08:28:32Z</time>
      </trkpt>
      <trkpt lat="42.98076" lon="-0.24408">
        <ele>1514.2</ele>
        <time>2022-09-04T08:28:36Z</time>
      </trkpt>
      <trkpt lat="42.98063" lon="-0.24416">
        <ele>1513.8</ele>
        <time>2022-09-04T08:28:38Z</time>
      </trkpt>
      <trkpt lat="42.98057" lon="-0.24422">
        <ele>1513.6</ele>
        <time>2022-09-04T08:28:39Z</time>
      </trkpt>
      <trkpt lat="42.98045" lon="-0.24434">
        <ele>1513.2</ele>
        <time>2022-09-04T08:28:41Z</time>
      </trkpt>
      <trkpt lat="42.9804" lon="-0.24441">
        <ele>1512.6</ele>
        <time>2022-09-04T08:28:42Z</time>
      </trkpt>
      <trkpt lat="42.98035" lon="-0.24448">
        <ele>1512.2</ele>
        <time>2022-09-04T08:28:43Z</time>
      </trkpt>
      <trkpt lat="42.9803" lon="-0.24455">
        <ele>1511.8</ele>
        <time>2022-09-04T08:28:44Z</time>
      </trkpt>
      <trkpt lat="42.98024" lon="-0.24471">
        <ele>1511.6</ele>
        <time>2022-09-04T08:28:46Z</time>
      </trkpt>
      <trkpt lat="42.98021" lon="-0.2449">
        <ele>1511.2</ele>
        <time>2022-09-04T08:28:48Z</time>
      </trkpt>
      <trkpt lat="42.9802" lon="-0.24499">
        <ele>1511</ele>
        <time>2022-09-04T08:28:49Z</time>
      </trkpt>
      <trkpt lat="42.98021" lon="-0.24509">
        <ele>1510.8</ele>
        <time>2022-09-04T08:28:50Z</time>
      </trkpt>
      <trkpt lat="42.98023" lon="-0.24538">
        <ele>1510.2</ele>
        <time>2022-09-04T08:28:53Z</time>
      </trkpt>
      <trkpt lat="42.98023" lon="-0.24547">
        <ele>1510</ele>
        <time>2022-09-04T08:28:54Z</time>
      </trkpt>
      <trkpt lat="42.98022" lon="-0.24556">
        <ele>1509.6</ele>
        <time>2022-09-04T08:28:55Z</time>
      </trkpt>
      <trkpt lat="42.98016" lon="-0.24619">
        <ele>1509</ele>
        <time>2022-09-04T08:29:02Z</time>
      </trkpt>
      <trkpt lat="42.98014" lon="-0.24628">
        <ele>1509</ele>
        <time>2022-09-04T08:29:03Z</time>
      </trkpt>
      <trkpt lat="42.98013" lon="-0.24637">
        <ele>1508.8</ele>
        <time>2022-09-04T08:29:04Z</time>
      </trkpt>
      <trkpt lat="42.98011" lon="-0.24646">
        <ele>1508.8</ele>
        <time>2022-09-04T08:29:05Z</time>
      </trkpt>
      <trkpt lat="42.98004" lon="-0.24661">
        <ele>1508.6</ele>
        <time>2022-09-04T08:29:07Z</time>
      </trkpt>
      <trkpt lat="42.97991" lon="-0.24674">
        <ele>1507.8</ele>
        <time>2022-09-04T08:29:10Z</time>
      </trkpt>
      <trkpt lat="42.97968" lon="-0.24692">
        <ele>1507</ele>
        <time>2022-09-04T08:29:15Z</time>
      </trkpt>
      <trkpt lat="42.97958" lon="-0.24697">
        <ele>1507</ele>
        <time>2022-09-04T08:29:17Z</time>
      </trkpt>
      <trkpt lat="42.97941" lon="-0.24703">
        <ele>1506.6</ele>
        <time>2022-09-04T08:29:20Z</time>
      </trkpt>
      <trkpt lat="42.97936" lon="-0.24704">
        <ele>1506.6</ele>
        <time>2022-09-04T08:29:21Z</time>
      </trkpt>
      <trkpt lat="42.9792" lon="-0.24709">
        <ele>1506.2</ele>
        <time>2022-09-04T08:29:24Z</time>
      </trkpt>
      <trkpt lat="42.97904" lon="-0.24715">
        <ele>1505.2</ele>
        <time>2022-09-04T08:29:27Z</time>
      </trkpt>
      <trkpt lat="42.97894" lon="-0.24723">
        <ele>1505.2</ele>
        <time>2022-09-04T08:29:29Z</time>
      </trkpt>
      <trkpt lat="42.97854" lon="-0.2476">
        <ele>1504.6</ele>
        <time>2022-09-04T08:29:37Z</time>
      </trkpt>
      <trkpt lat="42.97838" lon="-0.2477">
        <ele>1504.2</ele>
        <time>2022-09-04T08:29:40Z</time>
      </trkpt>
      <trkpt lat="42.97828" lon="-0.24775">
        <ele>1503.8</ele>
        <time>2022-09-04T08:29:42Z</time>
      </trkpt>
      <trkpt lat="42.97816" lon="-0.24776">
        <ele>1503.6</ele>
        <time>2022-09-04T08:29:44Z</time>
      </trkpt>
      <trkpt lat="42.97804" lon="-0.24773">
        <ele>1503.4</ele>
        <time>2022-09-04T08:29:46Z</time>
      </trkpt>
      <trkpt lat="42.97798" lon="-0.24771">
        <ele>1502.8</ele>
        <time>2022-09-04T08:29:47Z</time>
      </trkpt>
      <trkpt lat="42.97771" lon="-0.24759">
        <ele>1502</ele>
        <time>2022-09-04T08:29:51Z</time>
      </trkpt>
      <trkpt lat="42.9776" lon="-0.24751">
        <ele>1501.8</ele>
        <time>2022-09-04T08:29:53Z</time>
      </trkpt>
      <trkpt lat="42.97753" lon="-0.2474">
        <ele>1501.2</ele>
        <time>2022-09-04T08:29:55Z</time>
      </trkpt>
      <trkpt lat="42.97744" lon="-0.24719">
        <ele>1500.6</ele>
        <time>2022-09-04T08:29:58Z</time>
      </trkpt>
      <trkpt lat="42.97739" lon="-0.24713">
        <ele>1500</ele>
        <time>2022-09-04T08:29:59Z</time>
      </trkpt>
      <trkpt lat="42.97734" lon="-0.24709">
        <ele>1499.6</ele>
        <time>2022-09-04T08:30:00Z</time>
      </trkpt>
      <trkpt lat="42.97728" lon="-0.24705">
        <ele>1499.2</ele>
        <time>2022-09-04T08:30:01Z</time>
      </trkpt>
      <trkpt lat="42.97716" lon="-0.247">
        <ele>1498.8</ele>
        <time>2022-09-04T08:30:03Z</time>
      </trkpt>
      <trkpt lat="42.97682" lon="-0.2469">
        <ele>1498.4</ele>
        <time>2022-09-04T08:30:08Z</time>
      </trkpt>
      <trkpt lat="42.97669" lon="-0.24689">
        <ele>1498.2</ele>
        <time>2022-09-04T08:30:10Z</time>
      </trkpt>
      <trkpt lat="42.97649" lon="-0.2469">
        <ele>1498.2</ele>
        <time>2022-09-04T08:30:13Z</time>
      </trkpt>
      <trkpt lat="42.97643" lon="-0.24692">
        <ele>1498</ele>
        <time>2022-09-04T08:30:14Z</time>
      </trkpt>
      <trkpt lat="42.97637" lon="-0.24695">
        <ele>1498</ele>
        <time>2022-09-04T08:30:15Z</time>
      </trkpt>
      <trkpt lat="42.97625" lon="-0.24703">
        <ele>1497.6</ele>
        <time>2022-09-04T08:30:17Z</time>
      </trkpt>
      <trkpt lat="42.97613" lon="-0.24715">
        <ele>1497.2</ele>
        <time>2022-09-04T08:30:19Z</time>
      </trkpt>
      <trkpt lat="42.97603" lon="-0.24727">
        <ele>1496.6</ele>
        <time>2022-09-04T08:30:21Z</time>
      </trkpt>
      <trkpt lat="42.97592" lon="-0.24734">
        <ele>1496.2</ele>
        <time>2022-09-04T08:30:23Z</time>
      </trkpt>
      <trkpt lat="42.97569" lon="-0.24747">
        <ele>1496.2</ele>
        <time>2022-09-04T08:30:28Z</time>
      </trkpt>
      <trkpt lat="42.97545" lon="-0.24759">
        <ele>1496.2</ele>
        <time>2022-09-04T08:30:33Z</time>
      </trkpt>
      <trkpt lat="42.97536" lon="-0.24757">
        <ele>1496.4</ele>
        <time>2022-09-04T08:30:35Z</time>
      </trkpt>
      <trkpt lat="42.97532" lon="-0.24753">
        <ele>1496.6</ele>
        <time>2022-09-04T08:30:36Z</time>
      </trkpt>
      <trkpt lat="42.97528" lon="-0.24748">
        <ele>1496.6</ele>
        <time>2022-09-04T08:30:37Z</time>
      </trkpt>
      <trkpt lat="42.97518" lon="-0.2473">
        <ele>1496.8</ele>
        <time>2022-09-04T08:30:41Z</time>
      </trkpt>
      <trkpt lat="42.97505" lon="-0.24727">
        <ele>1496.8</ele>
        <time>2022-09-04T08:30:45Z</time>
      </trkpt>
      <trkpt lat="42.97482" lon="-0.24733">
        <ele>1496.6</ele>
        <time>2022-09-04T08:30:52Z</time>
      </trkpt>
      <trkpt lat="42.97468" lon="-0.24731">
        <ele>1496.8</ele>
        <time>2022-09-04T08:30:57Z</time>
      </trkpt>
      <trkpt lat="42.97446" lon="-0.24735">
        <ele>1497.6</ele>
        <time>2022-09-04T08:31:05Z</time>
      </trkpt>
      <trkpt lat="42.97429" lon="-0.24741">
        <ele>1498.6</ele>
        <time>2022-09-04T08:31:12Z</time>
      </trkpt>
      <trkpt lat="42.97428" lon="-0.24742">
        <ele>1498.8</ele>
        <time>2022-09-04T08:31:13Z</time>
      </trkpt>
      <trkpt lat="42.9742" lon="-0.24747">
        <ele>1499.8</ele>
        <time>2022-09-04T08:31:17Z</time>
      </trkpt>
      <trkpt lat="42.97419" lon="-0.24749">
        <ele>1500</ele>
        <time>2022-09-04T08:31:18Z</time>
      </trkpt>
      <trkpt lat="42.97411" lon="-0.24755">
        <ele>1501.2</ele>
        <time>2022-09-04T08:31:22Z</time>
      </trkpt>
      <trkpt lat="42.97409" lon="-0.24756">
        <ele>1501.2</ele>
        <time>2022-09-04T08:31:23Z</time>
      </trkpt>
      <trkpt lat="42.97402" lon="-0.24759">
        <ele>1502.2</ele>
        <time>2022-09-04T08:31:27Z</time>
      </trkpt>
      <trkpt lat="42.9739" lon="-0.24761">
        <ele>1503.4</ele>
        <time>2022-09-04T08:31:33Z</time>
      </trkpt>
      <trkpt lat="42.97379" lon="-0.2476">
        <ele>1504.6</ele>
        <time>2022-09-04T08:31:38Z</time>
      </trkpt>
      <trkpt lat="42.97372" lon="-0.24759">
        <ele>1505.2</ele>
        <time>2022-09-04T08:31:41Z</time>
      </trkpt>
      <trkpt lat="42.97366" lon="-0.24757">
        <ele>1505.6</ele>
        <time>2022-09-04T08:31:44Z</time>
      </trkpt>
      <trkpt lat="42.97359" lon="-0.24755">
        <ele>1506.6</ele>
        <time>2022-09-04T08:31:48Z</time>
      </trkpt>
      <trkpt lat="42.97348" lon="-0.24758">
        <ele>1507.8</ele>
        <time>2022-09-04T08:31:54Z</time>
      </trkpt>
      <trkpt lat="42.97346" lon="-0.24759">
        <ele>1508</ele>
        <time>2022-09-04T08:31:55Z</time>
      </trkpt>
      <trkpt lat="42.9734" lon="-0.24762">
        <ele>1509</ele>
        <time>2022-09-04T08:31:58Z</time>
      </trkpt>
      <trkpt lat="42.9733" lon="-0.24765">
        <ele>1510.2</ele>
        <time>2022-09-04T08:32:03Z</time>
      </trkpt>
      <trkpt lat="42.97313" lon="-0.24771">
        <ele>1511.2</ele>
        <time>2022-09-04T08:32:11Z</time>
      </trkpt>
      <trkpt lat="42.97311" lon="-0.24772">
        <ele>1511.4</ele>
        <time>2022-09-04T08:32:12Z</time>
      </trkpt>
      <trkpt lat="42.97295" lon="-0.24783">
        <ele>1512.2</ele>
        <time>2022-09-04T08:32:20Z</time>
      </trkpt>
      <trkpt lat="42.97292" lon="-0.24786">
        <ele>1512.4</ele>
        <time>2022-09-04T08:32:22Z</time>
      </trkpt>
      <trkpt lat="42.97286" lon="-0.24792">
        <ele>1513.2</ele>
        <time>2022-09-04T08:32:26Z</time>
      </trkpt>
      <trkpt lat="42.97283" lon="-0.24797">
        <ele>1513.6</ele>
        <time>2022-09-04T08:32:28Z</time>
      </trkpt>
      <trkpt lat="42.97277" lon="-0.24809">
        <ele>1514.2</ele>
        <time>2022-09-04T08:32:33Z</time>
      </trkpt>
      <trkpt lat="42.97276" lon="-0.24811">
        <ele>1514.2</ele>
        <time>2022-09-04T08:32:34Z</time>
      </trkpt>
      <trkpt lat="42.97271" lon="-0.24819">
        <ele>1514.6</ele>
        <time>2022-09-04T08:32:37Z</time>
      </trkpt>
      <trkpt lat="42.97267" lon="-0.24829">
        <ele>1514.8</ele>
        <time>2022-09-04T08:32:41Z</time>
      </trkpt>
      <trkpt lat="42.97256" lon="-0.24851">
        <ele>1515.4</ele>
        <time>2022-09-04T08:32:49Z</time>
      </trkpt>
      <trkpt lat="42.97255" lon="-0.24854">
        <ele>1515.4</ele>
        <time>2022-09-04T08:32:50Z</time>
      </trkpt>
      <trkpt lat="42.97244" lon="-0.24871">
        <ele>1516</ele>
        <time>2022-09-04T08:32:57Z</time>
      </trkpt>
      <trkpt lat="42.97239" lon="-0.24877">
        <ele>1516.6</ele>
        <time>2022-09-04T08:33:00Z</time>
      </trkpt>
      <trkpt lat="42.97229" lon="-0.24888">
        <ele>1517</ele>
        <time>2022-09-04T08:33:04Z</time>
      </trkpt>
      <trkpt lat="42.97227" lon="-0.24891">
        <ele>1517.2</ele>
        <time>2022-09-04T08:33:05Z</time>
      </trkpt>
      <trkpt lat="42.97217" lon="-0.24903">
        <ele>1517.4</ele>
        <time>2022-09-04T08:33:08Z</time>
      </trkpt>
      <trkpt lat="42.97208" lon="-0.24912">
        <ele>1517.4</ele>
        <time>2022-09-04T08:33:10Z</time>
      </trkpt>
      <trkpt lat="42.97202" lon="-0.24925">
        <ele>1517.4</ele>
        <time>2022-09-04T08:33:12Z</time>
      </trkpt>
      <trkpt lat="42.972" lon="-0.24932">
        <ele>1517.2</ele>
        <time>2022-09-04T08:33:13Z</time>
      </trkpt>
      <trkpt lat="42.97195" lon="-0.2496">
        <ele>1516.6</ele>
        <time>2022-09-04T08:33:18Z</time>
      </trkpt>
      <trkpt lat="42.97189" lon="-0.24983">
        <ele>1516.8</ele>
        <time>2022-09-04T08:33:23Z</time>
      </trkpt>
      <trkpt lat="42.97185" lon="-0.25007">
        <ele>1517.4</ele>
        <time>2022-09-04T08:33:28Z</time>
      </trkpt>
      <trkpt lat="42.97185" lon="-0.2502">
        <ele>1517.4</ele>
        <time>2022-09-04T08:33:30Z</time>
      </trkpt>
      <trkpt lat="42.97181" lon="-0.25068">
        <ele>1517.2</ele>
        <time>2022-09-04T08:33:38Z</time>
      </trkpt>
      <trkpt lat="42.97175" lon="-0.25101">
        <ele>1517.4</ele>
        <time>2022-09-04T08:33:45Z</time>
      </trkpt>
      <trkpt lat="42.97175" lon="-0.25106">
        <ele>1517.4</ele>
        <time>2022-09-04T08:33:46Z</time>
      </trkpt>
      <trkpt lat="42.97171" lon="-0.2513">
        <ele>1518.4</ele>
        <time>2022-09-04T08:33:52Z</time>
      </trkpt>
      <trkpt lat="42.97172" lon="-0.25144">
        <ele>1518.4</ele>
        <time>2022-09-04T08:33:55Z</time>
      </trkpt>
      <trkpt lat="42.97175" lon="-0.25154">
        <ele>1518.6</ele>
        <time>2022-09-04T08:33:57Z</time>
      </trkpt>
      <trkpt lat="42.9718" lon="-0.25171">
        <ele>1518.8</ele>
        <time>2022-09-04T08:34:00Z</time>
      </trkpt>
      <trkpt lat="42.97182" lon="-0.25184">
        <ele>1518.8</ele>
        <time>2022-09-04T08:34:02Z</time>
      </trkpt>
      <trkpt lat="42.97184" lon="-0.25191">
        <ele>1518.6</ele>
        <time>2022-09-04T08:34:03Z</time>
      </trkpt>
      <trkpt lat="42.97187" lon="-0.25205">
        <ele>1518.4</ele>
        <time>2022-09-04T08:34:05Z</time>
      </trkpt>
      <trkpt lat="42.97191" lon="-0.2522">
        <ele>1518.2</ele>
        <time>2022-09-04T08:34:07Z</time>
      </trkpt>
      <trkpt lat="42.97194" lon="-0.25234">
        <ele>1517.8</ele>
        <time>2022-09-04T08:34:09Z</time>
      </trkpt>
      <trkpt lat="42.97199" lon="-0.25249">
        <ele>1517.4</ele>
        <time>2022-09-04T08:34:11Z</time>
      </trkpt>
      <trkpt lat="42.97201" lon="-0.25256">
        <ele>1517.4</ele>
        <time>2022-09-04T08:34:12Z</time>
      </trkpt>
      <trkpt lat="42.97206" lon="-0.25282">
        <ele>1517</ele>
        <time>2022-09-04T08:34:15Z</time>
      </trkpt>
      <trkpt lat="42.97207" lon="-0.25291">
        <ele>1516.6</ele>
        <time>2022-09-04T08:34:16Z</time>
      </trkpt>
      <trkpt lat="42.97207" lon="-0.253">
        <ele>1516.2</ele>
        <time>2022-09-04T08:34:17Z</time>
      </trkpt>
      <trkpt lat="42.97206" lon="-0.25325">
        <ele>1515</ele>
        <time>2022-09-04T08:34:20Z</time>
      </trkpt>
      <trkpt lat="42.97205" lon="-0.25332">
        <ele>1514.8</ele>
        <time>2022-09-04T08:34:21Z</time>
      </trkpt>
      <trkpt lat="42.97201" lon="-0.25378">
        <ele>1514.2</ele>
        <time>2022-09-04T08:34:27Z</time>
      </trkpt>
      <trkpt lat="42.97198" lon="-0.25397">
        <ele>1513.8</ele>
        <time>2022-09-04T08:34:29Z</time>
      </trkpt>
      <trkpt lat="42.97196" lon="-0.25407">
        <ele>1513.6</ele>
        <time>2022-09-04T08:34:30Z</time>
      </trkpt>
      <trkpt lat="42.97193" lon="-0.25417">
        <ele>1513.4</ele>
        <time>2022-09-04T08:34:31Z</time>
      </trkpt>
      <trkpt lat="42.97183" lon="-0.25445">
        <ele>1512</ele>
        <time>2022-09-04T08:34:34Z</time>
      </trkpt>
      <trkpt lat="42.97175" lon="-0.25464">
        <ele>1510.8</ele>
        <time>2022-09-04T08:34:36Z</time>
      </trkpt>
      <trkpt lat="42.97168" lon="-0.25485">
        <ele>1509.8</ele>
        <time>2022-09-04T08:34:38Z</time>
      </trkpt>
      <trkpt lat="42.9716" lon="-0.25506">
        <ele>1509.4</ele>
        <time>2022-09-04T08:34:40Z</time>
      </trkpt>
      <trkpt lat="42.9715" lon="-0.25536">
        <ele>1508.2</ele>
        <time>2022-09-04T08:34:43Z</time>
      </trkpt>
      <trkpt lat="42.97147" lon="-0.25545">
        <ele>1508</ele>
        <time>2022-09-04T08:34:44Z</time>
      </trkpt>
      <trkpt lat="42.97137" lon="-0.2557">
        <ele>1507.2</ele>
        <time>2022-09-04T08:34:47Z</time>
      </trkpt>
      <trkpt lat="42.97132" lon="-0.25575">
        <ele>1507</ele>
        <time>2022-09-04T08:34:48Z</time>
      </trkpt>
      <trkpt lat="42.97127" lon="-0.25579">
        <ele>1506.8</ele>
        <time>2022-09-04T08:34:49Z</time>
      </trkpt>
      <trkpt lat="42.97118" lon="-0.25586">
        <ele>1506.2</ele>
        <time>2022-09-04T08:34:51Z</time>
      </trkpt>
      <trkpt lat="42.97115" lon="-0.25592">
        <ele>1505.6</ele>
        <time>2022-09-04T08:34:52Z</time>
      </trkpt>
      <trkpt lat="42.97115" lon="-0.25599">
        <ele>1505.2</ele>
        <time>2022-09-04T08:34:53Z</time>
      </trkpt>
      <trkpt lat="42.97121" lon="-0.25609">
        <ele>1504.6</ele>
        <time>2022-09-04T08:34:55Z</time>
      </trkpt>
      <trkpt lat="42.97124" lon="-0.25613">
        <ele>1504.4</ele>
        <time>2022-09-04T08:34:56Z</time>
      </trkpt>
      <trkpt lat="42.97127" lon="-0.25618">
        <ele>1504.2</ele>
        <time>2022-09-04T08:34:57Z</time>
      </trkpt>
      <trkpt lat="42.97132" lon="-0.25638">
        <ele>1504</ele>
        <time>2022-09-04T08:35:01Z</time>
      </trkpt>
      <trkpt lat="42.97133" lon="-0.25644">
        <ele>1504</ele>
        <time>2022-09-04T08:35:02Z</time>
      </trkpt>
      <trkpt lat="42.97135" lon="-0.25682">
        <ele>1504.8</ele>
        <time>2022-09-04T08:35:09Z</time>
      </trkpt>
      <trkpt lat="42.97134" lon="-0.25699">
        <ele>1505.4</ele>
        <time>2022-09-04T08:35:13Z</time>
      </trkpt>
      <trkpt lat="42.97133" lon="-0.25702">
        <ele>1505.4</ele>
        <time>2022-09-04T08:35:14Z</time>
      </trkpt>
      <trkpt lat="42.97129" lon="-0.25721">
        <ele>1506.6</ele>
        <time>2022-09-04T08:35:19Z</time>
      </trkpt>
      <trkpt lat="42.97126" lon="-0.25728">
        <ele>1507.2</ele>
        <time>2022-09-04T08:35:21Z</time>
      </trkpt>
      <trkpt lat="42.97125" lon="-0.25731">
        <ele>1507.8</ele>
        <time>2022-09-04T08:35:22Z</time>
      </trkpt>
      <trkpt lat="42.97119" lon="-0.25745">
        <ele>1509</ele>
        <time>2022-09-04T08:35:26Z</time>
      </trkpt>
      <trkpt lat="42.97117" lon="-0.25752">
        <ele>1509.2</ele>
        <time>2022-09-04T08:35:28Z</time>
      </trkpt>
      <trkpt lat="42.97112" lon="-0.25769">
        <ele>1510</ele>
        <time>2022-09-04T08:35:32Z</time>
      </trkpt>
      <trkpt lat="42.9711" lon="-0.25784">
        <ele>1510.4</ele>
        <time>2022-09-04T08:35:35Z</time>
      </trkpt>
      <trkpt lat="42.97108" lon="-0.25817">
        <ele>1511</ele>
        <time>2022-09-04T08:35:41Z</time>
      </trkpt>
      <trkpt lat="42.97109" lon="-0.25824">
        <ele>1510.8</ele>
        <time>2022-09-04T08:35:42Z</time>
      </trkpt>
      <trkpt lat="42.9711" lon="-0.25829">
        <ele>1510.8</ele>
        <time>2022-09-04T08:35:43Z</time>
      </trkpt>
      <trkpt lat="42.97113" lon="-0.25833">
        <ele>1510.8</ele>
        <time>2022-09-04T08:35:44Z</time>
      </trkpt>
      <trkpt lat="42.97125" lon="-0.25845">
        <ele>1511.2</ele>
        <time>2022-09-04T08:35:49Z</time>
      </trkpt>
      <trkpt lat="42.97132" lon="-0.25854">
        <ele>1512</ele>
        <time>2022-09-04T08:35:52Z</time>
      </trkpt>
      <trkpt lat="42.97136" lon="-0.25866">
        <ele>1512.8</ele>
        <time>2022-09-04T08:35:55Z</time>
      </trkpt>
      <trkpt lat="42.97139" lon="-0.25878">
        <ele>1513.2</ele>
        <time>2022-09-04T08:35:58Z</time>
      </trkpt>
      <trkpt lat="42.97143" lon="-0.25896">
        <ele>1513.6</ele>
        <time>2022-09-04T08:36:03Z</time>
      </trkpt>
      <trkpt lat="42.97148" lon="-0.25905">
        <ele>1514.2</ele>
        <time>2022-09-04T08:36:06Z</time>
      </trkpt>
      <trkpt lat="42.97158" lon="-0.2592">
        <ele>1514.8</ele>
        <time>2022-09-04T08:36:11Z</time>
      </trkpt>
      <trkpt lat="42.9716" lon="-0.25928">
        <ele>1515.4</ele>
        <time>2022-09-04T08:36:13Z</time>
      </trkpt>
      <trkpt lat="42.97166" lon="-0.25953">
        <ele>1516.2</ele>
        <time>2022-09-04T08:36:19Z</time>
      </trkpt>
      <trkpt lat="42.97177" lon="-0.25984">
        <ele>1516.4</ele>
        <time>2022-09-04T08:36:26Z</time>
      </trkpt>
      <trkpt lat="42.97178" lon="-0.25989">
        <ele>1516.4</ele>
        <time>2022-09-04T08:36:27Z</time>
      </trkpt>
      <trkpt lat="42.97184" lon="-0.2601">
        <ele>1516</ele>
        <time>2022-09-04T08:36:32Z</time>
      </trkpt>
      <trkpt lat="42.97193" lon="-0.26044">
        <ele>1515</ele>
        <time>2022-09-04T08:36:37Z</time>
      </trkpt>
      <trkpt lat="42.97198" lon="-0.26071">
        <ele>1514</ele>
        <time>2022-09-04T08:36:40Z</time>
      </trkpt>
      <trkpt lat="42.972" lon="-0.2609">
        <ele>1513.2</ele>
        <time>2022-09-04T08:36:42Z</time>
      </trkpt>
      <trkpt lat="42.97201" lon="-0.26101">
        <ele>1512.8</ele>
        <time>2022-09-04T08:36:43Z</time>
      </trkpt>
      <trkpt lat="42.97204" lon="-0.26131">
        <ele>1512.4</ele>
        <time>2022-09-04T08:36:46Z</time>
      </trkpt>
      <trkpt lat="42.97204" lon="-0.26141">
        <ele>1511.4</ele>
        <time>2022-09-04T08:36:47Z</time>
      </trkpt>
      <trkpt lat="42.97204" lon="-0.26151">
        <ele>1510.8</ele>
        <time>2022-09-04T08:36:48Z</time>
      </trkpt>
      <trkpt lat="42.97204" lon="-0.26162">
        <ele>1510</ele>
        <time>2022-09-04T08:36:49Z</time>
      </trkpt>
      <trkpt lat="42.97204" lon="-0.26184">
        <ele>1508.4</ele>
        <time>2022-09-04T08:36:51Z</time>
      </trkpt>
      <trkpt lat="42.97203" lon="-0.26207">
        <ele>1506.8</ele>
        <time>2022-09-04T08:36:53Z</time>
      </trkpt>
      <trkpt lat="42.972" lon="-0.2623">
        <ele>1505.8</ele>
        <time>2022-09-04T08:36:55Z</time>
      </trkpt>
      <trkpt lat="42.97198" lon="-0.26253">
        <ele>1504.4</ele>
        <time>2022-09-04T08:36:57Z</time>
      </trkpt>
      <trkpt lat="42.97197" lon="-0.26264">
        <ele>1503.2</ele>
        <time>2022-09-04T08:36:58Z</time>
      </trkpt>
      <trkpt lat="42.97196" lon="-0.26274">
        <ele>1502</ele>
        <time>2022-09-04T08:36:59Z</time>
      </trkpt>
      <trkpt lat="42.97196" lon="-0.26284">
        <ele>1501</ele>
        <time>2022-09-04T08:37:00Z</time>
      </trkpt>
      <trkpt lat="42.97197" lon="-0.26301">
        <ele>1500</ele>
        <time>2022-09-04T08:37:02Z</time>
      </trkpt>
      <trkpt lat="42.97197" lon="-0.26308">
        <ele>1499.6</ele>
        <time>2022-09-04T08:37:03Z</time>
      </trkpt>
      <trkpt lat="42.97197" lon="-0.26317">
        <ele>1498</ele>
        <time>2022-09-04T08:37:04Z</time>
      </trkpt>
      <trkpt lat="42.97198" lon="-0.26335">
        <ele>1496.8</ele>
        <time>2022-09-04T08:37:06Z</time>
      </trkpt>
      <trkpt lat="42.97197" lon="-0.26354">
        <ele>1495.4</ele>
        <time>2022-09-04T08:37:08Z</time>
      </trkpt>
      <trkpt lat="42.97197" lon="-0.26363">
        <ele>1495.2</ele>
        <time>2022-09-04T08:37:09Z</time>
      </trkpt>
      <trkpt lat="42.97197" lon="-0.26382">
        <ele>1494</ele>
        <time>2022-09-04T08:37:11Z</time>
      </trkpt>
      <trkpt lat="42.97197" lon="-0.26392">
        <ele>1493.6</ele>
        <time>2022-09-04T08:37:12Z</time>
      </trkpt>
      <trkpt lat="42.97199" lon="-0.26401">
        <ele>1492</ele>
        <time>2022-09-04T08:37:13Z</time>
      </trkpt>
      <trkpt lat="42.972" lon="-0.26411">
        <ele>1491.4</ele>
        <time>2022-09-04T08:37:14Z</time>
      </trkpt>
      <trkpt lat="42.97203" lon="-0.26421">
        <ele>1490.8</ele>
        <time>2022-09-04T08:37:15Z</time>
      </trkpt>
      <trkpt lat="42.97211" lon="-0.26438">
        <ele>1490</ele>
        <time>2022-09-04T08:37:17Z</time>
      </trkpt>
      <trkpt lat="42.97215" lon="-0.26445">
        <ele>1489.8</ele>
        <time>2022-09-04T08:37:18Z</time>
      </trkpt>
      <trkpt lat="42.97219" lon="-0.26452">
        <ele>1489.4</ele>
        <time>2022-09-04T08:37:19Z</time>
      </trkpt>
      <trkpt lat="42.97226" lon="-0.26467">
        <ele>1488.4</ele>
        <time>2022-09-04T08:37:21Z</time>
      </trkpt>
      <trkpt lat="42.97228" lon="-0.26476">
        <ele>1488</ele>
        <time>2022-09-04T08:37:22Z</time>
      </trkpt>
      <trkpt lat="42.97232" lon="-0.26494">
        <ele>1487.2</ele>
        <time>2022-09-04T08:37:24Z</time>
      </trkpt>
      <trkpt lat="42.97236" lon="-0.26518">
        <ele>1486.2</ele>
        <time>2022-09-04T08:37:27Z</time>
      </trkpt>
      <trkpt lat="42.97236" lon="-0.26525">
        <ele>1485.6</ele>
        <time>2022-09-04T08:37:28Z</time>
      </trkpt>
      <trkpt lat="42.97233" lon="-0.26538">
        <ele>1484.8</ele>
        <time>2022-09-04T08:37:30Z</time>
      </trkpt>
      <trkpt lat="42.9723" lon="-0.2655">
        <ele>1484</ele>
        <time>2022-09-04T08:37:32Z</time>
      </trkpt>
      <trkpt lat="42.97229" lon="-0.26557">
        <ele>1484</ele>
        <time>2022-09-04T08:37:33Z</time>
      </trkpt>
      <trkpt lat="42.9723" lon="-0.26563">
        <ele>1483.6</ele>
        <time>2022-09-04T08:37:34Z</time>
      </trkpt>
      <trkpt lat="42.97231" lon="-0.26568">
        <ele>1483.4</ele>
        <time>2022-09-04T08:37:35Z</time>
      </trkpt>
      <trkpt lat="42.97233" lon="-0.26573">
        <ele>1483.2</ele>
        <time>2022-09-04T08:37:36Z</time>
      </trkpt>
      <trkpt lat="42.97238" lon="-0.26577">
        <ele>1482.6</ele>
        <time>2022-09-04T08:37:38Z</time>
      </trkpt>
      <trkpt lat="42.97241" lon="-0.26578">
        <ele>1482.4</ele>
        <time>2022-09-04T08:37:39Z</time>
      </trkpt>
      <trkpt lat="42.9725" lon="-0.26575">
        <ele>1482.2</ele>
        <time>2022-09-04T08:37:42Z</time>
      </trkpt>
      <trkpt lat="42.97261" lon="-0.26569">
        <ele>1481.4</ele>
        <time>2022-09-04T08:37:45Z</time>
      </trkpt>
      <trkpt lat="42.97269" lon="-0.26563">
        <ele>1481.2</ele>
        <time>2022-09-04T08:37:47Z</time>
      </trkpt>
      <trkpt lat="42.97272" lon="-0.26559">
        <ele>1481.2</ele>
        <time>2022-09-04T08:37:48Z</time>
      </trkpt>
      <trkpt lat="42.97279" lon="-0.26534">
        <ele>1480.4</ele>
        <time>2022-09-04T08:37:53Z</time>
      </trkpt>
      <trkpt lat="42.97281" lon="-0.26523">
        <ele>1479.4</ele>
        <time>2022-09-04T08:37:56Z</time>
      </trkpt>
      <trkpt lat="42.97285" lon="-0.26515">
        <ele>1478.6</ele>
        <time>2022-09-04T08:37:58Z</time>
      </trkpt>
      <trkpt lat="42.97288" lon="-0.26513">
        <ele>1478.2</ele>
        <time>2022-09-04T08:37:59Z</time>
      </trkpt>
      <trkpt lat="42.97296" lon="-0.26512">
        <ele>1477</ele>
        <time>2022-09-04T08:38:01Z</time>
      </trkpt>
      <trkpt lat="42.97304" lon="-0.26515">
        <ele>1476</ele>
        <time>2022-09-04T08:38:03Z</time>
      </trkpt>
      <trkpt lat="42.9731" lon="-0.26517">
        <ele>1475.4</ele>
        <time>2022-09-04T08:38:04Z</time>
      </trkpt>
      <trkpt lat="42.97316" lon="-0.26517">
        <ele>1475</ele>
        <time>2022-09-04T08:38:05Z</time>
      </trkpt>
      <trkpt lat="42.97327" lon="-0.26517">
        <ele>1474</ele>
        <time>2022-09-04T08:38:07Z</time>
      </trkpt>
      <trkpt lat="42.97337" lon="-0.26521">
        <ele>1473</ele>
        <time>2022-09-04T08:38:09Z</time>
      </trkpt>
      <trkpt lat="42.97339" lon="-0.26526">
        <ele>1472.4</ele>
        <time>2022-09-04T08:38:10Z</time>
      </trkpt>
      <trkpt lat="42.9734" lon="-0.26532">
        <ele>1472</ele>
        <time>2022-09-04T08:38:11Z</time>
      </trkpt>
      <trkpt lat="42.97341" lon="-0.26539">
        <ele>1471.4</ele>
        <time>2022-09-04T08:38:12Z</time>
      </trkpt>
      <trkpt lat="42.97342" lon="-0.26546">
        <ele>1471</ele>
        <time>2022-09-04T08:38:13Z</time>
      </trkpt>
      <trkpt lat="42.97342" lon="-0.26561">
        <ele>1470</ele>
        <time>2022-09-04T08:38:15Z</time>
      </trkpt>
      <trkpt lat="42.97339" lon="-0.26576">
        <ele>1468.2</ele>
        <time>2022-09-04T08:38:17Z</time>
      </trkpt>
      <trkpt lat="42.97332" lon="-0.26602">
        <ele>1467.2</ele>
        <time>2022-09-04T08:38:20Z</time>
      </trkpt>
      <trkpt lat="42.97325" lon="-0.26619">
        <ele>1466.6</ele>
        <time>2022-09-04T08:38:22Z</time>
      </trkpt>
      <trkpt lat="42.97317" lon="-0.26636">
        <ele>1466</ele>
        <time>2022-09-04T08:38:24Z</time>
      </trkpt>
      <trkpt lat="42.97312" lon="-0.26644">
        <ele>1464.8</ele>
        <time>2022-09-04T08:38:25Z</time>
      </trkpt>
      <trkpt lat="42.97301" lon="-0.2666">
        <ele>1463</ele>
        <time>2022-09-04T08:38:27Z</time>
      </trkpt>
      <trkpt lat="42.97295" lon="-0.26667">
        <ele>1462.6</ele>
        <time>2022-09-04T08:38:28Z</time>
      </trkpt>
      <trkpt lat="42.97289" lon="-0.26673">
        <ele>1461.8</ele>
        <time>2022-09-04T08:38:29Z</time>
      </trkpt>
      <trkpt lat="42.97275" lon="-0.26682">
        <ele>1460.4</ele>
        <time>2022-09-04T08:38:31Z</time>
      </trkpt>
      <trkpt lat="42.97254" lon="-0.26698">
        <ele>1459</ele>
        <time>2022-09-04T08:38:34Z</time>
      </trkpt>
      <trkpt lat="42.97238" lon="-0.26707">
        <ele>1458.4</ele>
        <time>2022-09-04T08:38:36Z</time>
      </trkpt>
      <trkpt lat="42.97221" lon="-0.26713">
        <ele>1457.6</ele>
        <time>2022-09-04T08:38:38Z</time>
      </trkpt>
      <trkpt lat="42.97204" lon="-0.26719">
        <ele>1456.4</ele>
        <time>2022-09-04T08:38:40Z</time>
      </trkpt>
      <trkpt lat="42.97186" lon="-0.26723">
        <ele>1455.2</ele>
        <time>2022-09-04T08:38:42Z</time>
      </trkpt>
      <trkpt lat="42.97169" lon="-0.26724">
        <ele>1454.4</ele>
        <time>2022-09-04T08:38:44Z</time>
      </trkpt>
      <trkpt lat="42.97154" lon="-0.26723">
        <ele>1453.2</ele>
        <time>2022-09-04T08:38:46Z</time>
      </trkpt>
      <trkpt lat="42.9714" lon="-0.26726">
        <ele>1452</ele>
        <time>2022-09-04T08:38:48Z</time>
      </trkpt>
      <trkpt lat="42.97135" lon="-0.26726">
        <ele>1451.2</ele>
        <time>2022-09-04T08:38:49Z</time>
      </trkpt>
      <trkpt lat="42.9713" lon="-0.26726">
        <ele>1450.8</ele>
        <time>2022-09-04T08:38:50Z</time>
      </trkpt>
      <trkpt lat="42.97124" lon="-0.26725">
        <ele>1449.8</ele>
        <time>2022-09-04T08:38:51Z</time>
      </trkpt>
      <trkpt lat="42.97113" lon="-0.26721">
        <ele>1448.4</ele>
        <time>2022-09-04T08:38:53Z</time>
      </trkpt>
      <trkpt lat="42.97109" lon="-0.26717">
        <ele>1448</ele>
        <time>2022-09-04T08:38:54Z</time>
      </trkpt>
      <trkpt lat="42.97105" lon="-0.26712">
        <ele>1447.2</ele>
        <time>2022-09-04T08:38:55Z</time>
      </trkpt>
      <trkpt lat="42.97099" lon="-0.26698">
        <ele>1446.6</ele>
        <time>2022-09-04T08:38:57Z</time>
      </trkpt>
      <trkpt lat="42.97096" lon="-0.26692">
        <ele>1446.4</ele>
        <time>2022-09-04T08:38:58Z</time>
      </trkpt>
      <trkpt lat="42.97095" lon="-0.26684">
        <ele>1446.2</ele>
        <time>2022-09-04T08:38:59Z</time>
      </trkpt>
      <trkpt lat="42.97093" lon="-0.2667">
        <ele>1445.4</ele>
        <time>2022-09-04T08:39:01Z</time>
      </trkpt>
      <trkpt lat="42.97092" lon="-0.26664">
        <ele>1445</ele>
        <time>2022-09-04T08:39:02Z</time>
      </trkpt>
      <trkpt lat="42.97091" lon="-0.26658">
        <ele>1444.6</ele>
        <time>2022-09-04T08:39:03Z</time>
      </trkpt>
      <trkpt lat="42.97085" lon="-0.26641">
        <ele>1444.2</ele>
        <time>2022-09-04T08:39:06Z</time>
      </trkpt>
      <trkpt lat="42.97082" lon="-0.26636">
        <ele>1444.2</ele>
        <time>2022-09-04T08:39:07Z</time>
      </trkpt>
      <trkpt lat="42.97079" lon="-0.26631">
        <ele>1444</ele>
        <time>2022-09-04T08:39:08Z</time>
      </trkpt>
      <trkpt lat="42.97071" lon="-0.26621">
        <ele>1444</ele>
        <time>2022-09-04T08:39:10Z</time>
      </trkpt>
      <trkpt lat="42.97056" lon="-0.26588">
        <ele>1443.8</ele>
        <time>2022-09-04T08:39:15Z</time>
      </trkpt>
      <trkpt lat="42.9705" lon="-0.2657">
        <ele>1443.6</ele>
        <time>2022-09-04T08:39:18Z</time>
      </trkpt>
      <trkpt lat="42.97047" lon="-0.26559">
        <ele>1443.6</ele>
        <time>2022-09-04T08:39:20Z</time>
      </trkpt>
      <trkpt lat="42.97041" lon="-0.26533">
        <ele>1443.6</ele>
        <time>2022-09-04T08:39:24Z</time>
      </trkpt>
      <trkpt lat="42.9704" lon="-0.26518">
        <ele>1443.6</ele>
        <time>2022-09-04T08:39:26Z</time>
      </trkpt>
      <trkpt lat="42.97037" lon="-0.26502">
        <ele>1443.4</ele>
        <time>2022-09-04T08:39:28Z</time>
      </trkpt>
      <trkpt lat="42.97031" lon="-0.26488">
        <ele>1443.4</ele>
        <time>2022-09-04T08:39:30Z</time>
      </trkpt>
      <trkpt lat="42.97021" lon="-0.26467">
        <ele>1443</ele>
        <time>2022-09-04T08:39:33Z</time>
      </trkpt>
      <trkpt lat="42.97017" lon="-0.26463">
        <ele>1442.8</ele>
        <time>2022-09-04T08:39:34Z</time>
      </trkpt>
      <trkpt lat="42.96998" lon="-0.26454">
        <ele>1442.2</ele>
        <time>2022-09-04T08:39:38Z</time>
      </trkpt>
      <trkpt lat="42.96995" lon="-0.26452">
        <ele>1442.2</ele>
        <time>2022-09-04T08:39:39Z</time>
      </trkpt>
      <trkpt lat="42.96983" lon="-0.26441">
        <ele>1442.6</ele>
        <time>2022-09-04T08:39:44Z</time>
      </trkpt>
      <trkpt lat="42.96968" lon="-0.26439">
        <ele>1443</ele>
        <time>2022-09-04T08:39:49Z</time>
      </trkpt>
      <trkpt lat="42.9696" lon="-0.26444">
        <ele>1443.8</ele>
        <time>2022-09-04T08:39:52Z</time>
      </trkpt>
      <trkpt lat="42.9695" lon="-0.2645">
        <ele>1444.8</ele>
        <time>2022-09-04T08:39:56Z</time>
      </trkpt>
      <trkpt lat="42.96948" lon="-0.2645">
        <ele>1445</ele>
        <time>2022-09-04T08:39:57Z</time>
      </trkpt>
      <trkpt lat="42.96941" lon="-0.26445">
        <ele>1445.6</ele>
        <time>2022-09-04T08:40:00Z</time>
      </trkpt>
      <trkpt lat="42.96939" lon="-0.26443">
        <ele>1445.8</ele>
        <time>2022-09-04T08:40:01Z</time>
      </trkpt>
      <trkpt lat="42.96926" lon="-0.26427">
        <ele>1447.2</ele>
        <time>2022-09-04T08:40:07Z</time>
      </trkpt>
      <trkpt lat="42.96913" lon="-0.26424">
        <ele>1448.2</ele>
        <time>2022-09-04T08:40:12Z</time>
      </trkpt>
      <trkpt lat="42.96898" lon="-0.26426">
        <ele>1449.4</ele>
        <time>2022-09-04T08:40:17Z</time>
      </trkpt>
      <trkpt lat="42.96893" lon="-0.26427">
        <ele>1449.6</ele>
        <time>2022-09-04T08:40:19Z</time>
      </trkpt>
      <trkpt lat="42.96891" lon="-0.26427">
        <ele>1449.6</ele>
        <time>2022-09-04T08:40:23Z</time>
      </trkpt>
      <trkpt lat="42.96891" lon="-0.26427">
        <ele>1449.2</ele>
        <time>2022-09-04T08:40:35Z</time>
      </trkpt>
      <trkpt lat="42.96891" lon="-0.26427">
        <ele>1449.2</ele>
        <time>2022-09-04T08:40:39Z</time>
      </trkpt>
      <trkpt lat="42.96887" lon="-0.26426">
        <ele>1449</ele>
        <time>2022-09-04T08:41:30Z</time>
      </trkpt>
      <trkpt lat="42.96872" lon="-0.26424">
        <ele>1449.2</ele>
        <time>2022-09-04T08:41:35Z</time>
      </trkpt>
      <trkpt lat="42.9686" lon="-0.26429">
        <ele>1449.2</ele>
        <time>2022-09-04T08:41:38Z</time>
      </trkpt>
      <trkpt lat="42.96856" lon="-0.26433">
        <ele>1449</ele>
        <time>2022-09-04T08:41:39Z</time>
      </trkpt>
      <trkpt lat="42.96852" lon="-0.26436">
        <ele>1448.8</ele>
        <time>2022-09-04T08:41:40Z</time>
      </trkpt>
      <trkpt lat="42.96839" lon="-0.26447">
        <ele>1447.8</ele>
        <time>2022-09-04T08:41:43Z</time>
      </trkpt>
      <trkpt lat="42.96835" lon="-0.2645">
        <ele>1447.8</ele>
        <time>2022-09-04T08:41:44Z</time>
      </trkpt>
      <trkpt lat="42.96832" lon="-0.26454">
        <ele>1447.4</ele>
        <time>2022-09-04T08:41:45Z</time>
      </trkpt>
      <trkpt lat="42.96828" lon="-0.26461">
        <ele>1446.6</ele>
        <time>2022-09-04T08:41:47Z</time>
      </trkpt>
      <trkpt lat="42.96823" lon="-0.2647">
        <ele>1446.2</ele>
        <time>2022-09-04T08:41:49Z</time>
      </trkpt>
      <trkpt lat="42.9682" lon="-0.26475">
        <ele>1445.4</ele>
        <time>2022-09-04T08:41:50Z</time>
      </trkpt>
      <trkpt lat="42.9681" lon="-0.26482">
        <ele>1444.8</ele>
        <time>2022-09-04T08:41:52Z</time>
      </trkpt>
      <trkpt lat="42.96805" lon="-0.26485">
        <ele>1444.6</ele>
        <time>2022-09-04T08:41:53Z</time>
      </trkpt>
      <trkpt lat="42.96799" lon="-0.26486">
        <ele>1444.2</ele>
        <time>2022-09-04T08:41:54Z</time>
      </trkpt>
      <trkpt lat="42.96772" lon="-0.26495">
        <ele>1443</ele>
        <time>2022-09-04T08:41:58Z</time>
      </trkpt>
      <trkpt lat="42.96749" lon="-0.26502">
        <ele>1442</ele>
        <time>2022-09-04T08:42:01Z</time>
      </trkpt>
      <trkpt lat="42.96732" lon="-0.26508">
        <ele>1440.8</ele>
        <time>2022-09-04T08:42:03Z</time>
      </trkpt>
      <trkpt lat="42.96702" lon="-0.26521">
        <ele>1439.8</ele>
        <time>2022-09-04T08:42:07Z</time>
      </trkpt>
      <trkpt lat="42.96695" lon="-0.26523">
        <ele>1439.8</ele>
        <time>2022-09-04T08:42:08Z</time>
      </trkpt>
      <trkpt lat="42.96669" lon="-0.2652">
        <ele>1439.2</ele>
        <time>2022-09-04T08:42:12Z</time>
      </trkpt>
      <trkpt lat="42.96653" lon="-0.26513">
        <ele>1438.6</ele>
        <time>2022-09-04T08:42:15Z</time>
      </trkpt>
      <trkpt lat="42.96642" lon="-0.2651">
        <ele>1438</ele>
        <time>2022-09-04T08:42:17Z</time>
      </trkpt>
      <trkpt lat="42.96631" lon="-0.26504">
        <ele>1437.6</ele>
        <time>2022-09-04T08:42:19Z</time>
      </trkpt>
      <trkpt lat="42.96606" lon="-0.26492">
        <ele>1437</ele>
        <time>2022-09-04T08:42:23Z</time>
      </trkpt>
      <trkpt lat="42.96593" lon="-0.26487">
        <ele>1436.6</ele>
        <time>2022-09-04T08:42:25Z</time>
      </trkpt>
      <trkpt lat="42.96587" lon="-0.26485">
        <ele>1436.6</ele>
        <time>2022-09-04T08:42:26Z</time>
      </trkpt>
      <trkpt lat="42.96576" lon="-0.26484">
        <ele>1436.2</ele>
        <time>2022-09-04T08:42:28Z</time>
      </trkpt>
      <trkpt lat="42.9657" lon="-0.26482">
        <ele>1436.2</ele>
        <time>2022-09-04T08:42:29Z</time>
      </trkpt>
      <trkpt lat="42.96559" lon="-0.26478">
        <ele>1435.8</ele>
        <time>2022-09-04T08:42:31Z</time>
      </trkpt>
      <trkpt lat="42.96548" lon="-0.2647">
        <ele>1435.6</ele>
        <time>2022-09-04T08:42:33Z</time>
      </trkpt>
      <trkpt lat="42.96543" lon="-0.26465">
        <ele>1435.6</ele>
        <time>2022-09-04T08:42:34Z</time>
      </trkpt>
      <trkpt lat="42.96537" lon="-0.26462">
        <ele>1435.2</ele>
        <time>2022-09-04T08:42:35Z</time>
      </trkpt>
      <trkpt lat="42.96525" lon="-0.26457">
        <ele>1435</ele>
        <time>2022-09-04T08:42:37Z</time>
      </trkpt>
      <trkpt lat="42.96515" lon="-0.26449">
        <ele>1434.8</ele>
        <time>2022-09-04T08:42:39Z</time>
      </trkpt>
      <trkpt lat="42.96508" lon="-0.26439">
        <ele>1434.8</ele>
        <time>2022-09-04T08:42:41Z</time>
      </trkpt>
      <trkpt lat="42.96489" lon="-0.2641">
        <ele>1435</ele>
        <time>2022-09-04T08:42:47Z</time>
      </trkpt>
      <trkpt lat="42.96472" lon="-0.26381">
        <ele>1435.4</ele>
        <time>2022-09-04T08:42:52Z</time>
      </trkpt>
      <trkpt lat="42.96449" lon="-0.26347">
        <ele>1435.2</ele>
        <time>2022-09-04T08:42:57Z</time>
      </trkpt>
      <trkpt lat="42.96431" lon="-0.2632">
        <ele>1434</ele>
        <time>2022-09-04T08:43:01Z</time>
      </trkpt>
      <trkpt lat="42.96422" lon="-0.26306">
        <ele>1433.6</ele>
        <time>2022-09-04T08:43:03Z</time>
      </trkpt>
      <trkpt lat="42.96409" lon="-0.26281">
        <ele>1433</ele>
        <time>2022-09-04T08:43:06Z</time>
      </trkpt>
      <trkpt lat="42.96399" lon="-0.26271">
        <ele>1432.6</ele>
        <time>2022-09-04T08:43:08Z</time>
      </trkpt>
      <trkpt lat="42.96376" lon="-0.26264">
        <ele>1432.6</ele>
        <time>2022-09-04T08:43:12Z</time>
      </trkpt>
      <trkpt lat="42.96372" lon="-0.26262">
        <ele>1432.4</ele>
        <time>2022-09-04T08:43:13Z</time>
      </trkpt>
      <trkpt lat="42.96357" lon="-0.26252">
        <ele>1432.6</ele>
        <time>2022-09-04T08:43:17Z</time>
      </trkpt>
      <trkpt lat="42.96335" lon="-0.26245">
        <ele>1434</ele>
        <time>2022-09-04T08:43:23Z</time>
      </trkpt>
      <trkpt lat="42.96326" lon="-0.26242">
        <ele>1435.2</ele>
        <time>2022-09-04T08:43:26Z</time>
      </trkpt>
      <trkpt lat="42.96316" lon="-0.26241">
        <ele>1436.2</ele>
        <time>2022-09-04T08:43:30Z</time>
      </trkpt>
      <trkpt lat="42.96307" lon="-0.26242">
        <ele>1437.2</ele>
        <time>2022-09-04T08:43:34Z</time>
      </trkpt>
      <trkpt lat="42.96302" lon="-0.26244">
        <ele>1437.8</ele>
        <time>2022-09-04T08:43:36Z</time>
      </trkpt>
      <trkpt lat="42.963" lon="-0.26245">
        <ele>1438.4</ele>
        <time>2022-09-04T08:43:37Z</time>
      </trkpt>
      <trkpt lat="42.96296" lon="-0.26248">
        <ele>1439</ele>
        <time>2022-09-04T08:43:39Z</time>
      </trkpt>
      <trkpt lat="42.96289" lon="-0.26255">
        <ele>1440</ele>
        <time>2022-09-04T08:43:43Z</time>
      </trkpt>
      <trkpt lat="42.96283" lon="-0.2626">
        <ele>1441.2</ele>
        <time>2022-09-04T08:43:46Z</time>
      </trkpt>
      <trkpt lat="42.96275" lon="-0.26263">
        <ele>1442.2</ele>
        <time>2022-09-04T08:43:50Z</time>
      </trkpt>
      <trkpt lat="42.96273" lon="-0.26264">
        <ele>1442.4</ele>
        <time>2022-09-04T08:43:51Z</time>
      </trkpt>
      <trkpt lat="42.96265" lon="-0.26266">
        <ele>1443.2</ele>
        <time>2022-09-04T08:43:55Z</time>
      </trkpt>
      <trkpt lat="42.96261" lon="-0.26267">
        <ele>1443.6</ele>
        <time>2022-09-04T08:43:57Z</time>
      </trkpt>
      <trkpt lat="42.96254" lon="-0.26269">
        <ele>1444.4</ele>
        <time>2022-09-04T08:44:00Z</time>
      </trkpt>
      <trkpt lat="42.96245" lon="-0.26268">
        <ele>1445.6</ele>
        <time>2022-09-04T08:44:05Z</time>
      </trkpt>
      <trkpt lat="42.96237" lon="-0.26265">
        <ele>1446.6</ele>
        <time>2022-09-04T08:44:09Z</time>
      </trkpt>
      <trkpt lat="42.96234" lon="-0.26261">
        <ele>1447</ele>
        <time>2022-09-04T08:44:11Z</time>
      </trkpt>
      <trkpt lat="42.96232" lon="-0.26242">
        <ele>1447.6</ele>
        <time>2022-09-04T08:44:16Z</time>
      </trkpt>
      <trkpt lat="42.96229" lon="-0.26222">
        <ele>1447.6</ele>
        <time>2022-09-04T08:44:20Z</time>
      </trkpt>
      <trkpt lat="42.96227" lon="-0.26215">
        <ele>1447.8</ele>
        <time>2022-09-04T08:44:21Z</time>
      </trkpt>
      <trkpt lat="42.9622" lon="-0.262">
        <ele>1447.4</ele>
        <time>2022-09-04T08:44:23Z</time>
      </trkpt>
      <trkpt lat="42.96215" lon="-0.26194">
        <ele>1447.4</ele>
        <time>2022-09-04T08:44:24Z</time>
      </trkpt>
      <trkpt lat="42.96209" lon="-0.26189">
        <ele>1447</ele>
        <time>2022-09-04T08:44:25Z</time>
      </trkpt>
      <trkpt lat="42.96197" lon="-0.26181">
        <ele>1446.4</ele>
        <time>2022-09-04T08:44:27Z</time>
      </trkpt>
      <trkpt lat="42.96192" lon="-0.26176">
        <ele>1445.4</ele>
        <time>2022-09-04T08:44:28Z</time>
      </trkpt>
      <trkpt lat="42.96187" lon="-0.26171">
        <ele>1445.2</ele>
        <time>2022-09-04T08:44:29Z</time>
      </trkpt>
      <trkpt lat="42.96182" lon="-0.26167">
        <ele>1444.2</ele>
        <time>2022-09-04T08:44:30Z</time>
      </trkpt>
      <trkpt lat="42.96177" lon="-0.26164">
        <ele>1444</ele>
        <time>2022-09-04T08:44:31Z</time>
      </trkpt>
      <trkpt lat="42.96168" lon="-0.2616">
        <ele>1443.8</ele>
        <time>2022-09-04T08:44:33Z</time>
      </trkpt>
      <trkpt lat="42.96161" lon="-0.26159">
        <ele>1443.6</ele>
        <time>2022-09-04T08:44:35Z</time>
      </trkpt>
      <trkpt lat="42.96152" lon="-0.26161">
        <ele>1443.6</ele>
        <time>2022-09-04T08:44:38Z</time>
      </trkpt>
      <trkpt lat="42.96141" lon="-0.26164">
        <ele>1444</ele>
        <time>2022-09-04T08:44:42Z</time>
      </trkpt>
      <trkpt lat="42.96126" lon="-0.26172">
        <ele>1445</ele>
        <time>2022-09-04T08:44:48Z</time>
      </trkpt>
      <trkpt lat="42.96122" lon="-0.26174">
        <ele>1445.4</ele>
        <time>2022-09-04T08:44:50Z</time>
      </trkpt>
      <trkpt lat="42.96108" lon="-0.26178">
        <ele>1446.6</ele>
        <time>2022-09-04T08:44:56Z</time>
      </trkpt>
      <trkpt lat="42.96104" lon="-0.2618">
        <ele>1447</ele>
        <time>2022-09-04T08:44:58Z</time>
      </trkpt>
      <trkpt lat="42.9609" lon="-0.26186">
        <ele>1447.6</ele>
        <time>2022-09-04T08:45:04Z</time>
      </trkpt>
      <trkpt lat="42.96084" lon="-0.26188">
        <ele>1448.2</ele>
        <time>2022-09-04T08:45:07Z</time>
      </trkpt>
      <trkpt lat="42.96077" lon="-0.26188">
        <ele>1448.6</ele>
        <time>2022-09-04T08:45:10Z</time>
      </trkpt>
      <trkpt lat="42.96071" lon="-0.26184">
        <ele>1449.4</ele>
        <time>2022-09-04T08:45:13Z</time>
      </trkpt>
      <trkpt lat="42.96068" lon="-0.26179">
        <ele>1449.8</ele>
        <time>2022-09-04T08:45:15Z</time>
      </trkpt>
      <trkpt lat="42.96062" lon="-0.26161">
        <ele>1451</ele>
        <time>2022-09-04T08:45:21Z</time>
      </trkpt>
      <trkpt lat="42.9606" lon="-0.26143">
        <ele>1452</ele>
        <time>2022-09-04T08:45:27Z</time>
      </trkpt>
      <trkpt lat="42.9606" lon="-0.2614">
        <ele>1452.2</ele>
        <time>2022-09-04T08:45:28Z</time>
      </trkpt>
      <trkpt lat="42.9606" lon="-0.26129">
        <ele>1452.6</ele>
        <time>2022-09-04T08:45:32Z</time>
      </trkpt>
      <trkpt lat="42.96059" lon="-0.26124">
        <ele>1453</ele>
        <time>2022-09-04T08:45:34Z</time>
      </trkpt>
      <trkpt lat="42.96059" lon="-0.26118">
        <ele>1453.2</ele>
        <time>2022-09-04T08:45:36Z</time>
      </trkpt>
      <trkpt lat="42.9606" lon="-0.26107">
        <ele>1453.8</ele>
        <time>2022-09-04T08:45:40Z</time>
      </trkpt>
      <trkpt lat="42.9606" lon="-0.26104">
        <ele>1454</ele>
        <time>2022-09-04T08:45:41Z</time>
      </trkpt>
      <trkpt lat="42.96057" lon="-0.26096">
        <ele>1454</ele>
        <time>2022-09-04T08:45:44Z</time>
      </trkpt>
      <trkpt lat="42.96056" lon="-0.26094">
        <ele>1454.2</ele>
        <time>2022-09-04T08:45:47Z</time>
      </trkpt>
      <trkpt lat="42.96056" lon="-0.26094">
        <ele>1453.6</ele>
        <time>2022-09-04T08:45:59Z</time>
      </trkpt>
      <trkpt lat="42.96056" lon="-0.26094">
        <ele>1453.4</ele>
        <time>2022-09-04T08:46:19Z</time>
      </trkpt>
      <trkpt lat="42.96056" lon="-0.26094">
        <ele>1453.6</ele>
        <time>2022-09-04T08:46:23Z</time>
      </trkpt>
      <trkpt lat="42.96058" lon="-0.26087">
        <ele>1453.6</ele>
        <time>2022-09-04T08:46:26Z</time>
      </trkpt>
      <trkpt lat="42.96058" lon="-0.26065">
        <ele>1453.4</ele>
        <time>2022-09-04T08:46:32Z</time>
      </trkpt>
      <trkpt lat="42.96059" lon="-0.26037">
        <ele>1453</ele>
        <time>2022-09-04T08:46:36Z</time>
      </trkpt>
      <trkpt lat="42.96056" lon="-0.26022">
        <ele>1452.4</ele>
        <time>2022-09-04T08:46:38Z</time>
      </trkpt>
      <trkpt lat="42.96052" lon="-0.26015">
        <ele>1452</ele>
        <time>2022-09-04T08:46:39Z</time>
      </trkpt>
      <trkpt lat="42.96048" lon="-0.26008">
        <ele>1451.8</ele>
        <time>2022-09-04T08:46:40Z</time>
      </trkpt>
      <trkpt lat="42.96042" lon="-0.25998">
        <ele>1451.2</ele>
        <time>2022-09-04T08:46:41Z</time>
      </trkpt>
      <trkpt lat="42.96036" lon="-0.25981">
        <ele>1450.6</ele>
        <time>2022-09-04T08:46:43Z</time>
      </trkpt>
      <trkpt lat="42.96032" lon="-0.25944">
        <ele>1449.4</ele>
        <time>2022-09-04T08:46:46Z</time>
      </trkpt>
      <trkpt lat="42.96036" lon="-0.25917">
        <ele>1448.4</ele>
        <time>2022-09-04T08:46:48Z</time>
      </trkpt>
      <trkpt lat="42.96041" lon="-0.259">
        <ele>1447.8</ele>
        <time>2022-09-04T08:46:49Z</time>
      </trkpt>
      <trkpt lat="42.96049" lon="-0.25875">
        <ele>1446.8</ele>
        <time>2022-09-04T08:46:51Z</time>
      </trkpt>
      <trkpt lat="42.96058" lon="-0.25844">
        <ele>1445.8</ele>
        <time>2022-09-04T08:46:53Z</time>
      </trkpt>
      <trkpt lat="42.96061" lon="-0.25828">
        <ele>1444.8</ele>
        <time>2022-09-04T08:46:54Z</time>
      </trkpt>
      <trkpt lat="42.96069" lon="-0.25794">
        <ele>1443.6</ele>
        <time>2022-09-04T08:46:56Z</time>
      </trkpt>
      <trkpt lat="42.96076" lon="-0.2576">
        <ele>1442</ele>
        <time>2022-09-04T08:46:58Z</time>
      </trkpt>
      <trkpt lat="42.96078" lon="-0.25743">
        <ele>1441.2</ele>
        <time>2022-09-04T08:46:59Z</time>
      </trkpt>
      <trkpt lat="42.96079" lon="-0.25725">
        <ele>1439.8</ele>
        <time>2022-09-04T08:47:00Z</time>
      </trkpt>
      <trkpt lat="42.96081" lon="-0.25687">
        <ele>1437.6</ele>
        <time>2022-09-04T08:47:02Z</time>
      </trkpt>
      <trkpt lat="42.96081" lon="-0.25656">
        <ele>1435.2</ele>
        <time>2022-09-04T08:47:04Z</time>
      </trkpt>
      <trkpt lat="42.9608" lon="-0.25645">
        <ele>1434.6</ele>
        <time>2022-09-04T08:47:05Z</time>
      </trkpt>
      <trkpt lat="42.96077" lon="-0.25632">
        <ele>1433.2</ele>
        <time>2022-09-04T08:47:06Z</time>
      </trkpt>
      <trkpt lat="42.96071" lon="-0.25618">
        <ele>1431.6</ele>
        <time>2022-09-04T08:47:07Z</time>
      </trkpt>
      <trkpt lat="42.96056" lon="-0.25603">
        <ele>1429.2</ele>
        <time>2022-09-04T08:47:09Z</time>
      </trkpt>
      <trkpt lat="42.96048" lon="-0.25595">
        <ele>1428.2</ele>
        <time>2022-09-04T08:47:10Z</time>
      </trkpt>
      <trkpt lat="42.9604" lon="-0.25587">
        <ele>1426.2</ele>
        <time>2022-09-04T08:47:11Z</time>
      </trkpt>
      <trkpt lat="42.96035" lon="-0.25576">
        <ele>1425.2</ele>
        <time>2022-09-04T08:47:12Z</time>
      </trkpt>
      <trkpt lat="42.96031" lon="-0.25564">
        <ele>1424</ele>
        <time>2022-09-04T08:47:13Z</time>
      </trkpt>
      <trkpt lat="42.96027" lon="-0.25535">
        <ele>1422.4</ele>
        <time>2022-09-04T08:47:15Z</time>
      </trkpt>
      <trkpt lat="42.96027" lon="-0.25517">
        <ele>1421.6</ele>
        <time>2022-09-04T08:47:16Z</time>
      </trkpt>
      <trkpt lat="42.96028" lon="-0.25505">
        <ele>1420.6</ele>
        <time>2022-09-04T08:47:17Z</time>
      </trkpt>
      <trkpt lat="42.96031" lon="-0.25491">
        <ele>1420</ele>
        <time>2022-09-04T08:47:18Z</time>
      </trkpt>
      <trkpt lat="42.96035" lon="-0.25477">
        <ele>1419</ele>
        <time>2022-09-04T08:47:19Z</time>
      </trkpt>
      <trkpt lat="42.96043" lon="-0.25461">
        <ele>1418.4</ele>
        <time>2022-09-04T08:47:20Z</time>
      </trkpt>
      <trkpt lat="42.96049" lon="-0.25452">
        <ele>1417.4</ele>
        <time>2022-09-04T08:47:21Z</time>
      </trkpt>
      <trkpt lat="42.96056" lon="-0.2544">
        <ele>1416.4</ele>
        <time>2022-09-04T08:47:22Z</time>
      </trkpt>
      <trkpt lat="42.96073" lon="-0.25419">
        <ele>1414.6</ele>
        <time>2022-09-04T08:47:24Z</time>
      </trkpt>
      <trkpt lat="42.96083" lon="-0.2541">
        <ele>1413.6</ele>
        <time>2022-09-04T08:47:25Z</time>
      </trkpt>
      <trkpt lat="42.96095" lon="-0.254">
        <ele>1412.2</ele>
        <time>2022-09-04T08:47:26Z</time>
      </trkpt>
      <trkpt lat="42.96109" lon="-0.25382">
        <ele>1410.8</ele>
        <time>2022-09-04T08:47:28Z</time>
      </trkpt>
      <trkpt lat="42.96117" lon="-0.25353">
        <ele>1408.8</ele>
        <time>2022-09-04T08:47:30Z</time>
      </trkpt>
      <trkpt lat="42.96118" lon="-0.25322">
        <ele>1406</ele>
        <time>2022-09-04T08:47:32Z</time>
      </trkpt>
      <trkpt lat="42.96118" lon="-0.25305">
        <ele>1405</ele>
        <time>2022-09-04T08:47:33Z</time>
      </trkpt>
      <trkpt lat="42.9612" lon="-0.25289">
        <ele>1402.8</ele>
        <time>2022-09-04T08:47:34Z</time>
      </trkpt>
      <trkpt lat="42.96125" lon="-0.25257">
        <ele>1400.6</ele>
        <time>2022-09-04T08:47:36Z</time>
      </trkpt>
      <trkpt lat="42.96126" lon="-0.25243">
        <ele>1399</ele>
        <time>2022-09-04T08:47:37Z</time>
      </trkpt>
      <trkpt lat="42.9612" lon="-0.25218">
        <ele>1396.8</ele>
        <time>2022-09-04T08:47:39Z</time>
      </trkpt>
      <trkpt lat="42.96107" lon="-0.25199">
        <ele>1394.2</ele>
        <time>2022-09-04T08:47:41Z</time>
      </trkpt>
      <trkpt lat="42.96098" lon="-0.25176">
        <ele>1391.6</ele>
        <time>2022-09-04T08:47:43Z</time>
      </trkpt>
      <trkpt lat="42.96101" lon="-0.25146">
        <ele>1389.6</ele>
        <time>2022-09-04T08:47:45Z</time>
      </trkpt>
      <trkpt lat="42.96109" lon="-0.2512">
        <ele>1387.4</ele>
        <time>2022-09-04T08:47:47Z</time>
      </trkpt>
      <trkpt lat="42.96113" lon="-0.25106">
        <ele>1387</ele>
        <time>2022-09-04T08:47:48Z</time>
      </trkpt>
      <trkpt lat="42.96116" lon="-0.25092">
        <ele>1385.6</ele>
        <time>2022-09-04T08:47:49Z</time>
      </trkpt>
      <trkpt lat="42.96116" lon="-0.25074">
        <ele>1384.4</ele>
        <time>2022-09-04T08:47:50Z</time>
      </trkpt>
      <trkpt lat="42.96114" lon="-0.25061">
        <ele>1383.2</ele>
        <time>2022-09-04T08:47:51Z</time>
      </trkpt>
      <trkpt lat="42.96109" lon="-0.25052">
        <ele>1381.8</ele>
        <time>2022-09-04T08:47:52Z</time>
      </trkpt>
      <trkpt lat="42.96102" lon="-0.25044">
        <ele>1381.2</ele>
        <time>2022-09-04T08:47:53Z</time>
      </trkpt>
      <trkpt lat="42.96092" lon="-0.25039">
        <ele>1379.4</ele>
        <time>2022-09-04T08:47:54Z</time>
      </trkpt>
      <trkpt lat="42.96071" lon="-0.25035">
        <ele>1377.2</ele>
        <time>2022-09-04T08:47:56Z</time>
      </trkpt>
      <trkpt lat="42.96049" lon="-0.25034">
        <ele>1374.8</ele>
        <time>2022-09-04T08:47:58Z</time>
      </trkpt>
      <trkpt lat="42.96039" lon="-0.25031">
        <ele>1374.4</ele>
        <time>2022-09-04T08:47:59Z</time>
      </trkpt>
      <trkpt lat="42.9603" lon="-0.25026">
        <ele>1373.2</ele>
        <time>2022-09-04T08:48:00Z</time>
      </trkpt>
      <trkpt lat="42.96021" lon="-0.25018">
        <ele>1372.4</ele>
        <time>2022-09-04T08:48:01Z</time>
      </trkpt>
      <trkpt lat="42.96014" lon="-0.25007">
        <ele>1371.2</ele>
        <time>2022-09-04T08:48:02Z</time>
      </trkpt>
      <trkpt lat="42.96009" lon="-0.24991">
        <ele>1370.8</ele>
        <time>2022-09-04T08:48:03Z</time>
      </trkpt>
      <trkpt lat="42.96006" lon="-0.24977">
        <ele>1369.4</ele>
        <time>2022-09-04T08:48:04Z</time>
      </trkpt>
      <trkpt lat="42.96004" lon="-0.24964">
        <ele>1368.6</ele>
        <time>2022-09-04T08:48:05Z</time>
      </trkpt>
      <trkpt lat="42.96004" lon="-0.24951">
        <ele>1367.2</ele>
        <time>2022-09-04T08:48:06Z</time>
      </trkpt>
      <trkpt lat="42.96006" lon="-0.24941">
        <ele>1365.8</ele>
        <time>2022-09-04T08:48:07Z</time>
      </trkpt>
      <trkpt lat="42.96014" lon="-0.24912">
        <ele>1364.4</ele>
        <time>2022-09-04T08:48:09Z</time>
      </trkpt>
      <trkpt lat="42.96021" lon="-0.24887">
        <ele>1362.8</ele>
        <time>2022-09-04T08:48:11Z</time>
      </trkpt>
      <trkpt lat="42.96025" lon="-0.24873">
        <ele>1362.4</ele>
        <time>2022-09-04T08:48:12Z</time>
      </trkpt>
      <trkpt lat="42.96031" lon="-0.24861">
        <ele>1361.6</ele>
        <time>2022-09-04T08:48:13Z</time>
      </trkpt>
      <trkpt lat="42.96039" lon="-0.24849">
        <ele>1361</ele>
        <time>2022-09-04T08:48:14Z</time>
      </trkpt>
      <trkpt lat="42.96045" lon="-0.2484">
        <ele>1359.8</ele>
        <time>2022-09-04T08:48:15Z</time>
      </trkpt>
      <trkpt lat="42.9606" lon="-0.24817">
        <ele>1358.2</ele>
        <time>2022-09-04T08:48:17Z</time>
      </trkpt>
      <trkpt lat="42.96068" lon="-0.24801">
        <ele>1357.6</ele>
        <time>2022-09-04T08:48:18Z</time>
      </trkpt>
      <trkpt lat="42.96074" lon="-0.24787">
        <ele>1356.4</ele>
        <time>2022-09-04T08:48:19Z</time>
      </trkpt>
      <trkpt lat="42.96083" lon="-0.24759">
        <ele>1354.4</ele>
        <time>2022-09-04T08:48:21Z</time>
      </trkpt>
      <trkpt lat="42.96087" lon="-0.24742">
        <ele>1353.6</ele>
        <time>2022-09-04T08:48:22Z</time>
      </trkpt>
      <trkpt lat="42.96091" lon="-0.24725">
        <ele>1352.6</ele>
        <time>2022-09-04T08:48:23Z</time>
      </trkpt>
      <trkpt lat="42.96095" lon="-0.24707">
        <ele>1351.4</ele>
        <time>2022-09-04T08:48:24Z</time>
      </trkpt>
      <trkpt lat="42.96104" lon="-0.24673">
        <ele>1349.2</ele>
        <time>2022-09-04T08:48:26Z</time>
      </trkpt>
      <trkpt lat="42.96109" lon="-0.24656">
        <ele>1348.6</ele>
        <time>2022-09-04T08:48:27Z</time>
      </trkpt>
      <trkpt lat="42.96114" lon="-0.24639">
        <ele>1347.6</ele>
        <time>2022-09-04T08:48:28Z</time>
      </trkpt>
      <trkpt lat="42.96125" lon="-0.24606">
        <ele>1345.6</ele>
        <time>2022-09-04T08:48:30Z</time>
      </trkpt>
      <trkpt lat="42.96131" lon="-0.24596">
        <ele>1344.8</ele>
        <time>2022-09-04T08:48:31Z</time>
      </trkpt>
      <trkpt lat="42.9614" lon="-0.24584">
        <ele>1343.6</ele>
        <time>2022-09-04T08:48:32Z</time>
      </trkpt>
      <trkpt lat="42.96161" lon="-0.2456">
        <ele>1341</ele>
        <time>2022-09-04T08:48:34Z</time>
      </trkpt>
      <trkpt lat="42.9617" lon="-0.24552">
        <ele>1340</ele>
        <time>2022-09-04T08:48:35Z</time>
      </trkpt>
      <trkpt lat="42.9618" lon="-0.24541">
        <ele>1338.6</ele>
        <time>2022-09-04T08:48:36Z</time>
      </trkpt>
      <trkpt lat="42.96193" lon="-0.24528">
        <ele>1337</ele>
        <time>2022-09-04T08:48:37Z</time>
      </trkpt>
      <trkpt lat="42.96213" lon="-0.24509">
        <ele>1335.2</ele>
        <time>2022-09-04T08:48:39Z</time>
      </trkpt>
      <trkpt lat="42.96225" lon="-0.24498">
        <ele>1334.8</ele>
        <time>2022-09-04T08:48:40Z</time>
      </trkpt>
      <trkpt lat="42.96236" lon="-0.24487">
        <ele>1333.6</ele>
        <time>2022-09-04T08:48:41Z</time>
      </trkpt>
      <trkpt lat="42.96246" lon="-0.24475">
        <ele>1332.6</ele>
        <time>2022-09-04T08:48:42Z</time>
      </trkpt>
      <trkpt lat="42.96256" lon="-0.24461">
        <ele>1331.4</ele>
        <time>2022-09-04T08:48:43Z</time>
      </trkpt>
      <trkpt lat="42.96264" lon="-0.24446">
        <ele>1330.8</ele>
        <time>2022-09-04T08:48:44Z</time>
      </trkpt>
      <trkpt lat="42.96272" lon="-0.24429">
        <ele>1329.6</ele>
        <time>2022-09-04T08:48:45Z</time>
      </trkpt>
      <trkpt lat="42.96279" lon="-0.24413">
        <ele>1328.8</ele>
        <time>2022-09-04T08:48:46Z</time>
      </trkpt>
      <trkpt lat="42.96285" lon="-0.24396">
        <ele>1327.4</ele>
        <time>2022-09-04T08:48:47Z</time>
      </trkpt>
      <trkpt lat="42.96299" lon="-0.24361">
        <ele>1325.2</ele>
        <time>2022-09-04T08:48:49Z</time>
      </trkpt>
      <trkpt lat="42.96305" lon="-0.24349">
        <ele>1324.6</ele>
        <time>2022-09-04T08:48:50Z</time>
      </trkpt>
      <trkpt lat="42.96315" lon="-0.24332">
        <ele>1322.6</ele>
        <time>2022-09-04T08:48:51Z</time>
      </trkpt>
      <trkpt lat="42.96323" lon="-0.2432">
        <ele>1320.2</ele>
        <time>2022-09-04T08:48:52Z</time>
      </trkpt>
      <trkpt lat="42.96331" lon="-0.24308">
        <ele>1319.4</ele>
        <time>2022-09-04T08:48:53Z</time>
      </trkpt>
      <trkpt lat="42.96338" lon="-0.24298">
        <ele>1317.6</ele>
        <time>2022-09-04T08:48:54Z</time>
      </trkpt>
      <trkpt lat="42.96344" lon="-0.24289">
        <ele>1316.6</ele>
        <time>2022-09-04T08:48:55Z</time>
      </trkpt>
      <trkpt lat="42.96347" lon="-0.24278">
        <ele>1314.8</ele>
        <time>2022-09-04T08:48:56Z</time>
      </trkpt>
      <trkpt lat="42.96349" lon="-0.24266">
        <ele>1314</ele>
        <time>2022-09-04T08:48:57Z</time>
      </trkpt>
      <trkpt lat="42.96347" lon="-0.24257">
        <ele>1312.2</ele>
        <time>2022-09-04T08:48:58Z</time>
      </trkpt>
      <trkpt lat="42.96343" lon="-0.24246">
        <ele>1311.2</ele>
        <time>2022-09-04T08:48:59Z</time>
      </trkpt>
      <trkpt lat="42.96336" lon="-0.24239">
        <ele>1308.8</ele>
        <time>2022-09-04T08:49:00Z</time>
      </trkpt>
      <trkpt lat="42.96325" lon="-0.24234">
        <ele>1308.2</ele>
        <time>2022-09-04T08:49:01Z</time>
      </trkpt>
      <trkpt lat="42.96317" lon="-0.24234">
        <ele>1306.6</ele>
        <time>2022-09-04T08:49:02Z</time>
      </trkpt>
      <trkpt lat="42.96308" lon="-0.24232">
        <ele>1305.8</ele>
        <time>2022-09-04T08:49:03Z</time>
      </trkpt>
      <trkpt lat="42.96299" lon="-0.24228">
        <ele>1304.6</ele>
        <time>2022-09-04T08:49:04Z</time>
      </trkpt>
      <trkpt lat="42.96291" lon="-0.2422">
        <ele>1304</ele>
        <time>2022-09-04T08:49:05Z</time>
      </trkpt>
      <trkpt lat="42.96284" lon="-0.24209">
        <ele>1303</ele>
        <time>2022-09-04T08:49:06Z</time>
      </trkpt>
      <trkpt lat="42.96279" lon="-0.24197">
        <ele>1302.2</ele>
        <time>2022-09-04T08:49:07Z</time>
      </trkpt>
      <trkpt lat="42.96275" lon="-0.24183">
        <ele>1302</ele>
        <time>2022-09-04T08:49:08Z</time>
      </trkpt>
      <trkpt lat="42.96273" lon="-0.24169">
        <ele>1300.6</ele>
        <time>2022-09-04T08:49:09Z</time>
      </trkpt>
      <trkpt lat="42.96274" lon="-0.24155">
        <ele>1300</ele>
        <time>2022-09-04T08:49:10Z</time>
      </trkpt>
      <trkpt lat="42.96276" lon="-0.24143">
        <ele>1298.8</ele>
        <time>2022-09-04T08:49:11Z</time>
      </trkpt>
      <trkpt lat="42.96281" lon="-0.24131">
        <ele>1298</ele>
        <time>2022-09-04T08:49:12Z</time>
      </trkpt>
      <trkpt lat="42.96287" lon="-0.24122">
        <ele>1296.6</ele>
        <time>2022-09-04T08:49:13Z</time>
      </trkpt>
      <trkpt lat="42.96304" lon="-0.24107">
        <ele>1294.4</ele>
        <time>2022-09-04T08:49:15Z</time>
      </trkpt>
      <trkpt lat="42.96325" lon="-0.24101">
        <ele>1292.2</ele>
        <time>2022-09-04T08:49:17Z</time>
      </trkpt>
      <trkpt lat="42.96349" lon="-0.241">
        <ele>1290</ele>
        <time>2022-09-04T08:49:19Z</time>
      </trkpt>
      <trkpt lat="42.9636" lon="-0.24097">
        <ele>1289.4</ele>
        <time>2022-09-04T08:49:20Z</time>
      </trkpt>
      <trkpt lat="42.96371" lon="-0.24091">
        <ele>1288.2</ele>
        <time>2022-09-04T08:49:21Z</time>
      </trkpt>
      <trkpt lat="42.96382" lon="-0.2408">
        <ele>1286.8</ele>
        <time>2022-09-04T08:49:22Z</time>
      </trkpt>
      <trkpt lat="42.96388" lon="-0.24069">
        <ele>1286.2</ele>
        <time>2022-09-04T08:49:23Z</time>
      </trkpt>
      <trkpt lat="42.96396" lon="-0.24056">
        <ele>1284.4</ele>
        <time>2022-09-04T08:49:24Z</time>
      </trkpt>
      <trkpt lat="42.96411" lon="-0.2403">
        <ele>1283</ele>
        <time>2022-09-04T08:49:26Z</time>
      </trkpt>
      <trkpt lat="42.96417" lon="-0.24003">
        <ele>1281.4</ele>
        <time>2022-09-04T08:49:28Z</time>
      </trkpt>
      <trkpt lat="42.96412" lon="-0.23975">
        <ele>1279.8</ele>
        <time>2022-09-04T08:49:30Z</time>
      </trkpt>
      <trkpt lat="42.964" lon="-0.23945">
        <ele>1277.4</ele>
        <time>2022-09-04T08:49:32Z</time>
      </trkpt>
      <trkpt lat="42.96396" lon="-0.23933">
        <ele>1276.2</ele>
        <time>2022-09-04T08:49:33Z</time>
      </trkpt>
      <trkpt lat="42.96392" lon="-0.23918">
        <ele>1274.8</ele>
        <time>2022-09-04T08:49:34Z</time>
      </trkpt>
      <trkpt lat="42.96393" lon="-0.23889">
        <ele>1272.6</ele>
        <time>2022-09-04T08:49:36Z</time>
      </trkpt>
      <trkpt lat="42.96398" lon="-0.23873">
        <ele>1271.2</ele>
        <time>2022-09-04T08:49:37Z</time>
      </trkpt>
      <trkpt lat="42.96401" lon="-0.23862">
        <ele>1270.6</ele>
        <time>2022-09-04T08:49:38Z</time>
      </trkpt>
      <trkpt lat="42.96402" lon="-0.23846">
        <ele>1269</ele>
        <time>2022-09-04T08:49:39Z</time>
      </trkpt>
      <trkpt lat="42.96401" lon="-0.23831">
        <ele>1268.2</ele>
        <time>2022-09-04T08:49:40Z</time>
      </trkpt>
      <trkpt lat="42.96397" lon="-0.23817">
        <ele>1266.6</ele>
        <time>2022-09-04T08:49:41Z</time>
      </trkpt>
      <trkpt lat="42.96388" lon="-0.23787">
        <ele>1264</ele>
        <time>2022-09-04T08:49:43Z</time>
      </trkpt>
      <trkpt lat="42.96383" lon="-0.23773">
        <ele>1262.8</ele>
        <time>2022-09-04T08:49:44Z</time>
      </trkpt>
      <trkpt lat="42.96378" lon="-0.23757">
        <ele>1261.6</ele>
        <time>2022-09-04T08:49:45Z</time>
      </trkpt>
      <trkpt lat="42.96367" lon="-0.23727">
        <ele>1260.2</ele>
        <time>2022-09-04T08:49:47Z</time>
      </trkpt>
      <trkpt lat="42.96355" lon="-0.23697">
        <ele>1258.4</ele>
        <time>2022-09-04T08:49:49Z</time>
      </trkpt>
      <trkpt lat="42.96341" lon="-0.23667">
        <ele>1256.4</ele>
        <time>2022-09-04T08:49:51Z</time>
      </trkpt>
      <trkpt lat="42.96334" lon="-0.23653">
        <ele>1255.2</ele>
        <time>2022-09-04T08:49:52Z</time>
      </trkpt>
      <trkpt lat="42.96319" lon="-0.23625">
        <ele>1253.2</ele>
        <time>2022-09-04T08:49:54Z</time>
      </trkpt>
      <trkpt lat="42.96307" lon="-0.23594">
        <ele>1251.2</ele>
        <time>2022-09-04T08:49:56Z</time>
      </trkpt>
      <trkpt lat="42.96302" lon="-0.23577">
        <ele>1250.8</ele>
        <time>2022-09-04T08:49:57Z</time>
      </trkpt>
      <trkpt lat="42.96297" lon="-0.2356">
        <ele>1249.2</ele>
        <time>2022-09-04T08:49:58Z</time>
      </trkpt>
      <trkpt lat="42.96288" lon="-0.23526">
        <ele>1247</ele>
        <time>2022-09-04T08:50:00Z</time>
      </trkpt>
      <trkpt lat="42.96278" lon="-0.23491">
        <ele>1244.4</ele>
        <time>2022-09-04T08:50:02Z</time>
      </trkpt>
      <trkpt lat="42.96267" lon="-0.23455">
        <ele>1242</ele>
        <time>2022-09-04T08:50:04Z</time>
      </trkpt>
      <trkpt lat="42.96256" lon="-0.2342">
        <ele>1240.2</ele>
        <time>2022-09-04T08:50:06Z</time>
      </trkpt>
      <trkpt lat="42.96251" lon="-0.23405">
        <ele>1238.8</ele>
        <time>2022-09-04T08:50:07Z</time>
      </trkpt>
      <trkpt lat="42.96242" lon="-0.23376">
        <ele>1236.8</ele>
        <time>2022-09-04T08:50:09Z</time>
      </trkpt>
      <trkpt lat="42.96235" lon="-0.23351">
        <ele>1234.2</ele>
        <time>2022-09-04T08:50:11Z</time>
      </trkpt>
      <trkpt lat="42.96233" lon="-0.23339">
        <ele>1233.8</ele>
        <time>2022-09-04T08:50:12Z</time>
      </trkpt>
      <trkpt lat="42.96232" lon="-0.23327">
        <ele>1232</ele>
        <time>2022-09-04T08:50:13Z</time>
      </trkpt>
      <trkpt lat="42.96233" lon="-0.23315">
        <ele>1231</ele>
        <time>2022-09-04T08:50:14Z</time>
      </trkpt>
      <trkpt lat="42.96234" lon="-0.23304">
        <ele>1229.4</ele>
        <time>2022-09-04T08:50:15Z</time>
      </trkpt>
      <trkpt lat="42.96235" lon="-0.23293">
        <ele>1228.6</ele>
        <time>2022-09-04T08:50:16Z</time>
      </trkpt>
      <trkpt lat="42.96237" lon="-0.23283">
        <ele>1227.4</ele>
        <time>2022-09-04T08:50:17Z</time>
      </trkpt>
      <trkpt lat="42.96242" lon="-0.23262">
        <ele>1225</ele>
        <time>2022-09-04T08:50:19Z</time>
      </trkpt>
      <trkpt lat="42.96246" lon="-0.23251">
        <ele>1224</ele>
        <time>2022-09-04T08:50:20Z</time>
      </trkpt>
      <trkpt lat="42.96249" lon="-0.2324">
        <ele>1222.8</ele>
        <time>2022-09-04T08:50:21Z</time>
      </trkpt>
      <trkpt lat="42.96253" lon="-0.23229">
        <ele>1221.6</ele>
        <time>2022-09-04T08:50:22Z</time>
      </trkpt>
      <trkpt lat="42.9626" lon="-0.23205">
        <ele>1220.6</ele>
        <time>2022-09-04T08:50:24Z</time>
      </trkpt>
      <trkpt lat="42.96267" lon="-0.23181">
        <ele>1219</ele>
        <time>2022-09-04T08:50:26Z</time>
      </trkpt>
      <trkpt lat="42.96271" lon="-0.2317">
        <ele>1218.8</ele>
        <time>2022-09-04T08:50:27Z</time>
      </trkpt>
      <trkpt lat="42.96277" lon="-0.2316">
        <ele>1217.8</ele>
        <time>2022-09-04T08:50:28Z</time>
      </trkpt>
      <trkpt lat="42.96283" lon="-0.2315">
        <ele>1217.2</ele>
        <time>2022-09-04T08:50:29Z</time>
      </trkpt>
      <trkpt lat="42.9629" lon="-0.23141">
        <ele>1216.2</ele>
        <time>2022-09-04T08:50:30Z</time>
      </trkpt>
      <trkpt lat="42.96305" lon="-0.23124">
        <ele>1214.4</ele>
        <time>2022-09-04T08:50:32Z</time>
      </trkpt>
      <trkpt lat="42.96322" lon="-0.23108">
        <ele>1212.8</ele>
        <time>2022-09-04T08:50:34Z</time>
      </trkpt>
      <trkpt lat="42.96338" lon="-0.23092">
        <ele>1211.6</ele>
        <time>2022-09-04T08:50:36Z</time>
      </trkpt>
      <trkpt lat="42.96346" lon="-0.23086">
        <ele>1210.8</ele>
        <time>2022-09-04T08:50:37Z</time>
      </trkpt>
      <trkpt lat="42.96354" lon="-0.23083">
        <ele>1210.2</ele>
        <time>2022-09-04T08:50:38Z</time>
      </trkpt>
      <trkpt lat="42.96362" lon="-0.23082">
        <ele>1209.2</ele>
        <time>2022-09-04T08:50:39Z</time>
      </trkpt>
      <trkpt lat="42.96378" lon="-0.23084">
        <ele>1207.4</ele>
        <time>2022-09-04T08:50:41Z</time>
      </trkpt>
      <trkpt lat="42.96386" lon="-0.23085">
        <ele>1207</ele>
        <time>2022-09-04T08:50:42Z</time>
      </trkpt>
      <trkpt lat="42.96394" lon="-0.23085">
        <ele>1205.8</ele>
        <time>2022-09-04T08:50:43Z</time>
      </trkpt>
      <trkpt lat="42.96401" lon="-0.23082">
        <ele>1205.4</ele>
        <time>2022-09-04T08:50:44Z</time>
      </trkpt>
      <trkpt lat="42.96408" lon="-0.23079">
        <ele>1204.2</ele>
        <time>2022-09-04T08:50:45Z</time>
      </trkpt>
      <trkpt lat="42.96414" lon="-0.23072">
        <ele>1203.4</ele>
        <time>2022-09-04T08:50:46Z</time>
      </trkpt>
      <trkpt lat="42.96418" lon="-0.23063">
        <ele>1202.2</ele>
        <time>2022-09-04T08:50:47Z</time>
      </trkpt>
      <trkpt lat="42.96421" lon="-0.23053">
        <ele>1201.4</ele>
        <time>2022-09-04T08:50:48Z</time>
      </trkpt>
      <trkpt lat="42.96423" lon="-0.23041">
        <ele>1200.2</ele>
        <time>2022-09-04T08:50:49Z</time>
      </trkpt>
      <trkpt lat="42.96427" lon="-0.23018">
        <ele>1198.6</ele>
        <time>2022-09-04T08:50:51Z</time>
      </trkpt>
      <trkpt lat="42.96431" lon="-0.23007">
        <ele>1197.6</ele>
        <time>2022-09-04T08:50:52Z</time>
      </trkpt>
      <trkpt lat="42.96441" lon="-0.22989">
        <ele>1196</ele>
        <time>2022-09-04T08:50:54Z</time>
      </trkpt>
      <trkpt lat="42.96457" lon="-0.22974">
        <ele>1194.8</ele>
        <time>2022-09-04T08:50:56Z</time>
      </trkpt>
      <trkpt lat="42.96474" lon="-0.22958">
        <ele>1193.4</ele>
        <time>2022-09-04T08:50:58Z</time>
      </trkpt>
      <trkpt lat="42.96498" lon="-0.22922">
        <ele>1192.2</ele>
        <time>2022-09-04T08:51:01Z</time>
      </trkpt>
      <trkpt lat="42.9651" lon="-0.22893">
        <ele>1191</ele>
        <time>2022-09-04T08:51:03Z</time>
      </trkpt>
      <trkpt lat="42.96514" lon="-0.22877">
        <ele>1190</ele>
        <time>2022-09-04T08:51:04Z</time>
      </trkpt>
      <trkpt lat="42.96519" lon="-0.22861">
        <ele>1189.4</ele>
        <time>2022-09-04T08:51:05Z</time>
      </trkpt>
      <trkpt lat="42.96524" lon="-0.22845">
        <ele>1188.2</ele>
        <time>2022-09-04T08:51:06Z</time>
      </trkpt>
      <trkpt lat="42.96534" lon="-0.22811">
        <ele>1187</ele>
        <time>2022-09-04T08:51:08Z</time>
      </trkpt>
      <trkpt lat="42.96538" lon="-0.22795">
        <ele>1185.8</ele>
        <time>2022-09-04T08:51:09Z</time>
      </trkpt>
      <trkpt lat="42.96544" lon="-0.22779">
        <ele>1185.4</ele>
        <time>2022-09-04T08:51:10Z</time>
      </trkpt>
      <trkpt lat="42.96551" lon="-0.22766">
        <ele>1184.6</ele>
        <time>2022-09-04T08:51:11Z</time>
      </trkpt>
      <trkpt lat="42.9656" lon="-0.22756">
        <ele>1184</ele>
        <time>2022-09-04T08:51:12Z</time>
      </trkpt>
      <trkpt lat="42.9657" lon="-0.2275">
        <ele>1182.6</ele>
        <time>2022-09-04T08:51:13Z</time>
      </trkpt>
      <trkpt lat="42.96582" lon="-0.22747">
        <ele>1181.8</ele>
        <time>2022-09-04T08:51:14Z</time>
      </trkpt>
      <trkpt lat="42.96594" lon="-0.22747">
        <ele>1180</ele>
        <time>2022-09-04T08:51:15Z</time>
      </trkpt>
      <trkpt lat="42.96605" lon="-0.22752">
        <ele>1179.2</ele>
        <time>2022-09-04T08:51:16Z</time>
      </trkpt>
      <trkpt lat="42.96616" lon="-0.2276">
        <ele>1177.6</ele>
        <time>2022-09-04T08:51:17Z</time>
      </trkpt>
      <trkpt lat="42.96636" lon="-0.22778">
        <ele>1175.4</ele>
        <time>2022-09-04T08:51:19Z</time>
      </trkpt>
      <trkpt lat="42.96646" lon="-0.22784">
        <ele>1174.6</ele>
        <time>2022-09-04T08:51:20Z</time>
      </trkpt>
      <trkpt lat="42.96657" lon="-0.22785">
        <ele>1173.6</ele>
        <time>2022-09-04T08:51:21Z</time>
      </trkpt>
      <trkpt lat="42.96669" lon="-0.22783">
        <ele>1173</ele>
        <time>2022-09-04T08:51:22Z</time>
      </trkpt>
      <trkpt lat="42.9668" lon="-0.22778">
        <ele>1171.6</ele>
        <time>2022-09-04T08:51:23Z</time>
      </trkpt>
      <trkpt lat="42.96691" lon="-0.22769">
        <ele>1170.2</ele>
        <time>2022-09-04T08:51:24Z</time>
      </trkpt>
      <trkpt lat="42.9671" lon="-0.22749">
        <ele>1168.4</ele>
        <time>2022-09-04T08:51:26Z</time>
      </trkpt>
      <trkpt lat="42.96716" lon="-0.22735">
        <ele>1167.6</ele>
        <time>2022-09-04T08:51:27Z</time>
      </trkpt>
      <trkpt lat="42.9672" lon="-0.22721">
        <ele>1166</ele>
        <time>2022-09-04T08:51:28Z</time>
      </trkpt>
      <trkpt lat="42.96721" lon="-0.22705">
        <ele>1165.8</ele>
        <time>2022-09-04T08:51:29Z</time>
      </trkpt>
      <trkpt lat="42.96718" lon="-0.22689">
        <ele>1164.2</ele>
        <time>2022-09-04T08:51:30Z</time>
      </trkpt>
      <trkpt lat="42.96712" lon="-0.22656">
        <ele>1161.8</ele>
        <time>2022-09-04T08:51:32Z</time>
      </trkpt>
      <trkpt lat="42.96711" lon="-0.22623">
        <ele>1159.8</ele>
        <time>2022-09-04T08:51:34Z</time>
      </trkpt>
      <trkpt lat="42.96713" lon="-0.22606">
        <ele>1159.2</ele>
        <time>2022-09-04T08:51:35Z</time>
      </trkpt>
      <trkpt lat="42.96716" lon="-0.22588">
        <ele>1158.2</ele>
        <time>2022-09-04T08:51:36Z</time>
      </trkpt>
      <trkpt lat="42.96723" lon="-0.22553">
        <ele>1156.4</ele>
        <time>2022-09-04T08:51:38Z</time>
      </trkpt>
      <trkpt lat="42.96726" lon="-0.22535">
        <ele>1154.8</ele>
        <time>2022-09-04T08:51:39Z</time>
      </trkpt>
      <trkpt lat="42.96729" lon="-0.22518">
        <ele>1154.2</ele>
        <time>2022-09-04T08:51:40Z</time>
      </trkpt>
      <trkpt lat="42.96729" lon="-0.225">
        <ele>1152.6</ele>
        <time>2022-09-04T08:51:41Z</time>
      </trkpt>
      <trkpt lat="42.96725" lon="-0.22482">
        <ele>1152</ele>
        <time>2022-09-04T08:51:42Z</time>
      </trkpt>
      <trkpt lat="42.96719" lon="-0.22467">
        <ele>1150.8</ele>
        <time>2022-09-04T08:51:43Z</time>
      </trkpt>
      <trkpt lat="42.96711" lon="-0.22452">
        <ele>1149.8</ele>
        <time>2022-09-04T08:51:44Z</time>
      </trkpt>
      <trkpt lat="42.96702" lon="-0.22439">
        <ele>1148</ele>
        <time>2022-09-04T08:51:45Z</time>
      </trkpt>
      <trkpt lat="42.96693" lon="-0.22428">
        <ele>1147</ele>
        <time>2022-09-04T08:51:46Z</time>
      </trkpt>
      <trkpt lat="42.96685" lon="-0.22416">
        <ele>1145.6</ele>
        <time>2022-09-04T08:51:47Z</time>
      </trkpt>
      <trkpt lat="42.96676" lon="-0.22406">
        <ele>1144.2</ele>
        <time>2022-09-04T08:51:48Z</time>
      </trkpt>
      <trkpt lat="42.96667" lon="-0.22398">
        <ele>1143</ele>
        <time>2022-09-04T08:51:49Z</time>
      </trkpt>
      <trkpt lat="42.96657" lon="-0.22392">
        <ele>1142.4</ele>
        <time>2022-09-04T08:51:50Z</time>
      </trkpt>
      <trkpt lat="42.96647" lon="-0.22387">
        <ele>1141.4</ele>
        <time>2022-09-04T08:51:51Z</time>
      </trkpt>
      <trkpt lat="42.96636" lon="-0.22384">
        <ele>1141</ele>
        <time>2022-09-04T08:51:52Z</time>
      </trkpt>
      <trkpt lat="42.96625" lon="-0.22384">
        <ele>1140.2</ele>
        <time>2022-09-04T08:51:53Z</time>
      </trkpt>
      <trkpt lat="42.96614" lon="-0.22384">
        <ele>1139.6</ele>
        <time>2022-09-04T08:51:54Z</time>
      </trkpt>
      <trkpt lat="42.96603" lon="-0.22388">
        <ele>1139.2</ele>
        <time>2022-09-04T08:51:55Z</time>
      </trkpt>
      <trkpt lat="42.96568" lon="-0.22399">
        <ele>1137.6</ele>
        <time>2022-09-04T08:51:58Z</time>
      </trkpt>
      <trkpt lat="42.96556" lon="-0.224">
        <ele>1137.4</ele>
        <time>2022-09-04T08:51:59Z</time>
      </trkpt>
      <trkpt lat="42.96545" lon="-0.22399">
        <ele>1136.4</ele>
        <time>2022-09-04T08:52:00Z</time>
      </trkpt>
      <trkpt lat="42.96534" lon="-0.22397">
        <ele>1136</ele>
        <time>2022-09-04T08:52:01Z</time>
      </trkpt>
      <trkpt lat="42.96525" lon="-0.22393">
        <ele>1135.8</ele>
        <time>2022-09-04T08:52:02Z</time>
      </trkpt>
      <trkpt lat="42.96517" lon="-0.22386">
        <ele>1135.2</ele>
        <time>2022-09-04T08:52:03Z</time>
      </trkpt>
      <trkpt lat="42.9651" lon="-0.22376">
        <ele>1134.8</ele>
        <time>2022-09-04T08:52:04Z</time>
      </trkpt>
      <trkpt lat="42.96507" lon="-0.22364">
        <ele>1134.4</ele>
        <time>2022-09-04T08:52:05Z</time>
      </trkpt>
      <trkpt lat="42.96508" lon="-0.2235">
        <ele>1133.4</ele>
        <time>2022-09-04T08:52:06Z</time>
      </trkpt>
      <trkpt lat="42.9651" lon="-0.22335">
        <ele>1132.8</ele>
        <time>2022-09-04T08:52:07Z</time>
      </trkpt>
      <trkpt lat="42.96514" lon="-0.22321">
        <ele>1131.8</ele>
        <time>2022-09-04T08:52:08Z</time>
      </trkpt>
      <trkpt lat="42.96518" lon="-0.22306">
        <ele>1131.2</ele>
        <time>2022-09-04T08:52:09Z</time>
      </trkpt>
      <trkpt lat="42.96524" lon="-0.2229">
        <ele>1130.4</ele>
        <time>2022-09-04T08:52:10Z</time>
      </trkpt>
      <trkpt lat="42.96531" lon="-0.22274">
        <ele>1128.6</ele>
        <time>2022-09-04T08:52:11Z</time>
      </trkpt>
      <trkpt lat="42.96544" lon="-0.22239">
        <ele>1126</ele>
        <time>2022-09-04T08:52:13Z</time>
      </trkpt>
      <trkpt lat="42.96556" lon="-0.22206">
        <ele>1122.8</ele>
        <time>2022-09-04T08:52:15Z</time>
      </trkpt>
      <trkpt lat="42.9656" lon="-0.2219">
        <ele>1121.4</ele>
        <time>2022-09-04T08:52:16Z</time>
      </trkpt>
      <trkpt lat="42.96561" lon="-0.22174">
        <ele>1119.6</ele>
        <time>2022-09-04T08:52:17Z</time>
      </trkpt>
      <trkpt lat="42.96559" lon="-0.22159">
        <ele>1119</ele>
        <time>2022-09-04T08:52:18Z</time>
      </trkpt>
      <trkpt lat="42.96556" lon="-0.22144">
        <ele>1117.4</ele>
        <time>2022-09-04T08:52:19Z</time>
      </trkpt>
      <trkpt lat="42.96552" lon="-0.22129">
        <ele>1117</ele>
        <time>2022-09-04T08:52:20Z</time>
      </trkpt>
      <trkpt lat="42.9655" lon="-0.22113">
        <ele>1116</ele>
        <time>2022-09-04T08:52:21Z</time>
      </trkpt>
      <trkpt lat="42.96549" lon="-0.22097">
        <ele>1115.6</ele>
        <time>2022-09-04T08:52:22Z</time>
      </trkpt>
      <trkpt lat="42.9655" lon="-0.2208">
        <ele>1114.8</ele>
        <time>2022-09-04T08:52:23Z</time>
      </trkpt>
      <trkpt lat="42.96558" lon="-0.22032">
        <ele>1113.2</ele>
        <time>2022-09-04T08:52:26Z</time>
      </trkpt>
      <trkpt lat="42.9657" lon="-0.22004">
        <ele>1111.6</ele>
        <time>2022-09-04T08:52:28Z</time>
      </trkpt>
      <trkpt lat="42.96577" lon="-0.21992">
        <ele>1111.2</ele>
        <time>2022-09-04T08:52:29Z</time>
      </trkpt>
      <trkpt lat="42.96583" lon="-0.21978">
        <ele>1109.8</ele>
        <time>2022-09-04T08:52:30Z</time>
      </trkpt>
      <trkpt lat="42.96589" lon="-0.21964">
        <ele>1108.6</ele>
        <time>2022-09-04T08:52:31Z</time>
      </trkpt>
      <trkpt lat="42.96592" lon="-0.21948">
        <ele>1107.2</ele>
        <time>2022-09-04T08:52:32Z</time>
      </trkpt>
      <trkpt lat="42.96594" lon="-0.21915">
        <ele>1105</ele>
        <time>2022-09-04T08:52:34Z</time>
      </trkpt>
      <trkpt lat="42.96595" lon="-0.21898">
        <ele>1104.4</ele>
        <time>2022-09-04T08:52:35Z</time>
      </trkpt>
      <trkpt lat="42.96597" lon="-0.21882">
        <ele>1103.2</ele>
        <time>2022-09-04T08:52:36Z</time>
      </trkpt>
      <trkpt lat="42.96603" lon="-0.21848">
        <ele>1100.8</ele>
        <time>2022-09-04T08:52:38Z</time>
      </trkpt>
      <trkpt lat="42.96606" lon="-0.2183">
        <ele>1099.6</ele>
        <time>2022-09-04T08:52:39Z</time>
      </trkpt>
      <trkpt lat="42.96611" lon="-0.21795">
        <ele>1097.6</ele>
        <time>2022-09-04T08:52:41Z</time>
      </trkpt>
      <trkpt lat="42.96613" lon="-0.21777">
        <ele>1097</ele>
        <time>2022-09-04T08:52:42Z</time>
      </trkpt>
      <trkpt lat="42.96617" lon="-0.2176">
        <ele>1095.4</ele>
        <time>2022-09-04T08:52:43Z</time>
      </trkpt>
      <trkpt lat="42.96622" lon="-0.21743">
        <ele>1094.8</ele>
        <time>2022-09-04T08:52:44Z</time>
      </trkpt>
      <trkpt lat="42.96627" lon="-0.21725">
        <ele>1093.2</ele>
        <time>2022-09-04T08:52:45Z</time>
      </trkpt>
      <trkpt lat="42.96635" lon="-0.2169">
        <ele>1091</ele>
        <time>2022-09-04T08:52:47Z</time>
      </trkpt>
      <trkpt lat="42.96638" lon="-0.21671">
        <ele>1090.4</ele>
        <time>2022-09-04T08:52:48Z</time>
      </trkpt>
      <trkpt lat="42.9664" lon="-0.21652">
        <ele>1088.6</ele>
        <time>2022-09-04T08:52:49Z</time>
      </trkpt>
      <trkpt lat="42.9664" lon="-0.21633">
        <ele>1087.8</ele>
        <time>2022-09-04T08:52:50Z</time>
      </trkpt>
      <trkpt lat="42.9664" lon="-0.21615">
        <ele>1086.2</ele>
        <time>2022-09-04T08:52:51Z</time>
      </trkpt>
      <trkpt lat="42.96641" lon="-0.21597">
        <ele>1085</ele>
        <time>2022-09-04T08:52:52Z</time>
      </trkpt>
      <trkpt lat="42.96645" lon="-0.21566">
        <ele>1082.4</ele>
        <time>2022-09-04T08:52:54Z</time>
      </trkpt>
      <trkpt lat="42.96649" lon="-0.21543">
        <ele>1080.4</ele>
        <time>2022-09-04T08:52:56Z</time>
      </trkpt>
      <trkpt lat="42.96643" lon="-0.21524">
        <ele>1078.2</ele>
        <time>2022-09-04T08:52:58Z</time>
      </trkpt>
      <trkpt lat="42.96629" lon="-0.2152">
        <ele>1075.4</ele>
        <time>2022-09-04T08:53:00Z</time>
      </trkpt>
      <trkpt lat="42.96617" lon="-0.21534">
        <ele>1073</ele>
        <time>2022-09-04T08:53:02Z</time>
      </trkpt>
      <trkpt lat="42.96608" lon="-0.21556">
        <ele>1070.8</ele>
        <time>2022-09-04T08:53:04Z</time>
      </trkpt>
      <trkpt lat="42.966" lon="-0.21582">
        <ele>1068.8</ele>
        <time>2022-09-04T08:53:06Z</time>
      </trkpt>
      <trkpt lat="42.96595" lon="-0.21595">
        <ele>1067.8</ele>
        <time>2022-09-04T08:53:07Z</time>
      </trkpt>
      <trkpt lat="42.9658" lon="-0.21616">
        <ele>1067</ele>
        <time>2022-09-04T08:53:09Z</time>
      </trkpt>
      <trkpt lat="42.96569" lon="-0.21623">
        <ele>1066.6</ele>
        <time>2022-09-04T08:53:10Z</time>
      </trkpt>
      <trkpt lat="42.96546" lon="-0.21634">
        <ele>1065.2</ele>
        <time>2022-09-04T08:53:12Z</time>
      </trkpt>
      <trkpt lat="42.96536" lon="-0.21643">
        <ele>1063.8</ele>
        <time>2022-09-04T08:53:13Z</time>
      </trkpt>
      <trkpt lat="42.96526" lon="-0.21654">
        <ele>1063.4</ele>
        <time>2022-09-04T08:53:14Z</time>
      </trkpt>
      <trkpt lat="42.96517" lon="-0.21667">
        <ele>1062.2</ele>
        <time>2022-09-04T08:53:15Z</time>
      </trkpt>
      <trkpt lat="42.96497" lon="-0.21692">
        <ele>1060.4</ele>
        <time>2022-09-04T08:53:17Z</time>
      </trkpt>
      <trkpt lat="42.96475" lon="-0.21716">
        <ele>1058.6</ele>
        <time>2022-09-04T08:53:19Z</time>
      </trkpt>
      <trkpt lat="42.96465" lon="-0.21728">
        <ele>1058</ele>
        <time>2022-09-04T08:53:20Z</time>
      </trkpt>
      <trkpt lat="42.96454" lon="-0.2174">
        <ele>1056.8</ele>
        <time>2022-09-04T08:53:21Z</time>
      </trkpt>
      <trkpt lat="42.96442" lon="-0.21751">
        <ele>1055.6</ele>
        <time>2022-09-04T08:53:22Z</time>
      </trkpt>
      <trkpt lat="42.9642" lon="-0.21776">
        <ele>1053.6</ele>
        <time>2022-09-04T08:53:24Z</time>
      </trkpt>
      <trkpt lat="42.96409" lon="-0.21788">
        <ele>1053</ele>
        <time>2022-09-04T08:53:25Z</time>
      </trkpt>
      <trkpt lat="42.96397" lon="-0.218">
        <ele>1051.8</ele>
        <time>2022-09-04T08:53:26Z</time>
      </trkpt>
      <trkpt lat="42.96375" lon="-0.21826">
        <ele>1049.6</ele>
        <time>2022-09-04T08:53:28Z</time>
      </trkpt>
      <trkpt lat="42.96354" lon="-0.2185">
        <ele>1047</ele>
        <time>2022-09-04T08:53:30Z</time>
      </trkpt>
      <trkpt lat="42.96345" lon="-0.21861">
        <ele>1046</ele>
        <time>2022-09-04T08:53:31Z</time>
      </trkpt>
      <trkpt lat="42.96335" lon="-0.21871">
        <ele>1044.6</ele>
        <time>2022-09-04T08:53:32Z</time>
      </trkpt>
      <trkpt lat="42.96326" lon="-0.2188">
        <ele>1044</ele>
        <time>2022-09-04T08:53:33Z</time>
      </trkpt>
      <trkpt lat="42.96317" lon="-0.21886">
        <ele>1042.4</ele>
        <time>2022-09-04T08:53:34Z</time>
      </trkpt>
      <trkpt lat="42.96308" lon="-0.21889">
        <ele>1041.4</ele>
        <time>2022-09-04T08:53:35Z</time>
      </trkpt>
      <trkpt lat="42.96299" lon="-0.21888">
        <ele>1039.6</ele>
        <time>2022-09-04T08:53:36Z</time>
      </trkpt>
      <trkpt lat="42.96292" lon="-0.21882">
        <ele>1037.8</ele>
        <time>2022-09-04T08:53:37Z</time>
      </trkpt>
      <trkpt lat="42.96288" lon="-0.21869">
        <ele>1036.8</ele>
        <time>2022-09-04T08:53:38Z</time>
      </trkpt>
      <trkpt lat="42.96285" lon="-0.21854">
        <ele>1034.8</ele>
        <time>2022-09-04T08:53:39Z</time>
      </trkpt>
      <trkpt lat="42.96284" lon="-0.21825">
        <ele>1032.2</ele>
        <time>2022-09-04T08:53:41Z</time>
      </trkpt>
      <trkpt lat="42.96281" lon="-0.21815">
        <ele>1031.4</ele>
        <time>2022-09-04T08:53:42Z</time>
      </trkpt>
      <trkpt lat="42.96275" lon="-0.21806">
        <ele>1030.2</ele>
        <time>2022-09-04T08:53:43Z</time>
      </trkpt>
      <trkpt lat="42.96266" lon="-0.218">
        <ele>1029.8</ele>
        <time>2022-09-04T08:53:44Z</time>
      </trkpt>
      <trkpt lat="42.96256" lon="-0.21797">
        <ele>1028.6</ele>
        <time>2022-09-04T08:53:45Z</time>
      </trkpt>
      <trkpt lat="42.96247" lon="-0.21798">
        <ele>1028</ele>
        <time>2022-09-04T08:53:46Z</time>
      </trkpt>
      <trkpt lat="42.96239" lon="-0.21803">
        <ele>1027.4</ele>
        <time>2022-09-04T08:53:47Z</time>
      </trkpt>
      <trkpt lat="42.96233" lon="-0.21814">
        <ele>1026.6</ele>
        <time>2022-09-04T08:53:48Z</time>
      </trkpt>
      <trkpt lat="42.96228" lon="-0.21828">
        <ele>1025.4</ele>
        <time>2022-09-04T08:53:49Z</time>
      </trkpt>
      <trkpt lat="42.96222" lon="-0.21856">
        <ele>1022.8</ele>
        <time>2022-09-04T08:53:51Z</time>
      </trkpt>
      <trkpt lat="42.9622" lon="-0.2187">
        <ele>1021.4</ele>
        <time>2022-09-04T08:53:52Z</time>
      </trkpt>
      <trkpt lat="42.96223" lon="-0.21883">
        <ele>1021</ele>
        <time>2022-09-04T08:53:53Z</time>
      </trkpt>
      <trkpt lat="42.96227" lon="-0.21894">
        <ele>1019.8</ele>
        <time>2022-09-04T08:53:54Z</time>
      </trkpt>
      <trkpt lat="42.96231" lon="-0.21906">
        <ele>1019.6</ele>
        <time>2022-09-04T08:53:55Z</time>
      </trkpt>
      <trkpt lat="42.96232" lon="-0.21918">
        <ele>1018</ele>
        <time>2022-09-04T08:53:56Z</time>
      </trkpt>
      <trkpt lat="42.96228" lon="-0.2193">
        <ele>1017.4</ele>
        <time>2022-09-04T08:53:57Z</time>
      </trkpt>
      <trkpt lat="42.96222" lon="-0.21937">
        <ele>1016.2</ele>
        <time>2022-09-04T08:53:58Z</time>
      </trkpt>
      <trkpt lat="42.96214" lon="-0.21942">
        <ele>1015.2</ele>
        <time>2022-09-04T08:53:59Z</time>
      </trkpt>
      <trkpt lat="42.96206" lon="-0.21943">
        <ele>1014</ele>
        <time>2022-09-04T08:54:00Z</time>
      </trkpt>
      <trkpt lat="42.96197" lon="-0.21941">
        <ele>1013.4</ele>
        <time>2022-09-04T08:54:01Z</time>
      </trkpt>
      <trkpt lat="42.96188" lon="-0.21938">
        <ele>1012</ele>
        <time>2022-09-04T08:54:02Z</time>
      </trkpt>
      <trkpt lat="42.96178" lon="-0.21935">
        <ele>1011.6</ele>
        <time>2022-09-04T08:54:03Z</time>
      </trkpt>
      <trkpt lat="42.96168" lon="-0.21932">
        <ele>1010.4</ele>
        <time>2022-09-04T08:54:04Z</time>
      </trkpt>
      <trkpt lat="42.96148" lon="-0.21929">
        <ele>1009.4</ele>
        <time>2022-09-04T08:54:06Z</time>
      </trkpt>
      <trkpt lat="42.96139" lon="-0.21931">
        <ele>1008.6</ele>
        <time>2022-09-04T08:54:07Z</time>
      </trkpt>
      <trkpt lat="42.96131" lon="-0.21936">
        <ele>1008.2</ele>
        <time>2022-09-04T08:54:08Z</time>
      </trkpt>
      <trkpt lat="42.96124" lon="-0.21944">
        <ele>1007.4</ele>
        <time>2022-09-04T08:54:09Z</time>
      </trkpt>
      <trkpt lat="42.96119" lon="-0.21954">
        <ele>1007</ele>
        <time>2022-09-04T08:54:10Z</time>
      </trkpt>
      <trkpt lat="42.96118" lon="-0.21967">
        <ele>1005.2</ele>
        <time>2022-09-04T08:54:11Z</time>
      </trkpt>
      <trkpt lat="42.96119" lon="-0.21981">
        <ele>1004.6</ele>
        <time>2022-09-04T08:54:12Z</time>
      </trkpt>
      <trkpt lat="42.96121" lon="-0.21996">
        <ele>1003.8</ele>
        <time>2022-09-04T08:54:13Z</time>
      </trkpt>
      <trkpt lat="42.96123" lon="-0.2201">
        <ele>1003</ele>
        <time>2022-09-04T08:54:14Z</time>
      </trkpt>
      <trkpt lat="42.96125" lon="-0.22024">
        <ele>1001</ele>
        <time>2022-09-04T08:54:15Z</time>
      </trkpt>
      <trkpt lat="42.96121" lon="-0.22049">
        <ele>999</ele>
        <time>2022-09-04T08:54:17Z</time>
      </trkpt>
      <trkpt lat="42.9611" lon="-0.2206">
        <ele>996.8</ele>
        <time>2022-09-04T08:54:19Z</time>
      </trkpt>
      <trkpt lat="42.96096" lon="-0.22052">
        <ele>994.8</ele>
        <time>2022-09-04T08:54:21Z</time>
      </trkpt>
      <trkpt lat="42.96091" lon="-0.2204">
        <ele>993.8</ele>
        <time>2022-09-04T08:54:22Z</time>
      </trkpt>
      <trkpt lat="42.96087" lon="-0.22026">
        <ele>993.2</ele>
        <time>2022-09-04T08:54:23Z</time>
      </trkpt>
      <trkpt lat="42.96085" lon="-0.22011">
        <ele>992</ele>
        <time>2022-09-04T08:54:24Z</time>
      </trkpt>
      <trkpt lat="42.9608" lon="-0.21982">
        <ele>990.4</ele>
        <time>2022-09-04T08:54:26Z</time>
      </trkpt>
      <trkpt lat="42.96077" lon="-0.21968">
        <ele>989.8</ele>
        <time>2022-09-04T08:54:27Z</time>
      </trkpt>
      <trkpt lat="42.96074" lon="-0.21956">
        <ele>989.2</ele>
        <time>2022-09-04T08:54:28Z</time>
      </trkpt>
      <trkpt lat="42.96068" lon="-0.21932">
        <ele>988</ele>
        <time>2022-09-04T08:54:30Z</time>
      </trkpt>
      <trkpt lat="42.96067" lon="-0.2192">
        <ele>987.6</ele>
        <time>2022-09-04T08:54:31Z</time>
      </trkpt>
      <trkpt lat="42.96067" lon="-0.21907">
        <ele>987.2</ele>
        <time>2022-09-04T08:54:32Z</time>
      </trkpt>
      <trkpt lat="42.96072" lon="-0.21882">
        <ele>986.6</ele>
        <time>2022-09-04T08:54:34Z</time>
      </trkpt>
      <trkpt lat="42.9608" lon="-0.21858">
        <ele>986.2</ele>
        <time>2022-09-04T08:54:36Z</time>
      </trkpt>
      <trkpt lat="42.96083" lon="-0.21831">
        <ele>985.8</ele>
        <time>2022-09-04T08:54:38Z</time>
      </trkpt>
      <trkpt lat="42.9608" lon="-0.21788">
        <ele>983.8</ele>
        <time>2022-09-04T08:54:41Z</time>
      </trkpt>
      <trkpt lat="42.9608" lon="-0.21774">
        <ele>983.4</ele>
        <time>2022-09-04T08:54:42Z</time>
      </trkpt>
      <trkpt lat="42.96081" lon="-0.21759">
        <ele>982.8</ele>
        <time>2022-09-04T08:54:43Z</time>
      </trkpt>
      <trkpt lat="42.96087" lon="-0.21729">
        <ele>981.4</ele>
        <time>2022-09-04T08:54:45Z</time>
      </trkpt>
      <trkpt lat="42.9609" lon="-0.21713">
        <ele>980.8</ele>
        <time>2022-09-04T08:54:46Z</time>
      </trkpt>
      <trkpt lat="42.9609" lon="-0.21697">
        <ele>979.8</ele>
        <time>2022-09-04T08:54:47Z</time>
      </trkpt>
      <trkpt lat="42.96089" lon="-0.21664">
        <ele>978.4</ele>
        <time>2022-09-04T08:54:49Z</time>
      </trkpt>
      <trkpt lat="42.96089" lon="-0.21647">
        <ele>977</ele>
        <time>2022-09-04T08:54:50Z</time>
      </trkpt>
      <trkpt lat="42.96091" lon="-0.21613">
        <ele>975.6</ele>
        <time>2022-09-04T08:54:52Z</time>
      </trkpt>
      <trkpt lat="42.96093" lon="-0.21595">
        <ele>975</ele>
        <time>2022-09-04T08:54:53Z</time>
      </trkpt>
      <trkpt lat="42.96094" lon="-0.21578">
        <ele>974</ele>
        <time>2022-09-04T08:54:54Z</time>
      </trkpt>
      <trkpt lat="42.96097" lon="-0.21541">
        <ele>972.2</ele>
        <time>2022-09-04T08:54:56Z</time>
      </trkpt>
      <trkpt lat="42.96099" lon="-0.21505">
        <ele>970.6</ele>
        <time>2022-09-04T08:54:58Z</time>
      </trkpt>
      <trkpt lat="42.96099" lon="-0.21487">
        <ele>970</ele>
        <time>2022-09-04T08:54:59Z</time>
      </trkpt>
      <trkpt lat="42.96097" lon="-0.2147">
        <ele>969</ele>
        <time>2022-09-04T08:55:00Z</time>
      </trkpt>
      <trkpt lat="42.96094" lon="-0.21454">
        <ele>968</ele>
        <time>2022-09-04T08:55:01Z</time>
      </trkpt>
      <trkpt lat="42.96088" lon="-0.21439">
        <ele>966.6</ele>
        <time>2022-09-04T08:55:02Z</time>
      </trkpt>
      <trkpt lat="42.9608" lon="-0.21425">
        <ele>965.8</ele>
        <time>2022-09-04T08:55:03Z</time>
      </trkpt>
      <trkpt lat="42.96071" lon="-0.21413">
        <ele>964</ele>
        <time>2022-09-04T08:55:04Z</time>
      </trkpt>
      <trkpt lat="42.96064" lon="-0.21402">
        <ele>962.2</ele>
        <time>2022-09-04T08:55:05Z</time>
      </trkpt>
      <trkpt lat="42.96055" lon="-0.21373">
        <ele>959.8</ele>
        <time>2022-09-04T08:55:07Z</time>
      </trkpt>
      <trkpt lat="42.96057" lon="-0.21342">
        <ele>957.4</ele>
        <time>2022-09-04T08:55:09Z</time>
      </trkpt>
      <trkpt lat="42.96062" lon="-0.21311">
        <ele>955.2</ele>
        <time>2022-09-04T08:55:11Z</time>
      </trkpt>
      <trkpt lat="42.96063" lon="-0.21278">
        <ele>953.4</ele>
        <time>2022-09-04T08:55:13Z</time>
      </trkpt>
      <trkpt lat="42.96063" lon="-0.21244">
        <ele>951</ele>
        <time>2022-09-04T08:55:15Z</time>
      </trkpt>
      <trkpt lat="42.96063" lon="-0.2121">
        <ele>949.2</ele>
        <time>2022-09-04T08:55:17Z</time>
      </trkpt>
      <trkpt lat="42.96063" lon="-0.21176">
        <ele>947.2</ele>
        <time>2022-09-04T08:55:19Z</time>
      </trkpt>
      <trkpt lat="42.96063" lon="-0.2116">
        <ele>946.2</ele>
        <time>2022-09-04T08:55:20Z</time>
      </trkpt>
      <trkpt lat="42.96062" lon="-0.21146">
        <ele>945.4</ele>
        <time>2022-09-04T08:55:21Z</time>
      </trkpt>
      <trkpt lat="42.9606" lon="-0.21133">
        <ele>944.4</ele>
        <time>2022-09-04T08:55:22Z</time>
      </trkpt>
      <trkpt lat="42.96056" lon="-0.21124">
        <ele>943.6</ele>
        <time>2022-09-04T08:55:23Z</time>
      </trkpt>
      <trkpt lat="42.96049" lon="-0.21118">
        <ele>942.2</ele>
        <time>2022-09-04T08:55:24Z</time>
      </trkpt>
      <trkpt lat="42.96041" lon="-0.21116">
        <ele>941.2</ele>
        <time>2022-09-04T08:55:25Z</time>
      </trkpt>
      <trkpt lat="42.96034" lon="-0.21118">
        <ele>939.6</ele>
        <time>2022-09-04T08:55:26Z</time>
      </trkpt>
      <trkpt lat="42.96027" lon="-0.21124">
        <ele>938.8</ele>
        <time>2022-09-04T08:55:27Z</time>
      </trkpt>
      <trkpt lat="42.96021" lon="-0.21134">
        <ele>937.4</ele>
        <time>2022-09-04T08:55:28Z</time>
      </trkpt>
      <trkpt lat="42.96011" lon="-0.21156">
        <ele>936</ele>
        <time>2022-09-04T08:55:30Z</time>
      </trkpt>
      <trkpt lat="42.96005" lon="-0.21168">
        <ele>935.6</ele>
        <time>2022-09-04T08:55:31Z</time>
      </trkpt>
      <trkpt lat="42.95998" lon="-0.2118">
        <ele>934.8</ele>
        <time>2022-09-04T08:55:32Z</time>
      </trkpt>
      <trkpt lat="42.95991" lon="-0.21191">
        <ele>934</ele>
        <time>2022-09-04T08:55:33Z</time>
      </trkpt>
      <trkpt lat="42.95983" lon="-0.21202">
        <ele>933</ele>
        <time>2022-09-04T08:55:34Z</time>
      </trkpt>
      <trkpt lat="42.95965" lon="-0.21223">
        <ele>931.6</ele>
        <time>2022-09-04T08:55:36Z</time>
      </trkpt>
      <trkpt lat="42.95956" lon="-0.21234">
        <ele>930.8</ele>
        <time>2022-09-04T08:55:37Z</time>
      </trkpt>
      <trkpt lat="42.95947" lon="-0.21245">
        <ele>930.2</ele>
        <time>2022-09-04T08:55:38Z</time>
      </trkpt>
      <trkpt lat="42.95938" lon="-0.21257">
        <ele>929.4</ele>
        <time>2022-09-04T08:55:39Z</time>
      </trkpt>
      <trkpt lat="42.95929" lon="-0.2127">
        <ele>929</ele>
        <time>2022-09-04T08:55:40Z</time>
      </trkpt>
      <trkpt lat="42.95921" lon="-0.21284">
        <ele>927.4</ele>
        <time>2022-09-04T08:55:41Z</time>
      </trkpt>
      <trkpt lat="42.95906" lon="-0.21312">
        <ele>925.6</ele>
        <time>2022-09-04T08:55:43Z</time>
      </trkpt>
      <trkpt lat="42.95897" lon="-0.21324">
        <ele>925.2</ele>
        <time>2022-09-04T08:55:44Z</time>
      </trkpt>
      <trkpt lat="42.95887" lon="-0.21334">
        <ele>923.8</ele>
        <time>2022-09-04T08:55:45Z</time>
      </trkpt>
      <trkpt lat="42.95869" lon="-0.21353">
        <ele>922.2</ele>
        <time>2022-09-04T08:55:47Z</time>
      </trkpt>
      <trkpt lat="42.95861" lon="-0.21363">
        <ele>921</ele>
        <time>2022-09-04T08:55:48Z</time>
      </trkpt>
      <trkpt lat="42.95855" lon="-0.21375">
        <ele>920.4</ele>
        <time>2022-09-04T08:55:49Z</time>
      </trkpt>
      <trkpt lat="42.95851" lon="-0.21389">
        <ele>919.2</ele>
        <time>2022-09-04T08:55:50Z</time>
      </trkpt>
      <trkpt lat="42.95849" lon="-0.21403">
        <ele>918.4</ele>
        <time>2022-09-04T08:55:51Z</time>
      </trkpt>
      <trkpt lat="42.95847" lon="-0.21418">
        <ele>916.8</ele>
        <time>2022-09-04T08:55:52Z</time>
      </trkpt>
      <trkpt lat="42.95844" lon="-0.21433">
        <ele>916</ele>
        <time>2022-09-04T08:55:53Z</time>
      </trkpt>
      <trkpt lat="42.95839" lon="-0.21448">
        <ele>914.8</ele>
        <time>2022-09-04T08:55:54Z</time>
      </trkpt>
      <trkpt lat="42.95826" lon="-0.21476">
        <ele>913.2</ele>
        <time>2022-09-04T08:55:56Z</time>
      </trkpt>
      <trkpt lat="42.95813" lon="-0.21502">
        <ele>911.2</ele>
        <time>2022-09-04T08:55:58Z</time>
      </trkpt>
      <trkpt lat="42.95806" lon="-0.21513">
        <ele>910.8</ele>
        <time>2022-09-04T08:55:59Z</time>
      </trkpt>
      <trkpt lat="42.95797" lon="-0.21523">
        <ele>909.6</ele>
        <time>2022-09-04T08:56:00Z</time>
      </trkpt>
      <trkpt lat="42.95787" lon="-0.2153">
        <ele>909</ele>
        <time>2022-09-04T08:56:01Z</time>
      </trkpt>
      <trkpt lat="42.95776" lon="-0.21537">
        <ele>907.4</ele>
        <time>2022-09-04T08:56:02Z</time>
      </trkpt>
      <trkpt lat="42.95766" lon="-0.21545">
        <ele>906</ele>
        <time>2022-09-04T08:56:03Z</time>
      </trkpt>
      <trkpt lat="42.95747" lon="-0.21562">
        <ele>903.8</ele>
        <time>2022-09-04T08:56:05Z</time>
      </trkpt>
      <trkpt lat="42.95738" lon="-0.21568">
        <ele>903.2</ele>
        <time>2022-09-04T08:56:06Z</time>
      </trkpt>
      <trkpt lat="42.95728" lon="-0.21571">
        <ele>902.2</ele>
        <time>2022-09-04T08:56:07Z</time>
      </trkpt>
      <trkpt lat="42.95718" lon="-0.2157">
        <ele>901.6</ele>
        <time>2022-09-04T08:56:08Z</time>
      </trkpt>
      <trkpt lat="42.95708" lon="-0.21566">
        <ele>899.6</ele>
        <time>2022-09-04T08:56:09Z</time>
      </trkpt>
      <trkpt lat="42.95689" lon="-0.21558">
        <ele>897.2</ele>
        <time>2022-09-04T08:56:11Z</time>
      </trkpt>
      <trkpt lat="42.95679" lon="-0.21552">
        <ele>896.4</ele>
        <time>2022-09-04T08:56:12Z</time>
      </trkpt>
      <trkpt lat="42.95671" lon="-0.21546">
        <ele>895.4</ele>
        <time>2022-09-04T08:56:13Z</time>
      </trkpt>
      <trkpt lat="42.95663" lon="-0.21539">
        <ele>894.8</ele>
        <time>2022-09-04T08:56:14Z</time>
      </trkpt>
      <trkpt lat="42.95656" lon="-0.21531">
        <ele>893.6</ele>
        <time>2022-09-04T08:56:15Z</time>
      </trkpt>
      <trkpt lat="42.95642" lon="-0.21512">
        <ele>892.6</ele>
        <time>2022-09-04T08:56:17Z</time>
      </trkpt>
      <trkpt lat="42.95631" lon="-0.21479">
        <ele>891.2</ele>
        <time>2022-09-04T08:56:20Z</time>
      </trkpt>
      <trkpt lat="42.95615" lon="-0.21436">
        <ele>890.2</ele>
        <time>2022-09-04T08:56:24Z</time>
      </trkpt>
      <trkpt lat="42.95614" lon="-0.21425">
        <ele>890</ele>
        <time>2022-09-04T08:56:25Z</time>
      </trkpt>
      <trkpt lat="42.95614" lon="-0.21393">
        <ele>888.6</ele>
        <time>2022-09-04T08:56:28Z</time>
      </trkpt>
      <trkpt lat="42.95614" lon="-0.21382">
        <ele>888.4</ele>
        <time>2022-09-04T08:56:29Z</time>
      </trkpt>
      <trkpt lat="42.95616" lon="-0.21372">
        <ele>888</ele>
        <time>2022-09-04T08:56:30Z</time>
      </trkpt>
      <trkpt lat="42.9562" lon="-0.21363">
        <ele>887.8</ele>
        <time>2022-09-04T08:56:31Z</time>
      </trkpt>
      <trkpt lat="42.95625" lon="-0.21354">
        <ele>887.4</ele>
        <time>2022-09-04T08:56:32Z</time>
      </trkpt>
      <trkpt lat="42.95631" lon="-0.21346">
        <ele>887.2</ele>
        <time>2022-09-04T08:56:33Z</time>
      </trkpt>
      <trkpt lat="42.95651" lon="-0.21314">
        <ele>886.4</ele>
        <time>2022-09-04T08:56:37Z</time>
      </trkpt>
      <trkpt lat="42.95655" lon="-0.21304">
        <ele>886</ele>
        <time>2022-09-04T08:56:38Z</time>
      </trkpt>
      <trkpt lat="42.95661" lon="-0.21284">
        <ele>885.6</ele>
        <time>2022-09-04T08:56:40Z</time>
      </trkpt>
      <trkpt lat="42.95664" lon="-0.21262">
        <ele>885.2</ele>
        <time>2022-09-04T08:56:42Z</time>
      </trkpt>
      <trkpt lat="42.95665" lon="-0.21251">
        <ele>885</ele>
        <time>2022-09-04T08:56:43Z</time>
      </trkpt>
      <trkpt lat="42.95667" lon="-0.2123">
        <ele>884.6</ele>
        <time>2022-09-04T08:56:45Z</time>
      </trkpt>
      <trkpt lat="42.95672" lon="-0.2121">
        <ele>884.4</ele>
        <time>2022-09-04T08:56:47Z</time>
      </trkpt>
      <trkpt lat="42.95675" lon="-0.212">
        <ele>884.2</ele>
        <time>2022-09-04T08:56:48Z</time>
      </trkpt>
      <trkpt lat="42.95701" lon="-0.21125">
        <ele>883.4</ele>
        <time>2022-09-04T08:56:56Z</time>
      </trkpt>
      <trkpt lat="42.95708" lon="-0.21105">
        <ele>883.2</ele>
        <time>2022-09-04T08:56:58Z</time>
      </trkpt>
      <trkpt lat="42.95716" lon="-0.21087">
        <ele>883</ele>
        <time>2022-09-04T08:57:00Z</time>
      </trkpt>
      <trkpt lat="42.95725" lon="-0.21069">
        <ele>882.6</ele>
        <time>2022-09-04T08:57:02Z</time>
      </trkpt>
      <trkpt lat="42.9574" lon="-0.21044">
        <ele>881.8</ele>
        <time>2022-09-04T08:57:05Z</time>
      </trkpt>
      <trkpt lat="42.95777" lon="-0.20985">
        <ele>881.4</ele>
        <time>2022-09-04T08:57:12Z</time>
      </trkpt>
      <trkpt lat="42.95798" lon="-0.20952">
        <ele>880.8</ele>
        <time>2022-09-04T08:57:16Z</time>
      </trkpt>
      <trkpt lat="42.95824" lon="-0.2091">
        <ele>880</ele>
        <time>2022-09-04T08:57:21Z</time>
      </trkpt>
      <trkpt lat="42.95834" lon="-0.20893">
        <ele>879.8</ele>
        <time>2022-09-04T08:57:23Z</time>
      </trkpt>
      <trkpt lat="42.95863" lon="-0.20841">
        <ele>879.4</ele>
        <time>2022-09-04T08:57:29Z</time>
      </trkpt>
      <trkpt lat="42.95881" lon="-0.20805">
        <ele>878.8</ele>
        <time>2022-09-04T08:57:33Z</time>
      </trkpt>
      <trkpt lat="42.95909" lon="-0.20752">
        <ele>877.8</ele>
        <time>2022-09-04T08:57:39Z</time>
      </trkpt>
      <trkpt lat="42.95914" lon="-0.20743">
        <ele>877.8</ele>
        <time>2022-09-04T08:57:40Z</time>
      </trkpt>
      <trkpt lat="42.95949" lon="-0.20688">
        <ele>877.2</ele>
        <time>2022-09-04T08:57:47Z</time>
      </trkpt>
      <trkpt lat="42.95955" lon="-0.2068">
        <ele>877</ele>
        <time>2022-09-04T08:57:48Z</time>
      </trkpt>
      <trkpt lat="42.9596" lon="-0.20673">
        <ele>877</ele>
        <time>2022-09-04T08:57:49Z</time>
      </trkpt>
      <trkpt lat="42.95995" lon="-0.20619">
        <ele>875.8</ele>
        <time>2022-09-04T08:57:56Z</time>
      </trkpt>
      <trkpt lat="42.95999" lon="-0.20611">
        <ele>875.6</ele>
        <time>2022-09-04T08:57:57Z</time>
      </trkpt>
      <trkpt lat="42.96014" lon="-0.20576">
        <ele>874.8</ele>
        <time>2022-09-04T08:58:01Z</time>
      </trkpt>
      <trkpt lat="42.9602" lon="-0.20558">
        <ele>874.8</ele>
        <time>2022-09-04T08:58:03Z</time>
      </trkpt>
      <trkpt lat="42.96045" lon="-0.20488">
        <ele>874.2</ele>
        <time>2022-09-04T08:58:11Z</time>
      </trkpt>
      <trkpt lat="42.96055" lon="-0.20462">
        <ele>874.2</ele>
        <time>2022-09-04T08:58:14Z</time>
      </trkpt>
      <trkpt lat="42.96066" lon="-0.20429">
        <ele>874.2</ele>
        <time>2022-09-04T08:58:18Z</time>
      </trkpt>
      <trkpt lat="42.9608" lon="-0.20389">
        <ele>874</ele>
        <time>2022-09-04T08:58:23Z</time>
      </trkpt>
      <trkpt lat="42.96109" lon="-0.20324">
        <ele>874.4</ele>
        <time>2022-09-04T08:58:32Z</time>
      </trkpt>
      <trkpt lat="42.96139" lon="-0.2028">
        <ele>874.6</ele>
        <time>2022-09-04T08:58:39Z</time>
      </trkpt>
      <trkpt lat="42.96172" lon="-0.20254">
        <ele>874.2</ele>
        <time>2022-09-04T08:58:45Z</time>
      </trkpt>
      <trkpt lat="42.96224" lon="-0.20225">
        <ele>874</ele>
        <time>2022-09-04T08:58:54Z</time>
      </trkpt>
      <trkpt lat="42.96271" lon="-0.202">
        <ele>873.4</ele>
        <time>2022-09-04T08:59:01Z</time>
      </trkpt>
      <trkpt lat="42.96278" lon="-0.20196">
        <ele>873.2</ele>
        <time>2022-09-04T08:59:02Z</time>
      </trkpt>
      <trkpt lat="42.96314" lon="-0.20176">
        <ele>872.2</ele>
        <time>2022-09-04T08:59:07Z</time>
      </trkpt>
      <trkpt lat="42.96329" lon="-0.20169">
        <ele>871.6</ele>
        <time>2022-09-04T08:59:09Z</time>
      </trkpt>
      <trkpt lat="42.96344" lon="-0.20163">
        <ele>871.2</ele>
        <time>2022-09-04T08:59:11Z</time>
      </trkpt>
      <trkpt lat="42.96351" lon="-0.2016">
        <ele>871</ele>
        <time>2022-09-04T08:59:12Z</time>
      </trkpt>
      <trkpt lat="42.96374" lon="-0.20156">
        <ele>870.8</ele>
        <time>2022-09-04T08:59:15Z</time>
      </trkpt>
      <trkpt lat="42.96404" lon="-0.20157">
        <ele>870.2</ele>
        <time>2022-09-04T08:59:19Z</time>
      </trkpt>
      <trkpt lat="42.96411" lon="-0.20159">
        <ele>870</ele>
        <time>2022-09-04T08:59:20Z</time>
      </trkpt>
      <trkpt lat="42.96429" lon="-0.20168">
        <ele>869.4</ele>
        <time>2022-09-04T08:59:23Z</time>
      </trkpt>
      <trkpt lat="42.96435" lon="-0.20172">
        <ele>869.4</ele>
        <time>2022-09-04T08:59:24Z</time>
      </trkpt>
      <trkpt lat="42.96439" lon="-0.20177">
        <ele>869.4</ele>
        <time>2022-09-04T08:59:25Z</time>
      </trkpt>
      <trkpt lat="42.96448" lon="-0.20183">
        <ele>869.4</ele>
        <time>2022-09-04T08:59:27Z</time>
      </trkpt>
      <trkpt lat="42.96453" lon="-0.20185">
        <ele>869.4</ele>
        <time>2022-09-04T08:59:28Z</time>
      </trkpt>
      <trkpt lat="42.96458" lon="-0.20185">
        <ele>869.6</ele>
        <time>2022-09-04T08:59:29Z</time>
      </trkpt>
      <trkpt lat="42.96469" lon="-0.20184">
        <ele>869.8</ele>
        <time>2022-09-04T08:59:31Z</time>
      </trkpt>
      <trkpt lat="42.96474" lon="-0.20182">
        <ele>869.8</ele>
        <time>2022-09-04T08:59:32Z</time>
      </trkpt>
      <trkpt lat="42.965" lon="-0.20168">
        <ele>870</ele>
        <time>2022-09-04T08:59:37Z</time>
      </trkpt>
      <trkpt lat="42.96511" lon="-0.20167">
        <ele>870.2</ele>
        <time>2022-09-04T08:59:39Z</time>
      </trkpt>
      <trkpt lat="42.96541" lon="-0.2018">
        <ele>870</ele>
        <time>2022-09-04T08:59:44Z</time>
      </trkpt>
      <trkpt lat="42.96567" lon="-0.20201">
        <ele>870</ele>
        <time>2022-09-04T08:59:49Z</time>
      </trkpt>
      <trkpt lat="42.96577" lon="-0.20211">
        <ele>870</ele>
        <time>2022-09-04T08:59:51Z</time>
      </trkpt>
      <trkpt lat="42.96582" lon="-0.20216">
        <ele>870</ele>
        <time>2022-09-04T08:59:52Z</time>
      </trkpt>
      <trkpt lat="42.96593" lon="-0.2022">
        <ele>870</ele>
        <time>2022-09-04T08:59:54Z</time>
      </trkpt>
      <trkpt lat="42.96611" lon="-0.20227">
        <ele>870</ele>
        <time>2022-09-04T08:59:57Z</time>
      </trkpt>
      <trkpt lat="42.96629" lon="-0.20239">
        <ele>870.2</ele>
        <time>2022-09-04T09:00:00Z</time>
      </trkpt>
      <trkpt lat="42.96654" lon="-0.20249">
        <ele>870</ele>
        <time>2022-09-04T09:00:04Z</time>
      </trkpt>
      <trkpt lat="42.96661" lon="-0.2025">
        <ele>870.2</ele>
        <time>2022-09-04T09:00:05Z</time>
      </trkpt>
      <trkpt lat="42.96668" lon="-0.20249">
        <ele>870</ele>
        <time>2022-09-04T09:00:06Z</time>
      </trkpt>
      <trkpt lat="42.96688" lon="-0.20246">
        <ele>869.8</ele>
        <time>2022-09-04T09:00:09Z</time>
      </trkpt>
      <trkpt lat="42.96702" lon="-0.20243">
        <ele>869.6</ele>
        <time>2022-09-04T09:00:11Z</time>
      </trkpt>
      <trkpt lat="42.96757" lon="-0.20223">
        <ele>868.8</ele>
        <time>2022-09-04T09:00:19Z</time>
      </trkpt>
      <trkpt lat="42.96813" lon="-0.2019">
        <ele>868.4</ele>
        <time>2022-09-04T09:00:28Z</time>
      </trkpt>
      <trkpt lat="42.96844" lon="-0.20158">
        <ele>868.8</ele>
        <time>2022-09-04T09:00:34Z</time>
      </trkpt>
      <trkpt lat="42.96881" lon="-0.2011">
        <ele>869</ele>
        <time>2022-09-04T09:00:41Z</time>
      </trkpt>
      <trkpt lat="42.96923" lon="-0.20054">
        <ele>868.4</ele>
        <time>2022-09-04T09:00:48Z</time>
      </trkpt>
      <trkpt lat="42.96929" lon="-0.20046">
        <ele>867.8</ele>
        <time>2022-09-04T09:00:49Z</time>
      </trkpt>
      <trkpt lat="42.96944" lon="-0.2002">
        <ele>866.8</ele>
        <time>2022-09-04T09:00:52Z</time>
      </trkpt>
      <trkpt lat="42.96954" lon="-0.2">
        <ele>866.6</ele>
        <time>2022-09-04T09:00:54Z</time>
      </trkpt>
      <trkpt lat="42.96973" lon="-0.19945">
        <ele>865.8</ele>
        <time>2022-09-04T09:00:59Z</time>
      </trkpt>
      <trkpt lat="42.96976" lon="-0.19937">
        <ele>865.6</ele>
        <time>2022-09-04T09:01:00Z</time>
      </trkpt>
      <trkpt lat="42.9699" lon="-0.19897">
        <ele>864.6</ele>
        <time>2022-09-04T09:01:04Z</time>
      </trkpt>
      <trkpt lat="42.97008" lon="-0.1985">
        <ele>863.8</ele>
        <time>2022-09-04T09:01:09Z</time>
      </trkpt>
      <trkpt lat="42.9703" lon="-0.19809">
        <ele>862.8</ele>
        <time>2022-09-04T09:01:15Z</time>
      </trkpt>
      <trkpt lat="42.97043" lon="-0.19791">
        <ele>862.8</ele>
        <time>2022-09-04T09:01:18Z</time>
      </trkpt>
      <trkpt lat="42.97055" lon="-0.19775">
        <ele>862.8</ele>
        <time>2022-09-04T09:01:21Z</time>
      </trkpt>
      <trkpt lat="42.97087" lon="-0.19735">
        <ele>863.4</ele>
        <time>2022-09-04T09:01:30Z</time>
      </trkpt>
      <trkpt lat="42.97113" lon="-0.19702">
        <ele>863.6</ele>
        <time>2022-09-04T09:01:38Z</time>
      </trkpt>
      <trkpt lat="42.9713" lon="-0.19675">
        <ele>864.2</ele>
        <time>2022-09-04T09:01:44Z</time>
      </trkpt>
      <trkpt lat="42.97139" lon="-0.19661">
        <ele>864.6</ele>
        <time>2022-09-04T09:01:47Z</time>
      </trkpt>
      <trkpt lat="42.97164" lon="-0.19628">
        <ele>865.4</ele>
        <time>2022-09-04T09:01:55Z</time>
      </trkpt>
      <trkpt lat="42.97184" lon="-0.19596">
        <ele>866.4</ele>
        <time>2022-09-04T09:02:02Z</time>
      </trkpt>
      <trkpt lat="42.97187" lon="-0.19592">
        <ele>866.6</ele>
        <time>2022-09-04T09:02:03Z</time>
      </trkpt>
      <trkpt lat="42.97193" lon="-0.19584">
        <ele>867</ele>
        <time>2022-09-04T09:02:05Z</time>
      </trkpt>
      <trkpt lat="42.97199" lon="-0.19576">
        <ele>867.6</ele>
        <time>2022-09-04T09:02:07Z</time>
      </trkpt>
      <trkpt lat="42.97204" lon="-0.19568">
        <ele>868</ele>
        <time>2022-09-04T09:02:09Z</time>
      </trkpt>
      <trkpt lat="42.97209" lon="-0.19559">
        <ele>868.4</ele>
        <time>2022-09-04T09:02:11Z</time>
      </trkpt>
      <trkpt lat="42.97215" lon="-0.19551">
        <ele>868.6</ele>
        <time>2022-09-04T09:02:13Z</time>
      </trkpt>
      <trkpt lat="42.9723" lon="-0.19532">
        <ele>869.2</ele>
        <time>2022-09-04T09:02:18Z</time>
      </trkpt>
      <trkpt lat="42.97245" lon="-0.19511">
        <ele>870</ele>
        <time>2022-09-04T09:02:23Z</time>
      </trkpt>
      <trkpt lat="42.97252" lon="-0.19507">
        <ele>870.2</ele>
        <time>2022-09-04T09:02:25Z</time>
      </trkpt>
      <trkpt lat="42.97262" lon="-0.19513">
        <ele>870.6</ele>
        <time>2022-09-04T09:02:28Z</time>
      </trkpt>
      <trkpt lat="42.97274" lon="-0.19527">
        <ele>871.2</ele>
        <time>2022-09-04T09:02:33Z</time>
      </trkpt>
      <trkpt lat="42.97276" lon="-0.19527">
        <ele>871.4</ele>
        <time>2022-09-04T09:02:34Z</time>
      </trkpt>
      <trkpt lat="42.97279" lon="-0.19527">
        <ele>871.6</ele>
        <time>2022-09-04T09:02:35Z</time>
      </trkpt>
      <trkpt lat="42.97281" lon="-0.19525">
        <ele>872</ele>
        <time>2022-09-04T09:02:36Z</time>
      </trkpt>
      <trkpt lat="42.97283" lon="-0.19523">
        <ele>872.4</ele>
        <time>2022-09-04T09:02:37Z</time>
      </trkpt>
      <trkpt lat="42.97288" lon="-0.19516">
        <ele>873.2</ele>
        <time>2022-09-04T09:02:40Z</time>
      </trkpt>
      <trkpt lat="42.9729" lon="-0.19513">
        <ele>873.4</ele>
        <time>2022-09-04T09:02:41Z</time>
      </trkpt>
      <trkpt lat="42.97297" lon="-0.19501">
        <ele>874.4</ele>
        <time>2022-09-04T09:02:47Z</time>
      </trkpt>
      <trkpt lat="42.97299" lon="-0.1949">
        <ele>874.6</ele>
        <time>2022-09-04T09:02:52Z</time>
      </trkpt>
      <trkpt lat="42.973" lon="-0.19489">
        <ele>874.6</ele>
        <time>2022-09-04T09:02:53Z</time>
      </trkpt>
      <trkpt lat="42.973" lon="-0.19489">
        <ele>874.6</ele>
        <time>2022-09-04T09:03:04Z</time>
      </trkpt>
      <trkpt lat="42.973" lon="-0.19489">
        <ele>874.6</ele>
        <time>2022-09-04T09:03:06Z</time>
      </trkpt>
    </trkseg>
  </trk>
</gpx>